<?xml version="1.0" encoding="UTF-8" standalone="no" ?>
<gpx xmlns="http://www.topografix.com/GPX/1/1" xmlns:xsi="http://www.w3.org/2001/XMLSchema-instance" xsi:schemaLocation="http://www.topografix.com/GPX/1/1 http://www.topografix.com/GPX/1/1/gpx.xsd" version="1.1" creator="VisuGPX - https://www.visugpx.com">
  <metadata>
    <name>Sapinette 2016 - 50 km</name>
    <desc><![CDATA[Le tracé du circuit de 50 km de la sapinette 2016.
Un beau circuit de VTT avec très peu de bitume.]]></desc>
  </metadata>
  <trk>
    <name><![CDATA[Sapinette 2016]]></name>
    <desc><![CDATA[25 sept. 2016  8:21 am]]></desc>
    <trkseg>
      <trkpt lat="47.2375" lon="6.18544">
        <ele>424.719</ele>
        <time>2016-09-25T06:21:41.664Z</time>
      </trkpt>
      <trkpt lat="47.2375" lon="6.18544">
        <ele>428.551</ele>
        <time>2016-09-25T06:22:44.807Z</time>
      </trkpt>
      <trkpt lat="47.23739" lon="6.18555">
        <ele>431.512</ele>
        <time>2016-09-25T06:22:56.757Z</time>
      </trkpt>
      <trkpt lat="47.23738" lon="6.18556">
        <ele>434.613</ele>
        <time>2016-09-25T06:22:57.681Z</time>
      </trkpt>
      <trkpt lat="47.23729" lon="6.18565">
        <ele>438.212</ele>
        <time>2016-09-25T06:23:05.083Z</time>
      </trkpt>
      <trkpt lat="47.23724" lon="6.18577">
        <ele>440.023</ele>
        <time>2016-09-25T06:23:10.931Z</time>
      </trkpt>
      <trkpt lat="47.23717" lon="6.18588">
        <ele>440.019</ele>
        <time>2016-09-25T06:23:14.841Z</time>
      </trkpt>
      <trkpt lat="47.2371" lon="6.18602">
        <ele>438.911</ele>
        <time>2016-09-25T06:23:18.000Z</time>
      </trkpt>
      <trkpt lat="47.2371" lon="6.18602">
        <ele>437.804</ele>
        <time>2016-09-25T06:23:24.000Z</time>
      </trkpt>
      <trkpt lat="47.2371" lon="6.18602">
        <ele>437.27</ele>
        <time>2016-09-25T06:25:13.530Z</time>
      </trkpt>
      <trkpt lat="47.23706" lon="6.18578">
        <ele>437.153</ele>
        <time>2016-09-25T06:25:25.158Z</time>
      </trkpt>
      <trkpt lat="47.23704" lon="6.18561">
        <ele>436.653</ele>
        <time>2016-09-25T06:25:29.382Z</time>
      </trkpt>
      <trkpt lat="47.23699" lon="6.18549">
        <ele>435.232</ele>
        <time>2016-09-25T06:25:32.511Z</time>
      </trkpt>
      <trkpt lat="47.2369" lon="6.18542">
        <ele>433.635</ele>
        <time>2016-09-25T06:25:35.559Z</time>
      </trkpt>
      <trkpt lat="47.23681" lon="6.18534">
        <ele>432.707</ele>
        <time>2016-09-25T06:25:38.380Z</time>
      </trkpt>
      <trkpt lat="47.23674" lon="6.18521">
        <ele>432.434</ele>
        <time>2016-09-25T06:25:41.296Z</time>
      </trkpt>
      <trkpt lat="47.2367" lon="6.18502">
        <ele>432.704</ele>
        <time>2016-09-25T06:25:44.342Z</time>
      </trkpt>
      <trkpt lat="47.23668" lon="6.18484">
        <ele>433.602</ele>
        <time>2016-09-25T06:25:47.202Z</time>
      </trkpt>
      <trkpt lat="47.23665" lon="6.18467">
        <ele>434.959</ele>
        <time>2016-09-25T06:25:49.928Z</time>
      </trkpt>
      <trkpt lat="47.23669" lon="6.18452">
        <ele>436.147</ele>
        <time>2016-09-25T06:25:52.729Z</time>
      </trkpt>
      <trkpt lat="47.23681" lon="6.18445">
        <ele>436.595</ele>
        <time>2016-09-25T06:25:55.972Z</time>
      </trkpt>
      <trkpt lat="47.23693" lon="6.1844">
        <ele>436.377</ele>
        <time>2016-09-25T06:25:59.073Z</time>
      </trkpt>
      <trkpt lat="47.23703" lon="6.18432">
        <ele>436.125</ele>
        <time>2016-09-25T06:26:01.968Z</time>
      </trkpt>
      <trkpt lat="47.23711" lon="6.18424">
        <ele>436.439</ele>
        <time>2016-09-25T06:26:04.679Z</time>
      </trkpt>
      <trkpt lat="47.2372" lon="6.18416">
        <ele>437.348</ele>
        <time>2016-09-25T06:26:07.702Z</time>
      </trkpt>
      <trkpt lat="47.2373" lon="6.18408">
        <ele>438.408</ele>
        <time>2016-09-25T06:26:11.096Z</time>
      </trkpt>
      <trkpt lat="47.2374" lon="6.18404">
        <ele>439.534</ele>
        <time>2016-09-25T06:26:14.563Z</time>
      </trkpt>
      <trkpt lat="47.23752" lon="6.18404">
        <ele>440.838</ele>
        <time>2016-09-25T06:26:18.490Z</time>
      </trkpt>
      <trkpt lat="47.23763" lon="6.18399">
        <ele>441.836</ele>
        <time>2016-09-25T06:26:22.053Z</time>
      </trkpt>
      <trkpt lat="47.23773" lon="6.18396">
        <ele>442.088</ele>
        <time>2016-09-25T06:26:25.682Z</time>
      </trkpt>
      <trkpt lat="47.23784" lon="6.18397">
        <ele>442.184</ele>
        <time>2016-09-25T06:26:29.154Z</time>
      </trkpt>
      <trkpt lat="47.23795" lon="6.18402">
        <ele>442.959</ele>
        <time>2016-09-25T06:26:32.970Z</time>
      </trkpt>
      <trkpt lat="47.23804" lon="6.18393">
        <ele>444.357</ele>
        <time>2016-09-25T06:26:36.725Z</time>
      </trkpt>
      <trkpt lat="47.23812" lon="6.18381">
        <ele>446.047</ele>
        <time>2016-09-25T06:26:40.440Z</time>
      </trkpt>
      <trkpt lat="47.23816" lon="6.18366">
        <ele>447.937</ele>
        <time>2016-09-25T06:26:44.140Z</time>
      </trkpt>
      <trkpt lat="47.23816" lon="6.1835">
        <ele>449.491</ele>
        <time>2016-09-25T06:26:47.778Z</time>
      </trkpt>
      <trkpt lat="47.23815" lon="6.18334">
        <ele>450.036</ele>
        <time>2016-09-25T06:26:51.442Z</time>
      </trkpt>
      <trkpt lat="47.23817" lon="6.1832">
        <ele>449.722</ele>
        <time>2016-09-25T06:26:54.717Z</time>
      </trkpt>
      <trkpt lat="47.23822" lon="6.18307">
        <ele>449.338</ele>
        <time>2016-09-25T06:26:58.176Z</time>
      </trkpt>
      <trkpt lat="47.23825" lon="6.18292">
        <ele>449.795</ele>
        <time>2016-09-25T06:27:01.806Z</time>
      </trkpt>
      <trkpt lat="47.23818" lon="6.18284">
        <ele>451.08</ele>
        <time>2016-09-25T06:27:05.066Z</time>
      </trkpt>
      <trkpt lat="47.23808" lon="6.18279">
        <ele>452.296</ele>
        <time>2016-09-25T06:27:09.131Z</time>
      </trkpt>
      <trkpt lat="47.23799" lon="6.18274">
        <ele>452.869</ele>
        <time>2016-09-25T06:27:12.743Z</time>
      </trkpt>
      <trkpt lat="47.2379" lon="6.18268">
        <ele>452.975</ele>
        <time>2016-09-25T06:27:16.458Z</time>
      </trkpt>
      <trkpt lat="47.23781" lon="6.18263">
        <ele>452.925</ele>
        <time>2016-09-25T06:27:20.112Z</time>
      </trkpt>
      <trkpt lat="47.23772" lon="6.18257">
        <ele>452.904</ele>
        <time>2016-09-25T06:27:23.148Z</time>
      </trkpt>
      <trkpt lat="47.23762" lon="6.1825">
        <ele>452.935</ele>
        <time>2016-09-25T06:27:26.351Z</time>
      </trkpt>
      <trkpt lat="47.23753" lon="6.1824">
        <ele>452.742</ele>
        <time>2016-09-25T06:27:29.844Z</time>
      </trkpt>
      <trkpt lat="47.23746" lon="6.18229">
        <ele>452.16</ele>
        <time>2016-09-25T06:27:32.388Z</time>
      </trkpt>
      <trkpt lat="47.23735" lon="6.18219">
        <ele>451.433</ele>
        <time>2016-09-25T06:27:35.385Z</time>
      </trkpt>
      <trkpt lat="47.23729" lon="6.18206">
        <ele>450.843</ele>
        <time>2016-09-25T06:27:37.553Z</time>
      </trkpt>
      <trkpt lat="47.23722" lon="6.18192">
        <ele>450.494</ele>
        <time>2016-09-25T06:27:40.141Z</time>
      </trkpt>
      <trkpt lat="47.23715" lon="6.18177">
        <ele>450.399</ele>
        <time>2016-09-25T06:27:42.895Z</time>
      </trkpt>
      <trkpt lat="47.23715" lon="6.18163">
        <ele>450.425</ele>
        <time>2016-09-25T06:27:45.049Z</time>
      </trkpt>
      <trkpt lat="47.23726" lon="6.18157">
        <ele>450.626</ele>
        <time>2016-09-25T06:27:47.593Z</time>
      </trkpt>
      <trkpt lat="47.23737" lon="6.1815">
        <ele>451.27</ele>
        <time>2016-09-25T06:27:50.619Z</time>
      </trkpt>
      <trkpt lat="47.23748" lon="6.18145">
        <ele>452.244</ele>
        <time>2016-09-25T06:27:53.623Z</time>
      </trkpt>
      <trkpt lat="47.23761" lon="6.18136">
        <ele>453.124</ele>
        <time>2016-09-25T06:27:56.894Z</time>
      </trkpt>
      <trkpt lat="47.23772" lon="6.18128">
        <ele>453.774</ele>
        <time>2016-09-25T06:27:59.682Z</time>
      </trkpt>
      <trkpt lat="47.23784" lon="6.18118">
        <ele>454.221</ele>
        <time>2016-09-25T06:28:02.363Z</time>
      </trkpt>
      <trkpt lat="47.23796" lon="6.1811">
        <ele>454.419</ele>
        <time>2016-09-25T06:28:05.131Z</time>
      </trkpt>
      <trkpt lat="47.23808" lon="6.181">
        <ele>454.398</ele>
        <time>2016-09-25T06:28:07.931Z</time>
      </trkpt>
      <trkpt lat="47.23817" lon="6.18095">
        <ele>454.245</ele>
        <time>2016-09-25T06:28:09.712Z</time>
      </trkpt>
      <trkpt lat="47.23826" lon="6.18093">
        <ele>454.053</ele>
        <time>2016-09-25T06:28:11.515Z</time>
      </trkpt>
      <trkpt lat="47.2384" lon="6.18094">
        <ele>453.797</ele>
        <time>2016-09-25T06:28:14.292Z</time>
      </trkpt>
      <trkpt lat="47.23855" lon="6.18096">
        <ele>453.44</ele>
        <time>2016-09-25T06:28:17.138Z</time>
      </trkpt>
      <trkpt lat="47.2387" lon="6.18096">
        <ele>453.112</ele>
        <time>2016-09-25T06:28:20.050Z</time>
      </trkpt>
      <trkpt lat="47.23882" lon="6.18094">
        <ele>452.597</ele>
        <time>2016-09-25T06:28:22.361Z</time>
      </trkpt>
      <trkpt lat="47.23893" lon="6.18071">
        <ele>451.493</ele>
        <time>2016-09-25T06:28:25.997Z</time>
      </trkpt>
      <trkpt lat="47.23899" lon="6.18057">
        <ele>449.771</ele>
        <time>2016-09-25T06:28:28.124Z</time>
      </trkpt>
      <trkpt lat="47.23906" lon="6.18045">
        <ele>447.928</ele>
        <time>2016-09-25T06:28:29.951Z</time>
      </trkpt>
      <trkpt lat="47.23913" lon="6.18031">
        <ele>446.801</ele>
        <time>2016-09-25T06:28:31.799Z</time>
      </trkpt>
      <trkpt lat="47.23918" lon="6.18017">
        <ele>446.752</ele>
        <time>2016-09-25T06:28:33.569Z</time>
      </trkpt>
      <trkpt lat="47.23927" lon="6.17995">
        <ele>447.378</ele>
        <time>2016-09-25T06:28:36.192Z</time>
      </trkpt>
      <trkpt lat="47.23932" lon="6.17983">
        <ele>448.308</ele>
        <time>2016-09-25T06:28:37.739Z</time>
      </trkpt>
      <trkpt lat="47.23945" lon="6.1797">
        <ele>449.207</ele>
        <time>2016-09-25T06:28:40.225Z</time>
      </trkpt>
      <trkpt lat="47.23954" lon="6.17963">
        <ele>449.431</ele>
        <time>2016-09-25T06:28:41.847Z</time>
      </trkpt>
      <trkpt lat="47.23965" lon="6.17958">
        <ele>448.74</ele>
        <time>2016-09-25T06:28:43.857Z</time>
      </trkpt>
      <trkpt lat="47.23978" lon="6.17951">
        <ele>447.761</ele>
        <time>2016-09-25T06:28:46.365Z</time>
      </trkpt>
      <trkpt lat="47.23988" lon="6.17946">
        <ele>447.165</ele>
        <time>2016-09-25T06:28:48.160Z</time>
      </trkpt>
      <trkpt lat="47.23998" lon="6.17938">
        <ele>447.042</ele>
        <time>2016-09-25T06:28:50.219Z</time>
      </trkpt>
      <trkpt lat="47.24012" lon="6.17932">
        <ele>447.272</ele>
        <time>2016-09-25T06:28:52.913Z</time>
      </trkpt>
      <trkpt lat="47.24023" lon="6.17933">
        <ele>447.589</ele>
        <time>2016-09-25T06:28:54.849Z</time>
      </trkpt>
      <trkpt lat="47.24035" lon="6.17934">
        <ele>447.717</ele>
        <time>2016-09-25T06:28:57.045Z</time>
      </trkpt>
      <trkpt lat="47.24049" lon="6.17937">
        <ele>447.171</ele>
        <time>2016-09-25T06:28:59.655Z</time>
      </trkpt>
      <trkpt lat="47.24068" lon="6.17942">
        <ele>445.816</ele>
        <time>2016-09-25T06:29:03.084Z</time>
      </trkpt>
      <trkpt lat="47.24085" lon="6.17943">
        <ele>444.649</ele>
        <time>2016-09-25T06:29:06.099Z</time>
      </trkpt>
      <trkpt lat="47.24095" lon="6.17941">
        <ele>444.528</ele>
        <time>2016-09-25T06:29:07.923Z</time>
      </trkpt>
      <trkpt lat="47.24117" lon="6.17921">
        <ele>444.978</ele>
        <time>2016-09-25T06:29:11.847Z</time>
      </trkpt>
      <trkpt lat="47.24128" lon="6.17908">
        <ele>445.071</ele>
        <time>2016-09-25T06:29:13.970Z</time>
      </trkpt>
      <trkpt lat="47.24139" lon="6.17886">
        <ele>444.393</ele>
        <time>2016-09-25T06:29:16.794Z</time>
      </trkpt>
      <trkpt lat="47.24145" lon="6.17865">
        <ele>443.379</ele>
        <time>2016-09-25T06:29:19.010Z</time>
      </trkpt>
      <trkpt lat="47.24149" lon="6.17848">
        <ele>442.499</ele>
        <time>2016-09-25T06:29:20.706Z</time>
      </trkpt>
      <trkpt lat="47.24154" lon="6.17826">
        <ele>441.612</ele>
        <time>2016-09-25T06:29:22.862Z</time>
      </trkpt>
      <trkpt lat="47.24164" lon="6.17798">
        <ele>440.374</ele>
        <time>2016-09-25T06:29:25.953Z</time>
      </trkpt>
      <trkpt lat="47.24172" lon="6.17779">
        <ele>438.668</ele>
        <time>2016-09-25T06:29:28.021Z</time>
      </trkpt>
      <trkpt lat="47.24192" lon="6.17762">
        <ele>436.876</ele>
        <time>2016-09-25T06:29:31.050Z</time>
      </trkpt>
      <trkpt lat="47.2421" lon="6.17767">
        <ele>435.465</ele>
        <time>2016-09-25T06:29:33.347Z</time>
      </trkpt>
      <trkpt lat="47.24234" lon="6.17775">
        <ele>434.53</ele>
        <time>2016-09-25T06:29:36.208Z</time>
      </trkpt>
      <trkpt lat="47.2425" lon="6.17784">
        <ele>433.901</ele>
        <time>2016-09-25T06:29:38.146Z</time>
      </trkpt>
      <trkpt lat="47.24276" lon="6.17792">
        <ele>433.348</ele>
        <time>2016-09-25T06:29:41.211Z</time>
      </trkpt>
      <trkpt lat="47.24302" lon="6.17787">
        <ele>431.984</ele>
        <time>2016-09-25T06:29:44.127Z</time>
      </trkpt>
      <trkpt lat="47.24317" lon="6.17785">
        <ele>429.134</ele>
        <time>2016-09-25T06:29:45.759Z</time>
      </trkpt>
      <trkpt lat="47.24334" lon="6.17794">
        <ele>425.84</ele>
        <time>2016-09-25T06:29:47.765Z</time>
      </trkpt>
      <trkpt lat="47.2435" lon="6.17803">
        <ele>423.71</ele>
        <time>2016-09-25T06:29:49.726Z</time>
      </trkpt>
      <trkpt lat="47.24373" lon="6.17803">
        <ele>422.99</ele>
        <time>2016-09-25T06:29:52.159Z</time>
      </trkpt>
      <trkpt lat="47.24392" lon="6.17804">
        <ele>423.092</ele>
        <time>2016-09-25T06:29:54.412Z</time>
      </trkpt>
      <trkpt lat="47.24403" lon="6.17805">
        <ele>423.101</ele>
        <time>2016-09-25T06:29:55.755Z</time>
      </trkpt>
      <trkpt lat="47.24416" lon="6.17799">
        <ele>422.38</ele>
        <time>2016-09-25T06:29:57.691Z</time>
      </trkpt>
      <trkpt lat="47.2442" lon="6.17785">
        <ele>421.381</ele>
        <time>2016-09-25T06:29:59.148Z</time>
      </trkpt>
      <trkpt lat="47.2443" lon="6.17773">
        <ele>420.782</ele>
        <time>2016-09-25T06:30:01.184Z</time>
      </trkpt>
      <trkpt lat="47.2444" lon="6.17765">
        <ele>420.506</ele>
        <time>2016-09-25T06:30:02.925Z</time>
      </trkpt>
      <trkpt lat="47.24456" lon="6.17763">
        <ele>420.347</ele>
        <time>2016-09-25T06:30:05.263Z</time>
      </trkpt>
      <trkpt lat="47.24466" lon="6.1776">
        <ele>420.309</ele>
        <time>2016-09-25T06:30:07.138Z</time>
      </trkpt>
      <trkpt lat="47.24476" lon="6.17759">
        <ele>419.892</ele>
        <time>2016-09-25T06:30:09.227Z</time>
      </trkpt>
      <trkpt lat="47.24492" lon="6.17759">
        <ele>418.788</ele>
        <time>2016-09-25T06:30:13.315Z</time>
      </trkpt>
      <trkpt lat="47.24504" lon="6.17762">
        <ele>417.554</ele>
        <time>2016-09-25T06:30:16.535Z</time>
      </trkpt>
      <trkpt lat="47.24523" lon="6.17771">
        <ele>416.589</ele>
        <time>2016-09-25T06:30:20.659Z</time>
      </trkpt>
      <trkpt lat="47.24532" lon="6.17776">
        <ele>415.666</ele>
        <time>2016-09-25T06:30:22.381Z</time>
      </trkpt>
      <trkpt lat="47.24546" lon="6.17778">
        <ele>414.773</ele>
        <time>2016-09-25T06:30:24.894Z</time>
      </trkpt>
      <trkpt lat="47.24555" lon="6.17782">
        <ele>414.185</ele>
        <time>2016-09-25T06:30:26.543Z</time>
      </trkpt>
      <trkpt lat="47.24567" lon="6.17784">
        <ele>414.276</ele>
        <time>2016-09-25T06:30:28.515Z</time>
      </trkpt>
      <trkpt lat="47.24576" lon="6.17785">
        <ele>415.143</ele>
        <time>2016-09-25T06:30:30.133Z</time>
      </trkpt>
      <trkpt lat="47.24591" lon="6.17786">
        <ele>416.3</ele>
        <time>2016-09-25T06:30:32.839Z</time>
      </trkpt>
      <trkpt lat="47.24601" lon="6.17787">
        <ele>417.128</ele>
        <time>2016-09-25T06:30:34.583Z</time>
      </trkpt>
      <trkpt lat="47.24617" lon="6.17787">
        <ele>417.251</ele>
        <time>2016-09-25T06:30:37.298Z</time>
      </trkpt>
      <trkpt lat="47.24633" lon="6.17786">
        <ele>416.731</ele>
        <time>2016-09-25T06:30:40.035Z</time>
      </trkpt>
      <trkpt lat="47.24647" lon="6.17783">
        <ele>416.079</ele>
        <time>2016-09-25T06:30:42.634Z</time>
      </trkpt>
      <trkpt lat="47.24662" lon="6.17779">
        <ele>415.811</ele>
        <time>2016-09-25T06:30:45.427Z</time>
      </trkpt>
      <trkpt lat="47.24676" lon="6.17775">
        <ele>415.962</ele>
        <time>2016-09-25T06:30:48.454Z</time>
      </trkpt>
      <trkpt lat="47.24689" lon="6.17765">
        <ele>416.055</ele>
        <time>2016-09-25T06:30:51.175Z</time>
      </trkpt>
      <trkpt lat="47.24698" lon="6.17754">
        <ele>415.163</ele>
        <time>2016-09-25T06:30:53.258Z</time>
      </trkpt>
      <trkpt lat="47.2471" lon="6.17735">
        <ele>413.22</ele>
        <time>2016-09-25T06:30:56.416Z</time>
      </trkpt>
      <trkpt lat="47.24724" lon="6.17714">
        <ele>411.664</ele>
        <time>2016-09-25T06:30:59.789Z</time>
      </trkpt>
      <trkpt lat="47.24733" lon="6.17691">
        <ele>411.588</ele>
        <time>2016-09-25T06:31:03.038Z</time>
      </trkpt>
      <trkpt lat="47.2474" lon="6.17671">
        <ele>412.534</ele>
        <time>2016-09-25T06:31:05.765Z</time>
      </trkpt>
      <trkpt lat="47.24744" lon="6.17654">
        <ele>413.592</ele>
        <time>2016-09-25T06:31:07.883Z</time>
      </trkpt>
      <trkpt lat="47.24749" lon="6.17636">
        <ele>414.246</ele>
        <time>2016-09-25T06:31:10.270Z</time>
      </trkpt>
      <trkpt lat="47.24753" lon="6.17609">
        <ele>414.519</ele>
        <time>2016-09-25T06:31:13.436Z</time>
      </trkpt>
      <trkpt lat="47.24753" lon="6.17592">
        <ele>414.814</ele>
        <time>2016-09-25T06:31:15.292Z</time>
      </trkpt>
      <trkpt lat="47.24754" lon="6.17576">
        <ele>415.357</ele>
        <time>2016-09-25T06:31:17.072Z</time>
      </trkpt>
      <trkpt lat="47.24758" lon="6.17547">
        <ele>415.935</ele>
        <time>2016-09-25T06:31:19.990Z</time>
      </trkpt>
      <trkpt lat="47.24763" lon="6.1752">
        <ele>416.344</ele>
        <time>2016-09-25T06:31:22.670Z</time>
      </trkpt>
      <trkpt lat="47.24768" lon="6.17506">
        <ele>416.723</ele>
        <time>2016-09-25T06:31:24.325Z</time>
      </trkpt>
      <trkpt lat="47.24778" lon="6.1748">
        <ele>417.237</ele>
        <time>2016-09-25T06:31:27.216Z</time>
      </trkpt>
      <trkpt lat="47.24789" lon="6.17459">
        <ele>417.773</ele>
        <time>2016-09-25T06:31:29.909Z</time>
      </trkpt>
      <trkpt lat="47.24799" lon="6.17445">
        <ele>418.131</ele>
        <time>2016-09-25T06:31:31.880Z</time>
      </trkpt>
      <trkpt lat="47.24812" lon="6.17429">
        <ele>418.288</ele>
        <time>2016-09-25T06:31:34.348Z</time>
      </trkpt>
      <trkpt lat="47.2482" lon="6.17419">
        <ele>418.046</ele>
        <time>2016-09-25T06:31:35.967Z</time>
      </trkpt>
      <trkpt lat="47.24833" lon="6.174">
        <ele>417.046</ele>
        <time>2016-09-25T06:31:38.601Z</time>
      </trkpt>
      <trkpt lat="47.2484" lon="6.17385">
        <ele>415.046</ele>
        <time>2016-09-25T06:31:40.329Z</time>
      </trkpt>
      <trkpt lat="47.24852" lon="6.17364">
        <ele>412.528</ele>
        <time>2016-09-25T06:31:42.966Z</time>
      </trkpt>
      <trkpt lat="47.24864" lon="6.17348">
        <ele>410.484</ele>
        <time>2016-09-25T06:31:45.257Z</time>
      </trkpt>
      <trkpt lat="47.24873" lon="6.17329">
        <ele>409.371</ele>
        <time>2016-09-25T06:31:47.619Z</time>
      </trkpt>
      <trkpt lat="47.24884" lon="6.1731">
        <ele>408.922</ele>
        <time>2016-09-25T06:31:50.029Z</time>
      </trkpt>
      <trkpt lat="47.2489" lon="6.17288">
        <ele>408.837</ele>
        <time>2016-09-25T06:31:52.391Z</time>
      </trkpt>
      <trkpt lat="47.24892" lon="6.17272">
        <ele>408.866</ele>
        <time>2016-09-25T06:31:54.129Z</time>
      </trkpt>
      <trkpt lat="47.24892" lon="6.17246">
        <ele>408.668</ele>
        <time>2016-09-25T06:31:56.875Z</time>
      </trkpt>
      <trkpt lat="47.24891" lon="6.17224">
        <ele>408.053</ele>
        <time>2016-09-25T06:31:59.212Z</time>
      </trkpt>
      <trkpt lat="47.24894" lon="6.17201">
        <ele>407.393</ele>
        <time>2016-09-25T06:32:01.701Z</time>
      </trkpt>
      <trkpt lat="47.24904" lon="6.17169">
        <ele>407.053</ele>
        <time>2016-09-25T06:32:05.404Z</time>
      </trkpt>
      <trkpt lat="47.24919" lon="6.17144">
        <ele>406.833</ele>
        <time>2016-09-25T06:32:09.008Z</time>
      </trkpt>
      <trkpt lat="47.24934" lon="6.17136">
        <ele>406.513</ele>
        <time>2016-09-25T06:32:11.724Z</time>
      </trkpt>
      <trkpt lat="47.24954" lon="6.1713">
        <ele>406.19</ele>
        <time>2016-09-25T06:32:15.074Z</time>
      </trkpt>
      <trkpt lat="47.24973" lon="6.17128">
        <ele>405.838</ele>
        <time>2016-09-25T06:32:18.120Z</time>
      </trkpt>
      <trkpt lat="47.24982" lon="6.17131">
        <ele>405.109</ele>
        <time>2016-09-25T06:32:19.683Z</time>
      </trkpt>
      <trkpt lat="47.24995" lon="6.17132">
        <ele>404.057</ele>
        <time>2016-09-25T06:32:21.555Z</time>
      </trkpt>
      <trkpt lat="47.25009" lon="6.17136">
        <ele>403.156</ele>
        <time>2016-09-25T06:32:23.431Z</time>
      </trkpt>
      <trkpt lat="47.2502" lon="6.17136">
        <ele>402.646</ele>
        <time>2016-09-25T06:32:24.827Z</time>
      </trkpt>
      <trkpt lat="47.25034" lon="6.17138">
        <ele>402.761</ele>
        <time>2016-09-25T06:32:26.563Z</time>
      </trkpt>
      <trkpt lat="47.25044" lon="6.17139">
        <ele>403.559</ele>
        <time>2016-09-25T06:32:27.739Z</time>
      </trkpt>
      <trkpt lat="47.25058" lon="6.17141">
        <ele>404.213</ele>
        <time>2016-09-25T06:32:29.304Z</time>
      </trkpt>
      <trkpt lat="47.25072" lon="6.17143">
        <ele>404.071</ele>
        <time>2016-09-25T06:32:30.957Z</time>
      </trkpt>
      <trkpt lat="47.25083" lon="6.17141">
        <ele>403.609</ele>
        <time>2016-09-25T06:32:32.198Z</time>
      </trkpt>
      <trkpt lat="47.25094" lon="6.17132">
        <ele>403.711</ele>
        <time>2016-09-25T06:32:33.602Z</time>
      </trkpt>
      <trkpt lat="47.25099" lon="6.17122">
        <ele>404.675</ele>
        <time>2016-09-25T06:32:34.664Z</time>
      </trkpt>
      <trkpt lat="47.2511" lon="6.17114">
        <ele>406.07</ele>
        <time>2016-09-25T06:32:36.155Z</time>
      </trkpt>
      <trkpt lat="47.25117" lon="6.17107">
        <ele>407.102</ele>
        <time>2016-09-25T06:32:37.361Z</time>
      </trkpt>
      <trkpt lat="47.25128" lon="6.17099">
        <ele>407.504</ele>
        <time>2016-09-25T06:32:39.066Z</time>
      </trkpt>
      <trkpt lat="47.25137" lon="6.17096">
        <ele>407.501</ele>
        <time>2016-09-25T06:32:40.556Z</time>
      </trkpt>
      <trkpt lat="47.25146" lon="6.17094">
        <ele>407.44</ele>
        <time>2016-09-25T06:32:42.005Z</time>
      </trkpt>
      <trkpt lat="47.25158" lon="6.17091">
        <ele>407.611</ele>
        <time>2016-09-25T06:32:43.944Z</time>
      </trkpt>
      <trkpt lat="47.25168" lon="6.17089">
        <ele>408.065</ele>
        <time>2016-09-25T06:32:45.693Z</time>
      </trkpt>
      <trkpt lat="47.25176" lon="6.1708">
        <ele>408.488</ele>
        <time>2016-09-25T06:32:47.409Z</time>
      </trkpt>
      <trkpt lat="47.25184" lon="6.17072">
        <ele>408.839</ele>
        <time>2016-09-25T06:32:49.251Z</time>
      </trkpt>
      <trkpt lat="47.25194" lon="6.17068">
        <ele>409.33</ele>
        <time>2016-09-25T06:32:51.472Z</time>
      </trkpt>
      <trkpt lat="47.25204" lon="6.17061">
        <ele>410.385</ele>
        <time>2016-09-25T06:32:53.939Z</time>
      </trkpt>
      <trkpt lat="47.25214" lon="6.17055">
        <ele>412.158</ele>
        <time>2016-09-25T06:32:56.186Z</time>
      </trkpt>
      <trkpt lat="47.25225" lon="6.17047">
        <ele>413.976</ele>
        <time>2016-09-25T06:32:58.371Z</time>
      </trkpt>
      <trkpt lat="47.25234" lon="6.17038">
        <ele>414.971</ele>
        <time>2016-09-25T06:33:00.522Z</time>
      </trkpt>
      <trkpt lat="47.25237" lon="6.17023">
        <ele>415.089</ele>
        <time>2016-09-25T06:33:02.575Z</time>
      </trkpt>
      <trkpt lat="47.25241" lon="6.17007">
        <ele>414.904</ele>
        <time>2016-09-25T06:33:05.094Z</time>
      </trkpt>
      <trkpt lat="47.25245" lon="6.16992">
        <ele>414.862</ele>
        <time>2016-09-25T06:33:07.730Z</time>
      </trkpt>
      <trkpt lat="47.2525" lon="6.16977">
        <ele>415.022</ele>
        <time>2016-09-25T06:33:10.798Z</time>
      </trkpt>
      <trkpt lat="47.25254" lon="6.16962">
        <ele>415.482</ele>
        <time>2016-09-25T06:33:13.740Z</time>
      </trkpt>
      <trkpt lat="47.2526" lon="6.16946">
        <ele>416.222</ele>
        <time>2016-09-25T06:33:17.553Z</time>
      </trkpt>
      <trkpt lat="47.25265" lon="6.16933">
        <ele>416.855</ele>
        <time>2016-09-25T06:33:20.622Z</time>
      </trkpt>
      <trkpt lat="47.25271" lon="6.16912">
        <ele>417.134</ele>
        <time>2016-09-25T06:33:25.292Z</time>
      </trkpt>
      <trkpt lat="47.25277" lon="6.16891">
        <ele>417.308</ele>
        <time>2016-09-25T06:33:30.088Z</time>
      </trkpt>
      <trkpt lat="47.25278" lon="6.16877">
        <ele>417.733</ele>
        <time>2016-09-25T06:33:33.020Z</time>
      </trkpt>
      <trkpt lat="47.25277" lon="6.1686">
        <ele>418.902</ele>
        <time>2016-09-25T06:33:36.560Z</time>
      </trkpt>
      <trkpt lat="47.2528" lon="6.16844">
        <ele>421.529</ele>
        <time>2016-09-25T06:33:40.154Z</time>
      </trkpt>
      <trkpt lat="47.25283" lon="6.1683">
        <ele>425.653</ele>
        <time>2016-09-25T06:33:43.432Z</time>
      </trkpt>
      <trkpt lat="47.25287" lon="6.16815">
        <ele>429.787</ele>
        <time>2016-09-25T06:33:46.913Z</time>
      </trkpt>
      <trkpt lat="47.2529" lon="6.16796">
        <ele>431.799</ele>
        <time>2016-09-25T06:33:51.230Z</time>
      </trkpt>
      <trkpt lat="47.25291" lon="6.16776">
        <ele>431.242</ele>
        <time>2016-09-25T06:33:55.518Z</time>
      </trkpt>
      <trkpt lat="47.25292" lon="6.16759">
        <ele>429.768</ele>
        <time>2016-09-25T06:33:59.306Z</time>
      </trkpt>
      <trkpt lat="47.25294" lon="6.16745">
        <ele>428.42</ele>
        <time>2016-09-25T06:34:02.622Z</time>
      </trkpt>
      <trkpt lat="47.25296" lon="6.1673">
        <ele>427.089</ele>
        <time>2016-09-25T06:34:06.081Z</time>
      </trkpt>
      <trkpt lat="47.25296" lon="6.16714">
        <ele>426.418</ele>
        <time>2016-09-25T06:34:09.610Z</time>
      </trkpt>
      <trkpt lat="47.25295" lon="6.167">
        <ele>426.938</ele>
        <time>2016-09-25T06:34:12.785Z</time>
      </trkpt>
      <trkpt lat="47.25295" lon="6.16686">
        <ele>427.877</ele>
        <time>2016-09-25T06:34:16.093Z</time>
      </trkpt>
      <trkpt lat="47.25295" lon="6.1667">
        <ele>429.063</ele>
        <time>2016-09-25T06:34:19.727Z</time>
      </trkpt>
      <trkpt lat="47.25294" lon="6.16655">
        <ele>431.375</ele>
        <time>2016-09-25T06:34:23.331Z</time>
      </trkpt>
      <trkpt lat="47.25293" lon="6.16641">
        <ele>434.4</ele>
        <time>2016-09-25T06:34:26.600Z</time>
      </trkpt>
      <trkpt lat="47.25294" lon="6.16627">
        <ele>436.616</ele>
        <time>2016-09-25T06:34:29.468Z</time>
      </trkpt>
      <trkpt lat="47.25294" lon="6.16613">
        <ele>437.79</ele>
        <time>2016-09-25T06:34:32.028Z</time>
      </trkpt>
      <trkpt lat="47.25294" lon="6.166">
        <ele>438.923</ele>
        <time>2016-09-25T06:34:34.308Z</time>
      </trkpt>
      <trkpt lat="47.25295" lon="6.16583">
        <ele>440.326</ele>
        <time>2016-09-25T06:34:36.962Z</time>
      </trkpt>
      <trkpt lat="47.25296" lon="6.16568">
        <ele>441.201</ele>
        <time>2016-09-25T06:34:39.583Z</time>
      </trkpt>
      <trkpt lat="47.25301" lon="6.16555">
        <ele>440.315</ele>
        <time>2016-09-25T06:34:42.254Z</time>
      </trkpt>
      <trkpt lat="47.25303" lon="6.16541">
        <ele>437.745</ele>
        <time>2016-09-25T06:34:45.132Z</time>
      </trkpt>
      <trkpt lat="47.25302" lon="6.16524">
        <ele>435.559</ele>
        <time>2016-09-25T06:34:48.927Z</time>
      </trkpt>
      <trkpt lat="47.25301" lon="6.16508">
        <ele>435.801</ele>
        <time>2016-09-25T06:34:52.384Z</time>
      </trkpt>
      <trkpt lat="47.25301" lon="6.16492">
        <ele>438.053</ele>
        <time>2016-09-25T06:34:55.455Z</time>
      </trkpt>
      <trkpt lat="47.25299" lon="6.16477">
        <ele>440.305</ele>
        <time>2016-09-25T06:34:58.186Z</time>
      </trkpt>
      <trkpt lat="47.25297" lon="6.16462">
        <ele>441.453</ele>
        <time>2016-09-25T06:35:01.118Z</time>
      </trkpt>
      <trkpt lat="47.25293" lon="6.16447">
        <ele>442.102</ele>
        <time>2016-09-25T06:35:04.712Z</time>
      </trkpt>
      <trkpt lat="47.2529" lon="6.16431">
        <ele>442.82</ele>
        <time>2016-09-25T06:35:08.352Z</time>
      </trkpt>
      <trkpt lat="47.25286" lon="6.16416">
        <ele>443.739</ele>
        <time>2016-09-25T06:35:11.854Z</time>
      </trkpt>
      <trkpt lat="47.25284" lon="6.16401">
        <ele>444.543</ele>
        <time>2016-09-25T06:35:15.414Z</time>
      </trkpt>
      <trkpt lat="47.25282" lon="6.16387">
        <ele>444.746</ele>
        <time>2016-09-25T06:35:18.913Z</time>
      </trkpt>
      <trkpt lat="47.25279" lon="6.16372">
        <ele>444.437</ele>
        <time>2016-09-25T06:35:23.165Z</time>
      </trkpt>
      <trkpt lat="47.25275" lon="6.16359">
        <ele>444.092</ele>
        <time>2016-09-25T06:35:26.779Z</time>
      </trkpt>
      <trkpt lat="47.25272" lon="6.16345">
        <ele>443.633</ele>
        <time>2016-09-25T06:35:30.457Z</time>
      </trkpt>
      <trkpt lat="47.25271" lon="6.16329">
        <ele>443.192</ele>
        <time>2016-09-25T06:35:34.384Z</time>
      </trkpt>
      <trkpt lat="47.25268" lon="6.16316">
        <ele>443.491</ele>
        <time>2016-09-25T06:35:37.681Z</time>
      </trkpt>
      <trkpt lat="47.25266" lon="6.16299">
        <ele>444.646</ele>
        <time>2016-09-25T06:35:41.885Z</time>
      </trkpt>
      <trkpt lat="47.25264" lon="6.16281">
        <ele>445.507</ele>
        <time>2016-09-25T06:35:46.682Z</time>
      </trkpt>
      <trkpt lat="47.25263" lon="6.16266">
        <ele>444.971</ele>
        <time>2016-09-25T06:35:51.443Z</time>
      </trkpt>
      <trkpt lat="47.25258" lon="6.16244">
        <ele>443.33</ele>
        <time>2016-09-25T06:35:57.958Z</time>
      </trkpt>
      <trkpt lat="47.25254" lon="6.16227">
        <ele>442.045</ele>
        <time>2016-09-25T06:36:02.444Z</time>
      </trkpt>
      <trkpt lat="47.25251" lon="6.16212">
        <ele>441.948</ele>
        <time>2016-09-25T06:36:06.712Z</time>
      </trkpt>
      <trkpt lat="47.25246" lon="6.16196">
        <ele>442.561</ele>
        <time>2016-09-25T06:36:11.451Z</time>
      </trkpt>
      <trkpt lat="47.25241" lon="6.16176">
        <ele>443.328</ele>
        <time>2016-09-25T06:36:19.073Z</time>
      </trkpt>
      <trkpt lat="47.25239" lon="6.16161">
        <ele>444.156</ele>
        <time>2016-09-25T06:36:24.797Z</time>
      </trkpt>
      <trkpt lat="47.25237" lon="6.16144">
        <ele>445.182</ele>
        <time>2016-09-25T06:36:30.473Z</time>
      </trkpt>
      <trkpt lat="47.25237" lon="6.16129">
        <ele>446.339</ele>
        <time>2016-09-25T06:36:35.654Z</time>
      </trkpt>
      <trkpt lat="47.25234" lon="6.16112">
        <ele>447.205</ele>
        <time>2016-09-25T06:36:42.053Z</time>
      </trkpt>
      <trkpt lat="47.2523" lon="6.16095">
        <ele>447.681</ele>
        <time>2016-09-25T06:36:46.512Z</time>
      </trkpt>
      <trkpt lat="47.25226" lon="6.16081">
        <ele>448.036</ele>
        <time>2016-09-25T06:36:49.498Z</time>
      </trkpt>
      <trkpt lat="47.25226" lon="6.16067">
        <ele>448.184</ele>
        <time>2016-09-25T06:36:52.049Z</time>
      </trkpt>
      <trkpt lat="47.25224" lon="6.16053">
        <ele>447.98</ele>
        <time>2016-09-25T06:36:54.393Z</time>
      </trkpt>
      <trkpt lat="47.2522" lon="6.16037">
        <ele>447.643</ele>
        <time>2016-09-25T06:36:57.485Z</time>
      </trkpt>
      <trkpt lat="47.25215" lon="6.1602">
        <ele>447.291</ele>
        <time>2016-09-25T06:37:01.166Z</time>
      </trkpt>
      <trkpt lat="47.25212" lon="6.16002">
        <ele>446.838</ele>
        <time>2016-09-25T06:37:05.420Z</time>
      </trkpt>
      <trkpt lat="47.25209" lon="6.15983">
        <ele>446.404</ele>
        <time>2016-09-25T06:37:09.074Z</time>
      </trkpt>
      <trkpt lat="47.25206" lon="6.1597">
        <ele>446.134</ele>
        <time>2016-09-25T06:37:11.544Z</time>
      </trkpt>
      <trkpt lat="47.25205" lon="6.15956">
        <ele>446.031</ele>
        <time>2016-09-25T06:37:14.108Z</time>
      </trkpt>
      <trkpt lat="47.25203" lon="6.15936">
        <ele>446.093</ele>
        <time>2016-09-25T06:37:18.378Z</time>
      </trkpt>
      <trkpt lat="47.25199" lon="6.15923">
        <ele>446.263</ele>
        <time>2016-09-25T06:37:21.354Z</time>
      </trkpt>
      <trkpt lat="47.25194" lon="6.15904">
        <ele>447.141</ele>
        <time>2016-09-25T06:37:25.768Z</time>
      </trkpt>
      <trkpt lat="47.2519" lon="6.15887">
        <ele>449.085</ele>
        <time>2016-09-25T06:37:30.115Z</time>
      </trkpt>
      <trkpt lat="47.25185" lon="6.15865">
        <ele>450.904</ele>
        <time>2016-09-25T06:37:35.197Z</time>
      </trkpt>
      <trkpt lat="47.25183" lon="6.15844">
        <ele>450.665</ele>
        <time>2016-09-25T06:37:39.482Z</time>
      </trkpt>
      <trkpt lat="47.25182" lon="6.1583">
        <ele>447.891</ele>
        <time>2016-09-25T06:37:41.868Z</time>
      </trkpt>
      <trkpt lat="47.25177" lon="6.15811">
        <ele>444.266</ele>
        <time>2016-09-25T06:37:45.195Z</time>
      </trkpt>
      <trkpt lat="47.25173" lon="6.15791">
        <ele>441.815</ele>
        <time>2016-09-25T06:37:48.401Z</time>
      </trkpt>
      <trkpt lat="47.25169" lon="6.15773">
        <ele>440.819</ele>
        <time>2016-09-25T06:37:51.391Z</time>
      </trkpt>
      <trkpt lat="47.25164" lon="6.15758">
        <ele>440.628</ele>
        <time>2016-09-25T06:37:53.974Z</time>
      </trkpt>
      <trkpt lat="47.25159" lon="6.15741">
        <ele>441.241</ele>
        <time>2016-09-25T06:37:56.810Z</time>
      </trkpt>
      <trkpt lat="47.25154" lon="6.15724">
        <ele>442.789</ele>
        <time>2016-09-25T06:37:59.835Z</time>
      </trkpt>
      <trkpt lat="47.2515" lon="6.15701">
        <ele>444.349</ele>
        <time>2016-09-25T06:38:03.658Z</time>
      </trkpt>
      <trkpt lat="47.25147" lon="6.15686">
        <ele>445.001</ele>
        <time>2016-09-25T06:38:05.988Z</time>
      </trkpt>
      <trkpt lat="47.25146" lon="6.15669">
        <ele>444.921</ele>
        <time>2016-09-25T06:38:08.516Z</time>
      </trkpt>
      <trkpt lat="47.25145" lon="6.15653">
        <ele>445.087</ele>
        <time>2016-09-25T06:38:10.845Z</time>
      </trkpt>
      <trkpt lat="47.25141" lon="6.15637">
        <ele>446.251</ele>
        <time>2016-09-25T06:38:13.406Z</time>
      </trkpt>
      <trkpt lat="47.2514" lon="6.15621">
        <ele>448.247</ele>
        <time>2016-09-25T06:38:16.033Z</time>
      </trkpt>
      <trkpt lat="47.25139" lon="6.15608">
        <ele>450.334</ele>
        <time>2016-09-25T06:38:18.285Z</time>
      </trkpt>
      <trkpt lat="47.25135" lon="6.15596">
        <ele>451.922</ele>
        <time>2016-09-25T06:38:20.655Z</time>
      </trkpt>
      <trkpt lat="47.25131" lon="6.15582">
        <ele>452.835</ele>
        <time>2016-09-25T06:38:23.459Z</time>
      </trkpt>
      <trkpt lat="47.25127" lon="6.15566">
        <ele>452.536</ele>
        <time>2016-09-25T06:38:26.205Z</time>
      </trkpt>
      <trkpt lat="47.25123" lon="6.15553">
        <ele>450.38</ele>
        <time>2016-09-25T06:38:28.283Z</time>
      </trkpt>
      <trkpt lat="47.25122" lon="6.15539">
        <ele>446.865</ele>
        <time>2016-09-25T06:38:30.330Z</time>
      </trkpt>
      <trkpt lat="47.25122" lon="6.15525">
        <ele>443.386</ele>
        <time>2016-09-25T06:38:32.758Z</time>
      </trkpt>
      <trkpt lat="47.25121" lon="6.15511">
        <ele>442.412</ele>
        <time>2016-09-25T06:38:35.707Z</time>
      </trkpt>
      <trkpt lat="47.25119" lon="6.15494">
        <ele>444.983</ele>
        <time>2016-09-25T06:38:39.955Z</time>
      </trkpt>
      <trkpt lat="47.25115" lon="6.15476">
        <ele>448.516</ele>
        <time>2016-09-25T06:38:45.019Z</time>
      </trkpt>
      <trkpt lat="47.25112" lon="6.15457">
        <ele>450.567</ele>
        <time>2016-09-25T06:38:50.370Z</time>
      </trkpt>
      <trkpt lat="47.25107" lon="6.15434">
        <ele>450.734</ele>
        <time>2016-09-25T06:38:56.640Z</time>
      </trkpt>
      <trkpt lat="47.25103" lon="6.15416">
        <ele>449.324</ele>
        <time>2016-09-25T06:39:04.012Z</time>
      </trkpt>
      <trkpt lat="47.25099" lon="6.15399">
        <ele>447.494</ele>
        <time>2016-09-25T06:39:15.672Z</time>
      </trkpt>
      <trkpt lat="47.25093" lon="6.15366">
        <ele>446.342</ele>
        <time>2016-09-25T06:39:30.078Z</time>
      </trkpt>
      <trkpt lat="47.25091" lon="6.15345">
        <ele>445.594</ele>
        <time>2016-09-25T06:39:34.739Z</time>
      </trkpt>
      <trkpt lat="47.25089" lon="6.15329">
        <ele>444.491</ele>
        <time>2016-09-25T06:39:37.645Z</time>
      </trkpt>
      <trkpt lat="47.25085" lon="6.15305">
        <ele>443.073</ele>
        <time>2016-09-25T06:39:41.116Z</time>
      </trkpt>
      <trkpt lat="47.25079" lon="6.15281">
        <ele>442.004</ele>
        <time>2016-09-25T06:39:44.090Z</time>
      </trkpt>
      <trkpt lat="47.25077" lon="6.15265">
        <ele>441.669</ele>
        <time>2016-09-25T06:39:45.977Z</time>
      </trkpt>
      <trkpt lat="47.25073" lon="6.15239">
        <ele>441.949</ele>
        <time>2016-09-25T06:39:49.031Z</time>
      </trkpt>
      <trkpt lat="47.2507" lon="6.15222">
        <ele>442.374</ele>
        <time>2016-09-25T06:39:51.215Z</time>
      </trkpt>
      <trkpt lat="47.25066" lon="6.15198">
        <ele>442.572</ele>
        <time>2016-09-25T06:39:54.282Z</time>
      </trkpt>
      <trkpt lat="47.25062" lon="6.15175">
        <ele>442.231</ele>
        <time>2016-09-25T06:39:57.103Z</time>
      </trkpt>
      <trkpt lat="47.25059" lon="6.1516">
        <ele>441.121</ele>
        <time>2016-09-25T06:39:58.857Z</time>
      </trkpt>
      <trkpt lat="47.25064" lon="6.15141">
        <ele>439.665</ele>
        <time>2016-09-25T06:40:01.222Z</time>
      </trkpt>
      <trkpt lat="47.25075" lon="6.15134">
        <ele>438.538</ele>
        <time>2016-09-25T06:40:03.225Z</time>
      </trkpt>
      <trkpt lat="47.25085" lon="6.1513">
        <ele>437.731</ele>
        <time>2016-09-25T06:40:05.187Z</time>
      </trkpt>
      <trkpt lat="47.25093" lon="6.15124">
        <ele>436.998</ele>
        <time>2016-09-25T06:40:06.947Z</time>
      </trkpt>
      <trkpt lat="47.25095" lon="6.15107">
        <ele>436.577</ele>
        <time>2016-09-25T06:40:09.332Z</time>
      </trkpt>
      <trkpt lat="47.25094" lon="6.15089">
        <ele>436.655</ele>
        <time>2016-09-25T06:40:11.953Z</time>
      </trkpt>
      <trkpt lat="47.2509" lon="6.15073">
        <ele>436.933</ele>
        <time>2016-09-25T06:40:14.995Z</time>
      </trkpt>
      <trkpt lat="47.25085" lon="6.15056">
        <ele>437.433</ele>
        <time>2016-09-25T06:40:18.388Z</time>
      </trkpt>
      <trkpt lat="47.25081" lon="6.15039">
        <ele>438.311</ele>
        <time>2016-09-25T06:40:22.624Z</time>
      </trkpt>
      <trkpt lat="47.25079" lon="6.15025">
        <ele>438.996</ele>
        <time>2016-09-25T06:40:26.269Z</time>
      </trkpt>
      <trkpt lat="47.25075" lon="6.15006">
        <ele>438.867</ele>
        <time>2016-09-25T06:40:31.308Z</time>
      </trkpt>
      <trkpt lat="47.25071" lon="6.14988">
        <ele>438.15</ele>
        <time>2016-09-25T06:40:34.854Z</time>
      </trkpt>
      <trkpt lat="47.25066" lon="6.14971">
        <ele>437.423</ele>
        <time>2016-09-25T06:40:38.038Z</time>
      </trkpt>
      <trkpt lat="47.25061" lon="6.14955">
        <ele>436.784</ele>
        <time>2016-09-25T06:40:40.788Z</time>
      </trkpt>
      <trkpt lat="47.25059" lon="6.14939">
        <ele>436.076</ele>
        <time>2016-09-25T06:40:43.209Z</time>
      </trkpt>
      <trkpt lat="47.25056" lon="6.14923">
        <ele>435.366</ele>
        <time>2016-09-25T06:40:45.610Z</time>
      </trkpt>
      <trkpt lat="47.25053" lon="6.14906">
        <ele>434.883</ele>
        <time>2016-09-25T06:40:48.123Z</time>
      </trkpt>
      <trkpt lat="47.25048" lon="6.14892">
        <ele>434.759</ele>
        <time>2016-09-25T06:40:50.555Z</time>
      </trkpt>
      <trkpt lat="47.25043" lon="6.14875">
        <ele>434.942</ele>
        <time>2016-09-25T06:40:53.349Z</time>
      </trkpt>
      <trkpt lat="47.25041" lon="6.14861">
        <ele>435.316</ele>
        <time>2016-09-25T06:40:55.653Z</time>
      </trkpt>
      <trkpt lat="47.25039" lon="6.14841">
        <ele>435.8</ele>
        <time>2016-09-25T06:40:58.662Z</time>
      </trkpt>
      <trkpt lat="47.25038" lon="6.14821">
        <ele>436.021</ele>
        <time>2016-09-25T06:41:01.834Z</time>
      </trkpt>
      <trkpt lat="47.25033" lon="6.14797">
        <ele>435.753</ele>
        <time>2016-09-25T06:41:05.889Z</time>
      </trkpt>
      <trkpt lat="47.25028" lon="6.14782">
        <ele>435.32</ele>
        <time>2016-09-25T06:41:08.305Z</time>
      </trkpt>
      <trkpt lat="47.25023" lon="6.14766">
        <ele>435.244</ele>
        <time>2016-09-25T06:41:10.575Z</time>
      </trkpt>
      <trkpt lat="47.2502" lon="6.14753">
        <ele>435.615</ele>
        <time>2016-09-25T06:41:12.053Z</time>
      </trkpt>
      <trkpt lat="47.25016" lon="6.14732">
        <ele>435.862</ele>
        <time>2016-09-25T06:41:14.371Z</time>
      </trkpt>
      <trkpt lat="47.25013" lon="6.14719">
        <ele>435.559</ele>
        <time>2016-09-25T06:41:15.965Z</time>
      </trkpt>
      <trkpt lat="47.2501" lon="6.14701">
        <ele>435.317</ele>
        <time>2016-09-25T06:41:18.255Z</time>
      </trkpt>
      <trkpt lat="47.25008" lon="6.14682">
        <ele>435.707</ele>
        <time>2016-09-25T06:41:20.857Z</time>
      </trkpt>
      <trkpt lat="47.25007" lon="6.14661">
        <ele>436.359</ele>
        <time>2016-09-25T06:41:24.087Z</time>
      </trkpt>
      <trkpt lat="47.25" lon="6.14643">
        <ele>436.789</ele>
        <time>2016-09-25T06:41:27.062Z</time>
      </trkpt>
      <trkpt lat="47.24994" lon="6.14626">
        <ele>437.592</ele>
        <time>2016-09-25T06:41:29.867Z</time>
      </trkpt>
      <trkpt lat="47.24989" lon="6.14613">
        <ele>439.397</ele>
        <time>2016-09-25T06:41:32.141Z</time>
      </trkpt>
      <trkpt lat="47.24981" lon="6.14589">
        <ele>441.799</ele>
        <time>2016-09-25T06:41:36.083Z</time>
      </trkpt>
      <trkpt lat="47.24975" lon="6.1457">
        <ele>443.933</ele>
        <time>2016-09-25T06:41:39.084Z</time>
      </trkpt>
      <trkpt lat="47.24968" lon="6.14545">
        <ele>445.235</ele>
        <time>2016-09-25T06:41:43.285Z</time>
      </trkpt>
      <trkpt lat="47.24966" lon="6.1453">
        <ele>445.607</ele>
        <time>2016-09-25T06:41:45.528Z</time>
      </trkpt>
      <trkpt lat="47.24962" lon="6.14516">
        <ele>445.576</ele>
        <time>2016-09-25T06:41:47.443Z</time>
      </trkpt>
      <trkpt lat="47.24958" lon="6.14499">
        <ele>445.877</ele>
        <time>2016-09-25T06:41:49.533Z</time>
      </trkpt>
      <trkpt lat="47.24956" lon="6.14484">
        <ele>447.285</ele>
        <time>2016-09-25T06:41:51.165Z</time>
      </trkpt>
      <trkpt lat="47.2495" lon="6.14463">
        <ele>449.603</ele>
        <time>2016-09-25T06:41:54.084Z</time>
      </trkpt>
      <trkpt lat="47.24947" lon="6.14446">
        <ele>451.577</ele>
        <time>2016-09-25T06:41:57.134Z</time>
      </trkpt>
      <trkpt lat="47.24945" lon="6.14429">
        <ele>452.136</ele>
        <time>2016-09-25T06:42:00.695Z</time>
      </trkpt>
      <trkpt lat="47.2494" lon="6.14405">
        <ele>451.124</ele>
        <time>2016-09-25T06:42:05.021Z</time>
      </trkpt>
      <trkpt lat="47.24936" lon="6.14391">
        <ele>449.243</ele>
        <time>2016-09-25T06:42:07.412Z</time>
      </trkpt>
      <trkpt lat="47.24933" lon="6.14378">
        <ele>447.573</ele>
        <time>2016-09-25T06:42:09.653Z</time>
      </trkpt>
      <trkpt lat="47.24929" lon="6.14363">
        <ele>446.469</ele>
        <time>2016-09-25T06:42:12.319Z</time>
      </trkpt>
      <trkpt lat="47.24925" lon="6.14344">
        <ele>445.603</ele>
        <time>2016-09-25T06:42:15.462Z</time>
      </trkpt>
      <trkpt lat="47.24921" lon="6.14325">
        <ele>444.778</ele>
        <time>2016-09-25T06:42:18.101Z</time>
      </trkpt>
      <trkpt lat="47.24912" lon="6.14293">
        <ele>444.114</ele>
        <time>2016-09-25T06:42:22.703Z</time>
      </trkpt>
      <trkpt lat="47.24907" lon="6.14272">
        <ele>443.494</ele>
        <time>2016-09-25T06:42:25.174Z</time>
      </trkpt>
      <trkpt lat="47.24901" lon="6.14249">
        <ele>442.734</ele>
        <time>2016-09-25T06:42:27.709Z</time>
      </trkpt>
      <trkpt lat="47.24892" lon="6.14219">
        <ele>442.013</ele>
        <time>2016-09-25T06:42:30.936Z</time>
      </trkpt>
      <trkpt lat="47.24888" lon="6.14203">
        <ele>441.617</ele>
        <time>2016-09-25T06:42:32.582Z</time>
      </trkpt>
      <trkpt lat="47.24887" lon="6.14185">
        <ele>440.634</ele>
        <time>2016-09-25T06:42:34.223Z</time>
      </trkpt>
      <trkpt lat="47.24885" lon="6.14168">
        <ele>438.372</ele>
        <time>2016-09-25T06:42:36.122Z</time>
      </trkpt>
      <trkpt lat="47.24883" lon="6.14152">
        <ele>436.009</ele>
        <time>2016-09-25T06:42:38.105Z</time>
      </trkpt>
      <trkpt lat="47.24878" lon="6.14133">
        <ele>434.74</ele>
        <time>2016-09-25T06:42:41.425Z</time>
      </trkpt>
      <trkpt lat="47.24873" lon="6.14119">
        <ele>434.287</ele>
        <time>2016-09-25T06:42:44.313Z</time>
      </trkpt>
      <trkpt lat="47.24869" lon="6.14103">
        <ele>434.152</ele>
        <time>2016-09-25T06:42:47.668Z</time>
      </trkpt>
      <trkpt lat="47.24864" lon="6.14086">
        <ele>434.047</ele>
        <time>2016-09-25T06:42:51.189Z</time>
      </trkpt>
      <trkpt lat="47.2486" lon="6.14067">
        <ele>433.894</ele>
        <time>2016-09-25T06:42:54.880Z</time>
      </trkpt>
      <trkpt lat="47.24856" lon="6.14047">
        <ele>433.743</ele>
        <time>2016-09-25T06:42:58.586Z</time>
      </trkpt>
      <trkpt lat="47.24853" lon="6.14033">
        <ele>433.907</ele>
        <time>2016-09-25T06:43:00.965Z</time>
      </trkpt>
      <trkpt lat="47.24849" lon="6.14012">
        <ele>434.512</ele>
        <time>2016-09-25T06:43:04.259Z</time>
      </trkpt>
      <trkpt lat="47.24844" lon="6.13991">
        <ele>434.856</ele>
        <time>2016-09-25T06:43:07.561Z</time>
      </trkpt>
      <trkpt lat="47.2484" lon="6.13969">
        <ele>434.367</ele>
        <time>2016-09-25T06:43:10.867Z</time>
      </trkpt>
      <trkpt lat="47.24833" lon="6.13942">
        <ele>433.485</ele>
        <time>2016-09-25T06:43:15.087Z</time>
      </trkpt>
      <trkpt lat="47.24828" lon="6.13924">
        <ele>432.795</ele>
        <time>2016-09-25T06:43:17.609Z</time>
      </trkpt>
      <trkpt lat="47.24821" lon="6.13901">
        <ele>432.604</ele>
        <time>2016-09-25T06:43:20.645Z</time>
      </trkpt>
      <trkpt lat="47.24816" lon="6.1388">
        <ele>432.979</ele>
        <time>2016-09-25T06:43:22.999Z</time>
      </trkpt>
      <trkpt lat="47.24811" lon="6.13866">
        <ele>433.676</ele>
        <time>2016-09-25T06:43:24.605Z</time>
      </trkpt>
      <trkpt lat="47.24807" lon="6.13852">
        <ele>434.646</ele>
        <time>2016-09-25T06:43:26.186Z</time>
      </trkpt>
      <trkpt lat="47.24806" lon="6.13838">
        <ele>435.967</ele>
        <time>2016-09-25T06:43:27.750Z</time>
      </trkpt>
      <trkpt lat="47.24801" lon="6.1382">
        <ele>437.386</ele>
        <time>2016-09-25T06:43:29.951Z</time>
      </trkpt>
      <trkpt lat="47.24798" lon="6.138">
        <ele>438.48</ele>
        <time>2016-09-25T06:43:32.370Z</time>
      </trkpt>
      <trkpt lat="47.24795" lon="6.13786">
        <ele>438.918</ele>
        <time>2016-09-25T06:43:34.100Z</time>
      </trkpt>
      <trkpt lat="47.24791" lon="6.13765">
        <ele>438.331</ele>
        <time>2016-09-25T06:43:36.956Z</time>
      </trkpt>
      <trkpt lat="47.24789" lon="6.13751">
        <ele>436.61</ele>
        <time>2016-09-25T06:43:38.853Z</time>
      </trkpt>
      <trkpt lat="47.24791" lon="6.13731">
        <ele>434.533</ele>
        <time>2016-09-25T06:43:41.666Z</time>
      </trkpt>
      <trkpt lat="47.24797" lon="6.13713">
        <ele>433.158</ele>
        <time>2016-09-25T06:43:44.391Z</time>
      </trkpt>
      <trkpt lat="47.24805" lon="6.13702">
        <ele>432.466</ele>
        <time>2016-09-25T06:43:46.526Z</time>
      </trkpt>
      <trkpt lat="47.24812" lon="6.1369">
        <ele>431.905</ele>
        <time>2016-09-25T06:43:48.664Z</time>
      </trkpt>
      <trkpt lat="47.24823" lon="6.13685">
        <ele>432.21</ele>
        <time>2016-09-25T06:43:50.969Z</time>
      </trkpt>
      <trkpt lat="47.24834" lon="6.13681">
        <ele>434</ele>
        <time>2016-09-25T06:43:53.238Z</time>
      </trkpt>
      <trkpt lat="47.24843" lon="6.13676">
        <ele>435.686</ele>
        <time>2016-09-25T06:43:55.490Z</time>
      </trkpt>
      <trkpt lat="47.24852" lon="6.13663">
        <ele>435.744</ele>
        <time>2016-09-25T06:43:58.592Z</time>
      </trkpt>
      <trkpt lat="47.24853" lon="6.1365">
        <ele>434.816</ele>
        <time>2016-09-25T06:44:01.820Z</time>
      </trkpt>
      <trkpt lat="47.24851" lon="6.13631">
        <ele>434.297</ele>
        <time>2016-09-25T06:44:07.487Z</time>
      </trkpt>
      <trkpt lat="47.24849" lon="6.13612">
        <ele>435.376</ele>
        <time>2016-09-25T06:44:15.256Z</time>
      </trkpt>
      <trkpt lat="47.24846" lon="6.13599">
        <ele>437.902</ele>
        <time>2016-09-25T06:44:19.792Z</time>
      </trkpt>
      <trkpt lat="47.24841" lon="6.13582">
        <ele>440.192</ele>
        <time>2016-09-25T06:44:23.866Z</time>
      </trkpt>
      <trkpt lat="47.24832" lon="6.13564">
        <ele>441.1</ele>
        <time>2016-09-25T06:44:27.721Z</time>
      </trkpt>
      <trkpt lat="47.24822" lon="6.13543">
        <ele>440.834</ele>
        <time>2016-09-25T06:44:31.834Z</time>
      </trkpt>
      <trkpt lat="47.2481" lon="6.1352">
        <ele>440.054</ele>
        <time>2016-09-25T06:44:35.876Z</time>
      </trkpt>
      <trkpt lat="47.24803" lon="6.13506">
        <ele>439.177</ele>
        <time>2016-09-25T06:44:38.178Z</time>
      </trkpt>
      <trkpt lat="47.24798" lon="6.13489">
        <ele>438.236</ele>
        <time>2016-09-25T06:44:40.311Z</time>
      </trkpt>
      <trkpt lat="47.24792" lon="6.13462">
        <ele>437.404</ele>
        <time>2016-09-25T06:44:43.240Z</time>
      </trkpt>
      <trkpt lat="47.24787" lon="6.13435">
        <ele>436.76</ele>
        <time>2016-09-25T06:44:46.009Z</time>
      </trkpt>
      <trkpt lat="47.24781" lon="6.13407">
        <ele>436.036</ele>
        <time>2016-09-25T06:44:48.807Z</time>
      </trkpt>
      <trkpt lat="47.24776" lon="6.13389">
        <ele>434.943</ele>
        <time>2016-09-25T06:44:50.749Z</time>
      </trkpt>
      <trkpt lat="47.24772" lon="6.13368">
        <ele>433.479</ele>
        <time>2016-09-25T06:44:52.831Z</time>
      </trkpt>
      <trkpt lat="47.24769" lon="6.1335">
        <ele>431.945</ele>
        <time>2016-09-25T06:44:54.726Z</time>
      </trkpt>
      <trkpt lat="47.24769" lon="6.13333">
        <ele>430.723</ele>
        <time>2016-09-25T06:44:56.408Z</time>
      </trkpt>
      <trkpt lat="47.24769" lon="6.13308">
        <ele>430.087</ele>
        <time>2016-09-25T06:44:58.893Z</time>
      </trkpt>
      <trkpt lat="47.2477" lon="6.13291">
        <ele>430.143</ele>
        <time>2016-09-25T06:45:00.505Z</time>
      </trkpt>
      <trkpt lat="47.24771" lon="6.13274">
        <ele>430.573</ele>
        <time>2016-09-25T06:45:02.159Z</time>
      </trkpt>
      <trkpt lat="47.24772" lon="6.13251">
        <ele>430.964</ele>
        <time>2016-09-25T06:45:04.443Z</time>
      </trkpt>
      <trkpt lat="47.24774" lon="6.13229">
        <ele>431.108</ele>
        <time>2016-09-25T06:45:06.803Z</time>
      </trkpt>
      <trkpt lat="47.24759" lon="6.13178">
        <ele>430.802</ele>
        <time>2016-09-25T06:45:12.960Z</time>
      </trkpt>
      <trkpt lat="47.24753" lon="6.13163">
        <ele>430.036</ele>
        <time>2016-09-25T06:45:14.920Z</time>
      </trkpt>
      <trkpt lat="47.24749" lon="6.13148">
        <ele>429.29</ele>
        <time>2016-09-25T06:45:16.865Z</time>
      </trkpt>
      <trkpt lat="47.24752" lon="6.13132">
        <ele>428.933</ele>
        <time>2016-09-25T06:45:18.745Z</time>
      </trkpt>
      <trkpt lat="47.24757" lon="6.13115">
        <ele>428.849</ele>
        <time>2016-09-25T06:45:20.942Z</time>
      </trkpt>
      <trkpt lat="47.2476" lon="6.13102">
        <ele>429.173</ele>
        <time>2016-09-25T06:45:22.514Z</time>
      </trkpt>
      <trkpt lat="47.24763" lon="6.13078">
        <ele>430.077</ele>
        <time>2016-09-25T06:45:25.205Z</time>
      </trkpt>
      <trkpt lat="47.24764" lon="6.13056">
        <ele>431.117</ele>
        <time>2016-09-25T06:45:28.029Z</time>
      </trkpt>
      <trkpt lat="47.24775" lon="6.1299">
        <ele>431.271</ele>
        <time>2016-09-25T06:45:37.537Z</time>
      </trkpt>
      <trkpt lat="47.24786" lon="6.12988">
        <ele>430.235</ele>
        <time>2016-09-25T06:45:39.483Z</time>
      </trkpt>
      <trkpt lat="47.24793" lon="6.12998">
        <ele>428.746</ele>
        <time>2016-09-25T06:45:41.208Z</time>
      </trkpt>
      <trkpt lat="47.24797" lon="6.13011">
        <ele>427.588</ele>
        <time>2016-09-25T06:45:42.676Z</time>
      </trkpt>
      <trkpt lat="47.24803" lon="6.13026">
        <ele>427.52</ele>
        <time>2016-09-25T06:45:44.472Z</time>
      </trkpt>
      <trkpt lat="47.24807" lon="6.13042">
        <ele>428.367</ele>
        <time>2016-09-25T06:45:46.249Z</time>
      </trkpt>
      <trkpt lat="47.24811" lon="6.13054">
        <ele>428.926</ele>
        <time>2016-09-25T06:45:47.665Z</time>
      </trkpt>
      <trkpt lat="47.24814" lon="6.13072">
        <ele>428.415</ele>
        <time>2016-09-25T06:45:49.647Z</time>
      </trkpt>
      <trkpt lat="47.24833" lon="6.13098">
        <ele>428.008</ele>
        <time>2016-09-25T06:45:54.962Z</time>
      </trkpt>
      <trkpt lat="47.24848" lon="6.13112">
        <ele>428.901</ele>
        <time>2016-09-25T06:46:00.051Z</time>
      </trkpt>
      <trkpt lat="47.24854" lon="6.13128">
        <ele>430.508</ele>
        <time>2016-09-25T06:46:03.286Z</time>
      </trkpt>
      <trkpt lat="47.24867" lon="6.13147">
        <ele>431.773</ele>
        <time>2016-09-25T06:46:08.407Z</time>
      </trkpt>
      <trkpt lat="47.2488" lon="6.13164">
        <ele>432.561</ele>
        <time>2016-09-25T06:46:12.230Z</time>
      </trkpt>
      <trkpt lat="47.24892" lon="6.13179">
        <ele>433.137</ele>
        <time>2016-09-25T06:46:14.982Z</time>
      </trkpt>
      <trkpt lat="47.24901" lon="6.13194">
        <ele>433.609</ele>
        <time>2016-09-25T06:46:17.153Z</time>
      </trkpt>
      <trkpt lat="47.24914" lon="6.1321">
        <ele>433.841</ele>
        <time>2016-09-25T06:46:19.616Z</time>
      </trkpt>
      <trkpt lat="47.24924" lon="6.13222">
        <ele>433.625</ele>
        <time>2016-09-25T06:46:21.531Z</time>
      </trkpt>
      <trkpt lat="47.24935" lon="6.13233">
        <ele>433.031</ele>
        <time>2016-09-25T06:46:23.567Z</time>
      </trkpt>
      <trkpt lat="47.24947" lon="6.13243">
        <ele>432.745</ele>
        <time>2016-09-25T06:46:25.709Z</time>
      </trkpt>
      <trkpt lat="47.24957" lon="6.13252">
        <ele>433.493</ele>
        <time>2016-09-25T06:46:27.561Z</time>
      </trkpt>
      <trkpt lat="47.24971" lon="6.13266">
        <ele>435.03</ele>
        <time>2016-09-25T06:46:30.614Z</time>
      </trkpt>
      <trkpt lat="47.24991" lon="6.13278">
        <ele>436.327</ele>
        <time>2016-09-25T06:46:34.489Z</time>
      </trkpt>
      <trkpt lat="47.24999" lon="6.13285">
        <ele>437.095</ele>
        <time>2016-09-25T06:46:36.310Z</time>
      </trkpt>
      <trkpt lat="47.25022" lon="6.13298">
        <ele>437.73</ele>
        <time>2016-09-25T06:46:41.190Z</time>
      </trkpt>
      <trkpt lat="47.25033" lon="6.133">
        <ele>437.971</ele>
        <time>2016-09-25T06:46:43.641Z</time>
      </trkpt>
      <trkpt lat="47.2505" lon="6.13301">
        <ele>437.27</ele>
        <time>2016-09-25T06:46:46.736Z</time>
      </trkpt>
      <trkpt lat="47.25062" lon="6.13303">
        <ele>435.859</ele>
        <time>2016-09-25T06:46:48.785Z</time>
      </trkpt>
      <trkpt lat="47.2508" lon="6.13308">
        <ele>434.536</ele>
        <time>2016-09-25T06:46:51.692Z</time>
      </trkpt>
      <trkpt lat="47.25091" lon="6.13309">
        <ele>433.787</ele>
        <time>2016-09-25T06:46:53.285Z</time>
      </trkpt>
      <trkpt lat="47.25107" lon="6.1331">
        <ele>433.45</ele>
        <time>2016-09-25T06:46:55.807Z</time>
      </trkpt>
      <trkpt lat="47.25118" lon="6.13315">
        <ele>433.182</ele>
        <time>2016-09-25T06:46:57.756Z</time>
      </trkpt>
      <trkpt lat="47.25127" lon="6.13323">
        <ele>432.787</ele>
        <time>2016-09-25T06:46:59.500Z</time>
      </trkpt>
      <trkpt lat="47.25135" lon="6.1333">
        <ele>432.245</ele>
        <time>2016-09-25T06:47:01.075Z</time>
      </trkpt>
      <trkpt lat="47.25142" lon="6.13338">
        <ele>431.79</ele>
        <time>2016-09-25T06:47:02.626Z</time>
      </trkpt>
      <trkpt lat="47.25151" lon="6.13347">
        <ele>431.639</ele>
        <time>2016-09-25T06:47:04.423Z</time>
      </trkpt>
      <trkpt lat="47.25159" lon="6.13356">
        <ele>432.317</ele>
        <time>2016-09-25T06:47:06.305Z</time>
      </trkpt>
      <trkpt lat="47.25165" lon="6.13366">
        <ele>434.164</ele>
        <time>2016-09-25T06:47:08.083Z</time>
      </trkpt>
      <trkpt lat="47.25172" lon="6.13377">
        <ele>436.682</ele>
        <time>2016-09-25T06:47:10.158Z</time>
      </trkpt>
      <trkpt lat="47.25178" lon="6.13389">
        <ele>439.511</ele>
        <time>2016-09-25T06:47:12.270Z</time>
      </trkpt>
      <trkpt lat="47.25184" lon="6.13401">
        <ele>442.553</ele>
        <time>2016-09-25T06:47:14.758Z</time>
      </trkpt>
      <trkpt lat="47.25191" lon="6.13413">
        <ele>445.25</ele>
        <time>2016-09-25T06:47:17.509Z</time>
      </trkpt>
      <trkpt lat="47.25197" lon="6.13425">
        <ele>447.11</ele>
        <time>2016-09-25T06:47:20.348Z</time>
      </trkpt>
      <trkpt lat="47.25203" lon="6.13435">
        <ele>447.743</ele>
        <time>2016-09-25T06:47:23.098Z</time>
      </trkpt>
      <trkpt lat="47.25208" lon="6.13448">
        <ele>447.145</ele>
        <time>2016-09-25T06:47:26.324Z</time>
      </trkpt>
      <trkpt lat="47.25213" lon="6.13462">
        <ele>445.795</ele>
        <time>2016-09-25T06:47:30.067Z</time>
      </trkpt>
      <trkpt lat="47.25219" lon="6.13477">
        <ele>443.845</ele>
        <time>2016-09-25T06:47:35.715Z</time>
      </trkpt>
      <trkpt lat="47.25225" lon="6.1349">
        <ele>440.922</ele>
        <time>2016-09-25T06:47:40.943Z</time>
      </trkpt>
      <trkpt lat="47.25234" lon="6.13509">
        <ele>437.527</ele>
        <time>2016-09-25T06:47:48.535Z</time>
      </trkpt>
      <trkpt lat="47.25242" lon="6.13524">
        <ele>435.258</ele>
        <time>2016-09-25T06:47:54.222Z</time>
      </trkpt>
      <trkpt lat="47.25247" lon="6.13536">
        <ele>435.415</ele>
        <time>2016-09-25T06:47:58.117Z</time>
      </trkpt>
      <trkpt lat="47.25254" lon="6.13547">
        <ele>437.486</ele>
        <time>2016-09-25T06:48:01.914Z</time>
      </trkpt>
      <trkpt lat="47.25262" lon="6.13558">
        <ele>440.082</ele>
        <time>2016-09-25T06:48:05.956Z</time>
      </trkpt>
      <trkpt lat="47.25269" lon="6.13566">
        <ele>442.346</ele>
        <time>2016-09-25T06:48:08.591Z</time>
      </trkpt>
      <trkpt lat="47.25277" lon="6.13573">
        <ele>444.114</ele>
        <time>2016-09-25T06:48:10.926Z</time>
      </trkpt>
      <trkpt lat="47.25285" lon="6.13579">
        <ele>445.3</ele>
        <time>2016-09-25T06:48:12.907Z</time>
      </trkpt>
      <trkpt lat="47.25294" lon="6.13586">
        <ele>445.922</ele>
        <time>2016-09-25T06:48:15.162Z</time>
      </trkpt>
      <trkpt lat="47.25303" lon="6.13596">
        <ele>446.061</ele>
        <time>2016-09-25T06:48:18.266Z</time>
      </trkpt>
      <trkpt lat="47.25312" lon="6.13601">
        <ele>446.318</ele>
        <time>2016-09-25T06:48:21.452Z</time>
      </trkpt>
      <trkpt lat="47.25321" lon="6.13607">
        <ele>447.701</ele>
        <time>2016-09-25T06:48:24.956Z</time>
      </trkpt>
      <trkpt lat="47.25329" lon="6.13614">
        <ele>450.264</ele>
        <time>2016-09-25T06:48:28.843Z</time>
      </trkpt>
      <trkpt lat="47.25337" lon="6.13622">
        <ele>453.045</ele>
        <time>2016-09-25T06:48:33.105Z</time>
      </trkpt>
      <trkpt lat="47.25345" lon="6.13629">
        <ele>455.518</ele>
        <time>2016-09-25T06:48:37.643Z</time>
      </trkpt>
      <trkpt lat="47.25351" lon="6.13641">
        <ele>457.714</ele>
        <time>2016-09-25T06:48:42.527Z</time>
      </trkpt>
      <trkpt lat="47.25359" lon="6.1365">
        <ele>459.692</ele>
        <time>2016-09-25T06:48:47.671Z</time>
      </trkpt>
      <trkpt lat="47.25369" lon="6.13658">
        <ele>461.566</ele>
        <time>2016-09-25T06:48:53.086Z</time>
      </trkpt>
      <trkpt lat="47.25379" lon="6.13672">
        <ele>463.107</ele>
        <time>2016-09-25T06:49:00.034Z</time>
      </trkpt>
      <trkpt lat="47.25387" lon="6.13682">
        <ele>462.948</ele>
        <time>2016-09-25T06:49:05.443Z</time>
      </trkpt>
      <trkpt lat="47.25396" lon="6.13692">
        <ele>460.517</ele>
        <time>2016-09-25T06:49:11.510Z</time>
      </trkpt>
      <trkpt lat="47.25405" lon="6.13702">
        <ele>457.988</ele>
        <time>2016-09-25T06:49:17.685Z</time>
      </trkpt>
      <trkpt lat="47.25415" lon="6.13705">
        <ele>457.708</ele>
        <time>2016-09-25T06:49:23.327Z</time>
      </trkpt>
      <trkpt lat="47.25425" lon="6.13709">
        <ele>459.495</ele>
        <time>2016-09-25T06:49:29.519Z</time>
      </trkpt>
      <trkpt lat="47.25435" lon="6.13709">
        <ele>462.063</ele>
        <time>2016-09-25T06:49:34.872Z</time>
      </trkpt>
      <trkpt lat="47.25445" lon="6.13705">
        <ele>464.446</ele>
        <time>2016-09-25T06:49:40.876Z</time>
      </trkpt>
      <trkpt lat="47.25454" lon="6.1371">
        <ele>466.19</ele>
        <time>2016-09-25T06:49:46.365Z</time>
      </trkpt>
      <trkpt lat="47.25463" lon="6.13718">
        <ele>467.401</ele>
        <time>2016-09-25T06:49:51.472Z</time>
      </trkpt>
      <trkpt lat="47.25472" lon="6.13721">
        <ele>468.668</ele>
        <time>2016-09-25T06:49:56.494Z</time>
      </trkpt>
      <trkpt lat="47.25483" lon="6.13724">
        <ele>470.807</ele>
        <time>2016-09-25T06:50:01.686Z</time>
      </trkpt>
      <trkpt lat="47.25491" lon="6.1373">
        <ele>473.763</ele>
        <time>2016-09-25T06:50:06.267Z</time>
      </trkpt>
      <trkpt lat="47.25501" lon="6.13738">
        <ele>475.87</ele>
        <time>2016-09-25T06:50:12.122Z</time>
      </trkpt>
      <trkpt lat="47.25509" lon="6.13748">
        <ele>476.056</ele>
        <time>2016-09-25T06:50:17.762Z</time>
      </trkpt>
      <trkpt lat="47.25518" lon="6.13757">
        <ele>475.289</ele>
        <time>2016-09-25T06:50:24.436Z</time>
      </trkpt>
      <trkpt lat="47.25524" lon="6.13765">
        <ele>474.596</ele>
        <time>2016-09-25T06:50:31.680Z</time>
      </trkpt>
      <trkpt lat="47.25531" lon="6.13775">
        <ele>474.165</ele>
        <time>2016-09-25T06:50:40.719Z</time>
      </trkpt>
      <trkpt lat="47.2554" lon="6.13785">
        <ele>473.958</ele>
        <time>2016-09-25T06:50:48.661Z</time>
      </trkpt>
      <trkpt lat="47.25548" lon="6.13796">
        <ele>474.012</ele>
        <time>2016-09-25T06:50:53.766Z</time>
      </trkpt>
      <trkpt lat="47.25556" lon="6.13809">
        <ele>474.272</ele>
        <time>2016-09-25T06:50:59.669Z</time>
      </trkpt>
      <trkpt lat="47.25563" lon="6.13819">
        <ele>474.543</ele>
        <time>2016-09-25T06:51:04.230Z</time>
      </trkpt>
      <trkpt lat="47.2557" lon="6.13828">
        <ele>474.898</ele>
        <time>2016-09-25T06:51:08.999Z</time>
      </trkpt>
      <trkpt lat="47.25579" lon="6.1384">
        <ele>475.717</ele>
        <time>2016-09-25T06:51:14.782Z</time>
      </trkpt>
      <trkpt lat="47.25586" lon="6.13851">
        <ele>476.865</ele>
        <time>2016-09-25T06:51:19.747Z</time>
      </trkpt>
      <trkpt lat="47.25591" lon="6.13862">
        <ele>477.72</ele>
        <time>2016-09-25T06:51:24.281Z</time>
      </trkpt>
      <trkpt lat="47.25599" lon="6.13873">
        <ele>478.47</ele>
        <time>2016-09-25T06:51:29.567Z</time>
      </trkpt>
      <trkpt lat="47.25609" lon="6.13879">
        <ele>479.594</ele>
        <time>2016-09-25T06:51:34.338Z</time>
      </trkpt>
      <trkpt lat="47.25617" lon="6.13884">
        <ele>480.719</ele>
        <time>2016-09-25T06:51:38.891Z</time>
      </trkpt>
      <trkpt lat="47.25626" lon="6.13893">
        <ele>481.156</ele>
        <time>2016-09-25T06:51:44.193Z</time>
      </trkpt>
      <trkpt lat="47.25635" lon="6.13901">
        <ele>481.072</ele>
        <time>2016-09-25T06:51:49.446Z</time>
      </trkpt>
      <trkpt lat="47.25645" lon="6.13911">
        <ele>481.185</ele>
        <time>2016-09-25T06:51:55.260Z</time>
      </trkpt>
      <trkpt lat="47.25651" lon="6.1392">
        <ele>482.064</ele>
        <time>2016-09-25T06:52:00.012Z</time>
      </trkpt>
      <trkpt lat="47.25659" lon="6.13932">
        <ele>483.755</ele>
        <time>2016-09-25T06:52:05.638Z</time>
      </trkpt>
      <trkpt lat="47.25667" lon="6.13939">
        <ele>485.848</ele>
        <time>2016-09-25T06:52:10.656Z</time>
      </trkpt>
      <trkpt lat="47.25681" lon="6.13945">
        <ele>487.739</ele>
        <time>2016-09-25T06:52:18.858Z</time>
      </trkpt>
      <trkpt lat="47.25689" lon="6.13954">
        <ele>489.651</ele>
        <time>2016-09-25T06:52:24.451Z</time>
      </trkpt>
      <trkpt lat="47.25696" lon="6.13965">
        <ele>491.794</ele>
        <time>2016-09-25T06:52:30.199Z</time>
      </trkpt>
      <trkpt lat="47.25704" lon="6.13976">
        <ele>493.475</ele>
        <time>2016-09-25T06:52:36.571Z</time>
      </trkpt>
      <trkpt lat="47.25712" lon="6.13985">
        <ele>494.189</ele>
        <time>2016-09-25T06:52:42.426Z</time>
      </trkpt>
      <trkpt lat="47.2572" lon="6.13994">
        <ele>494.28</ele>
        <time>2016-09-25T06:52:48.815Z</time>
      </trkpt>
      <trkpt lat="47.25729" lon="6.14004">
        <ele>494.335</ele>
        <time>2016-09-25T06:52:55.798Z</time>
      </trkpt>
      <trkpt lat="47.25737" lon="6.14013">
        <ele>494.702</ele>
        <time>2016-09-25T06:53:01.656Z</time>
      </trkpt>
      <trkpt lat="47.25745" lon="6.14023">
        <ele>495.169</ele>
        <time>2016-09-25T06:53:06.507Z</time>
      </trkpt>
      <trkpt lat="47.2575" lon="6.14034">
        <ele>495.556</ele>
        <time>2016-09-25T06:53:10.533Z</time>
      </trkpt>
      <trkpt lat="47.25755" lon="6.14048">
        <ele>495.931</ele>
        <time>2016-09-25T06:53:15.179Z</time>
      </trkpt>
      <trkpt lat="47.25759" lon="6.1406">
        <ele>495.914</ele>
        <time>2016-09-25T06:53:19.395Z</time>
      </trkpt>
      <trkpt lat="47.25765" lon="6.14076">
        <ele>495.244</ele>
        <time>2016-09-25T06:53:24.072Z</time>
      </trkpt>
      <trkpt lat="47.25769" lon="6.14088">
        <ele>494.367</ele>
        <time>2016-09-25T06:53:27.198Z</time>
      </trkpt>
      <trkpt lat="47.25774" lon="6.141">
        <ele>493.747</ele>
        <time>2016-09-25T06:53:30.210Z</time>
      </trkpt>
      <trkpt lat="47.25783" lon="6.14103">
        <ele>493.45</ele>
        <time>2016-09-25T06:53:33.528Z</time>
      </trkpt>
      <trkpt lat="47.25793" lon="6.14104">
        <ele>493.727</ele>
        <time>2016-09-25T06:53:37.796Z</time>
      </trkpt>
      <trkpt lat="47.25803" lon="6.14101">
        <ele>494.805</ele>
        <time>2016-09-25T06:53:43.645Z</time>
      </trkpt>
      <trkpt lat="47.25813" lon="6.14102">
        <ele>496.203</ele>
        <time>2016-09-25T06:53:49.966Z</time>
      </trkpt>
      <trkpt lat="47.25821" lon="6.1411">
        <ele>497.117</ele>
        <time>2016-09-25T06:53:56.927Z</time>
      </trkpt>
      <trkpt lat="47.25826" lon="6.14122">
        <ele>497.378</ele>
        <time>2016-09-25T06:54:05.247Z</time>
      </trkpt>
      <trkpt lat="47.25831" lon="6.14134">
        <ele>498.181</ele>
        <time>2016-09-25T06:54:13.547Z</time>
      </trkpt>
      <trkpt lat="47.25836" lon="6.14146">
        <ele>500.348</ele>
        <time>2016-09-25T06:54:20.996Z</time>
      </trkpt>
      <trkpt lat="47.25836" lon="6.14146">
        <ele>502.577</ele>
        <time>2016-09-25T06:54:39.996Z</time>
      </trkpt>
      <trkpt lat="47.25836" lon="6.14146">
        <ele>503.386</ele>
        <time>2016-09-25T06:57:00.316Z</time>
      </trkpt>
      <trkpt lat="47.25848" lon="6.1417">
        <ele>503.027</ele>
        <time>2016-09-25T06:57:18.390Z</time>
      </trkpt>
      <trkpt lat="47.25852" lon="6.14185">
        <ele>502.377</ele>
        <time>2016-09-25T06:57:22.106Z</time>
      </trkpt>
      <trkpt lat="47.25858" lon="6.14201">
        <ele>502.163</ele>
        <time>2016-09-25T06:57:25.329Z</time>
      </trkpt>
      <trkpt lat="47.25863" lon="6.14219">
        <ele>502.508</ele>
        <time>2016-09-25T06:57:28.690Z</time>
      </trkpt>
      <trkpt lat="47.25868" lon="6.14236">
        <ele>503.097</ele>
        <time>2016-09-25T06:57:31.409Z</time>
      </trkpt>
      <trkpt lat="47.25872" lon="6.1425">
        <ele>503.781</ele>
        <time>2016-09-25T06:57:33.499Z</time>
      </trkpt>
      <trkpt lat="47.25879" lon="6.14269">
        <ele>504.361</ele>
        <time>2016-09-25T06:57:36.577Z</time>
      </trkpt>
      <trkpt lat="47.25884" lon="6.14288">
        <ele>504.372</ele>
        <time>2016-09-25T06:57:39.925Z</time>
      </trkpt>
      <trkpt lat="47.2589" lon="6.14301">
        <ele>503.88</ele>
        <time>2016-09-25T06:57:42.267Z</time>
      </trkpt>
      <trkpt lat="47.25896" lon="6.14325">
        <ele>503.161</ele>
        <time>2016-09-25T06:57:45.312Z</time>
      </trkpt>
      <trkpt lat="47.25904" lon="6.14352">
        <ele>502.047</ele>
        <time>2016-09-25T06:57:48.423Z</time>
      </trkpt>
      <trkpt lat="47.25909" lon="6.14368">
        <ele>500.708</ele>
        <time>2016-09-25T06:57:50.323Z</time>
      </trkpt>
      <trkpt lat="47.25919" lon="6.14401">
        <ele>499.684</ele>
        <time>2016-09-25T06:57:54.144Z</time>
      </trkpt>
      <trkpt lat="47.25918" lon="6.14418">
        <ele>499.128</ele>
        <time>2016-09-25T06:57:55.906Z</time>
      </trkpt>
      <trkpt lat="47.25911" lon="6.14446">
        <ele>498.784</ele>
        <time>2016-09-25T06:57:59.097Z</time>
      </trkpt>
      <trkpt lat="47.25913" lon="6.14472">
        <ele>498.451</ele>
        <time>2016-09-25T06:58:03.518Z</time>
      </trkpt>
      <trkpt lat="47.25921" lon="6.14479">
        <ele>498.011</ele>
        <time>2016-09-25T06:58:08.239Z</time>
      </trkpt>
      <trkpt lat="47.25931" lon="6.1448">
        <ele>497.646</ele>
        <time>2016-09-25T06:58:14.281Z</time>
      </trkpt>
      <trkpt lat="47.25941" lon="6.14483">
        <ele>498.235</ele>
        <time>2016-09-25T06:58:20.721Z</time>
      </trkpt>
      <trkpt lat="47.25948" lon="6.14496">
        <ele>500.535</ele>
        <time>2016-09-25T06:58:26.465Z</time>
      </trkpt>
      <trkpt lat="47.25951" lon="6.1451">
        <ele>503.601</ele>
        <time>2016-09-25T06:58:31.419Z</time>
      </trkpt>
      <trkpt lat="47.25955" lon="6.14522">
        <ele>505.514</ele>
        <time>2016-09-25T06:58:34.877Z</time>
      </trkpt>
      <trkpt lat="47.25958" lon="6.14535">
        <ele>505.649</ele>
        <time>2016-09-25T06:58:37.921Z</time>
      </trkpt>
      <trkpt lat="47.25963" lon="6.14547">
        <ele>504.984</ele>
        <time>2016-09-25T06:58:40.934Z</time>
      </trkpt>
      <trkpt lat="47.25967" lon="6.14562">
        <ele>504.521</ele>
        <time>2016-09-25T06:58:43.943Z</time>
      </trkpt>
      <trkpt lat="47.25972" lon="6.14575">
        <ele>504.78</ele>
        <time>2016-09-25T06:58:47.646Z</time>
      </trkpt>
      <trkpt lat="47.25978" lon="6.1459">
        <ele>505.923</ele>
        <time>2016-09-25T06:58:52.679Z</time>
      </trkpt>
      <trkpt lat="47.25987" lon="6.14593">
        <ele>507.752</ele>
        <time>2016-09-25T06:58:59.858Z</time>
      </trkpt>
      <trkpt lat="47.25995" lon="6.14586">
        <ele>509.69</ele>
        <time>2016-09-25T06:59:07.794Z</time>
      </trkpt>
      <trkpt lat="47.26002" lon="6.14577">
        <ele>510.681</ele>
        <time>2016-09-25T06:59:16.297Z</time>
      </trkpt>
      <trkpt lat="47.26011" lon="6.14573">
        <ele>510.283</ele>
        <time>2016-09-25T06:59:25.170Z</time>
      </trkpt>
      <trkpt lat="47.26019" lon="6.14563">
        <ele>509.589</ele>
        <time>2016-09-25T06:59:34.090Z</time>
      </trkpt>
      <trkpt lat="47.26027" lon="6.14554">
        <ele>509.561</ele>
        <time>2016-09-25T06:59:43.562Z</time>
      </trkpt>
      <trkpt lat="47.26035" lon="6.14546">
        <ele>510.013</ele>
        <time>2016-09-25T06:59:52.450Z</time>
      </trkpt>
      <trkpt lat="47.26043" lon="6.14538">
        <ele>511.105</ele>
        <time>2016-09-25T07:00:01.483Z</time>
      </trkpt>
      <trkpt lat="47.26051" lon="6.14531">
        <ele>513.168</ele>
        <time>2016-09-25T07:00:10.266Z</time>
      </trkpt>
      <trkpt lat="47.26058" lon="6.14522">
        <ele>515.524</ele>
        <time>2016-09-25T07:00:19.488Z</time>
      </trkpt>
      <trkpt lat="47.26069" lon="6.14515">
        <ele>517.871</ele>
        <time>2016-09-25T07:00:30.164Z</time>
      </trkpt>
      <trkpt lat="47.26076" lon="6.14506">
        <ele>520.993</ele>
        <time>2016-09-25T07:00:38.085Z</time>
      </trkpt>
      <trkpt lat="47.26083" lon="6.14498">
        <ele>524.879</ele>
        <time>2016-09-25T07:00:45.816Z</time>
      </trkpt>
      <trkpt lat="47.2609" lon="6.14486">
        <ele>528.221</ele>
        <time>2016-09-25T07:00:54.756Z</time>
      </trkpt>
      <trkpt lat="47.26096" lon="6.14478">
        <ele>529.636</ele>
        <time>2016-09-25T07:01:02.901Z</time>
      </trkpt>
      <trkpt lat="47.26105" lon="6.1447">
        <ele>529.123</ele>
        <time>2016-09-25T07:01:11.846Z</time>
      </trkpt>
      <trkpt lat="47.26114" lon="6.14467">
        <ele>528.205</ele>
        <time>2016-09-25T07:01:19.930Z</time>
      </trkpt>
      <trkpt lat="47.26123" lon="6.1446">
        <ele>528.057</ele>
        <time>2016-09-25T07:01:26.463Z</time>
      </trkpt>
      <trkpt lat="47.26132" lon="6.14455">
        <ele>529.186</ele>
        <time>2016-09-25T07:01:32.239Z</time>
      </trkpt>
      <trkpt lat="47.2614" lon="6.14448">
        <ele>531.962</ele>
        <time>2016-09-25T07:01:36.574Z</time>
      </trkpt>
      <trkpt lat="47.26145" lon="6.14436">
        <ele>535.369</ele>
        <time>2016-09-25T07:01:40.361Z</time>
      </trkpt>
      <trkpt lat="47.26153" lon="6.14427">
        <ele>537.395</ele>
        <time>2016-09-25T07:01:43.863Z</time>
      </trkpt>
      <trkpt lat="47.26162" lon="6.14419">
        <ele>537.53</ele>
        <time>2016-09-25T07:01:47.164Z</time>
      </trkpt>
      <trkpt lat="47.26171" lon="6.14414">
        <ele>537.684</ele>
        <time>2016-09-25T07:01:50.081Z</time>
      </trkpt>
      <trkpt lat="47.2618" lon="6.1441">
        <ele>539.346</ele>
        <time>2016-09-25T07:01:52.733Z</time>
      </trkpt>
      <trkpt lat="47.2619" lon="6.14401">
        <ele>541.483</ele>
        <time>2016-09-25T07:01:56.428Z</time>
      </trkpt>
      <trkpt lat="47.26201" lon="6.14394">
        <ele>542.914</ele>
        <time>2016-09-25T07:02:00.345Z</time>
      </trkpt>
      <trkpt lat="47.26211" lon="6.14384">
        <ele>543.748</ele>
        <time>2016-09-25T07:02:04.087Z</time>
      </trkpt>
      <trkpt lat="47.26222" lon="6.14376">
        <ele>544.12</ele>
        <time>2016-09-25T07:02:07.492Z</time>
      </trkpt>
      <trkpt lat="47.26231" lon="6.14372">
        <ele>544.156</ele>
        <time>2016-09-25T07:02:09.988Z</time>
      </trkpt>
      <trkpt lat="47.26239" lon="6.14384">
        <ele>544.104</ele>
        <time>2016-09-25T07:02:12.479Z</time>
      </trkpt>
      <trkpt lat="47.26241" lon="6.14398">
        <ele>544.113</ele>
        <time>2016-09-25T07:02:14.480Z</time>
      </trkpt>
      <trkpt lat="47.26242" lon="6.14412">
        <ele>543.952</ele>
        <time>2016-09-25T07:02:16.439Z</time>
      </trkpt>
      <trkpt lat="47.26242" lon="6.14426">
        <ele>543.097</ele>
        <time>2016-09-25T07:02:18.248Z</time>
      </trkpt>
      <trkpt lat="47.26244" lon="6.14442">
        <ele>541.527</ele>
        <time>2016-09-25T07:02:20.155Z</time>
      </trkpt>
      <trkpt lat="47.26246" lon="6.14455">
        <ele>539.97</ele>
        <time>2016-09-25T07:02:21.749Z</time>
      </trkpt>
      <trkpt lat="47.26249" lon="6.14475">
        <ele>539.053</ele>
        <time>2016-09-25T07:02:24.318Z</time>
      </trkpt>
      <trkpt lat="47.26251" lon="6.14489">
        <ele>537.653</ele>
        <time>2016-09-25T07:02:26.154Z</time>
      </trkpt>
      <trkpt lat="47.26253" lon="6.14503">
        <ele>534.299</ele>
        <time>2016-09-25T07:02:28.059Z</time>
      </trkpt>
      <trkpt lat="47.26255" lon="6.14528">
        <ele>530.026</ele>
        <time>2016-09-25T07:02:31.157Z</time>
      </trkpt>
      <trkpt lat="47.26261" lon="6.14552">
        <ele>526.871</ele>
        <time>2016-09-25T07:02:33.839Z</time>
      </trkpt>
      <trkpt lat="47.26263" lon="6.14572">
        <ele>525.44</ele>
        <time>2016-09-25T07:02:35.778Z</time>
      </trkpt>
      <trkpt lat="47.26268" lon="6.14591">
        <ele>525.543</ele>
        <time>2016-09-25T07:02:37.730Z</time>
      </trkpt>
      <trkpt lat="47.26273" lon="6.14603">
        <ele>526.527</ele>
        <time>2016-09-25T07:02:39.568Z</time>
      </trkpt>
      <trkpt lat="47.26284" lon="6.14625">
        <ele>527.519</ele>
        <time>2016-09-25T07:02:43.879Z</time>
      </trkpt>
      <trkpt lat="47.26293" lon="6.14645">
        <ele>527.964</ele>
        <time>2016-09-25T07:02:47.922Z</time>
      </trkpt>
      <trkpt lat="47.26301" lon="6.14667">
        <ele>527.824</ele>
        <time>2016-09-25T07:02:51.969Z</time>
      </trkpt>
      <trkpt lat="47.26306" lon="6.1468">
        <ele>527.489</ele>
        <time>2016-09-25T07:02:54.285Z</time>
      </trkpt>
      <trkpt lat="47.2631" lon="6.14693">
        <ele>527.165</ele>
        <time>2016-09-25T07:02:56.595Z</time>
      </trkpt>
      <trkpt lat="47.26316" lon="6.14708">
        <ele>526.813</ele>
        <time>2016-09-25T07:02:59.107Z</time>
      </trkpt>
      <trkpt lat="47.26322" lon="6.14723">
        <ele>526.932</ele>
        <time>2016-09-25T07:03:01.660Z</time>
      </trkpt>
      <trkpt lat="47.26327" lon="6.14739">
        <ele>527.867</ele>
        <time>2016-09-25T07:03:04.228Z</time>
      </trkpt>
      <trkpt lat="47.26333" lon="6.14755">
        <ele>528.914</ele>
        <time>2016-09-25T07:03:06.886Z</time>
      </trkpt>
      <trkpt lat="47.26338" lon="6.14773">
        <ele>529.39</ele>
        <time>2016-09-25T07:03:09.681Z</time>
      </trkpt>
      <trkpt lat="47.26343" lon="6.14792">
        <ele>529.502</ele>
        <time>2016-09-25T07:03:12.552Z</time>
      </trkpt>
      <trkpt lat="47.26347" lon="6.14804">
        <ele>529.592</ele>
        <time>2016-09-25T07:03:14.426Z</time>
      </trkpt>
      <trkpt lat="47.26352" lon="6.14819">
        <ele>529.519</ele>
        <time>2016-09-25T07:03:16.627Z</time>
      </trkpt>
      <trkpt lat="47.26358" lon="6.1484">
        <ele>529.047</ele>
        <time>2016-09-25T07:03:19.441Z</time>
      </trkpt>
      <trkpt lat="47.26363" lon="6.14854">
        <ele>528.147</ele>
        <time>2016-09-25T07:03:21.183Z</time>
      </trkpt>
      <trkpt lat="47.26366" lon="6.14868">
        <ele>527.018</ele>
        <time>2016-09-25T07:03:22.764Z</time>
      </trkpt>
      <trkpt lat="47.26374" lon="6.1489">
        <ele>526.147</ele>
        <time>2016-09-25T07:03:25.307Z</time>
      </trkpt>
      <trkpt lat="47.26378" lon="6.14907">
        <ele>525.839</ele>
        <time>2016-09-25T07:03:27.041Z</time>
      </trkpt>
      <trkpt lat="47.26387" lon="6.14935">
        <ele>525.657</ele>
        <time>2016-09-25T07:03:29.834Z</time>
      </trkpt>
      <trkpt lat="47.26394" lon="6.1495">
        <ele>524.976</ele>
        <time>2016-09-25T07:03:31.426Z</time>
      </trkpt>
      <trkpt lat="47.26397" lon="6.14976">
        <ele>523.67</ele>
        <time>2016-09-25T07:03:33.564Z</time>
      </trkpt>
      <trkpt lat="47.26405" lon="6.15006">
        <ele>522.37</ele>
        <time>2016-09-25T07:03:36.206Z</time>
      </trkpt>
      <trkpt lat="47.2641" lon="6.15026">
        <ele>521.643</ele>
        <time>2016-09-25T07:03:37.981Z</time>
      </trkpt>
      <trkpt lat="47.26416" lon="6.1506">
        <ele>521.374</ele>
        <time>2016-09-25T07:03:40.881Z</time>
      </trkpt>
      <trkpt lat="47.26422" lon="6.15091">
        <ele>521.053</ele>
        <time>2016-09-25T07:03:43.740Z</time>
      </trkpt>
      <trkpt lat="47.26426" lon="6.15112">
        <ele>520.424</ele>
        <time>2016-09-25T07:03:45.947Z</time>
      </trkpt>
      <trkpt lat="47.26432" lon="6.15144">
        <ele>519.654</ele>
        <time>2016-09-25T07:03:49.581Z</time>
      </trkpt>
      <trkpt lat="47.26439" lon="6.1517">
        <ele>518.878</ele>
        <time>2016-09-25T07:03:52.493Z</time>
      </trkpt>
      <trkpt lat="47.26441" lon="6.15193">
        <ele>517.935</ele>
        <time>2016-09-25T07:03:55.034Z</time>
      </trkpt>
      <trkpt lat="47.26443" lon="6.15213">
        <ele>516.813</ele>
        <time>2016-09-25T07:03:57.782Z</time>
      </trkpt>
      <trkpt lat="47.26447" lon="6.15232">
        <ele>515.799</ele>
        <time>2016-09-25T07:04:00.411Z</time>
      </trkpt>
      <trkpt lat="47.26449" lon="6.15253">
        <ele>515.138</ele>
        <time>2016-09-25T07:04:02.788Z</time>
      </trkpt>
      <trkpt lat="47.26454" lon="6.15264">
        <ele>514.639</ele>
        <time>2016-09-25T07:04:04.252Z</time>
      </trkpt>
      <trkpt lat="47.26457" lon="6.15279">
        <ele>513.809</ele>
        <time>2016-09-25T07:04:06.113Z</time>
      </trkpt>
      <trkpt lat="47.26462" lon="6.15307">
        <ele>512.74</ele>
        <time>2016-09-25T07:04:09.357Z</time>
      </trkpt>
      <trkpt lat="47.26465" lon="6.15322">
        <ele>511.955</ele>
        <time>2016-09-25T07:04:11.205Z</time>
      </trkpt>
      <trkpt lat="47.26469" lon="6.15343">
        <ele>511.573</ele>
        <time>2016-09-25T07:04:13.935Z</time>
      </trkpt>
      <trkpt lat="47.26473" lon="6.15358">
        <ele>511.175</ele>
        <time>2016-09-25T07:04:15.991Z</time>
      </trkpt>
      <trkpt lat="47.26479" lon="6.15371">
        <ele>510.536</ele>
        <time>2016-09-25T07:04:18.110Z</time>
      </trkpt>
      <trkpt lat="47.26487" lon="6.15388">
        <ele>509.998</ele>
        <time>2016-09-25T07:04:20.808Z</time>
      </trkpt>
      <trkpt lat="47.26497" lon="6.15402">
        <ele>509.98</ele>
        <time>2016-09-25T07:04:23.847Z</time>
      </trkpt>
      <trkpt lat="47.26507" lon="6.15406">
        <ele>510.717</ele>
        <time>2016-09-25T07:04:26.761Z</time>
      </trkpt>
      <trkpt lat="47.26516" lon="6.1541">
        <ele>512.073</ele>
        <time>2016-09-25T07:04:29.588Z</time>
      </trkpt>
      <trkpt lat="47.26525" lon="6.15416">
        <ele>513.271</ele>
        <time>2016-09-25T07:04:32.628Z</time>
      </trkpt>
      <trkpt lat="47.26524" lon="6.15433">
        <ele>514.061</ele>
        <time>2016-09-25T07:04:35.394Z</time>
      </trkpt>
      <trkpt lat="47.2652" lon="6.15449">
        <ele>515.072</ele>
        <time>2016-09-25T07:04:37.721Z</time>
      </trkpt>
      <trkpt lat="47.26518" lon="6.15466">
        <ele>516.345</ele>
        <time>2016-09-25T07:04:39.906Z</time>
      </trkpt>
      <trkpt lat="47.26532" lon="6.15483">
        <ele>516.892</ele>
        <time>2016-09-25T07:04:43.458Z</time>
      </trkpt>
      <trkpt lat="47.26538" lon="6.15497">
        <ele>516.176</ele>
        <time>2016-09-25T07:04:46.352Z</time>
      </trkpt>
      <trkpt lat="47.26543" lon="6.15517">
        <ele>514.777</ele>
        <time>2016-09-25T07:04:51.272Z</time>
      </trkpt>
      <trkpt lat="47.26543" lon="6.15535">
        <ele>513.402</ele>
        <time>2016-09-25T07:04:59.963Z</time>
      </trkpt>
      <trkpt lat="47.26552" lon="6.15542">
        <ele>512.491</ele>
        <time>2016-09-25T07:05:08.788Z</time>
      </trkpt>
      <trkpt lat="47.26556" lon="6.15553">
        <ele>512.647</ele>
        <time>2016-09-25T07:05:15.367Z</time>
      </trkpt>
      <trkpt lat="47.26562" lon="6.15566">
        <ele>514.867</ele>
        <time>2016-09-25T07:05:19.715Z</time>
      </trkpt>
      <trkpt lat="47.2657" lon="6.15579">
        <ele>518.842</ele>
        <time>2016-09-25T07:05:23.828Z</time>
      </trkpt>
      <trkpt lat="47.26574" lon="6.15592">
        <ele>522.077</ele>
        <time>2016-09-25T07:05:26.478Z</time>
      </trkpt>
      <trkpt lat="47.26579" lon="6.15611">
        <ele>522.912</ele>
        <time>2016-09-25T07:05:29.541Z</time>
      </trkpt>
      <trkpt lat="47.26587" lon="6.15629">
        <ele>522.017</ele>
        <time>2016-09-25T07:05:32.090Z</time>
      </trkpt>
      <trkpt lat="47.26593" lon="6.15646">
        <ele>520.55</ele>
        <time>2016-09-25T07:05:34.290Z</time>
      </trkpt>
      <trkpt lat="47.266" lon="6.15663">
        <ele>519.062</ele>
        <time>2016-09-25T07:05:36.326Z</time>
      </trkpt>
      <trkpt lat="47.26608" lon="6.15689">
        <ele>517.713</ele>
        <time>2016-09-25T07:05:39.630Z</time>
      </trkpt>
      <trkpt lat="47.26614" lon="6.15705">
        <ele>516.393</ele>
        <time>2016-09-25T07:05:41.783Z</time>
      </trkpt>
      <trkpt lat="47.26615" lon="6.15735">
        <ele>514.837</ele>
        <time>2016-09-25T07:05:44.565Z</time>
      </trkpt>
      <trkpt lat="47.26616" lon="6.15755">
        <ele>512.746</ele>
        <time>2016-09-25T07:05:46.298Z</time>
      </trkpt>
      <trkpt lat="47.26619" lon="6.15791">
        <ele>510.184</ele>
        <time>2016-09-25T07:05:49.293Z</time>
      </trkpt>
      <trkpt lat="47.26621" lon="6.15812">
        <ele>507.872</ele>
        <time>2016-09-25T07:05:51.175Z</time>
      </trkpt>
      <trkpt lat="47.26623" lon="6.15843">
        <ele>506.359</ele>
        <time>2016-09-25T07:05:54.302Z</time>
      </trkpt>
      <trkpt lat="47.26625" lon="6.15864">
        <ele>505.243</ele>
        <time>2016-09-25T07:05:57.068Z</time>
      </trkpt>
      <trkpt lat="47.26627" lon="6.15882">
        <ele>504.035</ele>
        <time>2016-09-25T07:06:00.146Z</time>
      </trkpt>
      <trkpt lat="47.26628" lon="6.15896">
        <ele>502.35</ele>
        <time>2016-09-25T07:06:02.732Z</time>
      </trkpt>
      <trkpt lat="47.26629" lon="6.15911">
        <ele>499.656</ele>
        <time>2016-09-25T07:06:05.572Z</time>
      </trkpt>
      <trkpt lat="47.26628" lon="6.15926">
        <ele>496.061</ele>
        <time>2016-09-25T07:06:08.282Z</time>
      </trkpt>
      <trkpt lat="47.26628" lon="6.15942">
        <ele>492.287</ele>
        <time>2016-09-25T07:06:10.752Z</time>
      </trkpt>
      <trkpt lat="47.26628" lon="6.15964">
        <ele>487.778</ele>
        <time>2016-09-25T07:06:13.832Z</time>
      </trkpt>
      <trkpt lat="47.26633" lon="6.15989">
        <ele>481.652</ele>
        <time>2016-09-25T07:06:17.168Z</time>
      </trkpt>
      <trkpt lat="47.26634" lon="6.16005">
        <ele>475.237</ele>
        <time>2016-09-25T07:06:19.232Z</time>
      </trkpt>
      <trkpt lat="47.26636" lon="6.16022">
        <ele>470.694</ele>
        <time>2016-09-25T07:06:21.250Z</time>
      </trkpt>
      <trkpt lat="47.26636" lon="6.16046">
        <ele>468.418</ele>
        <time>2016-09-25T07:06:24.032Z</time>
      </trkpt>
      <trkpt lat="47.26635" lon="6.16073">
        <ele>467.531</ele>
        <time>2016-09-25T07:06:26.789Z</time>
      </trkpt>
      <trkpt lat="47.26634" lon="6.16095">
        <ele>466.491</ele>
        <time>2016-09-25T07:06:28.821Z</time>
      </trkpt>
      <trkpt lat="47.26635" lon="6.16117">
        <ele>464.394</ele>
        <time>2016-09-25T07:06:30.919Z</time>
      </trkpt>
      <trkpt lat="47.26634" lon="6.16147">
        <ele>462.053</ele>
        <time>2016-09-25T07:06:34.096Z</time>
      </trkpt>
      <trkpt lat="47.26633" lon="6.16166">
        <ele>460.306</ele>
        <time>2016-09-25T07:06:37.128Z</time>
      </trkpt>
      <trkpt lat="47.26632" lon="6.16187">
        <ele>458.403</ele>
        <time>2016-09-25T07:06:41.211Z</time>
      </trkpt>
      <trkpt lat="47.26639" lon="6.162">
        <ele>456.079</ele>
        <time>2016-09-25T07:06:43.791Z</time>
      </trkpt>
      <trkpt lat="47.26642" lon="6.16216">
        <ele>454.109</ele>
        <time>2016-09-25T07:06:45.769Z</time>
      </trkpt>
      <trkpt lat="47.26649" lon="6.16244">
        <ele>452.951</ele>
        <time>2016-09-25T07:06:50.503Z</time>
      </trkpt>
      <trkpt lat="47.26653" lon="6.16259">
        <ele>452.197</ele>
        <time>2016-09-25T07:06:53.433Z</time>
      </trkpt>
      <trkpt lat="47.26654" lon="6.16273">
        <ele>451.431</ele>
        <time>2016-09-25T07:06:56.000Z</time>
      </trkpt>
      <trkpt lat="47.26654" lon="6.16273">
        <ele>450.772</ele>
        <time>2016-09-25T07:06:58.000Z</time>
      </trkpt>
      <trkpt lat="47.26654" lon="6.16273">
        <ele>450.437</ele>
        <time>2016-09-25T07:07:16.099Z</time>
      </trkpt>
      <trkpt lat="47.26663" lon="6.16301">
        <ele>450.289</ele>
        <time>2016-09-25T07:07:24.000Z</time>
      </trkpt>
      <trkpt lat="47.26663" lon="6.16301">
        <ele>450.161</ele>
        <time>2016-09-25T07:07:37.000Z</time>
      </trkpt>
      <trkpt lat="47.26663" lon="6.16301">
        <ele>449.966</ele>
        <time>2016-09-25T07:08:15.933Z</time>
      </trkpt>
      <trkpt lat="47.2667" lon="6.1633">
        <ele>449.756</ele>
        <time>2016-09-25T07:08:30.753Z</time>
      </trkpt>
      <trkpt lat="47.26671" lon="6.16345">
        <ele>449.068</ele>
        <time>2016-09-25T07:08:36.000Z</time>
      </trkpt>
      <trkpt lat="47.26671" lon="6.16345">
        <ele>447.557</ele>
        <time>2016-09-25T07:08:48.000Z</time>
      </trkpt>
      <trkpt lat="47.26671" lon="6.16345">
        <ele>446.257</ele>
        <time>2016-09-25T07:08:48.100Z</time>
      </trkpt>
      <trkpt lat="47.26682" lon="6.16373">
        <ele>446.096</ele>
        <time>2016-09-25T07:09:01.000Z</time>
      </trkpt>
      <trkpt lat="47.26682" lon="6.16373">
        <ele>446.45</ele>
        <time>2016-09-25T07:09:19.000Z</time>
      </trkpt>
      <trkpt lat="47.26682" lon="6.16373">
        <ele>446.519</ele>
        <time>2016-09-25T07:09:19.100Z</time>
      </trkpt>
      <trkpt lat="47.2669" lon="6.16407">
        <ele>446.276</ele>
        <time>2016-09-25T07:09:36.191Z</time>
      </trkpt>
      <trkpt lat="47.26694" lon="6.16421">
        <ele>446.155</ele>
        <time>2016-09-25T07:09:39.879Z</time>
      </trkpt>
      <trkpt lat="47.26699" lon="6.16433">
        <ele>446.397</ele>
        <time>2016-09-25T07:09:42.831Z</time>
      </trkpt>
      <trkpt lat="47.26706" lon="6.16446">
        <ele>447.098</ele>
        <time>2016-09-25T07:09:46.185Z</time>
      </trkpt>
      <trkpt lat="47.26712" lon="6.16458">
        <ele>448.152</ele>
        <time>2016-09-25T07:09:49.255Z</time>
      </trkpt>
      <trkpt lat="47.26718" lon="6.16471">
        <ele>448.994</ele>
        <time>2016-09-25T07:09:52.880Z</time>
      </trkpt>
      <trkpt lat="47.26724" lon="6.16484">
        <ele>448.925</ele>
        <time>2016-09-25T07:09:56.375Z</time>
      </trkpt>
      <trkpt lat="47.26733" lon="6.16492">
        <ele>448.036</ele>
        <time>2016-09-25T07:09:59.899Z</time>
      </trkpt>
      <trkpt lat="47.26742" lon="6.165">
        <ele>447.324</ele>
        <time>2016-09-25T07:10:03.462Z</time>
      </trkpt>
      <trkpt lat="47.26749" lon="6.16511">
        <ele>447.522</ele>
        <time>2016-09-25T07:10:07.251Z</time>
      </trkpt>
      <trkpt lat="47.26749" lon="6.16524">
        <ele>448.207</ele>
        <time>2016-09-25T07:10:10.679Z</time>
      </trkpt>
      <trkpt lat="47.26749" lon="6.16538">
        <ele>448.739</ele>
        <time>2016-09-25T07:10:14.034Z</time>
      </trkpt>
      <trkpt lat="47.2675" lon="6.16552">
        <ele>449.362</ele>
        <time>2016-09-25T07:10:17.683Z</time>
      </trkpt>
      <trkpt lat="47.26755" lon="6.16564">
        <ele>450.445</ele>
        <time>2016-09-25T07:10:21.209Z</time>
      </trkpt>
      <trkpt lat="47.26761" lon="6.16576">
        <ele>451.495</ele>
        <time>2016-09-25T07:10:25.080Z</time>
      </trkpt>
      <trkpt lat="47.26768" lon="6.16587">
        <ele>451.759</ele>
        <time>2016-09-25T07:10:28.626Z</time>
      </trkpt>
      <trkpt lat="47.26773" lon="6.166">
        <ele>451.248</ele>
        <time>2016-09-25T07:10:32.448Z</time>
      </trkpt>
      <trkpt lat="47.26782" lon="6.16612">
        <ele>450.405</ele>
        <time>2016-09-25T07:10:36.545Z</time>
      </trkpt>
      <trkpt lat="47.26789" lon="6.16621">
        <ele>449.567</ele>
        <time>2016-09-25T07:10:39.778Z</time>
      </trkpt>
      <trkpt lat="47.26795" lon="6.16633">
        <ele>448.928</ele>
        <time>2016-09-25T07:10:43.557Z</time>
      </trkpt>
      <trkpt lat="47.26801" lon="6.16647">
        <ele>448.916</ele>
        <time>2016-09-25T07:10:47.280Z</time>
      </trkpt>
      <trkpt lat="47.26806" lon="6.16659">
        <ele>449.671</ele>
        <time>2016-09-25T07:10:50.852Z</time>
      </trkpt>
      <trkpt lat="47.26811" lon="6.16672">
        <ele>450.757</ele>
        <time>2016-09-25T07:10:54.320Z</time>
      </trkpt>
      <trkpt lat="47.26816" lon="6.16687">
        <ele>451.672</ele>
        <time>2016-09-25T07:10:58.431Z</time>
      </trkpt>
      <trkpt lat="47.2682" lon="6.167">
        <ele>452.359</ele>
        <time>2016-09-25T07:11:01.582Z</time>
      </trkpt>
      <trkpt lat="47.26825" lon="6.16716">
        <ele>453.177</ele>
        <time>2016-09-25T07:11:05.589Z</time>
      </trkpt>
      <trkpt lat="47.26832" lon="6.16725">
        <ele>454.28</ele>
        <time>2016-09-25T07:11:08.650Z</time>
      </trkpt>
      <trkpt lat="47.26839" lon="6.16734">
        <ele>455.437</ele>
        <time>2016-09-25T07:11:12.127Z</time>
      </trkpt>
      <trkpt lat="47.26843" lon="6.16749">
        <ele>456.66</ele>
        <time>2016-09-25T07:11:15.640Z</time>
      </trkpt>
      <trkpt lat="47.26848" lon="6.16763">
        <ele>457.864</ele>
        <time>2016-09-25T07:11:19.314Z</time>
      </trkpt>
      <trkpt lat="47.26854" lon="6.16778">
        <ele>458.508</ele>
        <time>2016-09-25T07:11:23.312Z</time>
      </trkpt>
      <trkpt lat="47.26859" lon="6.1679">
        <ele>458.43</ele>
        <time>2016-09-25T07:11:26.277Z</time>
      </trkpt>
      <trkpt lat="47.26865" lon="6.16805">
        <ele>458.311</ele>
        <time>2016-09-25T07:11:30.184Z</time>
      </trkpt>
      <trkpt lat="47.26874" lon="6.16813">
        <ele>458.69</ele>
        <time>2016-09-25T07:11:33.409Z</time>
      </trkpt>
      <trkpt lat="47.26888" lon="6.16825">
        <ele>458.845</ele>
        <time>2016-09-25T07:11:37.543Z</time>
      </trkpt>
      <trkpt lat="47.26897" lon="6.16836">
        <ele>458.032</ele>
        <time>2016-09-25T07:11:39.783Z</time>
      </trkpt>
      <trkpt lat="47.26907" lon="6.16851">
        <ele>456.841</ele>
        <time>2016-09-25T07:11:42.559Z</time>
      </trkpt>
      <trkpt lat="47.26904" lon="6.16865">
        <ele>456.106</ele>
        <time>2016-09-25T07:11:44.970Z</time>
      </trkpt>
      <trkpt lat="47.2689" lon="6.16878">
        <ele>455.3</ele>
        <time>2016-09-25T07:11:49.467Z</time>
      </trkpt>
      <trkpt lat="47.26893" lon="6.16902">
        <ele>453.387</ele>
        <time>2016-09-25T07:11:52.808Z</time>
      </trkpt>
      <trkpt lat="47.26897" lon="6.16914">
        <ele>450.703</ele>
        <time>2016-09-25T07:11:54.766Z</time>
      </trkpt>
      <trkpt lat="47.26904" lon="6.16931">
        <ele>448.467</ele>
        <time>2016-09-25T07:11:57.889Z</time>
      </trkpt>
      <trkpt lat="47.26906" lon="6.16947">
        <ele>447.166</ele>
        <time>2016-09-25T07:12:00.855Z</time>
      </trkpt>
      <trkpt lat="47.26912" lon="6.16959">
        <ele>446.671</ele>
        <time>2016-09-25T07:12:04.393Z</time>
      </trkpt>
      <trkpt lat="47.26914" lon="6.16972">
        <ele>447.225</ele>
        <time>2016-09-25T07:12:08.370Z</time>
      </trkpt>
      <trkpt lat="47.26916" lon="6.16987">
        <ele>449.517</ele>
        <time>2016-09-25T07:12:13.741Z</time>
      </trkpt>
      <trkpt lat="47.26921" lon="6.17001">
        <ele>453.063</ele>
        <time>2016-09-25T07:12:20.668Z</time>
      </trkpt>
      <trkpt lat="47.26924" lon="6.17013">
        <ele>456.309</ele>
        <time>2016-09-25T07:12:26.669Z</time>
      </trkpt>
      <trkpt lat="47.26928" lon="6.17025">
        <ele>458.554</ele>
        <time>2016-09-25T07:12:33.864Z</time>
      </trkpt>
      <trkpt lat="47.26935" lon="6.17036">
        <ele>460.268</ele>
        <time>2016-09-25T07:12:43.684Z</time>
      </trkpt>
      <trkpt lat="47.26933" lon="6.1705">
        <ele>462.402</ele>
        <time>2016-09-25T07:12:53.219Z</time>
      </trkpt>
      <trkpt lat="47.26936" lon="6.17062">
        <ele>466.29</ele>
        <time>2016-09-25T07:13:02.452Z</time>
      </trkpt>
      <trkpt lat="47.26938" lon="6.17075">
        <ele>471.923</ele>
        <time>2016-09-25T07:13:11.668Z</time>
      </trkpt>
      <trkpt lat="47.26941" lon="6.17088">
        <ele>477.053</ele>
        <time>2016-09-25T07:13:20.563Z</time>
      </trkpt>
      <trkpt lat="47.26943" lon="6.17103">
        <ele>479.612</ele>
        <time>2016-09-25T07:13:29.927Z</time>
      </trkpt>
      <trkpt lat="47.26947" lon="6.17116">
        <ele>479.693</ele>
        <time>2016-09-25T07:13:38.980Z</time>
      </trkpt>
      <trkpt lat="47.26946" lon="6.17131">
        <ele>478.576</ele>
        <time>2016-09-25T07:13:48.397Z</time>
      </trkpt>
      <trkpt lat="47.26947" lon="6.17145">
        <ele>477.529</ele>
        <time>2016-09-25T07:13:58.089Z</time>
      </trkpt>
      <trkpt lat="47.2695" lon="6.17158">
        <ele>478.447</ele>
        <time>2016-09-25T07:14:07.292Z</time>
      </trkpt>
      <trkpt lat="47.26951" lon="6.17171">
        <ele>482.056</ele>
        <time>2016-09-25T07:14:16.990Z</time>
      </trkpt>
      <trkpt lat="47.26955" lon="6.17184">
        <ele>487.122</ele>
        <time>2016-09-25T07:14:26.996Z</time>
      </trkpt>
      <trkpt lat="47.26955" lon="6.17184">
        <ele>492.051</ele>
        <time>2016-09-25T07:14:42.996Z</time>
      </trkpt>
      <trkpt lat="47.26955" lon="6.17184">
        <ele>494.851</ele>
        <time>2016-09-25T07:14:45.244Z</time>
      </trkpt>
      <trkpt lat="47.26958" lon="6.17213">
        <ele>494.45</ele>
        <time>2016-09-25T07:15:08.938Z</time>
      </trkpt>
      <trkpt lat="47.2696" lon="6.17227">
        <ele>494.011</ele>
        <time>2016-09-25T07:15:16.029Z</time>
      </trkpt>
      <trkpt lat="47.26961" lon="6.17241">
        <ele>496.856</ele>
        <time>2016-09-25T07:15:22.860Z</time>
      </trkpt>
      <trkpt lat="47.26963" lon="6.17254">
        <ele>502.009</ele>
        <time>2016-09-25T07:15:29.488Z</time>
      </trkpt>
      <trkpt lat="47.26968" lon="6.17267">
        <ele>506.578</ele>
        <time>2016-09-25T07:15:36.221Z</time>
      </trkpt>
      <trkpt lat="47.26971" lon="6.17279">
        <ele>509.046</ele>
        <time>2016-09-25T07:15:42.925Z</time>
      </trkpt>
      <trkpt lat="47.26971" lon="6.17293">
        <ele>509.282</ele>
        <time>2016-09-25T07:15:50.436Z</time>
      </trkpt>
      <trkpt lat="47.2697" lon="6.17308">
        <ele>508.009</ele>
        <time>2016-09-25T07:15:58.962Z</time>
      </trkpt>
      <trkpt lat="47.26968" lon="6.17321">
        <ele>506.157</ele>
        <time>2016-09-25T07:16:07.158Z</time>
      </trkpt>
      <trkpt lat="47.2697" lon="6.17336">
        <ele>504.526</ele>
        <time>2016-09-25T07:16:16.208Z</time>
      </trkpt>
      <trkpt lat="47.26974" lon="6.17349">
        <ele>503.832</ele>
        <time>2016-09-25T07:16:24.517Z</time>
      </trkpt>
      <trkpt lat="47.26975" lon="6.17363">
        <ele>504.074</ele>
        <time>2016-09-25T07:16:32.686Z</time>
      </trkpt>
      <trkpt lat="47.26977" lon="6.17377">
        <ele>504.562</ele>
        <time>2016-09-25T07:16:41.285Z</time>
      </trkpt>
      <trkpt lat="47.26982" lon="6.17389">
        <ele>504.763</ele>
        <time>2016-09-25T07:16:49.027Z</time>
      </trkpt>
      <trkpt lat="47.26979" lon="6.17403">
        <ele>505.679</ele>
        <time>2016-09-25T07:16:57.008Z</time>
      </trkpt>
      <trkpt lat="47.26978" lon="6.17417">
        <ele>508.382</ele>
        <time>2016-09-25T07:17:04.867Z</time>
      </trkpt>
      <trkpt lat="47.26982" lon="6.1743">
        <ele>511.751</ele>
        <time>2016-09-25T07:17:12.827Z</time>
      </trkpt>
      <trkpt lat="47.2699" lon="6.17439">
        <ele>514.237</ele>
        <time>2016-09-25T07:17:19.770Z</time>
      </trkpt>
      <trkpt lat="47.26995" lon="6.17452">
        <ele>516.5</ele>
        <time>2016-09-25T07:17:27.530Z</time>
      </trkpt>
      <trkpt lat="47.27" lon="6.17465">
        <ele>519.422</ele>
        <time>2016-09-25T07:17:36.165Z</time>
      </trkpt>
      <trkpt lat="47.27002" lon="6.17479">
        <ele>522.242</ele>
        <time>2016-09-25T07:17:44.752Z</time>
      </trkpt>
      <trkpt lat="47.27002" lon="6.17492">
        <ele>523.897</ele>
        <time>2016-09-25T07:17:53.163Z</time>
      </trkpt>
      <trkpt lat="47.27005" lon="6.17505">
        <ele>524.417</ele>
        <time>2016-09-25T07:18:01.446Z</time>
      </trkpt>
      <trkpt lat="47.27009" lon="6.17519">
        <ele>524.797</ele>
        <time>2016-09-25T07:18:09.798Z</time>
      </trkpt>
      <trkpt lat="47.2701" lon="6.17533">
        <ele>525.786</ele>
        <time>2016-09-25T07:18:17.524Z</time>
      </trkpt>
      <trkpt lat="47.27013" lon="6.17546">
        <ele>526.909</ele>
        <time>2016-09-25T07:18:24.471Z</time>
      </trkpt>
      <trkpt lat="47.27017" lon="6.1756">
        <ele>527.391</ele>
        <time>2016-09-25T07:18:31.608Z</time>
      </trkpt>
      <trkpt lat="47.27019" lon="6.17574">
        <ele>527.22</ele>
        <time>2016-09-25T07:18:38.400Z</time>
      </trkpt>
      <trkpt lat="47.27025" lon="6.17587">
        <ele>526.823</ele>
        <time>2016-09-25T07:18:46.059Z</time>
      </trkpt>
      <trkpt lat="47.27031" lon="6.17598">
        <ele>526.648</ele>
        <time>2016-09-25T07:18:52.970Z</time>
      </trkpt>
      <trkpt lat="47.27035" lon="6.17611">
        <ele>527.343</ele>
        <time>2016-09-25T07:19:00.459Z</time>
      </trkpt>
      <trkpt lat="47.27038" lon="6.17623">
        <ele>529.439</ele>
        <time>2016-09-25T07:19:07.694Z</time>
      </trkpt>
      <trkpt lat="47.27044" lon="6.17634">
        <ele>532.311</ele>
        <time>2016-09-25T07:19:15.416Z</time>
      </trkpt>
      <trkpt lat="47.27051" lon="6.17644">
        <ele>534.655</ele>
        <time>2016-09-25T07:19:23.828Z</time>
      </trkpt>
      <trkpt lat="47.27058" lon="6.17653">
        <ele>535.853</ele>
        <time>2016-09-25T07:19:31.871Z</time>
      </trkpt>
      <trkpt lat="47.27064" lon="6.17663">
        <ele>536.766</ele>
        <time>2016-09-25T07:19:39.635Z</time>
      </trkpt>
      <trkpt lat="47.27071" lon="6.17672">
        <ele>538.55</ele>
        <time>2016-09-25T07:19:47.292Z</time>
      </trkpt>
      <trkpt lat="47.27075" lon="6.17685">
        <ele>540.741</ele>
        <time>2016-09-25T07:19:54.252Z</time>
      </trkpt>
      <trkpt lat="47.27079" lon="6.17697">
        <ele>542.513</ele>
        <time>2016-09-25T07:19:59.808Z</time>
      </trkpt>
      <trkpt lat="47.27086" lon="6.17707">
        <ele>543.894</ele>
        <time>2016-09-25T07:20:05.195Z</time>
      </trkpt>
      <trkpt lat="47.27092" lon="6.17718">
        <ele>545.149</ele>
        <time>2016-09-25T07:20:10.507Z</time>
      </trkpt>
      <trkpt lat="47.271" lon="6.17729">
        <ele>546.463</ele>
        <time>2016-09-25T07:20:16.150Z</time>
      </trkpt>
      <trkpt lat="47.27107" lon="6.17741">
        <ele>547.717</ele>
        <time>2016-09-25T07:20:22.818Z</time>
      </trkpt>
      <trkpt lat="47.27113" lon="6.17754">
        <ele>548.929</ele>
        <time>2016-09-25T07:20:30.897Z</time>
      </trkpt>
      <trkpt lat="47.2712" lon="6.17763">
        <ele>550.304</ele>
        <time>2016-09-25T07:20:39.018Z</time>
      </trkpt>
      <trkpt lat="47.27129" lon="6.17772">
        <ele>551.508</ele>
        <time>2016-09-25T07:20:47.292Z</time>
      </trkpt>
      <trkpt lat="47.27136" lon="6.17785">
        <ele>553.121</ele>
        <time>2016-09-25T07:20:53.438Z</time>
      </trkpt>
      <trkpt lat="47.27142" lon="6.17797">
        <ele>555.759</ele>
        <time>2016-09-25T07:20:59.858Z</time>
      </trkpt>
      <trkpt lat="47.27149" lon="6.17807">
        <ele>558.221</ele>
        <time>2016-09-25T07:21:06.080Z</time>
      </trkpt>
      <trkpt lat="47.27156" lon="6.17819">
        <ele>559.501</ele>
        <time>2016-09-25T07:21:12.426Z</time>
      </trkpt>
      <trkpt lat="47.27163" lon="6.17828">
        <ele>559.998</ele>
        <time>2016-09-25T07:21:18.403Z</time>
      </trkpt>
      <trkpt lat="47.27169" lon="6.17838">
        <ele>560.064</ele>
        <time>2016-09-25T07:21:23.315Z</time>
      </trkpt>
      <trkpt lat="47.27178" lon="6.17849">
        <ele>559.886</ele>
        <time>2016-09-25T07:21:29.007Z</time>
      </trkpt>
      <trkpt lat="47.27186" lon="6.17858">
        <ele>559.942</ele>
        <time>2016-09-25T07:21:34.606Z</time>
      </trkpt>
      <trkpt lat="47.27193" lon="6.17867">
        <ele>560.566</ele>
        <time>2016-09-25T07:21:40.666Z</time>
      </trkpt>
      <trkpt lat="47.27199" lon="6.17878">
        <ele>561.609</ele>
        <time>2016-09-25T07:21:48.013Z</time>
      </trkpt>
      <trkpt lat="47.27206" lon="6.17891">
        <ele>562.798</ele>
        <time>2016-09-25T07:21:55.089Z</time>
      </trkpt>
      <trkpt lat="47.27213" lon="6.17901">
        <ele>563.869</ele>
        <time>2016-09-25T07:22:00.060Z</time>
      </trkpt>
      <trkpt lat="47.27222" lon="6.17909">
        <ele>564.544</ele>
        <time>2016-09-25T07:22:05.037Z</time>
      </trkpt>
      <trkpt lat="47.27231" lon="6.17919">
        <ele>565.556</ele>
        <time>2016-09-25T07:22:09.251Z</time>
      </trkpt>
      <trkpt lat="47.27239" lon="6.17932">
        <ele>567.528</ele>
        <time>2016-09-25T07:22:13.725Z</time>
      </trkpt>
      <trkpt lat="47.27246" lon="6.17941">
        <ele>569.962</ele>
        <time>2016-09-25T07:22:17.166Z</time>
      </trkpt>
      <trkpt lat="47.27256" lon="6.17947">
        <ele>572.27</ele>
        <time>2016-09-25T07:22:20.298Z</time>
      </trkpt>
      <trkpt lat="47.27264" lon="6.17958">
        <ele>574.082</ele>
        <time>2016-09-25T07:22:23.194Z</time>
      </trkpt>
      <trkpt lat="47.27271" lon="6.1797">
        <ele>574.641</ele>
        <time>2016-09-25T07:22:26.029Z</time>
      </trkpt>
      <trkpt lat="47.27276" lon="6.17981">
        <ele>573.833</ele>
        <time>2016-09-25T07:22:28.337Z</time>
      </trkpt>
      <trkpt lat="47.27282" lon="6.17995">
        <ele>572.431</ele>
        <time>2016-09-25T07:22:31.140Z</time>
      </trkpt>
      <trkpt lat="47.27288" lon="6.18006">
        <ele>571.409</ele>
        <time>2016-09-25T07:22:33.599Z</time>
      </trkpt>
      <trkpt lat="47.27293" lon="6.18017">
        <ele>571.487</ele>
        <time>2016-09-25T07:22:36.008Z</time>
      </trkpt>
      <trkpt lat="47.27297" lon="6.18029">
        <ele>572.713</ele>
        <time>2016-09-25T07:22:38.312Z</time>
      </trkpt>
      <trkpt lat="47.27309" lon="6.18055">
        <ele>574.076</ele>
        <time>2016-09-25T07:22:43.606Z</time>
      </trkpt>
      <trkpt lat="47.27316" lon="6.18066">
        <ele>574.408</ele>
        <time>2016-09-25T07:22:46.249Z</time>
      </trkpt>
      <trkpt lat="47.27322" lon="6.1808">
        <ele>573.478</ele>
        <time>2016-09-25T07:22:49.028Z</time>
      </trkpt>
      <trkpt lat="47.27327" lon="6.18091">
        <ele>571.389</ele>
        <time>2016-09-25T07:22:51.503Z</time>
      </trkpt>
      <trkpt lat="47.27333" lon="6.18106">
        <ele>568.676</ele>
        <time>2016-09-25T07:22:54.781Z</time>
      </trkpt>
      <trkpt lat="47.27339" lon="6.18121">
        <ele>566.582</ele>
        <time>2016-09-25T07:22:58.127Z</time>
      </trkpt>
      <trkpt lat="47.27344" lon="6.18137">
        <ele>565.714</ele>
        <time>2016-09-25T07:23:01.496Z</time>
      </trkpt>
      <trkpt lat="47.27349" lon="6.18152">
        <ele>565.534</ele>
        <time>2016-09-25T07:23:04.928Z</time>
      </trkpt>
      <trkpt lat="47.27355" lon="6.18166">
        <ele>565.718</ele>
        <time>2016-09-25T07:23:09.208Z</time>
      </trkpt>
      <trkpt lat="47.27359" lon="6.18181">
        <ele>566.163</ele>
        <time>2016-09-25T07:23:13.837Z</time>
      </trkpt>
      <trkpt lat="47.27362" lon="6.182">
        <ele>566.206</ele>
        <time>2016-09-25T07:23:18.990Z</time>
      </trkpt>
      <trkpt lat="47.27364" lon="6.18219">
        <ele>565.315</ele>
        <time>2016-09-25T07:23:24.853Z</time>
      </trkpt>
      <trkpt lat="47.2737" lon="6.18234">
        <ele>564.079</ele>
        <time>2016-09-25T07:23:30.030Z</time>
      </trkpt>
      <trkpt lat="47.27374" lon="6.18246">
        <ele>563.721</ele>
        <time>2016-09-25T07:23:32.575Z</time>
      </trkpt>
      <trkpt lat="47.27377" lon="6.18261">
        <ele>564.567</ele>
        <time>2016-09-25T07:23:34.914Z</time>
      </trkpt>
      <trkpt lat="47.27383" lon="6.18276">
        <ele>565.849</ele>
        <time>2016-09-25T07:23:38.286Z</time>
      </trkpt>
      <trkpt lat="47.27388" lon="6.18291">
        <ele>566.642</ele>
        <time>2016-09-25T07:23:42.410Z</time>
      </trkpt>
      <trkpt lat="47.27391" lon="6.18304">
        <ele>566.689</ele>
        <time>2016-09-25T07:23:48.047Z</time>
      </trkpt>
      <trkpt lat="47.27391" lon="6.18318">
        <ele>566.212</ele>
        <time>2016-09-25T07:23:52.501Z</time>
      </trkpt>
      <trkpt lat="47.27396" lon="6.18333">
        <ele>565.139</ele>
        <time>2016-09-25T07:23:57.358Z</time>
      </trkpt>
      <trkpt lat="47.27399" lon="6.18347">
        <ele>563.348</ele>
        <time>2016-09-25T07:24:01.617Z</time>
      </trkpt>
      <trkpt lat="47.27403" lon="6.1836">
        <ele>561.606</ele>
        <time>2016-09-25T07:24:05.468Z</time>
      </trkpt>
      <trkpt lat="47.27407" lon="6.18372">
        <ele>560.658</ele>
        <time>2016-09-25T07:24:08.939Z</time>
      </trkpt>
      <trkpt lat="47.27411" lon="6.1839">
        <ele>560.351</ele>
        <time>2016-09-25T07:24:14.886Z</time>
      </trkpt>
      <trkpt lat="47.27415" lon="6.18411">
        <ele>559.693</ele>
        <time>2016-09-25T07:24:22.564Z</time>
      </trkpt>
      <trkpt lat="47.27419" lon="6.18428">
        <ele>558.154</ele>
        <time>2016-09-25T07:24:25.780Z</time>
      </trkpt>
      <trkpt lat="47.27423" lon="6.18442">
        <ele>557.04</ele>
        <time>2016-09-25T07:24:27.945Z</time>
      </trkpt>
      <trkpt lat="47.27427" lon="6.18455">
        <ele>557.439</ele>
        <time>2016-09-25T07:24:30.210Z</time>
      </trkpt>
      <trkpt lat="47.27432" lon="6.18468">
        <ele>558.542</ele>
        <time>2016-09-25T07:24:32.475Z</time>
      </trkpt>
      <trkpt lat="47.27438" lon="6.18482">
        <ele>559.267</ele>
        <time>2016-09-25T07:24:34.975Z</time>
      </trkpt>
      <trkpt lat="47.27442" lon="6.18495">
        <ele>559.601</ele>
        <time>2016-09-25T07:24:38.689Z</time>
      </trkpt>
      <trkpt lat="47.27447" lon="6.18508">
        <ele>560.075</ele>
        <time>2016-09-25T07:24:42.568Z</time>
      </trkpt>
      <trkpt lat="47.2745" lon="6.18525">
        <ele>560.764</ele>
        <time>2016-09-25T07:24:51.742Z</time>
      </trkpt>
      <trkpt lat="47.27453" lon="6.18538">
        <ele>561.006</ele>
        <time>2016-09-25T07:25:02.508Z</time>
      </trkpt>
      <trkpt lat="47.27459" lon="6.18552">
        <ele>560.03</ele>
        <time>2016-09-25T07:25:11.480Z</time>
      </trkpt>
      <trkpt lat="47.27464" lon="6.18565">
        <ele>558.053</ele>
        <time>2016-09-25T07:25:18.467Z</time>
      </trkpt>
      <trkpt lat="47.27469" lon="6.18577">
        <ele>555.842</ele>
        <time>2016-09-25T07:25:24.554Z</time>
      </trkpt>
      <trkpt lat="47.27473" lon="6.1859">
        <ele>553.807</ele>
        <time>2016-09-25T07:25:31.370Z</time>
      </trkpt>
      <trkpt lat="47.27479" lon="6.18602">
        <ele>552.486</ele>
        <time>2016-09-25T07:25:38.334Z</time>
      </trkpt>
      <trkpt lat="47.27486" lon="6.18614">
        <ele>552.243</ele>
        <time>2016-09-25T07:25:46.485Z</time>
      </trkpt>
      <trkpt lat="47.27495" lon="6.18636">
        <ele>552.679</ele>
        <time>2016-09-25T07:25:56.203Z</time>
      </trkpt>
      <trkpt lat="47.27504" lon="6.18653">
        <ele>553.335</ele>
        <time>2016-09-25T07:26:01.347Z</time>
      </trkpt>
      <trkpt lat="47.27509" lon="6.18665">
        <ele>553.965</ele>
        <time>2016-09-25T07:26:04.275Z</time>
      </trkpt>
      <trkpt lat="47.27514" lon="6.18678">
        <ele>554.494</ele>
        <time>2016-09-25T07:26:07.291Z</time>
      </trkpt>
      <trkpt lat="47.27521" lon="6.18689">
        <ele>555.199</ele>
        <time>2016-09-25T07:26:10.571Z</time>
      </trkpt>
      <trkpt lat="47.27526" lon="6.187">
        <ele>556.337</ele>
        <time>2016-09-25T07:26:14.159Z</time>
      </trkpt>
      <trkpt lat="47.27531" lon="6.18714">
        <ele>558.142</ele>
        <time>2016-09-25T07:26:18.763Z</time>
      </trkpt>
      <trkpt lat="47.27536" lon="6.18727">
        <ele>560.447</ele>
        <time>2016-09-25T07:26:23.911Z</time>
      </trkpt>
      <trkpt lat="47.27538" lon="6.18741">
        <ele>562.313</ele>
        <time>2016-09-25T07:26:28.861Z</time>
      </trkpt>
      <trkpt lat="47.27544" lon="6.18752">
        <ele>562.612</ele>
        <time>2016-09-25T07:26:33.539Z</time>
      </trkpt>
      <trkpt lat="47.27548" lon="6.18766">
        <ele>561.143</ele>
        <time>2016-09-25T07:26:38.457Z</time>
      </trkpt>
      <trkpt lat="47.27552" lon="6.18778">
        <ele>558.698</ele>
        <time>2016-09-25T07:26:43.625Z</time>
      </trkpt>
      <trkpt lat="47.27556" lon="6.18791">
        <ele>556.588</ele>
        <time>2016-09-25T07:26:49.304Z</time>
      </trkpt>
      <trkpt lat="47.27559" lon="6.18804">
        <ele>555.209</ele>
        <time>2016-09-25T07:26:54.570Z</time>
      </trkpt>
      <trkpt lat="47.27563" lon="6.18818">
        <ele>554.196</ele>
        <time>2016-09-25T07:27:00.184Z</time>
      </trkpt>
      <trkpt lat="47.27569" lon="6.18832">
        <ele>553.286</ele>
        <time>2016-09-25T07:27:06.552Z</time>
      </trkpt>
      <trkpt lat="47.27574" lon="6.18844">
        <ele>552.457</ele>
        <time>2016-09-25T07:27:11.865Z</time>
      </trkpt>
      <trkpt lat="47.27579" lon="6.18855">
        <ele>551.81</ele>
        <time>2016-09-25T07:27:16.837Z</time>
      </trkpt>
      <trkpt lat="47.27583" lon="6.18868">
        <ele>551.364</ele>
        <time>2016-09-25T07:27:22.206Z</time>
      </trkpt>
      <trkpt lat="47.27588" lon="6.18882">
        <ele>550.97</ele>
        <time>2016-09-25T07:27:27.522Z</time>
      </trkpt>
      <trkpt lat="47.27591" lon="6.18896">
        <ele>550.789</ele>
        <time>2016-09-25T07:27:32.456Z</time>
      </trkpt>
      <trkpt lat="47.27595" lon="6.18909">
        <ele>551.07</ele>
        <time>2016-09-25T07:27:38.174Z</time>
      </trkpt>
      <trkpt lat="47.27598" lon="6.18925">
        <ele>551.66</ele>
        <time>2016-09-25T07:27:45.532Z</time>
      </trkpt>
      <trkpt lat="47.27602" lon="6.18938">
        <ele>552.02</ele>
        <time>2016-09-25T07:27:51.573Z</time>
      </trkpt>
      <trkpt lat="47.27603" lon="6.18954">
        <ele>551.884</ele>
        <time>2016-09-25T07:27:57.499Z</time>
      </trkpt>
      <trkpt lat="47.27609" lon="6.18968">
        <ele>551.68</ele>
        <time>2016-09-25T07:28:03.215Z</time>
      </trkpt>
      <trkpt lat="47.27616" lon="6.1898">
        <ele>551.986</ele>
        <time>2016-09-25T07:28:08.890Z</time>
      </trkpt>
      <trkpt lat="47.2762" lon="6.18993">
        <ele>552.747</ele>
        <time>2016-09-25T07:28:13.911Z</time>
      </trkpt>
      <trkpt lat="47.27623" lon="6.19007">
        <ele>553.498</ele>
        <time>2016-09-25T07:28:19.271Z</time>
      </trkpt>
      <trkpt lat="47.27626" lon="6.1902">
        <ele>553.975</ele>
        <time>2016-09-25T07:28:24.852Z</time>
      </trkpt>
      <trkpt lat="47.27627" lon="6.19036">
        <ele>553.929</ele>
        <time>2016-09-25T07:28:30.540Z</time>
      </trkpt>
      <trkpt lat="47.2763" lon="6.19052">
        <ele>553.027</ele>
        <time>2016-09-25T07:28:34.428Z</time>
      </trkpt>
      <trkpt lat="47.27637" lon="6.19063">
        <ele>551.135</ele>
        <time>2016-09-25T07:28:37.770Z</time>
      </trkpt>
      <trkpt lat="47.27642" lon="6.19078">
        <ele>548.799</ele>
        <time>2016-09-25T07:28:41.346Z</time>
      </trkpt>
      <trkpt lat="47.27648" lon="6.19093">
        <ele>547.122</ele>
        <time>2016-09-25T07:28:44.878Z</time>
      </trkpt>
      <trkpt lat="47.2765" lon="6.19106">
        <ele>546.821</ele>
        <time>2016-09-25T07:28:47.823Z</time>
      </trkpt>
      <trkpt lat="47.27653" lon="6.19119">
        <ele>547.305</ele>
        <time>2016-09-25T07:28:51.027Z</time>
      </trkpt>
      <trkpt lat="47.2766" lon="6.19132">
        <ele>547.112</ele>
        <time>2016-09-25T07:28:54.873Z</time>
      </trkpt>
      <trkpt lat="47.27666" lon="6.19143">
        <ele>545.563</ele>
        <time>2016-09-25T07:28:58.775Z</time>
      </trkpt>
      <trkpt lat="47.27673" lon="6.19154">
        <ele>543.529</ele>
        <time>2016-09-25T07:29:04.264Z</time>
      </trkpt>
      <trkpt lat="47.27677" lon="6.19167">
        <ele>542.056</ele>
        <time>2016-09-25T07:29:09.959Z</time>
      </trkpt>
      <trkpt lat="47.27681" lon="6.19179">
        <ele>541.701</ele>
        <time>2016-09-25T07:29:13.565Z</time>
      </trkpt>
      <trkpt lat="47.27687" lon="6.19192">
        <ele>542.346</ele>
        <time>2016-09-25T07:29:16.642Z</time>
      </trkpt>
      <trkpt lat="47.27692" lon="6.19204">
        <ele>543.132</ele>
        <time>2016-09-25T07:29:19.076Z</time>
      </trkpt>
      <trkpt lat="47.27693" lon="6.19217">
        <ele>543.072</ele>
        <time>2016-09-25T07:29:21.125Z</time>
      </trkpt>
      <trkpt lat="47.277" lon="6.19232">
        <ele>541.791</ele>
        <time>2016-09-25T07:29:23.302Z</time>
      </trkpt>
      <trkpt lat="47.27704" lon="6.19244">
        <ele>539.567</ele>
        <time>2016-09-25T07:29:24.928Z</time>
      </trkpt>
      <trkpt lat="47.27709" lon="6.1926">
        <ele>536.838</ele>
        <time>2016-09-25T07:29:26.789Z</time>
      </trkpt>
      <trkpt lat="47.27712" lon="6.19275">
        <ele>534.022</ele>
        <time>2016-09-25T07:29:28.397Z</time>
      </trkpt>
      <trkpt lat="47.27716" lon="6.19288">
        <ele>531.705</ele>
        <time>2016-09-25T07:29:29.778Z</time>
      </trkpt>
      <trkpt lat="47.27722" lon="6.193">
        <ele>530.298</ele>
        <time>2016-09-25T07:29:31.033Z</time>
      </trkpt>
      <trkpt lat="47.27727" lon="6.19315">
        <ele>529.346</ele>
        <time>2016-09-25T07:29:32.474Z</time>
      </trkpt>
      <trkpt lat="47.27732" lon="6.1933">
        <ele>528.257</ele>
        <time>2016-09-25T07:29:33.743Z</time>
      </trkpt>
      <trkpt lat="47.27738" lon="6.19342">
        <ele>527.153</ele>
        <time>2016-09-25T07:29:34.939Z</time>
      </trkpt>
      <trkpt lat="47.27742" lon="6.19355">
        <ele>526.567</ele>
        <time>2016-09-25T07:29:35.967Z</time>
      </trkpt>
      <trkpt lat="47.27738" lon="6.1937">
        <ele>526.69</ele>
        <time>2016-09-25T07:29:37.103Z</time>
      </trkpt>
      <trkpt lat="47.27734" lon="6.19384">
        <ele>527.231</ele>
        <time>2016-09-25T07:29:38.079Z</time>
      </trkpt>
      <trkpt lat="47.27726" lon="6.19396">
        <ele>527.688</ele>
        <time>2016-09-25T07:29:39.216Z</time>
      </trkpt>
      <trkpt lat="47.27715" lon="6.19407">
        <ele>527.321</ele>
        <time>2016-09-25T07:29:40.429Z</time>
      </trkpt>
      <trkpt lat="47.27704" lon="6.19416">
        <ele>525.586</ele>
        <time>2016-09-25T07:29:41.604Z</time>
      </trkpt>
      <trkpt lat="47.27688" lon="6.19429">
        <ele>523.341</ele>
        <time>2016-09-25T07:29:43.285Z</time>
      </trkpt>
      <trkpt lat="47.27674" lon="6.1944">
        <ele>521.953</ele>
        <time>2016-09-25T07:29:44.602Z</time>
      </trkpt>
      <trkpt lat="47.27658" lon="6.1945">
        <ele>522.219</ele>
        <time>2016-09-25T07:29:46.117Z</time>
      </trkpt>
      <trkpt lat="47.27646" lon="6.19455">
        <ele>523.919</ele>
        <time>2016-09-25T07:29:47.140Z</time>
      </trkpt>
      <trkpt lat="47.27633" lon="6.19465">
        <ele>525.818</ele>
        <time>2016-09-25T07:29:48.344Z</time>
      </trkpt>
      <trkpt lat="47.27621" lon="6.19483">
        <ele>526.87</ele>
        <time>2016-09-25T07:29:49.804Z</time>
      </trkpt>
      <trkpt lat="47.27603" lon="6.19514">
        <ele>527.006</ele>
        <time>2016-09-25T07:29:52.303Z</time>
      </trkpt>
      <trkpt lat="47.27589" lon="6.19534">
        <ele>526.525</ele>
        <time>2016-09-25T07:29:54.229Z</time>
      </trkpt>
      <trkpt lat="47.27559" lon="6.19561">
        <ele>525.776</ele>
        <time>2016-09-25T07:29:59.963Z</time>
      </trkpt>
      <trkpt lat="47.27535" lon="6.1959">
        <ele>525.055</ele>
        <time>2016-09-25T07:30:06.806Z</time>
      </trkpt>
      <trkpt lat="47.27518" lon="6.19608">
        <ele>524.588</ele>
        <time>2016-09-25T07:30:12.569Z</time>
      </trkpt>
      <trkpt lat="47.27495" lon="6.19637">
        <ele>524.245</ele>
        <time>2016-09-25T07:30:19.204Z</time>
      </trkpt>
      <trkpt lat="47.27483" lon="6.19658">
        <ele>523.829</ele>
        <time>2016-09-25T07:30:22.017Z</time>
      </trkpt>
      <trkpt lat="47.2747" lon="6.19697">
        <ele>523.306</ele>
        <time>2016-09-25T07:30:26.846Z</time>
      </trkpt>
      <trkpt lat="47.27467" lon="6.19716">
        <ele>522.165</ele>
        <time>2016-09-25T07:30:29.602Z</time>
      </trkpt>
      <trkpt lat="47.27457" lon="6.19724">
        <ele>519.395</ele>
        <time>2016-09-25T07:30:31.309Z</time>
      </trkpt>
      <trkpt lat="47.27445" lon="6.19737">
        <ele>515.012</ele>
        <time>2016-09-25T07:30:33.320Z</time>
      </trkpt>
      <trkpt lat="47.27429" lon="6.19746">
        <ele>510.451</ele>
        <time>2016-09-25T07:30:35.325Z</time>
      </trkpt>
      <trkpt lat="47.27418" lon="6.19752">
        <ele>506.539</ele>
        <time>2016-09-25T07:30:36.696Z</time>
      </trkpt>
      <trkpt lat="47.27412" lon="6.19762">
        <ele>503.289</ele>
        <time>2016-09-25T07:30:37.757Z</time>
      </trkpt>
      <trkpt lat="47.27403" lon="6.19769">
        <ele>501.138</ele>
        <time>2016-09-25T07:30:38.987Z</time>
      </trkpt>
      <trkpt lat="47.27387" lon="6.1978">
        <ele>500.354</ele>
        <time>2016-09-25T07:30:41.271Z</time>
      </trkpt>
      <trkpt lat="47.27366" lon="6.19801">
        <ele>499.8</ele>
        <time>2016-09-25T07:30:45.778Z</time>
      </trkpt>
      <trkpt lat="47.27352" lon="6.19815">
        <ele>498.18</ele>
        <time>2016-09-25T07:30:49.390Z</time>
      </trkpt>
      <trkpt lat="47.27339" lon="6.19827">
        <ele>495.826</ele>
        <time>2016-09-25T07:30:53.170Z</time>
      </trkpt>
      <trkpt lat="47.2733" lon="6.19834">
        <ele>493.322</ele>
        <time>2016-09-25T07:30:55.968Z</time>
      </trkpt>
      <trkpt lat="47.27321" lon="6.19843">
        <ele>489.798</ele>
        <time>2016-09-25T07:30:59.003Z</time>
      </trkpt>
      <trkpt lat="47.27299" lon="6.19862">
        <ele>485.069</ele>
        <time>2016-09-25T07:31:03.947Z</time>
      </trkpt>
      <trkpt lat="47.27286" lon="6.19875">
        <ele>480.196</ele>
        <time>2016-09-25T07:31:06.249Z</time>
      </trkpt>
      <trkpt lat="47.27264" lon="6.1989">
        <ele>476.119</ele>
        <time>2016-09-25T07:31:09.340Z</time>
      </trkpt>
      <trkpt lat="47.27245" lon="6.19909">
        <ele>473.232</ele>
        <time>2016-09-25T07:31:12.109Z</time>
      </trkpt>
      <trkpt lat="47.27235" lon="6.19919">
        <ele>470.549</ele>
        <time>2016-09-25T07:31:13.657Z</time>
      </trkpt>
      <trkpt lat="47.27222" lon="6.1993">
        <ele>466.851</ele>
        <time>2016-09-25T07:31:15.349Z</time>
      </trkpt>
      <trkpt lat="47.27209" lon="6.19935">
        <ele>462.627</ele>
        <time>2016-09-25T07:31:16.871Z</time>
      </trkpt>
      <trkpt lat="47.27199" lon="6.19944">
        <ele>457.833</ele>
        <time>2016-09-25T07:31:18.232Z</time>
      </trkpt>
      <trkpt lat="47.27198" lon="6.19959">
        <ele>451.58</ele>
        <time>2016-09-25T07:31:19.426Z</time>
      </trkpt>
      <trkpt lat="47.27196" lon="6.19975">
        <ele>444.84</ele>
        <time>2016-09-25T07:31:20.633Z</time>
      </trkpt>
      <trkpt lat="47.27197" lon="6.20003">
        <ele>439.78</ele>
        <time>2016-09-25T07:31:23.103Z</time>
      </trkpt>
      <trkpt lat="47.27197" lon="6.20026">
        <ele>436.398</ele>
        <time>2016-09-25T07:31:25.531Z</time>
      </trkpt>
      <trkpt lat="47.272" lon="6.20052">
        <ele>433.069</ele>
        <time>2016-09-25T07:31:29.107Z</time>
      </trkpt>
      <trkpt lat="47.27205" lon="6.2008">
        <ele>429.522</ele>
        <time>2016-09-25T07:31:33.557Z</time>
      </trkpt>
      <trkpt lat="47.27209" lon="6.20102">
        <ele>426.832</ele>
        <time>2016-09-25T07:31:37.816Z</time>
      </trkpt>
      <trkpt lat="47.27221" lon="6.2014">
        <ele>425.069</ele>
        <time>2016-09-25T07:31:46.656Z</time>
      </trkpt>
      <trkpt lat="47.27229" lon="6.2016">
        <ele>423.716</ele>
        <time>2016-09-25T07:31:50.743Z</time>
      </trkpt>
      <trkpt lat="47.27243" lon="6.20189">
        <ele>422.591</ele>
        <time>2016-09-25T07:31:55.989Z</time>
      </trkpt>
      <trkpt lat="47.27252" lon="6.20208">
        <ele>421.446</ele>
        <time>2016-09-25T07:31:59.258Z</time>
      </trkpt>
      <trkpt lat="47.2726" lon="6.20226">
        <ele>420.027</ele>
        <time>2016-09-25T07:32:02.276Z</time>
      </trkpt>
      <trkpt lat="47.2727" lon="6.20242">
        <ele>418.647</ele>
        <time>2016-09-25T07:32:05.366Z</time>
      </trkpt>
      <trkpt lat="47.27278" lon="6.20257">
        <ele>417.662</ele>
        <time>2016-09-25T07:32:07.853Z</time>
      </trkpt>
      <trkpt lat="47.27286" lon="6.20271">
        <ele>417.146</ele>
        <time>2016-09-25T07:32:10.092Z</time>
      </trkpt>
      <trkpt lat="47.27292" lon="6.20282">
        <ele>417.19</ele>
        <time>2016-09-25T07:32:11.822Z</time>
      </trkpt>
      <trkpt lat="47.27298" lon="6.20295">
        <ele>417.774</ele>
        <time>2016-09-25T07:32:13.763Z</time>
      </trkpt>
      <trkpt lat="47.27305" lon="6.20307">
        <ele>418.886</ele>
        <time>2016-09-25T07:32:15.641Z</time>
      </trkpt>
      <trkpt lat="47.27311" lon="6.20318">
        <ele>420.393</ele>
        <time>2016-09-25T07:32:17.406Z</time>
      </trkpt>
      <trkpt lat="47.2732" lon="6.20333">
        <ele>421.675</ele>
        <time>2016-09-25T07:32:19.812Z</time>
      </trkpt>
      <trkpt lat="47.27332" lon="6.20348">
        <ele>422.332</ele>
        <time>2016-09-25T07:32:22.863Z</time>
      </trkpt>
      <trkpt lat="47.27342" lon="6.20363">
        <ele>422.428</ele>
        <time>2016-09-25T07:32:25.800Z</time>
      </trkpt>
      <trkpt lat="47.27348" lon="6.2038">
        <ele>421.971</ele>
        <time>2016-09-25T07:32:28.459Z</time>
      </trkpt>
      <trkpt lat="47.27355" lon="6.20397">
        <ele>420.928</ele>
        <time>2016-09-25T07:32:30.915Z</time>
      </trkpt>
      <trkpt lat="47.27359" lon="6.20408">
        <ele>419.307</ele>
        <time>2016-09-25T07:32:32.477Z</time>
      </trkpt>
      <trkpt lat="47.27367" lon="6.20426">
        <ele>417.392</ele>
        <time>2016-09-25T07:32:34.689Z</time>
      </trkpt>
      <trkpt lat="47.27374" lon="6.20443">
        <ele>415.414</ele>
        <time>2016-09-25T07:32:36.721Z</time>
      </trkpt>
      <trkpt lat="47.27389" lon="6.20462">
        <ele>413.524</ele>
        <time>2016-09-25T07:32:39.671Z</time>
      </trkpt>
      <trkpt lat="47.27391" lon="6.20478">
        <ele>412.52</ele>
        <time>2016-09-25T07:32:41.530Z</time>
      </trkpt>
      <trkpt lat="47.27399" lon="6.20491">
        <ele>412.819</ele>
        <time>2016-09-25T07:32:43.931Z</time>
      </trkpt>
      <trkpt lat="47.27405" lon="6.20504">
        <ele>413.824</ele>
        <time>2016-09-25T07:32:46.326Z</time>
      </trkpt>
      <trkpt lat="47.27412" lon="6.20519">
        <ele>414.757</ele>
        <time>2016-09-25T07:32:48.767Z</time>
      </trkpt>
      <trkpt lat="47.27422" lon="6.20537">
        <ele>415.192</ele>
        <time>2016-09-25T07:32:51.182Z</time>
      </trkpt>
      <trkpt lat="47.27426" lon="6.20552">
        <ele>415.111</ele>
        <time>2016-09-25T07:32:52.698Z</time>
      </trkpt>
      <trkpt lat="47.27423" lon="6.20571">
        <ele>414.789</ele>
        <time>2016-09-25T07:32:54.369Z</time>
      </trkpt>
      <trkpt lat="47.27411" lon="6.20591">
        <ele>414.49</ele>
        <time>2016-09-25T07:32:57.400Z</time>
      </trkpt>
      <trkpt lat="47.27397" lon="6.20603">
        <ele>414.573</ele>
        <time>2016-09-25T07:33:01.345Z</time>
      </trkpt>
      <trkpt lat="47.27385" lon="6.20613">
        <ele>415.257</ele>
        <time>2016-09-25T07:33:04.477Z</time>
      </trkpt>
      <trkpt lat="47.27365" lon="6.20614">
        <ele>416.342</ele>
        <time>2016-09-25T07:33:07.933Z</time>
      </trkpt>
      <trkpt lat="47.27356" lon="6.20617">
        <ele>417.664</ele>
        <time>2016-09-25T07:33:09.536Z</time>
      </trkpt>
      <trkpt lat="47.27346" lon="6.20618">
        <ele>419.295</ele>
        <time>2016-09-25T07:33:10.921Z</time>
      </trkpt>
      <trkpt lat="47.27332" lon="6.20617">
        <ele>420.93</ele>
        <time>2016-09-25T07:33:13.049Z</time>
      </trkpt>
      <trkpt lat="47.2731" lon="6.20619">
        <ele>422.121</ele>
        <time>2016-09-25T07:33:16.104Z</time>
      </trkpt>
      <trkpt lat="47.27286" lon="6.20621">
        <ele>422.806</ele>
        <time>2016-09-25T07:33:19.583Z</time>
      </trkpt>
      <trkpt lat="47.27282" lon="6.20633">
        <ele>423.092</ele>
        <time>2016-09-25T07:33:21.053Z</time>
      </trkpt>
      <trkpt lat="47.27292" lon="6.2064">
        <ele>423.378</ele>
        <time>2016-09-25T07:33:22.727Z</time>
      </trkpt>
      <trkpt lat="47.27301" lon="6.20649">
        <ele>424.026</ele>
        <time>2016-09-25T07:33:24.409Z</time>
      </trkpt>
      <trkpt lat="47.27309" lon="6.20658">
        <ele>424.715</ele>
        <time>2016-09-25T07:33:25.851Z</time>
      </trkpt>
      <trkpt lat="47.27328" lon="6.2067">
        <ele>425.052</ele>
        <time>2016-09-25T07:33:28.657Z</time>
      </trkpt>
      <trkpt lat="47.27337" lon="6.2068">
        <ele>425.307</ele>
        <time>2016-09-25T07:33:30.320Z</time>
      </trkpt>
      <trkpt lat="47.27348" lon="6.20692">
        <ele>425.758</ele>
        <time>2016-09-25T07:33:32.848Z</time>
      </trkpt>
      <trkpt lat="47.27368" lon="6.20703">
        <ele>425.849</ele>
        <time>2016-09-25T07:33:37.069Z</time>
      </trkpt>
      <trkpt lat="47.27379" lon="6.20701">
        <ele>424.632</ele>
        <time>2016-09-25T07:33:39.351Z</time>
      </trkpt>
      <trkpt lat="47.27398" lon="6.20699">
        <ele>422.413</ele>
        <time>2016-09-25T07:33:43.166Z</time>
      </trkpt>
      <trkpt lat="47.27415" lon="6.20686">
        <ele>420.727</ele>
        <time>2016-09-25T07:33:47.262Z</time>
      </trkpt>
      <trkpt lat="47.27427" lon="6.20686">
        <ele>420.454</ele>
        <time>2016-09-25T07:33:49.969Z</time>
      </trkpt>
      <trkpt lat="47.27444" lon="6.20685">
        <ele>421.623</ele>
        <time>2016-09-25T07:33:53.856Z</time>
      </trkpt>
      <trkpt lat="47.27459" lon="6.2069">
        <ele>423.847</ele>
        <time>2016-09-25T07:33:56.812Z</time>
      </trkpt>
      <trkpt lat="47.2747" lon="6.20703">
        <ele>425.852</ele>
        <time>2016-09-25T07:34:00.138Z</time>
      </trkpt>
      <trkpt lat="47.27476" lon="6.20716">
        <ele>426.264</ele>
        <time>2016-09-25T07:34:03.328Z</time>
      </trkpt>
      <trkpt lat="47.27483" lon="6.20735">
        <ele>425.165</ele>
        <time>2016-09-25T07:34:07.842Z</time>
      </trkpt>
      <trkpt lat="47.27489" lon="6.20752">
        <ele>423.419</ele>
        <time>2016-09-25T07:34:11.072Z</time>
      </trkpt>
      <trkpt lat="47.27498" lon="6.20768">
        <ele>421.717</ele>
        <time>2016-09-25T07:34:14.065Z</time>
      </trkpt>
      <trkpt lat="47.27498" lon="6.20783">
        <ele>420.783</ele>
        <time>2016-09-25T07:34:16.286Z</time>
      </trkpt>
      <trkpt lat="47.27503" lon="6.208">
        <ele>420.92</ele>
        <time>2016-09-25T07:34:18.585Z</time>
      </trkpt>
      <trkpt lat="47.27511" lon="6.20816">
        <ele>421.31</ele>
        <time>2016-09-25T07:34:21.030Z</time>
      </trkpt>
      <trkpt lat="47.27518" lon="6.20832">
        <ele>421.251</ele>
        <time>2016-09-25T07:34:23.404Z</time>
      </trkpt>
      <trkpt lat="47.27521" lon="6.20844">
        <ele>421.098</ele>
        <time>2016-09-25T07:34:25.188Z</time>
      </trkpt>
      <trkpt lat="47.27524" lon="6.20859">
        <ele>421.367</ele>
        <time>2016-09-25T07:34:27.609Z</time>
      </trkpt>
      <trkpt lat="47.27524" lon="6.20879">
        <ele>421.872</ele>
        <time>2016-09-25T07:34:30.988Z</time>
      </trkpt>
      <trkpt lat="47.27523" lon="6.20893">
        <ele>422.071</ele>
        <time>2016-09-25T07:34:33.870Z</time>
      </trkpt>
      <trkpt lat="47.27528" lon="6.20914">
        <ele>421.58</ele>
        <time>2016-09-25T07:34:39.023Z</time>
      </trkpt>
      <trkpt lat="47.27534" lon="6.20928">
        <ele>420.602</ele>
        <time>2016-09-25T07:34:42.426Z</time>
      </trkpt>
      <trkpt lat="47.27542" lon="6.20943">
        <ele>420.278</ele>
        <time>2016-09-25T07:34:45.517Z</time>
      </trkpt>
      <trkpt lat="47.27555" lon="6.20964">
        <ele>421.222</ele>
        <time>2016-09-25T07:34:50.952Z</time>
      </trkpt>
      <trkpt lat="47.27562" lon="6.20975">
        <ele>422.17</ele>
        <time>2016-09-25T07:34:53.770Z</time>
      </trkpt>
      <trkpt lat="47.27572" lon="6.20989">
        <ele>421.978</ele>
        <time>2016-09-25T07:34:56.998Z</time>
      </trkpt>
      <trkpt lat="47.27581" lon="6.20999">
        <ele>421.542</ele>
        <time>2016-09-25T07:34:59.620Z</time>
      </trkpt>
      <trkpt lat="47.27588" lon="6.2101">
        <ele>422.307</ele>
        <time>2016-09-25T07:35:01.980Z</time>
      </trkpt>
      <trkpt lat="47.27596" lon="6.21021">
        <ele>424.259</ele>
        <time>2016-09-25T07:35:04.474Z</time>
      </trkpt>
      <trkpt lat="47.27606" lon="6.2103">
        <ele>426.158</ele>
        <time>2016-09-25T07:35:07.273Z</time>
      </trkpt>
      <trkpt lat="47.27618" lon="6.21041">
        <ele>426.719</ele>
        <time>2016-09-25T07:35:10.677Z</time>
      </trkpt>
      <trkpt lat="47.27627" lon="6.21052">
        <ele>425.808</ele>
        <time>2016-09-25T07:35:13.697Z</time>
      </trkpt>
      <trkpt lat="47.27635" lon="6.21059">
        <ele>424.524</ele>
        <time>2016-09-25T07:35:16.270Z</time>
      </trkpt>
      <trkpt lat="47.27645" lon="6.21068">
        <ele>423.81</ele>
        <time>2016-09-25T07:35:19.604Z</time>
      </trkpt>
      <trkpt lat="47.27655" lon="6.21077">
        <ele>423.37</ele>
        <time>2016-09-25T07:35:23.431Z</time>
      </trkpt>
      <trkpt lat="47.27665" lon="6.21085">
        <ele>422.73</ele>
        <time>2016-09-25T07:35:27.199Z</time>
      </trkpt>
      <trkpt lat="47.27676" lon="6.21093">
        <ele>422.09</ele>
        <time>2016-09-25T07:35:31.257Z</time>
      </trkpt>
      <trkpt lat="47.27685" lon="6.21101">
        <ele>422.04</ele>
        <time>2016-09-25T07:35:35.094Z</time>
      </trkpt>
      <trkpt lat="47.27694" lon="6.21111">
        <ele>422.636</ele>
        <time>2016-09-25T07:35:38.910Z</time>
      </trkpt>
      <trkpt lat="47.27701" lon="6.21122">
        <ele>423.238</ele>
        <time>2016-09-25T07:35:42.701Z</time>
      </trkpt>
      <trkpt lat="47.27708" lon="6.21131">
        <ele>423.33</ele>
        <time>2016-09-25T07:35:46.012Z</time>
      </trkpt>
      <trkpt lat="47.27714" lon="6.21142">
        <ele>423.12</ele>
        <time>2016-09-25T07:35:49.577Z</time>
      </trkpt>
      <trkpt lat="47.27719" lon="6.21154">
        <ele>423.36</ele>
        <time>2016-09-25T07:35:53.028Z</time>
      </trkpt>
      <trkpt lat="47.27727" lon="6.21165">
        <ele>424.675</ele>
        <time>2016-09-25T07:35:56.840Z</time>
      </trkpt>
      <trkpt lat="47.27734" lon="6.21173">
        <ele>426.563</ele>
        <time>2016-09-25T07:36:00.247Z</time>
      </trkpt>
      <trkpt lat="47.27742" lon="6.21184">
        <ele>427.911</ele>
        <time>2016-09-25T07:36:04.355Z</time>
      </trkpt>
      <trkpt lat="47.27749" lon="6.21195">
        <ele>428.192</ele>
        <time>2016-09-25T07:36:08.340Z</time>
      </trkpt>
      <trkpt lat="47.27757" lon="6.21203">
        <ele>427.499</ele>
        <time>2016-09-25T07:36:12.116Z</time>
      </trkpt>
      <trkpt lat="47.27766" lon="6.21211">
        <ele>426.41</ele>
        <time>2016-09-25T07:36:16.287Z</time>
      </trkpt>
      <trkpt lat="47.27774" lon="6.2122">
        <ele>425.642</ele>
        <time>2016-09-25T07:36:20.050Z</time>
      </trkpt>
      <trkpt lat="47.27781" lon="6.21231">
        <ele>426.302</ele>
        <time>2016-09-25T07:36:24.261Z</time>
      </trkpt>
      <trkpt lat="47.27789" lon="6.21239">
        <ele>428.711</ele>
        <time>2016-09-25T07:36:28.080Z</time>
      </trkpt>
      <trkpt lat="47.27797" lon="6.21244">
        <ele>431.246</ele>
        <time>2016-09-25T07:36:31.674Z</time>
      </trkpt>
      <trkpt lat="47.27805" lon="6.21251">
        <ele>432.469</ele>
        <time>2016-09-25T07:36:35.280Z</time>
      </trkpt>
      <trkpt lat="47.27813" lon="6.2126">
        <ele>432.379</ele>
        <time>2016-09-25T07:36:39.293Z</time>
      </trkpt>
      <trkpt lat="47.27819" lon="6.21273">
        <ele>431.445</ele>
        <time>2016-09-25T07:36:43.342Z</time>
      </trkpt>
      <trkpt lat="47.27828" lon="6.21281">
        <ele>430.51</ele>
        <time>2016-09-25T07:36:47.342Z</time>
      </trkpt>
      <trkpt lat="47.27838" lon="6.21288">
        <ele>430.251</ele>
        <time>2016-09-25T07:36:51.622Z</time>
      </trkpt>
      <trkpt lat="47.27846" lon="6.21295">
        <ele>431.231</ele>
        <time>2016-09-25T07:36:55.201Z</time>
      </trkpt>
      <trkpt lat="47.27856" lon="6.21301">
        <ele>433.49</ele>
        <time>2016-09-25T07:36:59.125Z</time>
      </trkpt>
      <trkpt lat="47.27865" lon="6.21306">
        <ele>435.82</ele>
        <time>2016-09-25T07:37:02.690Z</time>
      </trkpt>
      <trkpt lat="47.27875" lon="6.21314">
        <ele>437.209</ele>
        <time>2016-09-25T07:37:07.020Z</time>
      </trkpt>
      <trkpt lat="47.27884" lon="6.21319">
        <ele>437.81</ele>
        <time>2016-09-25T07:37:10.464Z</time>
      </trkpt>
      <trkpt lat="47.27894" lon="6.21325">
        <ele>437.999</ele>
        <time>2016-09-25T07:37:14.432Z</time>
      </trkpt>
      <trkpt lat="47.27905" lon="6.21331">
        <ele>437.991</ele>
        <time>2016-09-25T07:37:18.656Z</time>
      </trkpt>
      <trkpt lat="47.27915" lon="6.21338">
        <ele>438.49</ele>
        <time>2016-09-25T07:37:22.725Z</time>
      </trkpt>
      <trkpt lat="47.27924" lon="6.21343">
        <ele>440.381</ele>
        <time>2016-09-25T07:37:26.439Z</time>
      </trkpt>
      <trkpt lat="47.27934" lon="6.21347">
        <ele>443.102</ele>
        <time>2016-09-25T07:37:30.625Z</time>
      </trkpt>
      <trkpt lat="47.27944" lon="6.21351">
        <ele>444.925</ele>
        <time>2016-09-25T07:37:34.537Z</time>
      </trkpt>
      <trkpt lat="47.27952" lon="6.21358">
        <ele>445.223</ele>
        <time>2016-09-25T07:37:38.302Z</time>
      </trkpt>
      <trkpt lat="47.27961" lon="6.21367">
        <ele>444.745</ele>
        <time>2016-09-25T07:37:42.606Z</time>
      </trkpt>
      <trkpt lat="47.2797" lon="6.21372">
        <ele>444.468</ele>
        <time>2016-09-25T07:37:46.309Z</time>
      </trkpt>
      <trkpt lat="47.27978" lon="6.21378">
        <ele>444.552</ele>
        <time>2016-09-25T07:37:50.264Z</time>
      </trkpt>
      <trkpt lat="47.27986" lon="6.21386">
        <ele>444.143</ele>
        <time>2016-09-25T07:37:54.185Z</time>
      </trkpt>
      <trkpt lat="47.27994" lon="6.21393">
        <ele>442.84</ele>
        <time>2016-09-25T07:37:58.132Z</time>
      </trkpt>
      <trkpt lat="47.28002" lon="6.21398">
        <ele>441.472</ele>
        <time>2016-09-25T07:38:02.141Z</time>
      </trkpt>
      <trkpt lat="47.28012" lon="6.21404">
        <ele>440.812</ele>
        <time>2016-09-25T07:38:06.714Z</time>
      </trkpt>
      <trkpt lat="47.28021" lon="6.21411">
        <ele>441.097</ele>
        <time>2016-09-25T07:38:11.479Z</time>
      </trkpt>
      <trkpt lat="47.2803" lon="6.21416">
        <ele>442.194</ele>
        <time>2016-09-25T07:38:15.778Z</time>
      </trkpt>
      <trkpt lat="47.28039" lon="6.21423">
        <ele>443.458</ele>
        <time>2016-09-25T07:38:20.312Z</time>
      </trkpt>
      <trkpt lat="47.28047" lon="6.2143">
        <ele>444.14</ele>
        <time>2016-09-25T07:38:24.428Z</time>
      </trkpt>
      <trkpt lat="47.28057" lon="6.21434">
        <ele>444.118</ele>
        <time>2016-09-25T07:38:28.944Z</time>
      </trkpt>
      <trkpt lat="47.28068" lon="6.21436">
        <ele>443.952</ele>
        <time>2016-09-25T07:38:34.343Z</time>
      </trkpt>
      <trkpt lat="47.28077" lon="6.21437">
        <ele>444.627</ele>
        <time>2016-09-25T07:38:39.259Z</time>
      </trkpt>
      <trkpt lat="47.28086" lon="6.21442">
        <ele>447.144</ele>
        <time>2016-09-25T07:38:44.369Z</time>
      </trkpt>
      <trkpt lat="47.28095" lon="6.21448">
        <ele>450.963</ele>
        <time>2016-09-25T07:38:49.986Z</time>
      </trkpt>
      <trkpt lat="47.28105" lon="6.21449">
        <ele>454.481</ele>
        <time>2016-09-25T07:38:55.817Z</time>
      </trkpt>
      <trkpt lat="47.28115" lon="6.2145">
        <ele>457.04</ele>
        <time>2016-09-25T07:39:02.661Z</time>
      </trkpt>
      <trkpt lat="47.28125" lon="6.21454">
        <ele>458.909</ele>
        <time>2016-09-25T07:39:09.664Z</time>
      </trkpt>
      <trkpt lat="47.28134" lon="6.21456">
        <ele>460.873</ele>
        <time>2016-09-25T07:39:16.333Z</time>
      </trkpt>
      <trkpt lat="47.28143" lon="6.21456">
        <ele>463.514</ele>
        <time>2016-09-25T07:39:23.731Z</time>
      </trkpt>
      <trkpt lat="47.28152" lon="6.21454">
        <ele>466.092</ele>
        <time>2016-09-25T07:39:31.191Z</time>
      </trkpt>
      <trkpt lat="47.28163" lon="6.21452">
        <ele>467.704</ele>
        <time>2016-09-25T07:39:39.755Z</time>
      </trkpt>
      <trkpt lat="47.28172" lon="6.21446">
        <ele>468.686</ele>
        <time>2016-09-25T07:39:48.604Z</time>
      </trkpt>
      <trkpt lat="47.28181" lon="6.21447">
        <ele>469.665</ele>
        <time>2016-09-25T07:39:58.120Z</time>
      </trkpt>
      <trkpt lat="47.28189" lon="6.21437">
        <ele>470.082</ele>
        <time>2016-09-25T07:40:07.274Z</time>
      </trkpt>
      <trkpt lat="47.28198" lon="6.21433">
        <ele>469.349</ele>
        <time>2016-09-25T07:40:16.749Z</time>
      </trkpt>
      <trkpt lat="47.28208" lon="6.2143">
        <ele>468.677</ele>
        <time>2016-09-25T07:40:26.203Z</time>
      </trkpt>
      <trkpt lat="47.28217" lon="6.21425">
        <ele>469.202</ele>
        <time>2016-09-25T07:40:34.992Z</time>
      </trkpt>
      <trkpt lat="47.28226" lon="6.21422">
        <ele>470.737</ele>
        <time>2016-09-25T07:40:43.319Z</time>
      </trkpt>
      <trkpt lat="47.28236" lon="6.2142">
        <ele>473.063</ele>
        <time>2016-09-25T07:40:51.992Z</time>
      </trkpt>
      <trkpt lat="47.28246" lon="6.21416">
        <ele>475.72</ele>
        <time>2016-09-25T07:41:00.655Z</time>
      </trkpt>
      <trkpt lat="47.28256" lon="6.21414">
        <ele>477.624</ele>
        <time>2016-09-25T07:41:08.123Z</time>
      </trkpt>
      <trkpt lat="47.28265" lon="6.21415">
        <ele>478.465</ele>
        <time>2016-09-25T07:41:15.645Z</time>
      </trkpt>
      <trkpt lat="47.28275" lon="6.21416">
        <ele>478.76</ele>
        <time>2016-09-25T07:41:24.285Z</time>
      </trkpt>
      <trkpt lat="47.28286" lon="6.21415">
        <ele>479.04</ele>
        <time>2016-09-25T07:41:33.920Z</time>
      </trkpt>
      <trkpt lat="47.28295" lon="6.21415">
        <ele>479.546</ele>
        <time>2016-09-25T07:41:41.317Z</time>
      </trkpt>
      <trkpt lat="47.28305" lon="6.21418">
        <ele>480.093</ele>
        <time>2016-09-25T07:41:46.693Z</time>
      </trkpt>
      <trkpt lat="47.28314" lon="6.21414">
        <ele>480.391</ele>
        <time>2016-09-25T07:41:51.781Z</time>
      </trkpt>
      <trkpt lat="47.28324" lon="6.21409">
        <ele>480.488</ele>
        <time>2016-09-25T07:41:57.034Z</time>
      </trkpt>
      <trkpt lat="47.28333" lon="6.21407">
        <ele>480.955</ele>
        <time>2016-09-25T07:42:02.721Z</time>
      </trkpt>
      <trkpt lat="47.28342" lon="6.21402">
        <ele>482.831</ele>
        <time>2016-09-25T07:42:09.180Z</time>
      </trkpt>
      <trkpt lat="47.28351" lon="6.21396">
        <ele>486.461</ele>
        <time>2016-09-25T07:42:16.747Z</time>
      </trkpt>
      <trkpt lat="47.2836" lon="6.2139">
        <ele>490.646</ele>
        <time>2016-09-25T07:42:23.718Z</time>
      </trkpt>
      <trkpt lat="47.2837" lon="6.21389">
        <ele>494.441</ele>
        <time>2016-09-25T07:42:31.886Z</time>
      </trkpt>
      <trkpt lat="47.28379" lon="6.21387">
        <ele>497.694</ele>
        <time>2016-09-25T07:42:40.319Z</time>
      </trkpt>
      <trkpt lat="47.28388" lon="6.21382">
        <ele>499.815</ele>
        <time>2016-09-25T07:42:49.324Z</time>
      </trkpt>
      <trkpt lat="47.28396" lon="6.21377">
        <ele>500.04</ele>
        <time>2016-09-25T07:42:57.694Z</time>
      </trkpt>
      <trkpt lat="47.28406" lon="6.21378">
        <ele>498.802</ele>
        <time>2016-09-25T07:43:04.971Z</time>
      </trkpt>
      <trkpt lat="47.28415" lon="6.21378">
        <ele>497.686</ele>
        <time>2016-09-25T07:43:09.120Z</time>
      </trkpt>
      <trkpt lat="47.28422" lon="6.21369">
        <ele>498.247</ele>
        <time>2016-09-25T07:43:12.800Z</time>
      </trkpt>
      <trkpt lat="47.28424" lon="6.21355">
        <ele>500.39</ele>
        <time>2016-09-25T07:43:16.681Z</time>
      </trkpt>
      <trkpt lat="47.28419" lon="6.21343">
        <ele>502.59</ele>
        <time>2016-09-25T07:43:21.064Z</time>
      </trkpt>
      <trkpt lat="47.28411" lon="6.21335">
        <ele>503.813</ele>
        <time>2016-09-25T07:43:25.140Z</time>
      </trkpt>
      <trkpt lat="47.28405" lon="6.21322">
        <ele>504.156</ele>
        <time>2016-09-25T07:43:29.925Z</time>
      </trkpt>
      <trkpt lat="47.28401" lon="6.21311">
        <ele>503.777</ele>
        <time>2016-09-25T07:43:34.111Z</time>
      </trkpt>
      <trkpt lat="47.28398" lon="6.21296">
        <ele>502.836</ele>
        <time>2016-09-25T07:43:39.079Z</time>
      </trkpt>
      <trkpt lat="47.28395" lon="6.21282">
        <ele>501.401</ele>
        <time>2016-09-25T07:43:44.073Z</time>
      </trkpt>
      <trkpt lat="47.28392" lon="6.21269">
        <ele>499.545</ele>
        <time>2016-09-25T07:43:48.939Z</time>
      </trkpt>
      <trkpt lat="47.28391" lon="6.21254">
        <ele>497.979</ele>
        <time>2016-09-25T07:43:54.223Z</time>
      </trkpt>
      <trkpt lat="47.28389" lon="6.21241">
        <ele>497.59</ele>
        <time>2016-09-25T07:43:59.297Z</time>
      </trkpt>
      <trkpt lat="47.28393" lon="6.21227">
        <ele>498.592</ele>
        <time>2016-09-25T07:44:05.194Z</time>
      </trkpt>
      <trkpt lat="47.28394" lon="6.21213">
        <ele>500.42</ele>
        <time>2016-09-25T07:44:10.741Z</time>
      </trkpt>
      <trkpt lat="47.28393" lon="6.21198">
        <ele>502.082</ele>
        <time>2016-09-25T07:44:16.374Z</time>
      </trkpt>
      <trkpt lat="47.28393" lon="6.21183">
        <ele>503.015</ele>
        <time>2016-09-25T07:44:22.418Z</time>
      </trkpt>
      <trkpt lat="47.28394" lon="6.21169">
        <ele>503.799</ele>
        <time>2016-09-25T07:44:28.435Z</time>
      </trkpt>
      <trkpt lat="47.28393" lon="6.21155">
        <ele>505.112</ele>
        <time>2016-09-25T07:44:35.440Z</time>
      </trkpt>
      <trkpt lat="47.28386" lon="6.21145">
        <ele>506.637</ele>
        <time>2016-09-25T07:44:42.000Z</time>
      </trkpt>
      <trkpt lat="47.28386" lon="6.21145">
        <ele>507.807</ele>
        <time>2016-09-25T07:44:48.000Z</time>
      </trkpt>
      <trkpt lat="47.28386" lon="6.21145">
        <ele>508.287</ele>
        <time>2016-09-25T07:56:09.000Z</time>
      </trkpt>
      <trkpt lat="47.28383" lon="6.21116">
        <ele>507.917</ele>
        <time>2016-09-25T07:56:36.139Z</time>
      </trkpt>
      <trkpt lat="47.28379" lon="6.21102">
        <ele>507.156</ele>
        <time>2016-09-25T07:56:40.254Z</time>
      </trkpt>
      <trkpt lat="47.28374" lon="6.21086">
        <ele>506.151</ele>
        <time>2016-09-25T07:56:43.896Z</time>
      </trkpt>
      <trkpt lat="47.28363" lon="6.21067">
        <ele>504.802</ele>
        <time>2016-09-25T07:56:47.915Z</time>
      </trkpt>
      <trkpt lat="47.28358" lon="6.21055">
        <ele>503.821</ele>
        <time>2016-09-25T07:56:49.635Z</time>
      </trkpt>
      <trkpt lat="47.28345" lon="6.21033">
        <ele>503.977</ele>
        <time>2016-09-25T07:56:52.605Z</time>
      </trkpt>
      <trkpt lat="47.28337" lon="6.21017">
        <ele>504.809</ele>
        <time>2016-09-25T07:56:54.263Z</time>
      </trkpt>
      <trkpt lat="47.28325" lon="6.20998">
        <ele>505.443</ele>
        <time>2016-09-25T07:56:56.419Z</time>
      </trkpt>
      <trkpt lat="47.28314" lon="6.20976">
        <ele>505.531</ele>
        <time>2016-09-25T07:56:58.423Z</time>
      </trkpt>
      <trkpt lat="47.28293" lon="6.20944">
        <ele>505.23</ele>
        <time>2016-09-25T07:57:02.504Z</time>
      </trkpt>
      <trkpt lat="47.28273" lon="6.20917">
        <ele>504.871</ele>
        <time>2016-09-25T07:57:08.126Z</time>
      </trkpt>
      <trkpt lat="47.28266" lon="6.20908">
        <ele>504.414</ele>
        <time>2016-09-25T07:57:10.680Z</time>
      </trkpt>
      <trkpt lat="47.28265" lon="6.20891">
        <ele>503.859</ele>
        <time>2016-09-25T07:57:14.484Z</time>
      </trkpt>
      <trkpt lat="47.28268" lon="6.20878">
        <ele>503.52</ele>
        <time>2016-09-25T07:57:17.982Z</time>
      </trkpt>
      <trkpt lat="47.28267" lon="6.20863">
        <ele>503.372</ele>
        <time>2016-09-25T07:57:22.376Z</time>
      </trkpt>
      <trkpt lat="47.28267" lon="6.20849">
        <ele>503.031</ele>
        <time>2016-09-25T07:57:27.060Z</time>
      </trkpt>
      <trkpt lat="47.2827" lon="6.20836">
        <ele>502.441</ele>
        <time>2016-09-25T07:57:31.828Z</time>
      </trkpt>
      <trkpt lat="47.28274" lon="6.20823">
        <ele>501.856</ele>
        <time>2016-09-25T07:57:36.644Z</time>
      </trkpt>
      <trkpt lat="47.28282" lon="6.20814">
        <ele>502.313</ele>
        <time>2016-09-25T07:57:42.404Z</time>
      </trkpt>
      <trkpt lat="47.28284" lon="6.20799">
        <ele>504.297</ele>
        <time>2016-09-25T07:57:48.060Z</time>
      </trkpt>
      <trkpt lat="47.28285" lon="6.20786">
        <ele>506.552</ele>
        <time>2016-09-25T07:57:53.281Z</time>
      </trkpt>
      <trkpt lat="47.28284" lon="6.20772">
        <ele>507.539</ele>
        <time>2016-09-25T07:57:58.821Z</time>
      </trkpt>
      <trkpt lat="47.28284" lon="6.20757">
        <ele>507.233</ele>
        <time>2016-09-25T07:58:04.448Z</time>
      </trkpt>
      <trkpt lat="47.28288" lon="6.20743">
        <ele>506.502</ele>
        <time>2016-09-25T07:58:10.335Z</time>
      </trkpt>
      <trkpt lat="47.28291" lon="6.2073">
        <ele>506.113</ele>
        <time>2016-09-25T07:58:15.622Z</time>
      </trkpt>
      <trkpt lat="47.28297" lon="6.2072">
        <ele>507.034</ele>
        <time>2016-09-25T07:58:21.196Z</time>
      </trkpt>
      <trkpt lat="47.28303" lon="6.20707">
        <ele>509.657</ele>
        <time>2016-09-25T07:58:27.517Z</time>
      </trkpt>
      <trkpt lat="47.28309" lon="6.20697">
        <ele>512.79</ele>
        <time>2016-09-25T07:58:33.055Z</time>
      </trkpt>
      <trkpt lat="47.28315" lon="6.20686">
        <ele>515.232</ele>
        <time>2016-09-25T07:58:38.721Z</time>
      </trkpt>
      <trkpt lat="47.2832" lon="6.20675">
        <ele>516.974</ele>
        <time>2016-09-25T07:58:43.702Z</time>
      </trkpt>
      <trkpt lat="47.28323" lon="6.20661">
        <ele>518.268</ele>
        <time>2016-09-25T07:58:48.513Z</time>
      </trkpt>
      <trkpt lat="47.28327" lon="6.20647">
        <ele>519.355</ele>
        <time>2016-09-25T07:58:53.213Z</time>
      </trkpt>
      <trkpt lat="47.28331" lon="6.20634">
        <ele>520.343</ele>
        <time>2016-09-25T07:58:57.530Z</time>
      </trkpt>
      <trkpt lat="47.28332" lon="6.2062">
        <ele>521.428</ele>
        <time>2016-09-25T07:59:01.916Z</time>
      </trkpt>
      <trkpt lat="47.28329" lon="6.20606">
        <ele>522.596</ele>
        <time>2016-09-25T07:59:06.540Z</time>
      </trkpt>
      <trkpt lat="47.28324" lon="6.2059">
        <ele>523.03</ele>
        <time>2016-09-25T07:59:11.191Z</time>
      </trkpt>
      <trkpt lat="47.28317" lon="6.20574">
        <ele>521.952</ele>
        <time>2016-09-25T07:59:14.899Z</time>
      </trkpt>
      <trkpt lat="47.2831" lon="6.20562">
        <ele>520.084</ele>
        <time>2016-09-25T07:59:18.054Z</time>
      </trkpt>
      <trkpt lat="47.28302" lon="6.2055">
        <ele>518.721</ele>
        <time>2016-09-25T07:59:21.075Z</time>
      </trkpt>
      <trkpt lat="47.28294" lon="6.20539">
        <ele>518.239</ele>
        <time>2016-09-25T07:59:23.992Z</time>
      </trkpt>
      <trkpt lat="47.28286" lon="6.20524">
        <ele>518.27</ele>
        <time>2016-09-25T07:59:27.201Z</time>
      </trkpt>
      <trkpt lat="47.28278" lon="6.20512">
        <ele>518.581</ele>
        <time>2016-09-25T07:59:30.118Z</time>
      </trkpt>
      <trkpt lat="47.28269" lon="6.205">
        <ele>519.086</ele>
        <time>2016-09-25T07:59:33.139Z</time>
      </trkpt>
      <trkpt lat="47.2826" lon="6.20488">
        <ele>519.401</ele>
        <time>2016-09-25T07:59:36.332Z</time>
      </trkpt>
      <trkpt lat="47.28252" lon="6.20474">
        <ele>519.259</ele>
        <time>2016-09-25T07:59:39.392Z</time>
      </trkpt>
      <trkpt lat="47.28246" lon="6.20463">
        <ele>518.935</ele>
        <time>2016-09-25T07:59:41.672Z</time>
      </trkpt>
      <trkpt lat="47.28241" lon="6.20446">
        <ele>518.737</ele>
        <time>2016-09-25T07:59:45.870Z</time>
      </trkpt>
      <trkpt lat="47.28241" lon="6.20431">
        <ele>519.484</ele>
        <time>2016-09-25T07:59:49.499Z</time>
      </trkpt>
      <trkpt lat="47.28245" lon="6.20419">
        <ele>522.112</ele>
        <time>2016-09-25T07:59:54.626Z</time>
      </trkpt>
      <trkpt lat="47.2825" lon="6.20408">
        <ele>525.662</ele>
        <time>2016-09-25T07:59:59.704Z</time>
      </trkpt>
      <trkpt lat="47.28256" lon="6.20394">
        <ele>529.623</ele>
        <time>2016-09-25T08:00:05.137Z</time>
      </trkpt>
      <trkpt lat="47.28258" lon="6.20376">
        <ele>535.601</ele>
        <time>2016-09-25T08:00:09.242Z</time>
      </trkpt>
      <trkpt lat="47.28251" lon="6.20355">
        <ele>542.746</ele>
        <time>2016-09-25T08:00:13.470Z</time>
      </trkpt>
      <trkpt lat="47.28249" lon="6.20337">
        <ele>547.009</ele>
        <time>2016-09-25T08:00:16.568Z</time>
      </trkpt>
      <trkpt lat="47.28249" lon="6.20317">
        <ele>546.749</ele>
        <time>2016-09-25T08:00:19.892Z</time>
      </trkpt>
      <trkpt lat="47.28249" lon="6.20296">
        <ele>543.887</ele>
        <time>2016-09-25T08:00:23.278Z</time>
      </trkpt>
      <trkpt lat="47.28248" lon="6.20282">
        <ele>540.865</ele>
        <time>2016-09-25T08:00:25.492Z</time>
      </trkpt>
      <trkpt lat="47.28248" lon="6.20263">
        <ele>538.824</ele>
        <time>2016-09-25T08:00:28.315Z</time>
      </trkpt>
      <trkpt lat="47.28248" lon="6.20243">
        <ele>537.69</ele>
        <time>2016-09-25T08:00:31.368Z</time>
      </trkpt>
      <trkpt lat="47.2825" lon="6.20222">
        <ele>536.572</ele>
        <time>2016-09-25T08:00:35.035Z</time>
      </trkpt>
      <trkpt lat="47.28252" lon="6.20207">
        <ele>535.095</ele>
        <time>2016-09-25T08:00:37.709Z</time>
      </trkpt>
      <trkpt lat="47.28255" lon="6.20194">
        <ele>534.046</ele>
        <time>2016-09-25T08:00:40.289Z</time>
      </trkpt>
      <trkpt lat="47.28261" lon="6.20209">
        <ele>534.03</ele>
        <time>2016-09-25T08:00:43.846Z</time>
      </trkpt>
      <trkpt lat="47.28269" lon="6.20216">
        <ele>533.923</ele>
        <time>2016-09-25T08:00:46.750Z</time>
      </trkpt>
      <trkpt lat="47.2828" lon="6.20217">
        <ele>532.649</ele>
        <time>2016-09-25T08:00:50.439Z</time>
      </trkpt>
      <trkpt lat="47.28292" lon="6.20214">
        <ele>530.529</ele>
        <time>2016-09-25T08:00:53.838Z</time>
      </trkpt>
      <trkpt lat="47.28303" lon="6.2021">
        <ele>528.318</ele>
        <time>2016-09-25T08:00:56.369Z</time>
      </trkpt>
      <trkpt lat="47.28312" lon="6.20207">
        <ele>526.668</ele>
        <time>2016-09-25T08:00:58.045Z</time>
      </trkpt>
      <trkpt lat="47.28338" lon="6.20201">
        <ele>526.021</ele>
        <time>2016-09-25T08:01:02.343Z</time>
      </trkpt>
      <trkpt lat="47.28366" lon="6.20192">
        <ele>526.212</ele>
        <time>2016-09-25T08:01:06.375Z</time>
      </trkpt>
      <trkpt lat="47.28382" lon="6.20186">
        <ele>526.872</ele>
        <time>2016-09-25T08:01:08.959Z</time>
      </trkpt>
      <trkpt lat="47.28398" lon="6.2018">
        <ele>527.554</ele>
        <time>2016-09-25T08:01:11.723Z</time>
      </trkpt>
      <trkpt lat="47.28411" lon="6.20176">
        <ele>527.78</ele>
        <time>2016-09-25T08:01:13.987Z</time>
      </trkpt>
      <trkpt lat="47.28421" lon="6.20177">
        <ele>527.196</ele>
        <time>2016-09-25T08:01:15.548Z</time>
      </trkpt>
      <trkpt lat="47.28437" lon="6.20172">
        <ele>525.885</ele>
        <time>2016-09-25T08:01:18.822Z</time>
      </trkpt>
      <trkpt lat="47.28451" lon="6.20167">
        <ele>524.516</ele>
        <time>2016-09-25T08:01:22.966Z</time>
      </trkpt>
      <trkpt lat="47.28468" lon="6.2016">
        <ele>523.654</ele>
        <time>2016-09-25T08:01:29.215Z</time>
      </trkpt>
      <trkpt lat="47.28478" lon="6.20155">
        <ele>523.256</ele>
        <time>2016-09-25T08:01:32.664Z</time>
      </trkpt>
      <trkpt lat="47.28488" lon="6.20143">
        <ele>522.617</ele>
        <time>2016-09-25T08:01:36.840Z</time>
      </trkpt>
      <trkpt lat="47.28488" lon="6.20127">
        <ele>520.952</ele>
        <time>2016-09-25T08:01:40.034Z</time>
      </trkpt>
      <trkpt lat="47.2849" lon="6.20112">
        <ele>518.621</ele>
        <time>2016-09-25T08:01:42.294Z</time>
      </trkpt>
      <trkpt lat="47.28492" lon="6.20093">
        <ele>516.884</ele>
        <time>2016-09-25T08:01:44.560Z</time>
      </trkpt>
      <trkpt lat="47.28493" lon="6.20079">
        <ele>516.923</ele>
        <time>2016-09-25T08:01:46.272Z</time>
      </trkpt>
      <trkpt lat="47.28496" lon="6.20062">
        <ele>518.683</ele>
        <time>2016-09-25T08:01:48.388Z</time>
      </trkpt>
      <trkpt lat="47.28499" lon="6.20046">
        <ele>520.144</ele>
        <time>2016-09-25T08:01:50.517Z</time>
      </trkpt>
      <trkpt lat="47.28506" lon="6.20015">
        <ele>519.811</ele>
        <time>2016-09-25T08:01:56.217Z</time>
      </trkpt>
      <trkpt lat="47.28508" lon="6.19986">
        <ele>518.265</ele>
        <time>2016-09-25T08:02:03.193Z</time>
      </trkpt>
      <trkpt lat="47.28506" lon="6.19971">
        <ele>516.357</ele>
        <time>2016-09-25T08:02:06.946Z</time>
      </trkpt>
      <trkpt lat="47.28507" lon="6.19955">
        <ele>514.689</ele>
        <time>2016-09-25T08:02:10.758Z</time>
      </trkpt>
      <trkpt lat="47.28509" lon="6.1994">
        <ele>513.611</ele>
        <time>2016-09-25T08:02:13.973Z</time>
      </trkpt>
      <trkpt lat="47.28508" lon="6.19927">
        <ele>512.668</ele>
        <time>2016-09-25T08:02:16.655Z</time>
      </trkpt>
      <trkpt lat="47.28504" lon="6.19912">
        <ele>511.249</ele>
        <time>2016-09-25T08:02:19.395Z</time>
      </trkpt>
      <trkpt lat="47.28505" lon="6.19898">
        <ele>508.934</ele>
        <time>2016-09-25T08:02:22.057Z</time>
      </trkpt>
      <trkpt lat="47.28503" lon="6.19883">
        <ele>505.706</ele>
        <time>2016-09-25T08:02:24.933Z</time>
      </trkpt>
      <trkpt lat="47.28499" lon="6.19864">
        <ele>502.046</ele>
        <time>2016-09-25T08:02:29.000Z</time>
      </trkpt>
      <trkpt lat="47.28492" lon="6.19844">
        <ele>498.434</ele>
        <time>2016-09-25T08:02:34.156Z</time>
      </trkpt>
      <trkpt lat="47.28492" lon="6.19831">
        <ele>495.154</ele>
        <time>2016-09-25T08:02:37.919Z</time>
      </trkpt>
      <trkpt lat="47.2849" lon="6.19812">
        <ele>492.569</ele>
        <time>2016-09-25T08:02:44.120Z</time>
      </trkpt>
      <trkpt lat="47.28486" lon="6.19797">
        <ele>490.769</ele>
        <time>2016-09-25T08:02:49.314Z</time>
      </trkpt>
      <trkpt lat="47.28483" lon="6.19782">
        <ele>489.548</ele>
        <time>2016-09-25T08:02:53.639Z</time>
      </trkpt>
      <trkpt lat="47.2848" lon="6.19768">
        <ele>488.841</ele>
        <time>2016-09-25T08:02:57.937Z</time>
      </trkpt>
      <trkpt lat="47.28476" lon="6.19755">
        <ele>488.684</ele>
        <time>2016-09-25T08:03:02.599Z</time>
      </trkpt>
      <trkpt lat="47.28479" lon="6.19741">
        <ele>488.982</ele>
        <time>2016-09-25T08:03:08.215Z</time>
      </trkpt>
      <trkpt lat="47.28479" lon="6.19726">
        <ele>490.025</ele>
        <time>2016-09-25T08:03:14.653Z</time>
      </trkpt>
      <trkpt lat="47.28481" lon="6.19712">
        <ele>492.076</ele>
        <time>2016-09-25T08:03:21.076Z</time>
      </trkpt>
      <trkpt lat="47.28482" lon="6.19696">
        <ele>494.351</ele>
        <time>2016-09-25T08:03:28.938Z</time>
      </trkpt>
      <trkpt lat="47.28483" lon="6.19681">
        <ele>495.746</ele>
        <time>2016-09-25T08:03:36.281Z</time>
      </trkpt>
      <trkpt lat="47.28482" lon="6.19665">
        <ele>496.416</ele>
        <time>2016-09-25T08:03:43.851Z</time>
      </trkpt>
      <trkpt lat="47.28477" lon="6.19652">
        <ele>497.334</ele>
        <time>2016-09-25T08:03:49.237Z</time>
      </trkpt>
      <trkpt lat="47.28474" lon="6.19638">
        <ele>498.803</ele>
        <time>2016-09-25T08:03:54.224Z</time>
      </trkpt>
      <trkpt lat="47.28471" lon="6.19626">
        <ele>500.388</ele>
        <time>2016-09-25T08:03:58.822Z</time>
      </trkpt>
      <trkpt lat="47.28465" lon="6.19612">
        <ele>501.826</ele>
        <time>2016-09-25T08:04:04.137Z</time>
      </trkpt>
      <trkpt lat="47.28461" lon="6.196">
        <ele>502.974</ele>
        <time>2016-09-25T08:04:08.643Z</time>
      </trkpt>
      <trkpt lat="47.28457" lon="6.19588">
        <ele>503.965</ele>
        <time>2016-09-25T08:04:13.111Z</time>
      </trkpt>
      <trkpt lat="47.28453" lon="6.19576">
        <ele>505.231</ele>
        <time>2016-09-25T08:04:17.622Z</time>
      </trkpt>
      <trkpt lat="47.28447" lon="6.19561">
        <ele>506.409</ele>
        <time>2016-09-25T08:04:23.416Z</time>
      </trkpt>
      <trkpt lat="47.28443" lon="6.19549">
        <ele>506.771</ele>
        <time>2016-09-25T08:04:27.706Z</time>
      </trkpt>
      <trkpt lat="47.28439" lon="6.19535">
        <ele>506.506</ele>
        <time>2016-09-25T08:04:32.412Z</time>
      </trkpt>
      <trkpt lat="47.28434" lon="6.19521">
        <ele>506.2</ele>
        <time>2016-09-25T08:04:36.520Z</time>
      </trkpt>
      <trkpt lat="47.28428" lon="6.19507">
        <ele>506.064</ele>
        <time>2016-09-25T08:04:40.453Z</time>
      </trkpt>
      <trkpt lat="47.28427" lon="6.19491">
        <ele>506.178</ele>
        <time>2016-09-25T08:04:43.546Z</time>
      </trkpt>
      <trkpt lat="47.28423" lon="6.19479">
        <ele>507.119</ele>
        <time>2016-09-25T08:04:45.749Z</time>
      </trkpt>
      <trkpt lat="47.28415" lon="6.19467">
        <ele>509.013</ele>
        <time>2016-09-25T08:04:48.143Z</time>
      </trkpt>
      <trkpt lat="47.28409" lon="6.19456">
        <ele>510.685</ele>
        <time>2016-09-25T08:04:50.104Z</time>
      </trkpt>
      <trkpt lat="47.28405" lon="6.19443">
        <ele>511.26</ele>
        <time>2016-09-25T08:04:51.862Z</time>
      </trkpt>
      <trkpt lat="47.28405" lon="6.19427">
        <ele>511.383</ele>
        <time>2016-09-25T08:04:54.051Z</time>
      </trkpt>
      <trkpt lat="47.284" lon="6.19412">
        <ele>512.3</ele>
        <time>2016-09-25T08:04:55.969Z</time>
      </trkpt>
      <trkpt lat="47.28398" lon="6.19399">
        <ele>514.305</ele>
        <time>2016-09-25T08:04:57.565Z</time>
      </trkpt>
      <trkpt lat="47.28396" lon="6.19385">
        <ele>516.798</ele>
        <time>2016-09-25T08:04:59.203Z</time>
      </trkpt>
      <trkpt lat="47.28392" lon="6.19372">
        <ele>519.146</ele>
        <time>2016-09-25T08:05:00.798Z</time>
      </trkpt>
      <trkpt lat="47.28388" lon="6.19358">
        <ele>520.652</ele>
        <time>2016-09-25T08:05:02.606Z</time>
      </trkpt>
      <trkpt lat="47.28382" lon="6.19336">
        <ele>520.837</ele>
        <time>2016-09-25T08:05:05.851Z</time>
      </trkpt>
      <trkpt lat="47.28378" lon="6.19321">
        <ele>519.767</ele>
        <time>2016-09-25T08:05:08.632Z</time>
      </trkpt>
      <trkpt lat="47.28375" lon="6.19306">
        <ele>517.875</ele>
        <time>2016-09-25T08:05:11.565Z</time>
      </trkpt>
      <trkpt lat="47.2837" lon="6.19291">
        <ele>515.768</ele>
        <time>2016-09-25T08:05:14.422Z</time>
      </trkpt>
      <trkpt lat="47.28364" lon="6.19266">
        <ele>513.91</ele>
        <time>2016-09-25T08:05:18.864Z</time>
      </trkpt>
      <trkpt lat="47.28359" lon="6.19249">
        <ele>512.605</ele>
        <time>2016-09-25T08:05:21.765Z</time>
      </trkpt>
      <trkpt lat="47.28349" lon="6.19229">
        <ele>511.869</ele>
        <time>2016-09-25T08:05:26.036Z</time>
      </trkpt>
      <trkpt lat="47.28343" lon="6.19207">
        <ele>511.094</ele>
        <time>2016-09-25T08:05:29.634Z</time>
      </trkpt>
      <trkpt lat="47.28338" lon="6.19194">
        <ele>509.696</ele>
        <time>2016-09-25T08:05:31.433Z</time>
      </trkpt>
      <trkpt lat="47.2834" lon="6.19179">
        <ele>507.898</ele>
        <time>2016-09-25T08:05:32.996Z</time>
      </trkpt>
      <trkpt lat="47.2834" lon="6.19162">
        <ele>506.501</ele>
        <time>2016-09-25T08:05:34.683Z</time>
      </trkpt>
      <trkpt lat="47.28338" lon="6.19143">
        <ele>506.158</ele>
        <time>2016-09-25T08:05:36.481Z</time>
      </trkpt>
      <trkpt lat="47.2834" lon="6.19125">
        <ele>506.838</ele>
        <time>2016-09-25T08:05:38.205Z</time>
      </trkpt>
      <trkpt lat="47.28343" lon="6.19108">
        <ele>507.52</ele>
        <time>2016-09-25T08:05:39.791Z</time>
      </trkpt>
      <trkpt lat="47.28345" lon="6.19091">
        <ele>507.435</ele>
        <time>2016-09-25T08:05:41.344Z</time>
      </trkpt>
      <trkpt lat="47.28348" lon="6.19071">
        <ele>506.959</ele>
        <time>2016-09-25T08:05:43.246Z</time>
      </trkpt>
      <trkpt lat="47.28349" lon="6.19032">
        <ele>506.532</ele>
        <time>2016-09-25T08:05:47.268Z</time>
      </trkpt>
      <trkpt lat="47.28353" lon="6.19013">
        <ele>505.71</ele>
        <time>2016-09-25T08:05:49.399Z</time>
      </trkpt>
      <trkpt lat="47.28354" lon="6.18978">
        <ele>504.137</ele>
        <time>2016-09-25T08:05:52.858Z</time>
      </trkpt>
      <trkpt lat="47.28358" lon="6.18947">
        <ele>501.98</ele>
        <time>2016-09-25T08:05:55.939Z</time>
      </trkpt>
      <trkpt lat="47.28362" lon="6.18916">
        <ele>499.631</ele>
        <time>2016-09-25T08:05:58.703Z</time>
      </trkpt>
      <trkpt lat="47.28362" lon="6.18889">
        <ele>497.769</ele>
        <time>2016-09-25T08:06:00.700Z</time>
      </trkpt>
      <trkpt lat="47.28362" lon="6.18863">
        <ele>496.256</ele>
        <time>2016-09-25T08:06:02.636Z</time>
      </trkpt>
      <trkpt lat="47.28364" lon="6.18843">
        <ele>494.2</ele>
        <time>2016-09-25T08:06:04.040Z</time>
      </trkpt>
      <trkpt lat="47.28361" lon="6.18815">
        <ele>491.953</ele>
        <time>2016-09-25T08:06:06.121Z</time>
      </trkpt>
      <trkpt lat="47.28354" lon="6.18788">
        <ele>490.259</ele>
        <time>2016-09-25T08:06:08.302Z</time>
      </trkpt>
      <trkpt lat="47.28348" lon="6.18764">
        <ele>488.871</ele>
        <time>2016-09-25T08:06:10.231Z</time>
      </trkpt>
      <trkpt lat="47.28334" lon="6.1872">
        <ele>487.056</ele>
        <time>2016-09-25T08:06:13.933Z</time>
      </trkpt>
      <trkpt lat="47.28329" lon="6.18696">
        <ele>484.714</ele>
        <time>2016-09-25T08:06:16.266Z</time>
      </trkpt>
      <trkpt lat="47.28322" lon="6.18662">
        <ele>482.469</ele>
        <time>2016-09-25T08:06:20.235Z</time>
      </trkpt>
      <trkpt lat="47.28318" lon="6.1863">
        <ele>480.675</ele>
        <time>2016-09-25T08:06:24.266Z</time>
      </trkpt>
      <trkpt lat="47.28312" lon="6.18594">
        <ele>479.159</ele>
        <time>2016-09-25T08:06:28.420Z</time>
      </trkpt>
      <trkpt lat="47.28305" lon="6.18574">
        <ele>477.918</ele>
        <time>2016-09-25T08:06:30.793Z</time>
      </trkpt>
      <trkpt lat="47.28301" lon="6.18552">
        <ele>477.014</ele>
        <time>2016-09-25T08:06:33.052Z</time>
      </trkpt>
      <trkpt lat="47.28297" lon="6.18538">
        <ele>476.562</ele>
        <time>2016-09-25T08:06:34.547Z</time>
      </trkpt>
      <trkpt lat="47.28293" lon="6.18526">
        <ele>476.538</ele>
        <time>2016-09-25T08:06:35.986Z</time>
      </trkpt>
      <trkpt lat="47.28286" lon="6.18505">
        <ele>476.698</ele>
        <time>2016-09-25T08:06:38.144Z</time>
      </trkpt>
      <trkpt lat="47.28282" lon="6.18489">
        <ele>476.559</ele>
        <time>2016-09-25T08:06:39.781Z</time>
      </trkpt>
      <trkpt lat="47.28276" lon="6.18463">
        <ele>475.949</ele>
        <time>2016-09-25T08:06:42.182Z</time>
      </trkpt>
      <trkpt lat="47.2827" lon="6.18447">
        <ele>474.82</ele>
        <time>2016-09-25T08:06:43.783Z</time>
      </trkpt>
      <trkpt lat="47.28262" lon="6.18422">
        <ele>473.308</ele>
        <time>2016-09-25T08:06:46.164Z</time>
      </trkpt>
      <trkpt lat="47.28255" lon="6.18397">
        <ele>472.048</ele>
        <time>2016-09-25T08:06:48.555Z</time>
      </trkpt>
      <trkpt lat="47.28246" lon="6.18367">
        <ele>471.511</ele>
        <time>2016-09-25T08:06:51.419Z</time>
      </trkpt>
      <trkpt lat="47.28235" lon="6.18338">
        <ele>471.164</ele>
        <time>2016-09-25T08:06:54.572Z</time>
      </trkpt>
      <trkpt lat="47.28222" lon="6.18311">
        <ele>470.394</ele>
        <time>2016-09-25T08:06:58.013Z</time>
      </trkpt>
      <trkpt lat="47.28214" lon="6.18294">
        <ele>469.079</ele>
        <time>2016-09-25T08:07:00.219Z</time>
      </trkpt>
      <trkpt lat="47.28201" lon="6.18269">
        <ele>467.448</ele>
        <time>2016-09-25T08:07:03.096Z</time>
      </trkpt>
      <trkpt lat="47.28191" lon="6.18246">
        <ele>465.991</ele>
        <time>2016-09-25T08:07:05.363Z</time>
      </trkpt>
      <trkpt lat="47.28185" lon="6.18225">
        <ele>465.111</ele>
        <time>2016-09-25T08:07:07.160Z</time>
      </trkpt>
      <trkpt lat="47.28184" lon="6.18197">
        <ele>464.515</ele>
        <time>2016-09-25T08:07:09.491Z</time>
      </trkpt>
      <trkpt lat="47.28182" lon="6.18166">
        <ele>463.841</ele>
        <time>2016-09-25T08:07:12.357Z</time>
      </trkpt>
      <trkpt lat="47.28178" lon="6.18142">
        <ele>462.459</ele>
        <time>2016-09-25T08:07:14.969Z</time>
      </trkpt>
      <trkpt lat="47.28175" lon="6.18119">
        <ele>459.901</ele>
        <time>2016-09-25T08:07:17.585Z</time>
      </trkpt>
      <trkpt lat="47.28163" lon="6.1809">
        <ele>457.132</ele>
        <time>2016-09-25T08:07:20.673Z</time>
      </trkpt>
      <trkpt lat="47.28163" lon="6.18065">
        <ele>455.455</ele>
        <time>2016-09-25T08:07:22.557Z</time>
      </trkpt>
      <trkpt lat="47.28166" lon="6.18052">
        <ele>454.882</ele>
        <time>2016-09-25T08:07:23.518Z</time>
      </trkpt>
      <trkpt lat="47.28164" lon="6.18037">
        <ele>454.65</ele>
        <time>2016-09-25T08:07:24.650Z</time>
      </trkpt>
      <trkpt lat="47.28163" lon="6.18005">
        <ele>454.054</ele>
        <time>2016-09-25T08:07:27.124Z</time>
      </trkpt>
      <trkpt lat="47.28161" lon="6.17976">
        <ele>452.541</ele>
        <time>2016-09-25T08:07:29.771Z</time>
      </trkpt>
      <trkpt lat="47.28157" lon="6.17953">
        <ele>449.533</ele>
        <time>2016-09-25T08:07:32.062Z</time>
      </trkpt>
      <trkpt lat="47.28151" lon="6.17931">
        <ele>445.286</ele>
        <time>2016-09-25T08:07:34.414Z</time>
      </trkpt>
      <trkpt lat="47.28151" lon="6.17912">
        <ele>441.038</ele>
        <time>2016-09-25T08:07:36.582Z</time>
      </trkpt>
      <trkpt lat="47.28149" lon="6.17887">
        <ele>437.748</ele>
        <time>2016-09-25T08:07:39.746Z</time>
      </trkpt>
      <trkpt lat="47.28149" lon="6.17867">
        <ele>435.643</ele>
        <time>2016-09-25T08:07:41.901Z</time>
      </trkpt>
      <trkpt lat="47.28153" lon="6.17852">
        <ele>434.47</ele>
        <time>2016-09-25T08:07:43.386Z</time>
      </trkpt>
      <trkpt lat="47.28157" lon="6.17835">
        <ele>433.811</ele>
        <time>2016-09-25T08:07:44.974Z</time>
      </trkpt>
      <trkpt lat="47.28154" lon="6.1781">
        <ele>433.107</ele>
        <time>2016-09-25T08:07:47.377Z</time>
      </trkpt>
      <trkpt lat="47.28149" lon="6.17788">
        <ele>431.876</ele>
        <time>2016-09-25T08:07:49.676Z</time>
      </trkpt>
      <trkpt lat="47.28141" lon="6.1776">
        <ele>430.337</ele>
        <time>2016-09-25T08:07:53.131Z</time>
      </trkpt>
      <trkpt lat="47.28133" lon="6.17733">
        <ele>428.374</ele>
        <time>2016-09-25T08:07:56.880Z</time>
      </trkpt>
      <trkpt lat="47.28128" lon="6.17719">
        <ele>425.451</ele>
        <time>2016-09-25T08:07:59.157Z</time>
      </trkpt>
      <trkpt lat="47.28119" lon="6.17696">
        <ele>422.278</ele>
        <time>2016-09-25T08:08:03.526Z</time>
      </trkpt>
      <trkpt lat="47.28112" lon="6.17679">
        <ele>419.579</ele>
        <time>2016-09-25T08:08:07.147Z</time>
      </trkpt>
      <trkpt lat="47.28115" lon="6.17664">
        <ele>417.252</ele>
        <time>2016-09-25T08:08:09.898Z</time>
      </trkpt>
      <trkpt lat="47.28113" lon="6.17648">
        <ele>416.727</ele>
        <time>2016-09-25T08:08:12.394Z</time>
      </trkpt>
      <trkpt lat="47.28109" lon="6.17633">
        <ele>418.899</ele>
        <time>2016-09-25T08:08:14.814Z</time>
      </trkpt>
      <trkpt lat="47.28101" lon="6.17617">
        <ele>421.519</ele>
        <time>2016-09-25T08:08:17.723Z</time>
      </trkpt>
      <trkpt lat="47.28096" lon="6.17606">
        <ele>422.346</ele>
        <time>2016-09-25T08:08:19.922Z</time>
      </trkpt>
      <trkpt lat="47.2809" lon="6.17595">
        <ele>421.715</ele>
        <time>2016-09-25T08:08:22.075Z</time>
      </trkpt>
      <trkpt lat="47.28085" lon="6.17584">
        <ele>421.056</ele>
        <time>2016-09-25T08:08:24.227Z</time>
      </trkpt>
      <trkpt lat="47.28078" lon="6.17567">
        <ele>421.191</ele>
        <time>2016-09-25T08:08:27.054Z</time>
      </trkpt>
      <trkpt lat="47.2807" lon="6.17552">
        <ele>422.023</ele>
        <time>2016-09-25T08:08:29.248Z</time>
      </trkpt>
      <trkpt lat="47.28062" lon="6.1754">
        <ele>423.105</ele>
        <time>2016-09-25T08:08:31.175Z</time>
      </trkpt>
      <trkpt lat="47.28055" lon="6.17521">
        <ele>423.892</ele>
        <time>2016-09-25T08:08:33.284Z</time>
      </trkpt>
      <trkpt lat="47.28048" lon="6.17494">
        <ele>423.783</ele>
        <time>2016-09-25T08:08:35.949Z</time>
      </trkpt>
      <trkpt lat="47.28039" lon="6.17466">
        <ele>422.689</ele>
        <time>2016-09-25T08:08:38.743Z</time>
      </trkpt>
      <trkpt lat="47.28029" lon="6.17432">
        <ele>421.023</ele>
        <time>2016-09-25T08:08:41.686Z</time>
      </trkpt>
      <trkpt lat="47.2802" lon="6.17397">
        <ele>419.395</ele>
        <time>2016-09-25T08:08:44.525Z</time>
      </trkpt>
      <trkpt lat="47.2801" lon="6.17364">
        <ele>418.182</ele>
        <time>2016-09-25T08:08:46.911Z</time>
      </trkpt>
      <trkpt lat="47.28004" lon="6.17326">
        <ele>417.33</ele>
        <time>2016-09-25T08:08:49.332Z</time>
      </trkpt>
      <trkpt lat="47.28001" lon="6.17299">
        <ele>415.98</ele>
        <time>2016-09-25T08:08:50.974Z</time>
      </trkpt>
      <trkpt lat="47.27997" lon="6.17269">
        <ele>413.677</ele>
        <time>2016-09-25T08:08:52.782Z</time>
      </trkpt>
      <trkpt lat="47.27983" lon="6.17223">
        <ele>411.029</ele>
        <time>2016-09-25T08:08:56.184Z</time>
      </trkpt>
      <trkpt lat="47.27972" lon="6.17194">
        <ele>407.469</ele>
        <time>2016-09-25T08:08:58.792Z</time>
      </trkpt>
      <trkpt lat="47.27959" lon="6.17167">
        <ele>401.98</ele>
        <time>2016-09-25T08:09:02.374Z</time>
      </trkpt>
      <trkpt lat="47.27943" lon="6.17148">
        <ele>395.503</ele>
        <time>2016-09-25T08:09:09.174Z</time>
      </trkpt>
      <trkpt lat="47.27929" lon="6.17144">
        <ele>389.584</ele>
        <time>2016-09-25T08:09:17.762Z</time>
      </trkpt>
      <trkpt lat="47.2792" lon="6.17149">
        <ele>385.264</ele>
        <time>2016-09-25T08:09:25.008Z</time>
      </trkpt>
      <trkpt lat="47.27911" lon="6.1715">
        <ele>383.165</ele>
        <time>2016-09-25T08:09:34.015Z</time>
      </trkpt>
      <trkpt lat="47.27902" lon="6.17156">
        <ele>383.107</ele>
        <time>2016-09-25T08:09:40.848Z</time>
      </trkpt>
      <trkpt lat="47.27893" lon="6.17156">
        <ele>384.443</ele>
        <time>2016-09-25T08:09:46.154Z</time>
      </trkpt>
      <trkpt lat="47.27883" lon="6.17155">
        <ele>386.658</ele>
        <time>2016-09-25T08:09:51.373Z</time>
      </trkpt>
      <trkpt lat="47.27873" lon="6.17152">
        <ele>389.484</ele>
        <time>2016-09-25T08:09:58.351Z</time>
      </trkpt>
      <trkpt lat="47.27863" lon="6.1715">
        <ele>392.291</ele>
        <time>2016-09-25T08:10:06.168Z</time>
      </trkpt>
      <trkpt lat="47.27853" lon="6.17145">
        <ele>394.253</ele>
        <time>2016-09-25T08:10:14.487Z</time>
      </trkpt>
      <trkpt lat="47.27843" lon="6.17144">
        <ele>395.233</ele>
        <time>2016-09-25T08:10:23.352Z</time>
      </trkpt>
      <trkpt lat="47.27834" lon="6.17145">
        <ele>395.999</ele>
        <time>2016-09-25T08:10:31.354Z</time>
      </trkpt>
      <trkpt lat="47.27827" lon="6.17155">
        <ele>397.522</ele>
        <time>2016-09-25T08:10:40.548Z</time>
      </trkpt>
      <trkpt lat="47.27819" lon="6.17163">
        <ele>399.626</ele>
        <time>2016-09-25T08:10:49.108Z</time>
      </trkpt>
      <trkpt lat="47.27812" lon="6.17172">
        <ele>401.827</ele>
        <time>2016-09-25T08:10:57.594Z</time>
      </trkpt>
      <trkpt lat="47.27806" lon="6.17181">
        <ele>404.278</ele>
        <time>2016-09-25T08:11:05.819Z</time>
      </trkpt>
      <trkpt lat="47.278" lon="6.17193">
        <ele>406.97</ele>
        <time>2016-09-25T08:11:14.691Z</time>
      </trkpt>
      <trkpt lat="47.27794" lon="6.17203">
        <ele>409.384</ele>
        <time>2016-09-25T08:11:22.828Z</time>
      </trkpt>
      <trkpt lat="47.27786" lon="6.17211">
        <ele>411.29</ele>
        <time>2016-09-25T08:11:31.108Z</time>
      </trkpt>
      <trkpt lat="47.2778" lon="6.17221">
        <ele>412.717</ele>
        <time>2016-09-25T08:11:39.382Z</time>
      </trkpt>
      <trkpt lat="47.27771" lon="6.17228">
        <ele>413.035</ele>
        <time>2016-09-25T08:11:48.312Z</time>
      </trkpt>
      <trkpt lat="47.27762" lon="6.17234">
        <ele>411.869</ele>
        <time>2016-09-25T08:11:57.219Z</time>
      </trkpt>
      <trkpt lat="47.27753" lon="6.17237">
        <ele>410.415</ele>
        <time>2016-09-25T08:12:05.449Z</time>
      </trkpt>
      <trkpt lat="47.27743" lon="6.17237">
        <ele>410.018</ele>
        <time>2016-09-25T08:12:14.368Z</time>
      </trkpt>
      <trkpt lat="47.27734" lon="6.1724">
        <ele>410.95</ele>
        <time>2016-09-25T08:12:23.253Z</time>
      </trkpt>
      <trkpt lat="47.27724" lon="6.17243">
        <ele>412.532</ele>
        <time>2016-09-25T08:12:32.116Z</time>
      </trkpt>
      <trkpt lat="47.27716" lon="6.17248">
        <ele>413.852</ele>
        <time>2016-09-25T08:12:40.755Z</time>
      </trkpt>
      <trkpt lat="47.27706" lon="6.17249">
        <ele>414.618</ele>
        <time>2016-09-25T08:12:49.684Z</time>
      </trkpt>
      <trkpt lat="47.27696" lon="6.17247">
        <ele>415.106</ele>
        <time>2016-09-25T08:12:58.260Z</time>
      </trkpt>
      <trkpt lat="47.27687" lon="6.17247">
        <ele>416.034</ele>
        <time>2016-09-25T08:13:06.354Z</time>
      </trkpt>
      <trkpt lat="47.27678" lon="6.17244">
        <ele>418.137</ele>
        <time>2016-09-25T08:13:14.032Z</time>
      </trkpt>
      <trkpt lat="47.27668" lon="6.17244">
        <ele>420.964</ele>
        <time>2016-09-25T08:13:22.299Z</time>
      </trkpt>
      <trkpt lat="47.27658" lon="6.17244">
        <ele>423.218</ele>
        <time>2016-09-25T08:13:30.541Z</time>
      </trkpt>
      <trkpt lat="47.27649" lon="6.17243">
        <ele>424.445</ele>
        <time>2016-09-25T08:13:38.003Z</time>
      </trkpt>
      <trkpt lat="47.27639" lon="6.17245">
        <ele>425.14</ele>
        <time>2016-09-25T08:13:46.138Z</time>
      </trkpt>
      <trkpt lat="47.2763" lon="6.17248">
        <ele>425.868</ele>
        <time>2016-09-25T08:13:53.779Z</time>
      </trkpt>
      <trkpt lat="47.2762" lon="6.17252">
        <ele>426.988</ele>
        <time>2016-09-25T08:14:01.531Z</time>
      </trkpt>
      <trkpt lat="47.27611" lon="6.17256">
        <ele>428.577</ele>
        <time>2016-09-25T08:14:09.238Z</time>
      </trkpt>
      <trkpt lat="47.27604" lon="6.17266">
        <ele>430.229</ele>
        <time>2016-09-25T08:14:15.953Z</time>
      </trkpt>
      <trkpt lat="47.27598" lon="6.17276">
        <ele>432.366</ele>
        <time>2016-09-25T08:14:22.468Z</time>
      </trkpt>
      <trkpt lat="47.27594" lon="6.17289">
        <ele>435.638</ele>
        <time>2016-09-25T08:14:29.520Z</time>
      </trkpt>
      <trkpt lat="47.2759" lon="6.17301">
        <ele>439.063</ele>
        <time>2016-09-25T08:14:36.096Z</time>
      </trkpt>
      <trkpt lat="47.27587" lon="6.17316">
        <ele>441.165</ele>
        <time>2016-09-25T08:14:43.347Z</time>
      </trkpt>
      <trkpt lat="47.27583" lon="6.17328">
        <ele>441.634</ele>
        <time>2016-09-25T08:14:50.087Z</time>
      </trkpt>
      <trkpt lat="47.27577" lon="6.1734">
        <ele>440.905</ele>
        <time>2016-09-25T08:14:57.472Z</time>
      </trkpt>
      <trkpt lat="47.27572" lon="6.17352">
        <ele>440.189</ele>
        <time>2016-09-25T08:15:04.390Z</time>
      </trkpt>
      <trkpt lat="47.27567" lon="6.17365">
        <ele>440.277</ele>
        <time>2016-09-25T08:15:12.136Z</time>
      </trkpt>
      <trkpt lat="47.2756" lon="6.17375">
        <ele>440.786</ele>
        <time>2016-09-25T08:15:19.618Z</time>
      </trkpt>
      <trkpt lat="47.27553" lon="6.17384">
        <ele>441.207</ele>
        <time>2016-09-25T08:15:26.269Z</time>
      </trkpt>
      <trkpt lat="47.27544" lon="6.17385">
        <ele>441.463</ele>
        <time>2016-09-25T08:15:33.119Z</time>
      </trkpt>
      <trkpt lat="47.27535" lon="6.17391">
        <ele>442.39</ele>
        <time>2016-09-25T08:15:39.878Z</time>
      </trkpt>
      <trkpt lat="47.27526" lon="6.17396">
        <ele>444.808</ele>
        <time>2016-09-25T08:15:47.031Z</time>
      </trkpt>
      <trkpt lat="47.27516" lon="6.17397">
        <ele>447.758</ele>
        <time>2016-09-25T08:15:54.869Z</time>
      </trkpt>
      <trkpt lat="47.27507" lon="6.174">
        <ele>449.643</ele>
        <time>2016-09-25T08:16:02.304Z</time>
      </trkpt>
      <trkpt lat="47.27498" lon="6.17396">
        <ele>450.296</ele>
        <time>2016-09-25T08:16:09.017Z</time>
      </trkpt>
      <trkpt lat="47.2749" lon="6.17391">
        <ele>450.425</ele>
        <time>2016-09-25T08:16:15.129Z</time>
      </trkpt>
      <trkpt lat="47.2748" lon="6.17386">
        <ele>450.875</ele>
        <time>2016-09-25T08:16:20.942Z</time>
      </trkpt>
      <trkpt lat="47.27471" lon="6.17381">
        <ele>451.904</ele>
        <time>2016-09-25T08:16:25.151Z</time>
      </trkpt>
      <trkpt lat="47.27462" lon="6.17378">
        <ele>452.938</ele>
        <time>2016-09-25T08:16:28.812Z</time>
      </trkpt>
      <trkpt lat="47.27452" lon="6.17372">
        <ele>453.267</ele>
        <time>2016-09-25T08:16:32.923Z</time>
      </trkpt>
      <trkpt lat="47.27441" lon="6.17365">
        <ele>452.89</ele>
        <time>2016-09-25T08:16:37.534Z</time>
      </trkpt>
      <trkpt lat="47.27431" lon="6.17358">
        <ele>452.858</ele>
        <time>2016-09-25T08:16:41.818Z</time>
      </trkpt>
      <trkpt lat="47.27418" lon="6.17349">
        <ele>454.091</ele>
        <time>2016-09-25T08:16:46.356Z</time>
      </trkpt>
      <trkpt lat="47.2741" lon="6.17342">
        <ele>455.905</ele>
        <time>2016-09-25T08:16:49.240Z</time>
      </trkpt>
      <trkpt lat="47.274" lon="6.17337">
        <ele>457.187</ele>
        <time>2016-09-25T08:16:51.566Z</time>
      </trkpt>
      <trkpt lat="47.27389" lon="6.17332">
        <ele>457.761</ele>
        <time>2016-09-25T08:16:53.991Z</time>
      </trkpt>
      <trkpt lat="47.27378" lon="6.17327">
        <ele>457.908</ele>
        <time>2016-09-25T08:16:55.960Z</time>
      </trkpt>
      <trkpt lat="47.27369" lon="6.1732">
        <ele>457.607</ele>
        <time>2016-09-25T08:16:57.728Z</time>
      </trkpt>
      <trkpt lat="47.2736" lon="6.17313">
        <ele>456.707</ele>
        <time>2016-09-25T08:16:59.250Z</time>
      </trkpt>
      <trkpt lat="47.27344" lon="6.17297">
        <ele>455.493</ele>
        <time>2016-09-25T08:17:01.922Z</time>
      </trkpt>
      <trkpt lat="47.27324" lon="6.17282">
        <ele>454.496</ele>
        <time>2016-09-25T08:17:04.841Z</time>
      </trkpt>
      <trkpt lat="47.27312" lon="6.1727">
        <ele>453.865</ele>
        <time>2016-09-25T08:17:06.659Z</time>
      </trkpt>
      <trkpt lat="47.27301" lon="6.17257">
        <ele>453.368</ele>
        <time>2016-09-25T08:17:08.487Z</time>
      </trkpt>
      <trkpt lat="47.27286" lon="6.17234">
        <ele>452.785</ele>
        <time>2016-09-25T08:17:11.401Z</time>
      </trkpt>
      <trkpt lat="47.2728" lon="6.17216">
        <ele>452.116</ele>
        <time>2016-09-25T08:17:13.318Z</time>
      </trkpt>
      <trkpt lat="47.27274" lon="6.172">
        <ele>451.438</ele>
        <time>2016-09-25T08:17:15.098Z</time>
      </trkpt>
      <trkpt lat="47.27264" lon="6.17176">
        <ele>450.483</ele>
        <time>2016-09-25T08:17:17.791Z</time>
      </trkpt>
      <trkpt lat="47.27258" lon="6.17157">
        <ele>448.74</ele>
        <time>2016-09-25T08:17:19.998Z</time>
      </trkpt>
      <trkpt lat="47.27254" lon="6.17139">
        <ele>446.208</ele>
        <time>2016-09-25T08:17:22.129Z</time>
      </trkpt>
      <trkpt lat="47.27248" lon="6.17114">
        <ele>443.583</ele>
        <time>2016-09-25T08:17:25.176Z</time>
      </trkpt>
      <trkpt lat="47.27245" lon="6.17099">
        <ele>441.516</ele>
        <time>2016-09-25T08:17:26.882Z</time>
      </trkpt>
      <trkpt lat="47.27241" lon="6.17077">
        <ele>440.223</ele>
        <time>2016-09-25T08:17:29.448Z</time>
      </trkpt>
      <trkpt lat="47.27234" lon="6.17061">
        <ele>439.497</ele>
        <time>2016-09-25T08:17:31.812Z</time>
      </trkpt>
      <trkpt lat="47.27226" lon="6.17039">
        <ele>438.669</ele>
        <time>2016-09-25T08:17:35.099Z</time>
      </trkpt>
      <trkpt lat="47.27216" lon="6.1702">
        <ele>437.362</ele>
        <time>2016-09-25T08:17:38.091Z</time>
      </trkpt>
      <trkpt lat="47.27212" lon="6.17007">
        <ele>436.091</ele>
        <time>2016-09-25T08:17:39.848Z</time>
      </trkpt>
      <trkpt lat="47.27208" lon="6.16994">
        <ele>435.089</ele>
        <time>2016-09-25T08:17:41.514Z</time>
      </trkpt>
      <trkpt lat="47.27201" lon="6.16976">
        <ele>434.129</ele>
        <time>2016-09-25T08:17:44.014Z</time>
      </trkpt>
      <trkpt lat="47.27195" lon="6.16962">
        <ele>433.672</ele>
        <time>2016-09-25T08:17:46.106Z</time>
      </trkpt>
      <trkpt lat="47.27188" lon="6.16944">
        <ele>434.082</ele>
        <time>2016-09-25T08:17:48.856Z</time>
      </trkpt>
      <trkpt lat="47.27186" lon="6.16924">
        <ele>434.544</ele>
        <time>2016-09-25T08:17:51.587Z</time>
      </trkpt>
      <trkpt lat="47.27184" lon="6.1691">
        <ele>434.282</ele>
        <time>2016-09-25T08:17:53.238Z</time>
      </trkpt>
      <trkpt lat="47.27192" lon="6.1689">
        <ele>433.58</ele>
        <time>2016-09-25T08:17:55.785Z</time>
      </trkpt>
      <trkpt lat="47.27195" lon="6.16877">
        <ele>432.979</ele>
        <time>2016-09-25T08:17:57.174Z</time>
      </trkpt>
      <trkpt lat="47.27191" lon="6.16846">
        <ele>432.476</ele>
        <time>2016-09-25T08:18:00.192Z</time>
      </trkpt>
      <trkpt lat="47.27189" lon="6.16821">
        <ele>431.71</ele>
        <time>2016-09-25T08:18:02.282Z</time>
      </trkpt>
      <trkpt lat="47.27195" lon="6.16787">
        <ele>430.591</ele>
        <time>2016-09-25T08:18:05.123Z</time>
      </trkpt>
      <trkpt lat="47.272" lon="6.16748">
        <ele>429.189</ele>
        <time>2016-09-25T08:18:07.976Z</time>
      </trkpt>
      <trkpt lat="47.27203" lon="6.16722">
        <ele>427.677</ele>
        <time>2016-09-25T08:18:09.791Z</time>
      </trkpt>
      <trkpt lat="47.27209" lon="6.16699">
        <ele>426.577</ele>
        <time>2016-09-25T08:18:11.478Z</time>
      </trkpt>
      <trkpt lat="47.27217" lon="6.16673">
        <ele>426.426</ele>
        <time>2016-09-25T08:18:13.442Z</time>
      </trkpt>
      <trkpt lat="47.27231" lon="6.1664">
        <ele>427.061</ele>
        <time>2016-09-25T08:18:16.150Z</time>
      </trkpt>
      <trkpt lat="47.27242" lon="6.16605">
        <ele>427.584</ele>
        <time>2016-09-25T08:18:18.823Z</time>
      </trkpt>
      <trkpt lat="47.27245" lon="6.16577">
        <ele>427.222</ele>
        <time>2016-09-25T08:18:20.762Z</time>
      </trkpt>
      <trkpt lat="47.27242" lon="6.16552">
        <ele>426.234</ele>
        <time>2016-09-25T08:18:22.578Z</time>
      </trkpt>
      <trkpt lat="47.27241" lon="6.16528">
        <ele>425.156</ele>
        <time>2016-09-25T08:18:24.374Z</time>
      </trkpt>
      <trkpt lat="47.27236" lon="6.16491">
        <ele>424.113</ele>
        <time>2016-09-25T08:18:27.230Z</time>
      </trkpt>
      <trkpt lat="47.27234" lon="6.16456">
        <ele>423.092</ele>
        <time>2016-09-25T08:18:30.153Z</time>
      </trkpt>
      <trkpt lat="47.27232" lon="6.16435">
        <ele>422.246</ele>
        <time>2016-09-25T08:18:32.179Z</time>
      </trkpt>
      <trkpt lat="47.27232" lon="6.16417">
        <ele>421.871</ele>
        <time>2016-09-25T08:18:33.944Z</time>
      </trkpt>
      <trkpt lat="47.27239" lon="6.1639">
        <ele>422.051</ele>
        <time>2016-09-25T08:18:37.095Z</time>
      </trkpt>
      <trkpt lat="47.27241" lon="6.16374">
        <ele>422.655</ele>
        <time>2016-09-25T08:18:39.133Z</time>
      </trkpt>
      <trkpt lat="47.27242" lon="6.16358">
        <ele>423.472</ele>
        <time>2016-09-25T08:18:41.082Z</time>
      </trkpt>
      <trkpt lat="47.27242" lon="6.16342">
        <ele>424.125</ele>
        <time>2016-09-25T08:18:43.004Z</time>
      </trkpt>
      <trkpt lat="47.27242" lon="6.16321">
        <ele>424.385</ele>
        <time>2016-09-25T08:18:45.578Z</time>
      </trkpt>
      <trkpt lat="47.27241" lon="6.163">
        <ele>424.487</ele>
        <time>2016-09-25T08:18:48.383Z</time>
      </trkpt>
      <trkpt lat="47.27239" lon="6.16287">
        <ele>424.66</ele>
        <time>2016-09-25T08:18:50.442Z</time>
      </trkpt>
      <trkpt lat="47.27238" lon="6.1627">
        <ele>424.771</ele>
        <time>2016-09-25T08:18:53.747Z</time>
      </trkpt>
      <trkpt lat="47.27238" lon="6.16255">
        <ele>424.659</ele>
        <time>2016-09-25T08:18:58.172Z</time>
      </trkpt>
      <trkpt lat="47.27236" lon="6.16241">
        <ele>424.687</ele>
        <time>2016-09-25T08:19:03.000Z</time>
      </trkpt>
      <trkpt lat="47.27236" lon="6.16241">
        <ele>425.152</ele>
        <time>2016-09-25T08:19:06.000Z</time>
      </trkpt>
      <trkpt lat="47.27236" lon="6.16241">
        <ele>425.538</ele>
        <time>2016-09-25T08:20:30.087Z</time>
      </trkpt>
      <trkpt lat="47.2723" lon="6.16213">
        <ele>425.361</ele>
        <time>2016-09-25T08:20:46.570Z</time>
      </trkpt>
      <trkpt lat="47.27228" lon="6.162">
        <ele>426.04</ele>
        <time>2016-09-25T08:20:50.862Z</time>
      </trkpt>
      <trkpt lat="47.27228" lon="6.16187">
        <ele>428.832</ele>
        <time>2016-09-25T08:20:55.029Z</time>
      </trkpt>
      <trkpt lat="47.2723" lon="6.16174">
        <ele>432.215</ele>
        <time>2016-09-25T08:20:59.069Z</time>
      </trkpt>
      <trkpt lat="47.27236" lon="6.16161">
        <ele>434.388</ele>
        <time>2016-09-25T08:21:03.644Z</time>
      </trkpt>
      <trkpt lat="47.27241" lon="6.16147">
        <ele>435.622</ele>
        <time>2016-09-25T08:21:08.357Z</time>
      </trkpt>
      <trkpt lat="47.27247" lon="6.16136">
        <ele>436.551</ele>
        <time>2016-09-25T08:21:12.161Z</time>
      </trkpt>
      <trkpt lat="47.27255" lon="6.16129">
        <ele>437.234</ele>
        <time>2016-09-25T08:21:15.427Z</time>
      </trkpt>
      <trkpt lat="47.27264" lon="6.1612">
        <ele>437.522</ele>
        <time>2016-09-25T08:21:18.049Z</time>
      </trkpt>
      <trkpt lat="47.27276" lon="6.16114">
        <ele>437.467</ele>
        <time>2016-09-25T08:21:21.360Z</time>
      </trkpt>
      <trkpt lat="47.27284" lon="6.16105">
        <ele>437.293</ele>
        <time>2016-09-25T08:21:24.579Z</time>
      </trkpt>
      <trkpt lat="47.27296" lon="6.16105">
        <ele>437.235</ele>
        <time>2016-09-25T08:21:28.409Z</time>
      </trkpt>
      <trkpt lat="47.27304" lon="6.16096">
        <ele>437.845</ele>
        <time>2016-09-25T08:21:32.160Z</time>
      </trkpt>
      <trkpt lat="47.2731" lon="6.16082">
        <ele>439.274</ele>
        <time>2016-09-25T08:21:36.474Z</time>
      </trkpt>
      <trkpt lat="47.27311" lon="6.16066">
        <ele>440.447</ele>
        <time>2016-09-25T08:21:40.861Z</time>
      </trkpt>
      <trkpt lat="47.2731" lon="6.16053">
        <ele>440.49</ele>
        <time>2016-09-25T08:21:44.878Z</time>
      </trkpt>
      <trkpt lat="47.27305" lon="6.16041">
        <ele>439.727</ele>
        <time>2016-09-25T08:21:48.862Z</time>
      </trkpt>
      <trkpt lat="47.27299" lon="6.1603">
        <ele>438.666</ele>
        <time>2016-09-25T08:21:53.268Z</time>
      </trkpt>
      <trkpt lat="47.27293" lon="6.1602">
        <ele>437.681</ele>
        <time>2016-09-25T08:21:57.440Z</time>
      </trkpt>
      <trkpt lat="47.27288" lon="6.16006">
        <ele>437.464</ele>
        <time>2016-09-25T08:22:02.562Z</time>
      </trkpt>
      <trkpt lat="47.27287" lon="6.15992">
        <ele>438.247</ele>
        <time>2016-09-25T08:22:06.959Z</time>
      </trkpt>
      <trkpt lat="47.27285" lon="6.15977">
        <ele>439.257</ele>
        <time>2016-09-25T08:22:11.826Z</time>
      </trkpt>
      <trkpt lat="47.27286" lon="6.15962">
        <ele>439.842</ele>
        <time>2016-09-25T08:22:16.837Z</time>
      </trkpt>
      <trkpt lat="47.27284" lon="6.15947">
        <ele>440.12</ele>
        <time>2016-09-25T08:22:21.200Z</time>
      </trkpt>
      <trkpt lat="47.27283" lon="6.15931">
        <ele>440.27</ele>
        <time>2016-09-25T08:22:25.941Z</time>
      </trkpt>
      <trkpt lat="47.27282" lon="6.15914">
        <ele>440.297</ele>
        <time>2016-09-25T08:22:30.847Z</time>
      </trkpt>
      <trkpt lat="47.2728" lon="6.15901">
        <ele>439.997</ele>
        <time>2016-09-25T08:22:34.612Z</time>
      </trkpt>
      <trkpt lat="47.27279" lon="6.15888">
        <ele>439.347</ele>
        <time>2016-09-25T08:22:38.055Z</time>
      </trkpt>
      <trkpt lat="47.2728" lon="6.15874">
        <ele>439.011</ele>
        <time>2016-09-25T08:22:41.343Z</time>
      </trkpt>
      <trkpt lat="47.27281" lon="6.1586">
        <ele>439.788</ele>
        <time>2016-09-25T08:22:44.482Z</time>
      </trkpt>
      <trkpt lat="47.27282" lon="6.15844">
        <ele>441.573</ele>
        <time>2016-09-25T08:22:48.233Z</time>
      </trkpt>
      <trkpt lat="47.27282" lon="6.1583">
        <ele>443.403</ele>
        <time>2016-09-25T08:22:51.885Z</time>
      </trkpt>
      <trkpt lat="47.27278" lon="6.15815">
        <ele>444.299</ele>
        <time>2016-09-25T08:22:56.061Z</time>
      </trkpt>
      <trkpt lat="47.27275" lon="6.15801">
        <ele>444.14</ele>
        <time>2016-09-25T08:23:00.107Z</time>
      </trkpt>
      <trkpt lat="47.27271" lon="6.15789">
        <ele>444.075</ele>
        <time>2016-09-25T08:23:03.762Z</time>
      </trkpt>
      <trkpt lat="47.2727" lon="6.15773">
        <ele>445.084</ele>
        <time>2016-09-25T08:23:08.230Z</time>
      </trkpt>
      <trkpt lat="47.27269" lon="6.15759">
        <ele>446.582</ele>
        <time>2016-09-25T08:23:12.308Z</time>
      </trkpt>
      <trkpt lat="47.27267" lon="6.15743">
        <ele>447.455</ele>
        <time>2016-09-25T08:23:16.668Z</time>
      </trkpt>
      <trkpt lat="47.27267" lon="6.15729">
        <ele>447.508</ele>
        <time>2016-09-25T08:23:20.645Z</time>
      </trkpt>
      <trkpt lat="47.27263" lon="6.15717">
        <ele>447.619</ele>
        <time>2016-09-25T08:23:24.578Z</time>
      </trkpt>
      <trkpt lat="47.27266" lon="6.15703">
        <ele>448.485</ele>
        <time>2016-09-25T08:23:28.954Z</time>
      </trkpt>
      <trkpt lat="47.27266" lon="6.15689">
        <ele>450.972</ele>
        <time>2016-09-25T08:23:33.298Z</time>
      </trkpt>
      <trkpt lat="47.27264" lon="6.15674">
        <ele>455.327</ele>
        <time>2016-09-25T08:23:38.140Z</time>
      </trkpt>
      <trkpt lat="47.27265" lon="6.15658">
        <ele>459.745</ele>
        <time>2016-09-25T08:23:43.469Z</time>
      </trkpt>
      <trkpt lat="47.2726" lon="6.15643">
        <ele>462.391</ele>
        <time>2016-09-25T08:23:48.472Z</time>
      </trkpt>
      <trkpt lat="47.27258" lon="6.1563">
        <ele>463.341</ele>
        <time>2016-09-25T08:23:52.244Z</time>
      </trkpt>
      <trkpt lat="47.27256" lon="6.15615">
        <ele>463.24</ele>
        <time>2016-09-25T08:23:55.869Z</time>
      </trkpt>
      <trkpt lat="47.27252" lon="6.15602">
        <ele>462.842</ele>
        <time>2016-09-25T08:23:59.029Z</time>
      </trkpt>
      <trkpt lat="47.27252" lon="6.15585">
        <ele>462.557</ele>
        <time>2016-09-25T08:24:02.684Z</time>
      </trkpt>
      <trkpt lat="47.2725" lon="6.15571">
        <ele>462.818</ele>
        <time>2016-09-25T08:24:05.917Z</time>
      </trkpt>
      <trkpt lat="47.27248" lon="6.15557">
        <ele>463.76</ele>
        <time>2016-09-25T08:24:09.083Z</time>
      </trkpt>
      <trkpt lat="47.27245" lon="6.15543">
        <ele>464.71</ele>
        <time>2016-09-25T08:24:12.064Z</time>
      </trkpt>
      <trkpt lat="47.2724" lon="6.15532">
        <ele>465.082</ele>
        <time>2016-09-25T08:24:15.050Z</time>
      </trkpt>
      <trkpt lat="47.27233" lon="6.15521">
        <ele>465.052</ele>
        <time>2016-09-25T08:24:18.466Z</time>
      </trkpt>
      <trkpt lat="47.27231" lon="6.15505">
        <ele>464.952</ele>
        <time>2016-09-25T08:24:22.015Z</time>
      </trkpt>
      <trkpt lat="47.27233" lon="6.1549">
        <ele>465.48</ele>
        <time>2016-09-25T08:24:25.359Z</time>
      </trkpt>
      <trkpt lat="47.2723" lon="6.15475">
        <ele>467.557</ele>
        <time>2016-09-25T08:24:28.914Z</time>
      </trkpt>
      <trkpt lat="47.27225" lon="6.15462">
        <ele>470.774</ele>
        <time>2016-09-25T08:24:32.254Z</time>
      </trkpt>
      <trkpt lat="47.27219" lon="6.1545">
        <ele>473.319</ele>
        <time>2016-09-25T08:24:35.600Z</time>
      </trkpt>
      <trkpt lat="47.27214" lon="6.15436">
        <ele>474.143</ele>
        <time>2016-09-25T08:24:39.230Z</time>
      </trkpt>
      <trkpt lat="47.27208" lon="6.15426">
        <ele>473.784</ele>
        <time>2016-09-25T08:24:42.248Z</time>
      </trkpt>
      <trkpt lat="47.27207" lon="6.15412">
        <ele>473.629</ele>
        <time>2016-09-25T08:24:45.461Z</time>
      </trkpt>
      <trkpt lat="47.27202" lon="6.15398">
        <ele>474.401</ele>
        <time>2016-09-25T08:24:48.745Z</time>
      </trkpt>
      <trkpt lat="47.27196" lon="6.15386">
        <ele>475.347</ele>
        <time>2016-09-25T08:24:52.279Z</time>
      </trkpt>
      <trkpt lat="47.2719" lon="6.15376">
        <ele>475.223</ele>
        <time>2016-09-25T08:24:55.287Z</time>
      </trkpt>
      <trkpt lat="47.27184" lon="6.15362">
        <ele>473.937</ele>
        <time>2016-09-25T08:24:58.769Z</time>
      </trkpt>
      <trkpt lat="47.27181" lon="6.15346">
        <ele>472.383</ele>
        <time>2016-09-25T08:25:02.049Z</time>
      </trkpt>
      <trkpt lat="47.2718" lon="6.15329">
        <ele>471.18</ele>
        <time>2016-09-25T08:25:05.245Z</time>
      </trkpt>
      <trkpt lat="47.27179" lon="6.15307">
        <ele>470.363</ele>
        <time>2016-09-25T08:25:08.872Z</time>
      </trkpt>
      <trkpt lat="47.27179" lon="6.15283">
        <ele>469.773</ele>
        <time>2016-09-25T08:25:12.383Z</time>
      </trkpt>
      <trkpt lat="47.27174" lon="6.1526">
        <ele>469.189</ele>
        <time>2016-09-25T08:25:15.476Z</time>
      </trkpt>
      <trkpt lat="47.27163" lon="6.15241">
        <ele>468.641</ele>
        <time>2016-09-25T08:25:18.835Z</time>
      </trkpt>
      <trkpt lat="47.27156" lon="6.15227">
        <ele>468.275</ele>
        <time>2016-09-25T08:25:21.768Z</time>
      </trkpt>
      <trkpt lat="47.27141" lon="6.15217">
        <ele>468.097</ele>
        <time>2016-09-25T08:25:26.737Z</time>
      </trkpt>
      <trkpt lat="47.27132" lon="6.15212">
        <ele>468.153</ele>
        <time>2016-09-25T08:25:30.737Z</time>
      </trkpt>
      <trkpt lat="47.27123" lon="6.15205">
        <ele>468.403</ele>
        <time>2016-09-25T08:25:35.575Z</time>
      </trkpt>
      <trkpt lat="47.27115" lon="6.15199">
        <ele>468.659</ele>
        <time>2016-09-25T08:25:39.960Z</time>
      </trkpt>
      <trkpt lat="47.27113" lon="6.15185">
        <ele>468.881</ele>
        <time>2016-09-25T08:25:44.894Z</time>
      </trkpt>
      <trkpt lat="47.27105" lon="6.1518">
        <ele>469.16</ele>
        <time>2016-09-25T08:25:49.999Z</time>
      </trkpt>
      <trkpt lat="47.27096" lon="6.15173">
        <ele>469.431</ele>
        <time>2016-09-25T08:25:55.608Z</time>
      </trkpt>
      <trkpt lat="47.27087" lon="6.15169">
        <ele>469.667</ele>
        <time>2016-09-25T08:26:00.651Z</time>
      </trkpt>
      <trkpt lat="47.27081" lon="6.15158">
        <ele>469.849</ele>
        <time>2016-09-25T08:26:06.211Z</time>
      </trkpt>
      <trkpt lat="47.27073" lon="6.1515">
        <ele>469.714</ele>
        <time>2016-09-25T08:26:11.976Z</time>
      </trkpt>
      <trkpt lat="47.27067" lon="6.15139">
        <ele>469.219</ele>
        <time>2016-09-25T08:26:17.699Z</time>
      </trkpt>
      <trkpt lat="47.2706" lon="6.15129">
        <ele>468.786</ele>
        <time>2016-09-25T08:26:22.919Z</time>
      </trkpt>
      <trkpt lat="47.27056" lon="6.15116">
        <ele>468.689</ele>
        <time>2016-09-25T08:26:27.922Z</time>
      </trkpt>
      <trkpt lat="47.2705" lon="6.15103">
        <ele>468.787</ele>
        <time>2016-09-25T08:26:32.708Z</time>
      </trkpt>
      <trkpt lat="47.27047" lon="6.15088">
        <ele>469.32</ele>
        <time>2016-09-25T08:26:36.984Z</time>
      </trkpt>
      <trkpt lat="47.27041" lon="6.15078">
        <ele>470.656</ele>
        <time>2016-09-25T08:26:40.885Z</time>
      </trkpt>
      <trkpt lat="47.27036" lon="6.15064">
        <ele>472.521</ele>
        <time>2016-09-25T08:26:45.409Z</time>
      </trkpt>
      <trkpt lat="47.27037" lon="6.15048">
        <ele>474.399</ele>
        <time>2016-09-25T08:26:50.041Z</time>
      </trkpt>
      <trkpt lat="47.27039" lon="6.15032">
        <ele>475.771</ele>
        <time>2016-09-25T08:26:54.730Z</time>
      </trkpt>
      <trkpt lat="47.27042" lon="6.15016">
        <ele>476.449</ele>
        <time>2016-09-25T08:26:59.401Z</time>
      </trkpt>
      <trkpt lat="47.27043" lon="6.15001">
        <ele>476.855</ele>
        <time>2016-09-25T08:27:03.662Z</time>
      </trkpt>
      <trkpt lat="47.27043" lon="6.14986">
        <ele>477.312</ele>
        <time>2016-09-25T08:27:07.821Z</time>
      </trkpt>
      <trkpt lat="47.27045" lon="6.14973">
        <ele>477.866</ele>
        <time>2016-09-25T08:27:11.587Z</time>
      </trkpt>
      <trkpt lat="47.27045" lon="6.14959">
        <ele>479.215</ele>
        <time>2016-09-25T08:27:15.357Z</time>
      </trkpt>
      <trkpt lat="47.27044" lon="6.14946">
        <ele>481.601</ele>
        <time>2016-09-25T08:27:19.119Z</time>
      </trkpt>
      <trkpt lat="47.27038" lon="6.14932">
        <ele>484.067</ele>
        <time>2016-09-25T08:27:23.806Z</time>
      </trkpt>
      <trkpt lat="47.27034" lon="6.1492">
        <ele>485.914</ele>
        <time>2016-09-25T08:27:27.606Z</time>
      </trkpt>
      <trkpt lat="47.27032" lon="6.14906">
        <ele>487.2</ele>
        <time>2016-09-25T08:27:31.349Z</time>
      </trkpt>
      <trkpt lat="47.27029" lon="6.14888">
        <ele>488.302</ele>
        <time>2016-09-25T08:27:36.239Z</time>
      </trkpt>
      <trkpt lat="47.27027" lon="6.14872">
        <ele>489.686</ele>
        <time>2016-09-25T08:27:39.843Z</time>
      </trkpt>
      <trkpt lat="47.27024" lon="6.14857">
        <ele>490.987</ele>
        <time>2016-09-25T08:27:42.974Z</time>
      </trkpt>
      <trkpt lat="47.27024" lon="6.14842">
        <ele>491.637</ele>
        <time>2016-09-25T08:27:46.414Z</time>
      </trkpt>
      <trkpt lat="47.27025" lon="6.14826">
        <ele>491.401</ele>
        <time>2016-09-25T08:27:50.444Z</time>
      </trkpt>
      <trkpt lat="47.27026" lon="6.14808">
        <ele>490.327</ele>
        <time>2016-09-25T08:27:54.880Z</time>
      </trkpt>
      <trkpt lat="47.27027" lon="6.14793">
        <ele>489.126</ele>
        <time>2016-09-25T08:27:58.285Z</time>
      </trkpt>
      <trkpt lat="47.27025" lon="6.14775">
        <ele>488.395</ele>
        <time>2016-09-25T08:28:01.696Z</time>
      </trkpt>
      <trkpt lat="47.27019" lon="6.14752">
        <ele>488.054</ele>
        <time>2016-09-25T08:28:05.209Z</time>
      </trkpt>
      <trkpt lat="47.27013" lon="6.1474">
        <ele>487.692</ele>
        <time>2016-09-25T08:28:07.426Z</time>
      </trkpt>
      <trkpt lat="47.27007" lon="6.14728">
        <ele>487.074</ele>
        <time>2016-09-25T08:28:09.563Z</time>
      </trkpt>
      <trkpt lat="47.27003" lon="6.1471">
        <ele>486.498</ele>
        <time>2016-09-25T08:28:12.457Z</time>
      </trkpt>
      <trkpt lat="47.26999" lon="6.14692">
        <ele>486.375</ele>
        <time>2016-09-25T08:28:15.281Z</time>
      </trkpt>
      <trkpt lat="47.26987" lon="6.14646">
        <ele>486.633</ele>
        <time>2016-09-25T08:28:22.440Z</time>
      </trkpt>
      <trkpt lat="47.26982" lon="6.14632">
        <ele>486.947</ele>
        <time>2016-09-25T08:28:24.603Z</time>
      </trkpt>
      <trkpt lat="47.26974" lon="6.1461">
        <ele>486.673</ele>
        <time>2016-09-25T08:28:27.840Z</time>
      </trkpt>
      <trkpt lat="47.26968" lon="6.14588">
        <ele>485.538</ele>
        <time>2016-09-25T08:28:30.841Z</time>
      </trkpt>
      <trkpt lat="47.26965" lon="6.14572">
        <ele>484.014</ele>
        <time>2016-09-25T08:28:32.764Z</time>
      </trkpt>
      <trkpt lat="47.26959" lon="6.14548">
        <ele>482.698</ele>
        <time>2016-09-25T08:28:35.585Z</time>
      </trkpt>
      <trkpt lat="47.26954" lon="6.14521">
        <ele>481.86</ele>
        <time>2016-09-25T08:28:38.514Z</time>
      </trkpt>
      <trkpt lat="47.2695" lon="6.14502">
        <ele>481.482</ele>
        <time>2016-09-25T08:28:40.481Z</time>
      </trkpt>
      <trkpt lat="47.26945" lon="6.14475">
        <ele>481.272</ele>
        <time>2016-09-25T08:28:43.391Z</time>
      </trkpt>
      <trkpt lat="47.26946" lon="6.14445">
        <ele>481.086</ele>
        <time>2016-09-25T08:28:46.387Z</time>
      </trkpt>
      <trkpt lat="47.26947" lon="6.14426">
        <ele>480.595</ele>
        <time>2016-09-25T08:28:48.337Z</time>
      </trkpt>
      <trkpt lat="47.26948" lon="6.14409">
        <ele>479.656</ele>
        <time>2016-09-25T08:28:50.216Z</time>
      </trkpt>
      <trkpt lat="47.26956" lon="6.14386">
        <ele>478.772</ele>
        <time>2016-09-25T08:28:52.926Z</time>
      </trkpt>
      <trkpt lat="47.26963" lon="6.14372">
        <ele>478.343</ele>
        <time>2016-09-25T08:28:54.785Z</time>
      </trkpt>
      <trkpt lat="47.26971" lon="6.14351">
        <ele>477.435</ele>
        <time>2016-09-25T08:28:57.446Z</time>
      </trkpt>
      <trkpt lat="47.26975" lon="6.14336">
        <ele>475.396</ele>
        <time>2016-09-25T08:28:59.240Z</time>
      </trkpt>
      <trkpt lat="47.26979" lon="6.1432">
        <ele>473.669</ele>
        <time>2016-09-25T08:29:01.132Z</time>
      </trkpt>
      <trkpt lat="47.2698" lon="6.14294">
        <ele>473.575</ele>
        <time>2016-09-25T08:29:04.041Z</time>
      </trkpt>
      <trkpt lat="47.26982" lon="6.14279">
        <ele>474.713</ele>
        <time>2016-09-25T08:29:06.048Z</time>
      </trkpt>
      <trkpt lat="47.26982" lon="6.14261">
        <ele>476.333</ele>
        <time>2016-09-25T08:29:08.658Z</time>
      </trkpt>
      <trkpt lat="47.26982" lon="6.14246">
        <ele>477.708</ele>
        <time>2016-09-25T08:29:11.200Z</time>
      </trkpt>
      <trkpt lat="47.26982" lon="6.1423">
        <ele>478.446</ele>
        <time>2016-09-25T08:29:14.123Z</time>
      </trkpt>
      <trkpt lat="47.26979" lon="6.14215">
        <ele>478.775</ele>
        <time>2016-09-25T08:29:16.904Z</time>
      </trkpt>
      <trkpt lat="47.26974" lon="6.14202">
        <ele>478.784</ele>
        <time>2016-09-25T08:29:19.715Z</time>
      </trkpt>
      <trkpt lat="47.26972" lon="6.14189">
        <ele>478.395</ele>
        <time>2016-09-25T08:29:22.575Z</time>
      </trkpt>
      <trkpt lat="47.26969" lon="6.14174">
        <ele>477.905</ele>
        <time>2016-09-25T08:29:26.187Z</time>
      </trkpt>
      <trkpt lat="47.26966" lon="6.1416">
        <ele>477.764</ele>
        <time>2016-09-25T08:29:30.000Z</time>
      </trkpt>
      <trkpt lat="47.26961" lon="6.14145">
        <ele>477.969</ele>
        <time>2016-09-25T08:29:33.712Z</time>
      </trkpt>
      <trkpt lat="47.26957" lon="6.14129">
        <ele>478.22</ele>
        <time>2016-09-25T08:29:37.496Z</time>
      </trkpt>
      <trkpt lat="47.26955" lon="6.14113">
        <ele>478.314</ele>
        <time>2016-09-25T08:29:40.853Z</time>
      </trkpt>
      <trkpt lat="47.26953" lon="6.14096">
        <ele>478.201</ele>
        <time>2016-09-25T08:29:44.202Z</time>
      </trkpt>
      <trkpt lat="47.26957" lon="6.1408">
        <ele>478.005</ele>
        <time>2016-09-25T08:29:47.140Z</time>
      </trkpt>
      <trkpt lat="47.26964" lon="6.14068">
        <ele>477.867</ele>
        <time>2016-09-25T08:29:49.940Z</time>
      </trkpt>
      <trkpt lat="47.26974" lon="6.14063">
        <ele>477.555</ele>
        <time>2016-09-25T08:29:52.870Z</time>
      </trkpt>
      <trkpt lat="47.26984" lon="6.14062">
        <ele>476.885</ele>
        <time>2016-09-25T08:29:55.513Z</time>
      </trkpt>
      <trkpt lat="47.26995" lon="6.14057">
        <ele>476.438</ele>
        <time>2016-09-25T08:29:58.417Z</time>
      </trkpt>
      <trkpt lat="47.27005" lon="6.14048">
        <ele>477.806</ele>
        <time>2016-09-25T08:30:01.773Z</time>
      </trkpt>
      <trkpt lat="47.27014" lon="6.14037">
        <ele>481.63</ele>
        <time>2016-09-25T08:30:04.911Z</time>
      </trkpt>
      <trkpt lat="47.27024" lon="6.14028">
        <ele>485.963</ele>
        <time>2016-09-25T08:30:08.052Z</time>
      </trkpt>
      <trkpt lat="47.27035" lon="6.14019">
        <ele>488.532</ele>
        <time>2016-09-25T08:30:11.352Z</time>
      </trkpt>
      <trkpt lat="47.27041" lon="6.14004">
        <ele>489.175</ele>
        <time>2016-09-25T08:30:14.633Z</time>
      </trkpt>
      <trkpt lat="47.27045" lon="6.13987">
        <ele>488.676</ele>
        <time>2016-09-25T08:30:18.084Z</time>
      </trkpt>
      <trkpt lat="47.27054" lon="6.13974">
        <ele>487.766</ele>
        <time>2016-09-25T08:30:21.546Z</time>
      </trkpt>
      <trkpt lat="47.27055" lon="6.13958">
        <ele>486.976</ele>
        <time>2016-09-25T08:30:24.871Z</time>
      </trkpt>
      <trkpt lat="47.27054" lon="6.13944">
        <ele>486.33</ele>
        <time>2016-09-25T08:30:28.529Z</time>
      </trkpt>
      <trkpt lat="47.27053" lon="6.1393">
        <ele>485.662</ele>
        <time>2016-09-25T08:30:33.232Z</time>
      </trkpt>
      <trkpt lat="47.27052" lon="6.13915">
        <ele>485.145</ele>
        <time>2016-09-25T08:30:39.018Z</time>
      </trkpt>
      <trkpt lat="47.27052" lon="6.13901">
        <ele>484.772</ele>
        <time>2016-09-25T08:30:45.539Z</time>
      </trkpt>
      <trkpt lat="47.27046" lon="6.13889">
        <ele>484.192</ele>
        <time>2016-09-25T08:30:52.528Z</time>
      </trkpt>
      <trkpt lat="47.2704" lon="6.13876">
        <ele>483.44</ele>
        <time>2016-09-25T08:30:59.659Z</time>
      </trkpt>
      <trkpt lat="47.27033" lon="6.13866">
        <ele>483.07</ele>
        <time>2016-09-25T08:31:06.073Z</time>
      </trkpt>
      <trkpt lat="47.27026" lon="6.13857">
        <ele>483.592</ele>
        <time>2016-09-25T08:31:12.410Z</time>
      </trkpt>
      <trkpt lat="47.27017" lon="6.1385">
        <ele>484.917</ele>
        <time>2016-09-25T08:31:18.927Z</time>
      </trkpt>
      <trkpt lat="47.2701" lon="6.1384">
        <ele>486.49</ele>
        <time>2016-09-25T08:31:25.792Z</time>
      </trkpt>
      <trkpt lat="47.27004" lon="6.13829">
        <ele>487.771</ele>
        <time>2016-09-25T08:31:32.672Z</time>
      </trkpt>
      <trkpt lat="47.27002" lon="6.13814">
        <ele>488.461</ele>
        <time>2016-09-25T08:31:40.010Z</time>
      </trkpt>
      <trkpt lat="47.26999" lon="6.138">
        <ele>488.876</ele>
        <time>2016-09-25T08:31:47.620Z</time>
      </trkpt>
      <trkpt lat="47.26992" lon="6.1379">
        <ele>489.572</ele>
        <time>2016-09-25T08:31:54.877Z</time>
      </trkpt>
      <trkpt lat="47.26986" lon="6.13779">
        <ele>490.42</ele>
        <time>2016-09-25T08:32:01.733Z</time>
      </trkpt>
      <trkpt lat="47.2698" lon="6.13768">
        <ele>491.903</ele>
        <time>2016-09-25T08:32:08.366Z</time>
      </trkpt>
      <trkpt lat="47.26977" lon="6.13755">
        <ele>495.01</ele>
        <time>2016-09-25T08:32:15.403Z</time>
      </trkpt>
      <trkpt lat="47.26969" lon="6.13745">
        <ele>499.39</ele>
        <time>2016-09-25T08:32:23.007Z</time>
      </trkpt>
      <trkpt lat="47.26963" lon="6.13734">
        <ele>503.447</ele>
        <time>2016-09-25T08:32:30.053Z</time>
      </trkpt>
      <trkpt lat="47.26956" lon="6.13721">
        <ele>505.828</ele>
        <time>2016-09-25T08:32:37.316Z</time>
      </trkpt>
      <trkpt lat="47.2695" lon="6.1371">
        <ele>506.067</ele>
        <time>2016-09-25T08:32:43.392Z</time>
      </trkpt>
      <trkpt lat="47.26943" lon="6.13698">
        <ele>504.963</ele>
        <time>2016-09-25T08:32:49.464Z</time>
      </trkpt>
      <trkpt lat="47.26938" lon="6.13688">
        <ele>503.827</ele>
        <time>2016-09-25T08:32:54.588Z</time>
      </trkpt>
      <trkpt lat="47.26932" lon="6.13674">
        <ele>503.487</ele>
        <time>2016-09-25T08:33:00.407Z</time>
      </trkpt>
      <trkpt lat="47.26928" lon="6.13662">
        <ele>503.955</ele>
        <time>2016-09-25T08:33:05.110Z</time>
      </trkpt>
      <trkpt lat="47.26923" lon="6.1365">
        <ele>504.822</ele>
        <time>2016-09-25T08:33:09.269Z</time>
      </trkpt>
      <trkpt lat="47.26916" lon="6.13638">
        <ele>505.555</ele>
        <time>2016-09-25T08:33:12.250Z</time>
      </trkpt>
      <trkpt lat="47.26911" lon="6.13627">
        <ele>506.005</ele>
        <time>2016-09-25T08:33:14.441Z</time>
      </trkpt>
      <trkpt lat="47.26904" lon="6.13612">
        <ele>506.319</ele>
        <time>2016-09-25T08:33:16.870Z</time>
      </trkpt>
      <trkpt lat="47.26896" lon="6.13593">
        <ele>506.287</ele>
        <time>2016-09-25T08:33:19.738Z</time>
      </trkpt>
      <trkpt lat="47.2689" lon="6.13579">
        <ele>505.294</ele>
        <time>2016-09-25T08:33:21.545Z</time>
      </trkpt>
      <trkpt lat="47.26884" lon="6.13565">
        <ele>503.452</ele>
        <time>2016-09-25T08:33:23.262Z</time>
      </trkpt>
      <trkpt lat="47.26863" lon="6.13536">
        <ele>501.766</ele>
        <time>2016-09-25T08:33:27.664Z</time>
      </trkpt>
      <trkpt lat="47.26854" lon="6.13519">
        <ele>499.672</ele>
        <time>2016-09-25T08:33:29.954Z</time>
      </trkpt>
      <trkpt lat="47.26841" lon="6.13498">
        <ele>496.302</ele>
        <time>2016-09-25T08:33:32.549Z</time>
      </trkpt>
      <trkpt lat="47.26831" lon="6.13485">
        <ele>493.077</ele>
        <time>2016-09-25T08:33:34.372Z</time>
      </trkpt>
      <trkpt lat="47.2682" lon="6.13462">
        <ele>490.795</ele>
        <time>2016-09-25T08:33:37.085Z</time>
      </trkpt>
      <trkpt lat="47.26807" lon="6.13438">
        <ele>488.437</ele>
        <time>2016-09-25T08:33:40.434Z</time>
      </trkpt>
      <trkpt lat="47.26797" lon="6.13421">
        <ele>485.473</ele>
        <time>2016-09-25T08:33:42.767Z</time>
      </trkpt>
      <trkpt lat="47.26782" lon="6.13404">
        <ele>482.281</ele>
        <time>2016-09-25T08:33:45.418Z</time>
      </trkpt>
      <trkpt lat="47.26776" lon="6.13382">
        <ele>479.39</ele>
        <time>2016-09-25T08:33:47.571Z</time>
      </trkpt>
      <trkpt lat="47.26759" lon="6.13356">
        <ele>476.969</ele>
        <time>2016-09-25T08:33:50.930Z</time>
      </trkpt>
      <trkpt lat="47.2675" lon="6.13339">
        <ele>474.64</ele>
        <time>2016-09-25T08:33:52.935Z</time>
      </trkpt>
      <trkpt lat="47.26739" lon="6.13317">
        <ele>472.162</ele>
        <time>2016-09-25T08:33:55.453Z</time>
      </trkpt>
      <trkpt lat="47.26732" lon="6.13305">
        <ele>469.549</ele>
        <time>2016-09-25T08:33:56.942Z</time>
      </trkpt>
      <trkpt lat="47.26712" lon="6.13286">
        <ele>467.192</ele>
        <time>2016-09-25T08:34:00.537Z</time>
      </trkpt>
      <trkpt lat="47.26699" lon="6.13275">
        <ele>465.51</ele>
        <time>2016-09-25T08:34:02.586Z</time>
      </trkpt>
      <trkpt lat="47.26683" lon="6.1327">
        <ele>464.616</ele>
        <time>2016-09-25T08:34:04.695Z</time>
      </trkpt>
      <trkpt lat="47.26675" lon="6.1326">
        <ele>464.147</ele>
        <time>2016-09-25T08:34:06.031Z</time>
      </trkpt>
      <trkpt lat="47.26656" lon="6.13236">
        <ele>463.743</ele>
        <time>2016-09-25T08:34:08.921Z</time>
      </trkpt>
      <trkpt lat="47.26647" lon="6.13215">
        <ele>462.58</ele>
        <time>2016-09-25T08:34:10.755Z</time>
      </trkpt>
      <trkpt lat="47.26642" lon="6.13178">
        <ele>460.344</ele>
        <time>2016-09-25T08:34:13.497Z</time>
      </trkpt>
      <trkpt lat="47.26637" lon="6.13152">
        <ele>458.206</ele>
        <time>2016-09-25T08:34:15.595Z</time>
      </trkpt>
      <trkpt lat="47.26636" lon="6.13126">
        <ele>457.19</ele>
        <time>2016-09-25T08:34:17.622Z</time>
      </trkpt>
      <trkpt lat="47.26631" lon="6.13102">
        <ele>456.963</ele>
        <time>2016-09-25T08:34:19.706Z</time>
      </trkpt>
      <trkpt lat="47.2664" lon="6.13068">
        <ele>456.397</ele>
        <time>2016-09-25T08:34:22.999Z</time>
      </trkpt>
      <trkpt lat="47.26642" lon="6.13047">
        <ele>454.878</ele>
        <time>2016-09-25T08:34:25.060Z</time>
      </trkpt>
      <trkpt lat="47.26646" lon="6.13029">
        <ele>453.523</ele>
        <time>2016-09-25T08:34:27.263Z</time>
      </trkpt>
      <trkpt lat="47.26649" lon="6.12999">
        <ele>453.358</ele>
        <time>2016-09-25T08:34:30.536Z</time>
      </trkpt>
      <trkpt lat="47.26648" lon="6.12978">
        <ele>453.621</ele>
        <time>2016-09-25T08:34:32.672Z</time>
      </trkpt>
      <trkpt lat="47.26644" lon="6.12962">
        <ele>453.351</ele>
        <time>2016-09-25T08:34:34.321Z</time>
      </trkpt>
      <trkpt lat="47.26642" lon="6.12934">
        <ele>452.664</ele>
        <time>2016-09-25T08:34:37.141Z</time>
      </trkpt>
      <trkpt lat="47.26634" lon="6.12908">
        <ele>451.904</ele>
        <time>2016-09-25T08:34:39.719Z</time>
      </trkpt>
      <trkpt lat="47.26614" lon="6.12891">
        <ele>451.106</ele>
        <time>2016-09-25T08:34:42.496Z</time>
      </trkpt>
      <trkpt lat="47.26595" lon="6.12896">
        <ele>450.024</ele>
        <time>2016-09-25T08:34:44.781Z</time>
      </trkpt>
      <trkpt lat="47.26575" lon="6.12907">
        <ele>448.591</ele>
        <time>2016-09-25T08:34:47.538Z</time>
      </trkpt>
      <trkpt lat="47.26561" lon="6.12911">
        <ele>448.018</ele>
        <time>2016-09-25T08:34:49.542Z</time>
      </trkpt>
      <trkpt lat="47.26547" lon="6.12912">
        <ele>449.307</ele>
        <time>2016-09-25T08:34:51.608Z</time>
      </trkpt>
      <trkpt lat="47.26529" lon="6.12924">
        <ele>451.453</ele>
        <time>2016-09-25T08:34:56.117Z</time>
      </trkpt>
      <trkpt lat="47.26517" lon="6.12931">
        <ele>453.202</ele>
        <time>2016-09-25T08:35:01.926Z</time>
      </trkpt>
      <trkpt lat="47.26509" lon="6.12938">
        <ele>454.449</ele>
        <time>2016-09-25T08:35:06.959Z</time>
      </trkpt>
      <trkpt lat="47.26502" lon="6.12946">
        <ele>455.681</ele>
        <time>2016-09-25T08:35:12.087Z</time>
      </trkpt>
      <trkpt lat="47.26494" lon="6.12954">
        <ele>457.425</ele>
        <time>2016-09-25T08:35:17.421Z</time>
      </trkpt>
      <trkpt lat="47.26485" lon="6.12961">
        <ele>459.573</ele>
        <time>2016-09-25T08:35:23.597Z</time>
      </trkpt>
      <trkpt lat="47.26477" lon="6.12967">
        <ele>461.683</ele>
        <time>2016-09-25T08:35:29.161Z</time>
      </trkpt>
      <trkpt lat="47.26469" lon="6.12973">
        <ele>463.94</ele>
        <time>2016-09-25T08:35:34.944Z</time>
      </trkpt>
      <trkpt lat="47.2646" lon="6.1298">
        <ele>466.348</ele>
        <time>2016-09-25T08:35:41.093Z</time>
      </trkpt>
      <trkpt lat="47.26451" lon="6.12984">
        <ele>468.148</ele>
        <time>2016-09-25T08:35:47.171Z</time>
      </trkpt>
      <trkpt lat="47.26441" lon="6.12982">
        <ele>468.829</ele>
        <time>2016-09-25T08:35:53.454Z</time>
      </trkpt>
      <trkpt lat="47.26432" lon="6.12977">
        <ele>468.681</ele>
        <time>2016-09-25T08:36:00.206Z</time>
      </trkpt>
      <trkpt lat="47.26422" lon="6.12972">
        <ele>468.327</ele>
        <time>2016-09-25T08:36:06.638Z</time>
      </trkpt>
      <trkpt lat="47.26413" lon="6.12969">
        <ele>468.776</ele>
        <time>2016-09-25T08:36:12.424Z</time>
      </trkpt>
      <trkpt lat="47.26404" lon="6.12962">
        <ele>470.375</ele>
        <time>2016-09-25T08:36:19.049Z</time>
      </trkpt>
      <trkpt lat="47.264" lon="6.12948">
        <ele>472.232</ele>
        <time>2016-09-25T08:36:25.364Z</time>
      </trkpt>
      <trkpt lat="47.26397" lon="6.12935">
        <ele>473.302</ele>
        <time>2016-09-25T08:36:31.023Z</time>
      </trkpt>
      <trkpt lat="47.26388" lon="6.12925">
        <ele>473.455</ele>
        <time>2016-09-25T08:36:37.028Z</time>
      </trkpt>
      <trkpt lat="47.26379" lon="6.12917">
        <ele>473.09</ele>
        <time>2016-09-25T08:36:42.480Z</time>
      </trkpt>
      <trkpt lat="47.26371" lon="6.12907">
        <ele>472.724</ele>
        <time>2016-09-25T08:36:47.632Z</time>
      </trkpt>
      <trkpt lat="47.26361" lon="6.129">
        <ele>472.537</ele>
        <time>2016-09-25T08:36:52.253Z</time>
      </trkpt>
      <trkpt lat="47.26351" lon="6.12895">
        <ele>472.464</ele>
        <time>2016-09-25T08:36:55.371Z</time>
      </trkpt>
      <trkpt lat="47.2634" lon="6.1289">
        <ele>472.188</ele>
        <time>2016-09-25T08:36:58.599Z</time>
      </trkpt>
      <trkpt lat="47.26331" lon="6.12886">
        <ele>471.58</ele>
        <time>2016-09-25T08:37:01.274Z</time>
      </trkpt>
      <trkpt lat="47.26321" lon="6.12881">
        <ele>471.342</ele>
        <time>2016-09-25T08:37:04.511Z</time>
      </trkpt>
      <trkpt lat="47.26312" lon="6.12878">
        <ele>472.348</ele>
        <time>2016-09-25T08:37:07.299Z</time>
      </trkpt>
      <trkpt lat="47.26303" lon="6.12874">
        <ele>474.279</ele>
        <time>2016-09-25T08:37:10.183Z</time>
      </trkpt>
      <trkpt lat="47.26293" lon="6.12871">
        <ele>475.977</ele>
        <time>2016-09-25T08:37:13.137Z</time>
      </trkpt>
      <trkpt lat="47.26285" lon="6.12866">
        <ele>476.984</ele>
        <time>2016-09-25T08:37:16.033Z</time>
      </trkpt>
      <trkpt lat="47.26275" lon="6.12857">
        <ele>477.415</ele>
        <time>2016-09-25T08:37:19.636Z</time>
      </trkpt>
      <trkpt lat="47.26268" lon="6.12847">
        <ele>477.285</ele>
        <time>2016-09-25T08:37:23.009Z</time>
      </trkpt>
      <trkpt lat="47.26263" lon="6.12834">
        <ele>476.736</ele>
        <time>2016-09-25T08:37:26.355Z</time>
      </trkpt>
      <trkpt lat="47.26258" lon="6.12819">
        <ele>475.963</ele>
        <time>2016-09-25T08:37:29.936Z</time>
      </trkpt>
      <trkpt lat="47.26252" lon="6.12804">
        <ele>474.981</ele>
        <time>2016-09-25T08:37:33.927Z</time>
      </trkpt>
      <trkpt lat="47.26248" lon="6.12791">
        <ele>474.031</ele>
        <time>2016-09-25T08:37:37.031Z</time>
      </trkpt>
      <trkpt lat="47.26247" lon="6.12778">
        <ele>473.697</ele>
        <time>2016-09-25T08:37:40.442Z</time>
      </trkpt>
      <trkpt lat="47.26244" lon="6.12763">
        <ele>474.327</ele>
        <time>2016-09-25T08:37:44.698Z</time>
      </trkpt>
      <trkpt lat="47.26244" lon="6.12749">
        <ele>475.502</ele>
        <time>2016-09-25T08:37:50.048Z</time>
      </trkpt>
      <trkpt lat="47.26237" lon="6.12737">
        <ele>476.487</ele>
        <time>2016-09-25T08:37:56.249Z</time>
      </trkpt>
      <trkpt lat="47.2623" lon="6.12726">
        <ele>477.045</ele>
        <time>2016-09-25T08:38:02.493Z</time>
      </trkpt>
      <trkpt lat="47.26223" lon="6.12717">
        <ele>477.354</ele>
        <time>2016-09-25T08:38:08.301Z</time>
      </trkpt>
      <trkpt lat="47.26215" lon="6.12713">
        <ele>478.466</ele>
        <time>2016-09-25T08:38:14.019Z</time>
      </trkpt>
      <trkpt lat="47.26205" lon="6.1271">
        <ele>481.25</ele>
        <time>2016-09-25T08:38:20.275Z</time>
      </trkpt>
      <trkpt lat="47.26198" lon="6.12701">
        <ele>484.872</ele>
        <time>2016-09-25T08:38:26.898Z</time>
      </trkpt>
      <trkpt lat="47.26189" lon="6.12695">
        <ele>487.775</ele>
        <time>2016-09-25T08:38:33.879Z</time>
      </trkpt>
      <trkpt lat="47.2618" lon="6.12689">
        <ele>489.328</ele>
        <time>2016-09-25T08:38:40.786Z</time>
      </trkpt>
      <trkpt lat="47.26172" lon="6.12681">
        <ele>490.052</ele>
        <time>2016-09-25T08:38:48.339Z</time>
      </trkpt>
      <trkpt lat="47.26162" lon="6.12678">
        <ele>490.773</ele>
        <time>2016-09-25T08:38:55.369Z</time>
      </trkpt>
      <trkpt lat="47.26153" lon="6.12674">
        <ele>491.784</ele>
        <time>2016-09-25T08:39:02.095Z</time>
      </trkpt>
      <trkpt lat="47.26144" lon="6.12669">
        <ele>493.01</ele>
        <time>2016-09-25T08:39:09.218Z</time>
      </trkpt>
      <trkpt lat="47.26135" lon="6.12663">
        <ele>494.006</ele>
        <time>2016-09-25T08:39:15.693Z</time>
      </trkpt>
      <trkpt lat="47.26125" lon="6.12658">
        <ele>494.519</ele>
        <time>2016-09-25T08:39:22.413Z</time>
      </trkpt>
      <trkpt lat="47.26115" lon="6.12653">
        <ele>494.83</ele>
        <time>2016-09-25T08:39:29.067Z</time>
      </trkpt>
      <trkpt lat="47.26106" lon="6.12646">
        <ele>494.999</ele>
        <time>2016-09-25T08:39:35.326Z</time>
      </trkpt>
      <trkpt lat="47.26097" lon="6.12642">
        <ele>494.694</ele>
        <time>2016-09-25T08:39:41.069Z</time>
      </trkpt>
      <trkpt lat="47.26089" lon="6.12636">
        <ele>493.858</ele>
        <time>2016-09-25T08:39:46.785Z</time>
      </trkpt>
      <trkpt lat="47.26079" lon="6.12629">
        <ele>493.17</ele>
        <time>2016-09-25T08:39:53.372Z</time>
      </trkpt>
      <trkpt lat="47.26071" lon="6.12621">
        <ele>493.744</ele>
        <time>2016-09-25T08:39:59.733Z</time>
      </trkpt>
      <trkpt lat="47.26066" lon="6.12611">
        <ele>495.76</ele>
        <time>2016-09-25T08:40:05.651Z</time>
      </trkpt>
      <trkpt lat="47.26058" lon="6.126">
        <ele>499.11</ele>
        <time>2016-09-25T08:40:12.465Z</time>
      </trkpt>
      <trkpt lat="47.26049" lon="6.12592">
        <ele>503.301</ele>
        <time>2016-09-25T08:40:19.443Z</time>
      </trkpt>
      <trkpt lat="47.26041" lon="6.12586">
        <ele>506.591</ele>
        <time>2016-09-25T08:40:25.869Z</time>
      </trkpt>
      <trkpt lat="47.26033" lon="6.12578">
        <ele>507.352</ele>
        <time>2016-09-25T08:40:32.445Z</time>
      </trkpt>
      <trkpt lat="47.26025" lon="6.12569">
        <ele>506.125</ele>
        <time>2016-09-25T08:40:38.981Z</time>
      </trkpt>
      <trkpt lat="47.26019" lon="6.12559">
        <ele>504.579</ele>
        <time>2016-09-25T08:40:44.899Z</time>
      </trkpt>
      <trkpt lat="47.26012" lon="6.12551">
        <ele>504.238</ele>
        <time>2016-09-25T08:40:50.948Z</time>
      </trkpt>
      <trkpt lat="47.26005" lon="6.12542">
        <ele>505.583</ele>
        <time>2016-09-25T08:40:57.062Z</time>
      </trkpt>
      <trkpt lat="47.25997" lon="6.12536">
        <ele>508.357</ele>
        <time>2016-09-25T08:41:03.098Z</time>
      </trkpt>
      <trkpt lat="47.25986" lon="6.12536">
        <ele>511.489</ele>
        <time>2016-09-25T08:41:10.220Z</time>
      </trkpt>
      <trkpt lat="47.25976" lon="6.12539">
        <ele>513.557</ele>
        <time>2016-09-25T08:41:17.156Z</time>
      </trkpt>
      <trkpt lat="47.25966" lon="6.12541">
        <ele>514.093</ele>
        <time>2016-09-25T08:41:23.922Z</time>
      </trkpt>
      <trkpt lat="47.25957" lon="6.12545">
        <ele>514.619</ele>
        <time>2016-09-25T08:41:29.954Z</time>
      </trkpt>
      <trkpt lat="47.25947" lon="6.12548">
        <ele>516.486</ele>
        <time>2016-09-25T08:41:36.360Z</time>
      </trkpt>
      <trkpt lat="47.25937" lon="6.12548">
        <ele>518.887</ele>
        <time>2016-09-25T08:41:40.358Z</time>
      </trkpt>
      <trkpt lat="47.25927" lon="6.12546">
        <ele>520.412</ele>
        <time>2016-09-25T08:41:42.885Z</time>
      </trkpt>
      <trkpt lat="47.25916" lon="6.12549">
        <ele>520.948</ele>
        <time>2016-09-25T08:41:45.406Z</time>
      </trkpt>
      <trkpt lat="47.25901" lon="6.12554">
        <ele>520.982</ele>
        <time>2016-09-25T08:41:48.309Z</time>
      </trkpt>
      <trkpt lat="47.25888" lon="6.12559">
        <ele>520.7</ele>
        <time>2016-09-25T08:41:50.433Z</time>
      </trkpt>
      <trkpt lat="47.25867" lon="6.1257">
        <ele>520.096</ele>
        <time>2016-09-25T08:41:54.256Z</time>
      </trkpt>
      <trkpt lat="47.25855" lon="6.12576">
        <ele>519.158</ele>
        <time>2016-09-25T08:41:56.617Z</time>
      </trkpt>
      <trkpt lat="47.25844" lon="6.1258">
        <ele>517.998</ele>
        <time>2016-09-25T08:41:58.665Z</time>
      </trkpt>
      <trkpt lat="47.25834" lon="6.12584">
        <ele>517.068</ele>
        <time>2016-09-25T08:42:00.768Z</time>
      </trkpt>
      <trkpt lat="47.25823" lon="6.12587">
        <ele>516.859</ele>
        <time>2016-09-25T08:42:03.119Z</time>
      </trkpt>
      <trkpt lat="47.25811" lon="6.12591">
        <ele>517.259</ele>
        <time>2016-09-25T08:42:05.776Z</time>
      </trkpt>
      <trkpt lat="47.25797" lon="6.12598">
        <ele>517.597</ele>
        <time>2016-09-25T08:42:08.871Z</time>
      </trkpt>
      <trkpt lat="47.25786" lon="6.12605">
        <ele>517.31</ele>
        <time>2016-09-25T08:42:11.335Z</time>
      </trkpt>
      <trkpt lat="47.25773" lon="6.12613">
        <ele>516.589</ele>
        <time>2016-09-25T08:42:13.946Z</time>
      </trkpt>
      <trkpt lat="47.25764" lon="6.12618">
        <ele>515.949</ele>
        <time>2016-09-25T08:42:15.796Z</time>
      </trkpt>
      <trkpt lat="47.25754" lon="6.12622">
        <ele>515.326</ele>
        <time>2016-09-25T08:42:17.549Z</time>
      </trkpt>
      <trkpt lat="47.25741" lon="6.12627">
        <ele>514.421</ele>
        <time>2016-09-25T08:42:19.678Z</time>
      </trkpt>
      <trkpt lat="47.2573" lon="6.1263">
        <ele>513.566</ele>
        <time>2016-09-25T08:42:21.117Z</time>
      </trkpt>
      <trkpt lat="47.2572" lon="6.12632">
        <ele>513.45</ele>
        <time>2016-09-25T08:42:22.563Z</time>
      </trkpt>
      <trkpt lat="47.25699" lon="6.12631">
        <ele>514.169</ele>
        <time>2016-09-25T08:42:25.250Z</time>
      </trkpt>
      <trkpt lat="47.25685" lon="6.12629">
        <ele>515.144</ele>
        <time>2016-09-25T08:42:27.077Z</time>
      </trkpt>
      <trkpt lat="47.25669" lon="6.12623">
        <ele>515.428</ele>
        <time>2016-09-25T08:42:29.168Z</time>
      </trkpt>
      <trkpt lat="47.25648" lon="6.12612">
        <ele>514.335</ele>
        <time>2016-09-25T08:42:31.975Z</time>
      </trkpt>
      <trkpt lat="47.25635" lon="6.12602">
        <ele>512.06</ele>
        <time>2016-09-25T08:42:33.889Z</time>
      </trkpt>
      <trkpt lat="47.2562" lon="6.12593">
        <ele>509.174</ele>
        <time>2016-09-25T08:42:35.927Z</time>
      </trkpt>
      <trkpt lat="47.25596" lon="6.12583">
        <ele>505.723</ele>
        <time>2016-09-25T08:42:39.102Z</time>
      </trkpt>
      <trkpt lat="47.25582" lon="6.12575">
        <ele>501.965</ele>
        <time>2016-09-25T08:42:41.059Z</time>
      </trkpt>
      <trkpt lat="47.25569" lon="6.12565">
        <ele>498.927</ele>
        <time>2016-09-25T08:42:43.096Z</time>
      </trkpt>
      <trkpt lat="47.25551" lon="6.12549">
        <ele>497.084</ele>
        <time>2016-09-25T08:42:46.607Z</time>
      </trkpt>
      <trkpt lat="47.25534" lon="6.12536">
        <ele>495.671</ele>
        <time>2016-09-25T08:42:49.947Z</time>
      </trkpt>
      <trkpt lat="47.25524" lon="6.12536">
        <ele>494.202</ele>
        <time>2016-09-25T08:42:51.799Z</time>
      </trkpt>
      <trkpt lat="47.25514" lon="6.1254">
        <ele>493.075</ele>
        <time>2016-09-25T08:42:53.627Z</time>
      </trkpt>
      <trkpt lat="47.25498" lon="6.12538">
        <ele>492.303</ele>
        <time>2016-09-25T08:42:56.884Z</time>
      </trkpt>
      <trkpt lat="47.25488" lon="6.12534">
        <ele>491.089</ele>
        <time>2016-09-25T08:42:59.847Z</time>
      </trkpt>
      <trkpt lat="47.25473" lon="6.12528">
        <ele>489.208</ele>
        <time>2016-09-25T08:43:07.980Z</time>
      </trkpt>
      <trkpt lat="47.25465" lon="6.12521">
        <ele>487.307</ele>
        <time>2016-09-25T08:43:13.108Z</time>
      </trkpt>
      <trkpt lat="47.25458" lon="6.12531">
        <ele>485.939</ele>
        <time>2016-09-25T08:43:18.000Z</time>
      </trkpt>
      <trkpt lat="47.25458" lon="6.12531">
        <ele>485.24</ele>
        <time>2016-09-25T08:43:21.000Z</time>
      </trkpt>
      <trkpt lat="47.25458" lon="6.12531">
        <ele>485.111</ele>
        <time>2016-09-25T08:54:02.207Z</time>
      </trkpt>
      <trkpt lat="47.25452" lon="6.12514">
        <ele>485.121</ele>
        <time>2016-09-25T08:54:09.620Z</time>
      </trkpt>
      <trkpt lat="47.25449" lon="6.12499">
        <ele>484.599</ele>
        <time>2016-09-25T08:54:12.631Z</time>
      </trkpt>
      <trkpt lat="47.25448" lon="6.12483">
        <ele>483.349</ele>
        <time>2016-09-25T08:54:15.299Z</time>
      </trkpt>
      <trkpt lat="47.25445" lon="6.12469">
        <ele>482.135</ele>
        <time>2016-09-25T08:54:17.756Z</time>
      </trkpt>
      <trkpt lat="47.25441" lon="6.12457">
        <ele>481.657</ele>
        <time>2016-09-25T08:54:20.106Z</time>
      </trkpt>
      <trkpt lat="47.25432" lon="6.12451">
        <ele>481.905</ele>
        <time>2016-09-25T08:54:22.648Z</time>
      </trkpt>
      <trkpt lat="47.25422" lon="6.12447">
        <ele>482.569</ele>
        <time>2016-09-25T08:54:25.697Z</time>
      </trkpt>
      <trkpt lat="47.25412" lon="6.12448">
        <ele>483.359</ele>
        <time>2016-09-25T08:54:29.040Z</time>
      </trkpt>
      <trkpt lat="47.25402" lon="6.12449">
        <ele>484.229</ele>
        <time>2016-09-25T08:54:32.122Z</time>
      </trkpt>
      <trkpt lat="47.25391" lon="6.1245">
        <ele>485.445</ele>
        <time>2016-09-25T08:54:35.539Z</time>
      </trkpt>
      <trkpt lat="47.25381" lon="6.12451">
        <ele>486.996</ele>
        <time>2016-09-25T08:54:38.593Z</time>
      </trkpt>
      <trkpt lat="47.2537" lon="6.12451">
        <ele>488.231</ele>
        <time>2016-09-25T08:54:41.635Z</time>
      </trkpt>
      <trkpt lat="47.2536" lon="6.12451">
        <ele>488.559</ele>
        <time>2016-09-25T08:54:44.474Z</time>
      </trkpt>
      <trkpt lat="47.2535" lon="6.1245">
        <ele>487.833</ele>
        <time>2016-09-25T08:54:47.208Z</time>
      </trkpt>
      <trkpt lat="47.25341" lon="6.12449">
        <ele>486.414</ele>
        <time>2016-09-25T08:54:49.946Z</time>
      </trkpt>
      <trkpt lat="47.25331" lon="6.12447">
        <ele>485.051</ele>
        <time>2016-09-25T08:54:52.831Z</time>
      </trkpt>
      <trkpt lat="47.25323" lon="6.1244">
        <ele>484.103</ele>
        <time>2016-09-25T08:54:55.764Z</time>
      </trkpt>
      <trkpt lat="47.25316" lon="6.12431">
        <ele>483.171</ele>
        <time>2016-09-25T08:54:59.184Z</time>
      </trkpt>
      <trkpt lat="47.25309" lon="6.12421">
        <ele>481.645</ele>
        <time>2016-09-25T08:55:02.754Z</time>
      </trkpt>
      <trkpt lat="47.25304" lon="6.12409">
        <ele>479.676</ele>
        <time>2016-09-25T08:55:06.527Z</time>
      </trkpt>
      <trkpt lat="47.25302" lon="6.12396">
        <ele>479.129</ele>
        <time>2016-09-25T08:55:10.156Z</time>
      </trkpt>
      <trkpt lat="47.25299" lon="6.12383">
        <ele>481.021</ele>
        <time>2016-09-25T08:55:14.011Z</time>
      </trkpt>
      <trkpt lat="47.25294" lon="6.1237">
        <ele>483.9</ele>
        <time>2016-09-25T08:55:18.027Z</time>
      </trkpt>
      <trkpt lat="47.25293" lon="6.12354">
        <ele>486.554</ele>
        <time>2016-09-25T08:55:22.999Z</time>
      </trkpt>
      <trkpt lat="47.25292" lon="6.1234">
        <ele>488.89</ele>
        <time>2016-09-25T08:55:27.886Z</time>
      </trkpt>
      <trkpt lat="47.25291" lon="6.12327">
        <ele>490.439</ele>
        <time>2016-09-25T08:55:32.529Z</time>
      </trkpt>
      <trkpt lat="47.25291" lon="6.12311">
        <ele>490.99</ele>
        <time>2016-09-25T08:55:37.746Z</time>
      </trkpt>
      <trkpt lat="47.25287" lon="6.12296">
        <ele>490.951</ele>
        <time>2016-09-25T08:55:43.150Z</time>
      </trkpt>
      <trkpt lat="47.2528" lon="6.12285">
        <ele>490.829</ele>
        <time>2016-09-25T08:55:48.425Z</time>
      </trkpt>
      <trkpt lat="47.25271" lon="6.12279">
        <ele>490.926</ele>
        <time>2016-09-25T08:55:53.196Z</time>
      </trkpt>
      <trkpt lat="47.25265" lon="6.12269">
        <ele>491.539</ele>
        <time>2016-09-25T08:55:57.678Z</time>
      </trkpt>
      <trkpt lat="47.25259" lon="6.12258">
        <ele>492.953</ele>
        <time>2016-09-25T08:56:02.408Z</time>
      </trkpt>
      <trkpt lat="47.25254" lon="6.12246">
        <ele>494.868</ele>
        <time>2016-09-25T08:56:07.322Z</time>
      </trkpt>
      <trkpt lat="47.25247" lon="6.12238">
        <ele>497.22</ele>
        <time>2016-09-25T08:56:12.187Z</time>
      </trkpt>
      <trkpt lat="47.25241" lon="6.12225">
        <ele>500.068</ele>
        <time>2016-09-25T08:56:17.892Z</time>
      </trkpt>
      <trkpt lat="47.25234" lon="6.12214">
        <ele>502.424</ele>
        <time>2016-09-25T08:56:24.009Z</time>
      </trkpt>
      <trkpt lat="47.25227" lon="6.12202">
        <ele>503.233</ele>
        <time>2016-09-25T08:56:30.251Z</time>
      </trkpt>
      <trkpt lat="47.25218" lon="6.12196">
        <ele>502.777</ele>
        <time>2016-09-25T08:56:36.460Z</time>
      </trkpt>
      <trkpt lat="47.2521" lon="6.12188">
        <ele>502.213</ele>
        <time>2016-09-25T08:56:42.380Z</time>
      </trkpt>
      <trkpt lat="47.25206" lon="6.12175">
        <ele>502.544</ele>
        <time>2016-09-25T08:56:48.243Z</time>
      </trkpt>
      <trkpt lat="47.25204" lon="6.12161">
        <ele>504.014</ele>
        <time>2016-09-25T08:56:54.075Z</time>
      </trkpt>
      <trkpt lat="47.25201" lon="6.12146">
        <ele>506.927</ele>
        <time>2016-09-25T08:57:00.556Z</time>
      </trkpt>
      <trkpt lat="47.252" lon="6.12132">
        <ele>510.77</ele>
        <time>2016-09-25T08:57:07.003Z</time>
      </trkpt>
      <trkpt lat="47.25199" lon="6.12117">
        <ele>513.718</ele>
        <time>2016-09-25T08:57:14.292Z</time>
      </trkpt>
      <trkpt lat="47.25199" lon="6.12103">
        <ele>514.442</ele>
        <time>2016-09-25T08:57:21.360Z</time>
      </trkpt>
      <trkpt lat="47.25196" lon="6.1209">
        <ele>513.419</ele>
        <time>2016-09-25T08:57:29.302Z</time>
      </trkpt>
      <trkpt lat="47.25195" lon="6.12076">
        <ele>512.558</ele>
        <time>2016-09-25T08:57:37.505Z</time>
      </trkpt>
      <trkpt lat="47.25191" lon="6.12064">
        <ele>513.299</ele>
        <time>2016-09-25T08:57:46.276Z</time>
      </trkpt>
      <trkpt lat="47.2519" lon="6.1205">
        <ele>515.798</ele>
        <time>2016-09-25T08:57:55.053Z</time>
      </trkpt>
      <trkpt lat="47.25188" lon="6.12036">
        <ele>520.248</ele>
        <time>2016-09-25T08:58:04.077Z</time>
      </trkpt>
      <trkpt lat="47.25187" lon="6.12022">
        <ele>525.578</ele>
        <time>2016-09-25T08:58:13.031Z</time>
      </trkpt>
      <trkpt lat="47.25186" lon="6.12009">
        <ele>529.358</ele>
        <time>2016-09-25T08:58:20.441Z</time>
      </trkpt>
      <trkpt lat="47.25184" lon="6.11996">
        <ele>530.749</ele>
        <time>2016-09-25T08:58:26.836Z</time>
      </trkpt>
      <trkpt lat="47.2518" lon="6.11983">
        <ele>530.741</ele>
        <time>2016-09-25T08:58:32.533Z</time>
      </trkpt>
      <trkpt lat="47.25176" lon="6.11971">
        <ele>530.604</ele>
        <time>2016-09-25T08:58:38.510Z</time>
      </trkpt>
      <trkpt lat="47.25171" lon="6.11957">
        <ele>530.969</ele>
        <time>2016-09-25T08:58:47.176Z</time>
      </trkpt>
      <trkpt lat="47.25167" lon="6.11944">
        <ele>530.864</ele>
        <time>2016-09-25T08:58:56.293Z</time>
      </trkpt>
      <trkpt lat="47.25161" lon="6.1193">
        <ele>529.284</ele>
        <time>2016-09-25T08:59:06.587Z</time>
      </trkpt>
      <trkpt lat="47.25156" lon="6.11918">
        <ele>527.113</ele>
        <time>2016-09-25T08:59:15.370Z</time>
      </trkpt>
      <trkpt lat="47.25147" lon="6.11907">
        <ele>526.163</ele>
        <time>2016-09-25T08:59:25.801Z</time>
      </trkpt>
      <trkpt lat="47.2514" lon="6.11898">
        <ele>526.865</ele>
        <time>2016-09-25T08:59:33.942Z</time>
      </trkpt>
      <trkpt lat="47.25134" lon="6.11886">
        <ele>528.105</ele>
        <time>2016-09-25T08:59:41.872Z</time>
      </trkpt>
      <trkpt lat="47.25127" lon="6.11877">
        <ele>529.679</ele>
        <time>2016-09-25T08:59:49.492Z</time>
      </trkpt>
      <trkpt lat="47.25121" lon="6.11866">
        <ele>532.719</ele>
        <time>2016-09-25T08:59:56.717Z</time>
      </trkpt>
      <trkpt lat="47.25118" lon="6.11854">
        <ele>536.861</ele>
        <time>2016-09-25T09:00:03.724Z</time>
      </trkpt>
      <trkpt lat="47.25114" lon="6.11842">
        <ele>540.292</ele>
        <time>2016-09-25T09:00:10.599Z</time>
      </trkpt>
      <trkpt lat="47.25112" lon="6.11828">
        <ele>542.073</ele>
        <time>2016-09-25T09:00:17.553Z</time>
      </trkpt>
      <trkpt lat="47.25105" lon="6.11806">
        <ele>542.119</ele>
        <time>2016-09-25T09:00:29.300Z</time>
      </trkpt>
      <trkpt lat="47.25102" lon="6.11793">
        <ele>540.815</ele>
        <time>2016-09-25T09:00:35.911Z</time>
      </trkpt>
      <trkpt lat="47.251" lon="6.1178">
        <ele>539.229</ele>
        <time>2016-09-25T09:00:42.289Z</time>
      </trkpt>
      <trkpt lat="47.25095" lon="6.11768">
        <ele>538.28</ele>
        <time>2016-09-25T09:00:48.526Z</time>
      </trkpt>
      <trkpt lat="47.25092" lon="6.11752">
        <ele>538.076</ele>
        <time>2016-09-25T09:00:55.064Z</time>
      </trkpt>
      <trkpt lat="47.25087" lon="6.11738">
        <ele>538.698</ele>
        <time>2016-09-25T09:01:00.471Z</time>
      </trkpt>
      <trkpt lat="47.2508" lon="6.11725">
        <ele>540.164</ele>
        <time>2016-09-25T09:01:04.180Z</time>
      </trkpt>
      <trkpt lat="47.25075" lon="6.11713">
        <ele>542.838</ele>
        <time>2016-09-25T09:01:06.642Z</time>
      </trkpt>
      <trkpt lat="47.25071" lon="6.11698">
        <ele>546.547</ele>
        <time>2016-09-25T09:01:09.372Z</time>
      </trkpt>
      <trkpt lat="47.25068" lon="6.11679">
        <ele>549.408</ele>
        <time>2016-09-25T09:01:12.743Z</time>
      </trkpt>
      <trkpt lat="47.25067" lon="6.11665">
        <ele>549.276</ele>
        <time>2016-09-25T09:01:15.247Z</time>
      </trkpt>
      <trkpt lat="47.25064" lon="6.11649">
        <ele>546.368</ele>
        <time>2016-09-25T09:01:18.228Z</time>
      </trkpt>
      <trkpt lat="47.2506" lon="6.11634">
        <ele>542.949</ele>
        <time>2016-09-25T09:01:21.036Z</time>
      </trkpt>
      <trkpt lat="47.25057" lon="6.11617">
        <ele>541.265</ele>
        <time>2016-09-25T09:01:24.066Z</time>
      </trkpt>
      <trkpt lat="47.25055" lon="6.11598">
        <ele>541.508</ele>
        <time>2016-09-25T09:01:27.357Z</time>
      </trkpt>
      <trkpt lat="47.25053" lon="6.11581">
        <ele>542.391</ele>
        <time>2016-09-25T09:01:30.206Z</time>
      </trkpt>
      <trkpt lat="47.25051" lon="6.11566">
        <ele>542.861</ele>
        <time>2016-09-25T09:01:32.612Z</time>
      </trkpt>
      <trkpt lat="47.25047" lon="6.11547">
        <ele>542.825</ele>
        <time>2016-09-25T09:01:35.594Z</time>
      </trkpt>
      <trkpt lat="47.25044" lon="6.11526">
        <ele>542.535</ele>
        <time>2016-09-25T09:01:38.293Z</time>
      </trkpt>
      <trkpt lat="47.25041" lon="6.11507">
        <ele>541.845</ele>
        <time>2016-09-25T09:01:40.656Z</time>
      </trkpt>
      <trkpt lat="47.25038" lon="6.11492">
        <ele>540.328</ele>
        <time>2016-09-25T09:01:42.557Z</time>
      </trkpt>
      <trkpt lat="47.25034" lon="6.11469">
        <ele>537.996</ele>
        <time>2016-09-25T09:01:46.021Z</time>
      </trkpt>
      <trkpt lat="47.25032" lon="6.11447">
        <ele>534.851</ele>
        <time>2016-09-25T09:01:49.821Z</time>
      </trkpt>
      <trkpt lat="47.25027" lon="6.11425">
        <ele>530.867</ele>
        <time>2016-09-25T09:01:54.087Z</time>
      </trkpt>
      <trkpt lat="47.25021" lon="6.11414">
        <ele>527.169</ele>
        <time>2016-09-25T09:01:57.208Z</time>
      </trkpt>
      <trkpt lat="47.25016" lon="6.11398">
        <ele>525.298</ele>
        <time>2016-09-25T09:02:02.183Z</time>
      </trkpt>
      <trkpt lat="47.25009" lon="6.11383">
        <ele>525.343</ele>
        <time>2016-09-25T09:02:07.544Z</time>
      </trkpt>
      <trkpt lat="47.25004" lon="6.11371">
        <ele>526.719</ele>
        <time>2016-09-25T09:02:12.411Z</time>
      </trkpt>
      <trkpt lat="47.24998" lon="6.11358">
        <ele>529.374</ele>
        <time>2016-09-25T09:02:17.496Z</time>
      </trkpt>
      <trkpt lat="47.24994" lon="6.11346">
        <ele>532.563</ele>
        <time>2016-09-25T09:02:22.142Z</time>
      </trkpt>
      <trkpt lat="47.24992" lon="6.11332">
        <ele>534.74</ele>
        <time>2016-09-25T09:02:27.113Z</time>
      </trkpt>
      <trkpt lat="47.24988" lon="6.11319">
        <ele>535.61</ele>
        <time>2016-09-25T09:02:32.281Z</time>
      </trkpt>
      <trkpt lat="47.24986" lon="6.11303">
        <ele>536.116</ele>
        <time>2016-09-25T09:02:38.298Z</time>
      </trkpt>
      <trkpt lat="47.24985" lon="6.11289">
        <ele>536.828</ele>
        <time>2016-09-25T09:02:44.109Z</time>
      </trkpt>
      <trkpt lat="47.24983" lon="6.11274">
        <ele>537.521</ele>
        <time>2016-09-25T09:02:49.962Z</time>
      </trkpt>
      <trkpt lat="47.24982" lon="6.11259">
        <ele>538.265</ele>
        <time>2016-09-25T09:02:56.581Z</time>
      </trkpt>
      <trkpt lat="47.24981" lon="6.11244">
        <ele>539.497</ele>
        <time>2016-09-25T09:03:03.230Z</time>
      </trkpt>
      <trkpt lat="47.2498" lon="6.11229">
        <ele>541.132</ele>
        <time>2016-09-25T09:03:10.208Z</time>
      </trkpt>
      <trkpt lat="47.24979" lon="6.11216">
        <ele>542.857</ele>
        <time>2016-09-25T09:03:15.981Z</time>
      </trkpt>
      <trkpt lat="47.24978" lon="6.11202">
        <ele>544.653</ele>
        <time>2016-09-25T09:03:21.624Z</time>
      </trkpt>
      <trkpt lat="47.24977" lon="6.11189">
        <ele>546.354</ele>
        <time>2016-09-25T09:03:27.133Z</time>
      </trkpt>
      <trkpt lat="47.24975" lon="6.11176">
        <ele>547.592</ele>
        <time>2016-09-25T09:03:32.898Z</time>
      </trkpt>
      <trkpt lat="47.2497" lon="6.11161">
        <ele>549.021</ele>
        <time>2016-09-25T09:03:40.103Z</time>
      </trkpt>
      <trkpt lat="47.24969" lon="6.11145">
        <ele>551.415</ele>
        <time>2016-09-25T09:03:47.207Z</time>
      </trkpt>
      <trkpt lat="47.2497" lon="6.11131">
        <ele>553.918</ele>
        <time>2016-09-25T09:03:53.155Z</time>
      </trkpt>
      <trkpt lat="47.24971" lon="6.11116">
        <ele>555.521</ele>
        <time>2016-09-25T09:04:00.067Z</time>
      </trkpt>
      <trkpt lat="47.2497" lon="6.11099">
        <ele>556.549</ele>
        <time>2016-09-25T09:04:08.149Z</time>
      </trkpt>
      <trkpt lat="47.24973" lon="6.11086">
        <ele>557.368</ele>
        <time>2016-09-25T09:04:15.158Z</time>
      </trkpt>
      <trkpt lat="47.24976" lon="6.1107">
        <ele>558.02</ele>
        <time>2016-09-25T09:04:24.077Z</time>
      </trkpt>
      <trkpt lat="47.24979" lon="6.11057">
        <ele>558.772</ele>
        <time>2016-09-25T09:04:31.798Z</time>
      </trkpt>
      <trkpt lat="47.2498" lon="6.11043">
        <ele>560.361</ele>
        <time>2016-09-25T09:04:39.148Z</time>
      </trkpt>
      <trkpt lat="47.24986" lon="6.11032">
        <ele>562.704</ele>
        <time>2016-09-25T09:04:46.622Z</time>
      </trkpt>
      <trkpt lat="47.24995" lon="6.11025">
        <ele>564.604</ele>
        <time>2016-09-25T09:04:54.175Z</time>
      </trkpt>
      <trkpt lat="47.25002" lon="6.11015">
        <ele>565.443</ele>
        <time>2016-09-25T09:05:01.472Z</time>
      </trkpt>
      <trkpt lat="47.25012" lon="6.11012">
        <ele>565.565</ele>
        <time>2016-09-25T09:05:08.267Z</time>
      </trkpt>
      <trkpt lat="47.25019" lon="6.11022">
        <ele>565.509</ele>
        <time>2016-09-25T09:05:15.890Z</time>
      </trkpt>
      <trkpt lat="47.25026" lon="6.11032">
        <ele>565.731</ele>
        <time>2016-09-25T09:05:22.820Z</time>
      </trkpt>
      <trkpt lat="47.25032" lon="6.11043">
        <ele>566.637</ele>
        <time>2016-09-25T09:05:30.031Z</time>
      </trkpt>
      <trkpt lat="47.25037" lon="6.11055">
        <ele>568.421</ele>
        <time>2016-09-25T09:05:36.853Z</time>
      </trkpt>
      <trkpt lat="47.25042" lon="6.11067">
        <ele>570.45</ele>
        <time>2016-09-25T09:05:43.707Z</time>
      </trkpt>
      <trkpt lat="47.25047" lon="6.1108">
        <ele>571.457</ele>
        <time>2016-09-25T09:05:50.546Z</time>
      </trkpt>
      <trkpt lat="47.25052" lon="6.11093">
        <ele>571.167</ele>
        <time>2016-09-25T09:05:56.860Z</time>
      </trkpt>
      <trkpt lat="47.2506" lon="6.11103">
        <ele>570.675</ele>
        <time>2016-09-25T09:06:02.135Z</time>
      </trkpt>
      <trkpt lat="47.25065" lon="6.11115">
        <ele>570.881</ele>
        <time>2016-09-25T09:06:05.889Z</time>
      </trkpt>
      <trkpt lat="47.25072" lon="6.11126">
        <ele>571.261</ele>
        <time>2016-09-25T09:06:08.940Z</time>
      </trkpt>
      <trkpt lat="47.25076" lon="6.11138">
        <ele>571.152</ele>
        <time>2016-09-25T09:06:11.488Z</time>
      </trkpt>
      <trkpt lat="47.25081" lon="6.11153">
        <ele>570.973</ele>
        <time>2016-09-25T09:06:14.249Z</time>
      </trkpt>
      <trkpt lat="47.25087" lon="6.11166">
        <ele>571.377</ele>
        <time>2016-09-25T09:06:16.357Z</time>
      </trkpt>
      <trkpt lat="47.25095" lon="6.11178">
        <ele>572.273</ele>
        <time>2016-09-25T09:06:18.478Z</time>
      </trkpt>
      <trkpt lat="47.25102" lon="6.11192">
        <ele>573.737</ele>
        <time>2016-09-25T09:06:20.782Z</time>
      </trkpt>
      <trkpt lat="47.25108" lon="6.11206">
        <ele>576.157</ele>
        <time>2016-09-25T09:06:23.418Z</time>
      </trkpt>
      <trkpt lat="47.25115" lon="6.11219">
        <ele>578.819</ele>
        <time>2016-09-25T09:06:26.018Z</time>
      </trkpt>
      <trkpt lat="47.25122" lon="6.11234">
        <ele>580.37</ele>
        <time>2016-09-25T09:06:28.818Z</time>
      </trkpt>
      <trkpt lat="47.2513" lon="6.11251">
        <ele>580.258</ele>
        <time>2016-09-25T09:06:31.802Z</time>
      </trkpt>
      <trkpt lat="47.25135" lon="6.11263">
        <ele>578.639</ele>
        <time>2016-09-25T09:06:33.711Z</time>
      </trkpt>
      <trkpt lat="47.25144" lon="6.11285">
        <ele>575.846</ele>
        <time>2016-09-25T09:06:37.206Z</time>
      </trkpt>
      <trkpt lat="47.25148" lon="6.11302">
        <ele>572.226</ele>
        <time>2016-09-25T09:06:39.626Z</time>
      </trkpt>
      <trkpt lat="47.2515" lon="6.11316">
        <ele>568.494</ele>
        <time>2016-09-25T09:06:41.489Z</time>
      </trkpt>
      <trkpt lat="47.25159" lon="6.11326">
        <ele>565.742</ele>
        <time>2016-09-25T09:06:43.681Z</time>
      </trkpt>
      <trkpt lat="47.25168" lon="6.11336">
        <ele>564.495</ele>
        <time>2016-09-25T09:06:45.843Z</time>
      </trkpt>
      <trkpt lat="47.25175" lon="6.11351">
        <ele>564.386</ele>
        <time>2016-09-25T09:06:48.102Z</time>
      </trkpt>
      <trkpt lat="47.25183" lon="6.11367">
        <ele>564.74</ele>
        <time>2016-09-25T09:06:50.613Z</time>
      </trkpt>
      <trkpt lat="47.25192" lon="6.11383">
        <ele>565.078</ele>
        <time>2016-09-25T09:06:53.095Z</time>
      </trkpt>
      <trkpt lat="47.25203" lon="6.11398">
        <ele>565.185</ele>
        <time>2016-09-25T09:06:55.384Z</time>
      </trkpt>
      <trkpt lat="47.25213" lon="6.11413">
        <ele>565.022</ele>
        <time>2016-09-25T09:06:57.329Z</time>
      </trkpt>
      <trkpt lat="47.25221" lon="6.11425">
        <ele>564.675</ele>
        <time>2016-09-25T09:06:58.760Z</time>
      </trkpt>
      <trkpt lat="47.2523" lon="6.11442">
        <ele>564.286</ele>
        <time>2016-09-25T09:07:00.525Z</time>
      </trkpt>
      <trkpt lat="47.2524" lon="6.11459">
        <ele>563.813</ele>
        <time>2016-09-25T09:07:02.354Z</time>
      </trkpt>
      <trkpt lat="47.25252" lon="6.11475">
        <ele>562.737</ele>
        <time>2016-09-25T09:07:04.249Z</time>
      </trkpt>
      <trkpt lat="47.25262" lon="6.11487">
        <ele>560.594</ele>
        <time>2016-09-25T09:07:05.711Z</time>
      </trkpt>
      <trkpt lat="47.25272" lon="6.11497">
        <ele>557.689</ele>
        <time>2016-09-25T09:07:07.097Z</time>
      </trkpt>
      <trkpt lat="47.25289" lon="6.11519">
        <ele>554.844</ele>
        <time>2016-09-25T09:07:09.868Z</time>
      </trkpt>
      <trkpt lat="47.25305" lon="6.11544">
        <ele>552.643</ele>
        <time>2016-09-25T09:07:12.603Z</time>
      </trkpt>
      <trkpt lat="47.25315" lon="6.11557">
        <ele>551.132</ele>
        <time>2016-09-25T09:07:14.287Z</time>
      </trkpt>
      <trkpt lat="47.25334" lon="6.11581">
        <ele>550.162</ele>
        <time>2016-09-25T09:07:17.453Z</time>
      </trkpt>
      <trkpt lat="47.25344" lon="6.11595">
        <ele>550.157</ele>
        <time>2016-09-25T09:07:19.322Z</time>
      </trkpt>
      <trkpt lat="47.25359" lon="6.11615">
        <ele>551.266</ele>
        <time>2016-09-25T09:07:22.209Z</time>
      </trkpt>
      <trkpt lat="47.25369" lon="6.11629">
        <ele>552.519</ele>
        <time>2016-09-25T09:07:24.252Z</time>
      </trkpt>
      <trkpt lat="47.25384" lon="6.11647">
        <ele>553.087</ele>
        <time>2016-09-25T09:07:27.816Z</time>
      </trkpt>
      <trkpt lat="47.25396" lon="6.11657">
        <ele>553.313</ele>
        <time>2016-09-25T09:07:30.975Z</time>
      </trkpt>
      <trkpt lat="47.25408" lon="6.11666">
        <ele>553.67</ele>
        <time>2016-09-25T09:07:33.651Z</time>
      </trkpt>
      <trkpt lat="47.25425" lon="6.11674">
        <ele>554.063</ele>
        <time>2016-09-25T09:07:37.199Z</time>
      </trkpt>
      <trkpt lat="47.25436" lon="6.11678">
        <ele>554.215</ele>
        <time>2016-09-25T09:07:39.449Z</time>
      </trkpt>
      <trkpt lat="47.25448" lon="6.11678">
        <ele>553.888</ele>
        <time>2016-09-25T09:07:41.838Z</time>
      </trkpt>
      <trkpt lat="47.25457" lon="6.11668">
        <ele>553.001</ele>
        <time>2016-09-25T09:07:44.149Z</time>
      </trkpt>
      <trkpt lat="47.25466" lon="6.11656">
        <ele>552.012</ele>
        <time>2016-09-25T09:07:46.251Z</time>
      </trkpt>
      <trkpt lat="47.25477" lon="6.11645">
        <ele>551.542</ele>
        <time>2016-09-25T09:07:48.590Z</time>
      </trkpt>
      <trkpt lat="47.25486" lon="6.11635">
        <ele>551.893</ele>
        <time>2016-09-25T09:07:50.366Z</time>
      </trkpt>
      <trkpt lat="47.25497" lon="6.11623">
        <ele>552.863</ele>
        <time>2016-09-25T09:07:52.102Z</time>
      </trkpt>
      <trkpt lat="47.25509" lon="6.11614">
        <ele>554.05</ele>
        <time>2016-09-25T09:07:53.825Z</time>
      </trkpt>
      <trkpt lat="47.25523" lon="6.11603">
        <ele>555.166</ele>
        <time>2016-09-25T09:07:55.824Z</time>
      </trkpt>
      <trkpt lat="47.25535" lon="6.11595">
        <ele>555.468</ele>
        <time>2016-09-25T09:07:57.443Z</time>
      </trkpt>
      <trkpt lat="47.2555" lon="6.11594">
        <ele>554.177</ele>
        <time>2016-09-25T09:07:59.268Z</time>
      </trkpt>
      <trkpt lat="47.25566" lon="6.11597">
        <ele>551.783</ele>
        <time>2016-09-25T09:08:01.143Z</time>
      </trkpt>
      <trkpt lat="47.25586" lon="6.11611">
        <ele>549.493</ele>
        <time>2016-09-25T09:08:03.965Z</time>
      </trkpt>
      <trkpt lat="47.25607" lon="6.11623">
        <ele>547.742</ele>
        <time>2016-09-25T09:08:06.910Z</time>
      </trkpt>
      <trkpt lat="47.25622" lon="6.11627">
        <ele>546.429</ele>
        <time>2016-09-25T09:08:09.077Z</time>
      </trkpt>
      <trkpt lat="47.25642" lon="6.11627">
        <ele>545.634</ele>
        <time>2016-09-25T09:08:13.643Z</time>
      </trkpt>
      <trkpt lat="47.25661" lon="6.11621">
        <ele>544.934</ele>
        <time>2016-09-25T09:08:18.681Z</time>
      </trkpt>
      <trkpt lat="47.25672" lon="6.1162">
        <ele>543.341</ele>
        <time>2016-09-25T09:08:20.925Z</time>
      </trkpt>
      <trkpt lat="47.25678" lon="6.11629">
        <ele>540.977</ele>
        <time>2016-09-25T09:08:22.624Z</time>
      </trkpt>
      <trkpt lat="47.25687" lon="6.11618">
        <ele>538.694</ele>
        <time>2016-09-25T09:08:24.611Z</time>
      </trkpt>
      <trkpt lat="47.257" lon="6.11609">
        <ele>536.273</ele>
        <time>2016-09-25T09:08:26.914Z</time>
      </trkpt>
      <trkpt lat="47.25709" lon="6.11602">
        <ele>533.237</ele>
        <time>2016-09-25T09:08:28.455Z</time>
      </trkpt>
      <trkpt lat="47.25719" lon="6.11596">
        <ele>530.397</ele>
        <time>2016-09-25T09:08:29.934Z</time>
      </trkpt>
      <trkpt lat="47.25728" lon="6.11588">
        <ele>528.846</ele>
        <time>2016-09-25T09:08:31.401Z</time>
      </trkpt>
      <trkpt lat="47.25745" lon="6.11572">
        <ele>528.605</ele>
        <time>2016-09-25T09:08:34.097Z</time>
      </trkpt>
      <trkpt lat="47.25769" lon="6.11547">
        <ele>528.552</ele>
        <time>2016-09-25T09:08:37.655Z</time>
      </trkpt>
      <trkpt lat="47.25779" lon="6.11544">
        <ele>526.602</ele>
        <time>2016-09-25T09:08:38.923Z</time>
      </trkpt>
      <trkpt lat="47.25792" lon="6.11531">
        <ele>522.09</ele>
        <time>2016-09-25T09:08:40.687Z</time>
      </trkpt>
      <trkpt lat="47.25813" lon="6.11514">
        <ele>517.361</ele>
        <time>2016-09-25T09:08:43.235Z</time>
      </trkpt>
      <trkpt lat="47.25823" lon="6.11503">
        <ele>513.996</ele>
        <time>2016-09-25T09:08:44.535Z</time>
      </trkpt>
      <trkpt lat="47.2585" lon="6.11487">
        <ele>511.15</ele>
        <time>2016-09-25T09:08:48.145Z</time>
      </trkpt>
      <trkpt lat="47.25873" lon="6.11466">
        <ele>508.249</ele>
        <time>2016-09-25T09:08:53.512Z</time>
      </trkpt>
      <trkpt lat="47.25884" lon="6.11457">
        <ele>505.039</ele>
        <time>2016-09-25T09:08:55.559Z</time>
      </trkpt>
      <trkpt lat="47.25888" lon="6.11444">
        <ele>501.393</ele>
        <time>2016-09-25T09:08:56.926Z</time>
      </trkpt>
      <trkpt lat="47.25887" lon="6.11422">
        <ele>497.703</ele>
        <time>2016-09-25T09:08:58.864Z</time>
      </trkpt>
      <trkpt lat="47.25884" lon="6.11405">
        <ele>494.47</ele>
        <time>2016-09-25T09:09:00.288Z</time>
      </trkpt>
      <trkpt lat="47.25881" lon="6.11385">
        <ele>492.279</ele>
        <time>2016-09-25T09:09:01.941Z</time>
      </trkpt>
      <trkpt lat="47.25878" lon="6.11365">
        <ele>491.176</ele>
        <time>2016-09-25T09:09:03.580Z</time>
      </trkpt>
      <trkpt lat="47.25871" lon="6.11334">
        <ele>490.528</ele>
        <time>2016-09-25T09:09:05.999Z</time>
      </trkpt>
      <trkpt lat="47.25865" lon="6.11298">
        <ele>490.082</ele>
        <time>2016-09-25T09:09:09.042Z</time>
      </trkpt>
      <trkpt lat="47.25856" lon="6.11275">
        <ele>489.855</ele>
        <time>2016-09-25T09:09:11.330Z</time>
      </trkpt>
      <trkpt lat="47.25845" lon="6.11266">
        <ele>488.971</ele>
        <time>2016-09-25T09:09:12.936Z</time>
      </trkpt>
      <trkpt lat="47.25831" lon="6.11236">
        <ele>486.832</ele>
        <time>2016-09-25T09:09:15.923Z</time>
      </trkpt>
      <trkpt lat="47.25826" lon="6.11208">
        <ele>484.137</ele>
        <time>2016-09-25T09:09:18.100Z</time>
      </trkpt>
      <trkpt lat="47.25815" lon="6.11181">
        <ele>481.538</ele>
        <time>2016-09-25T09:09:20.247Z</time>
      </trkpt>
      <trkpt lat="47.25804" lon="6.11142">
        <ele>479.353</ele>
        <time>2016-09-25T09:09:23.344Z</time>
      </trkpt>
      <trkpt lat="47.25805" lon="6.1112">
        <ele>477.223</ele>
        <time>2016-09-25T09:09:25.083Z</time>
      </trkpt>
      <trkpt lat="47.25824" lon="6.1109">
        <ele>474.296</ele>
        <time>2016-09-25T09:09:28.674Z</time>
      </trkpt>
      <trkpt lat="47.25836" lon="6.1108">
        <ele>470.222</ele>
        <time>2016-09-25T09:09:31.742Z</time>
      </trkpt>
      <trkpt lat="47.25842" lon="6.1109">
        <ele>465.537</ele>
        <time>2016-09-25T09:09:35.011Z</time>
      </trkpt>
      <trkpt lat="47.25848" lon="6.11103">
        <ele>461.817</ele>
        <time>2016-09-25T09:09:40.010Z</time>
      </trkpt>
      <trkpt lat="47.25848" lon="6.11103">
        <ele>460.301</ele>
        <time>2016-09-25T09:09:42.005Z</time>
      </trkpt>
      <trkpt lat="47.25848" lon="6.11103">
        <ele>460.333</ele>
        <time>2016-09-25T09:09:52.504Z</time>
      </trkpt>
      <trkpt lat="47.2586" lon="6.11126">
        <ele>460.85</ele>
        <time>2016-09-25T09:10:10.963Z</time>
      </trkpt>
      <trkpt lat="47.25863" lon="6.11138">
        <ele>463.706</ele>
        <time>2016-09-25T09:10:15.552Z</time>
      </trkpt>
      <trkpt lat="47.25869" lon="6.11149">
        <ele>470.306</ele>
        <time>2016-09-25T09:10:20.160Z</time>
      </trkpt>
      <trkpt lat="47.25865" lon="6.11161">
        <ele>477.256</ele>
        <time>2016-09-25T09:10:25.062Z</time>
      </trkpt>
      <trkpt lat="47.25866" lon="6.11175">
        <ele>481.291</ele>
        <time>2016-09-25T09:10:30.138Z</time>
      </trkpt>
      <trkpt lat="47.25866" lon="6.11189">
        <ele>482.888</ele>
        <time>2016-09-25T09:10:35.350Z</time>
      </trkpt>
      <trkpt lat="47.2587" lon="6.11201">
        <ele>483.414</ele>
        <time>2016-09-25T09:10:40.488Z</time>
      </trkpt>
      <trkpt lat="47.25871" lon="6.11215">
        <ele>484.019</ele>
        <time>2016-09-25T09:10:46.038Z</time>
      </trkpt>
      <trkpt lat="47.25873" lon="6.11229">
        <ele>484.789</ele>
        <time>2016-09-25T09:10:52.066Z</time>
      </trkpt>
      <trkpt lat="47.25874" lon="6.11244">
        <ele>485.33</ele>
        <time>2016-09-25T09:10:58.547Z</time>
      </trkpt>
      <trkpt lat="47.25876" lon="6.11259">
        <ele>485.613</ele>
        <time>2016-09-25T09:11:04.749Z</time>
      </trkpt>
      <trkpt lat="47.2588" lon="6.11272">
        <ele>485.775</ele>
        <time>2016-09-25T09:11:09.654Z</time>
      </trkpt>
      <trkpt lat="47.25887" lon="6.11284">
        <ele>485.871</ele>
        <time>2016-09-25T09:11:13.476Z</time>
      </trkpt>
      <trkpt lat="47.25896" lon="6.11298">
        <ele>485.826</ele>
        <time>2016-09-25T09:11:17.718Z</time>
      </trkpt>
      <trkpt lat="47.25902" lon="6.11308">
        <ele>485.631</ele>
        <time>2016-09-25T09:11:20.840Z</time>
      </trkpt>
      <trkpt lat="47.25906" lon="6.11321">
        <ele>485.54</ele>
        <time>2016-09-25T09:11:24.361Z</time>
      </trkpt>
      <trkpt lat="47.25909" lon="6.11335">
        <ele>486.382</ele>
        <time>2016-09-25T09:11:28.917Z</time>
      </trkpt>
      <trkpt lat="47.25912" lon="6.1135">
        <ele>488.851</ele>
        <time>2016-09-25T09:11:33.859Z</time>
      </trkpt>
      <trkpt lat="47.25916" lon="6.11364">
        <ele>492.094</ele>
        <time>2016-09-25T09:11:38.705Z</time>
      </trkpt>
      <trkpt lat="47.25921" lon="6.11378">
        <ele>494.376</ele>
        <time>2016-09-25T09:11:43.354Z</time>
      </trkpt>
      <trkpt lat="47.25924" lon="6.11392">
        <ele>494.615</ele>
        <time>2016-09-25T09:11:48.039Z</time>
      </trkpt>
      <trkpt lat="47.2593" lon="6.11405">
        <ele>493.087</ele>
        <time>2016-09-25T09:11:52.962Z</time>
      </trkpt>
      <trkpt lat="47.25937" lon="6.11414">
        <ele>490.95</ele>
        <time>2016-09-25T09:11:57.357Z</time>
      </trkpt>
      <trkpt lat="47.25942" lon="6.11428">
        <ele>488.649</ele>
        <time>2016-09-25T09:12:02.259Z</time>
      </trkpt>
      <trkpt lat="47.25946" lon="6.1144">
        <ele>486.265</ele>
        <time>2016-09-25T09:12:06.545Z</time>
      </trkpt>
      <trkpt lat="47.25952" lon="6.11453">
        <ele>485.217</ele>
        <time>2016-09-25T09:12:10.479Z</time>
      </trkpt>
      <trkpt lat="47.25964" lon="6.11469">
        <ele>486.266</ele>
        <time>2016-09-25T09:12:15.011Z</time>
      </trkpt>
      <trkpt lat="47.25974" lon="6.11485">
        <ele>488.404</ele>
        <time>2016-09-25T09:12:18.352Z</time>
      </trkpt>
      <trkpt lat="47.25978" lon="6.11496">
        <ele>490.458</ele>
        <time>2016-09-25T09:12:20.350Z</time>
      </trkpt>
      <trkpt lat="47.25987" lon="6.11514">
        <ele>491.311</ele>
        <time>2016-09-25T09:12:23.283Z</time>
      </trkpt>
      <trkpt lat="47.25994" lon="6.11526">
        <ele>490.447</ele>
        <time>2016-09-25T09:12:25.349Z</time>
      </trkpt>
      <trkpt lat="47.26004" lon="6.1154">
        <ele>488.931</ele>
        <time>2016-09-25T09:12:28.063Z</time>
      </trkpt>
      <trkpt lat="47.26014" lon="6.11552">
        <ele>487.869</ele>
        <time>2016-09-25T09:12:30.599Z</time>
      </trkpt>
      <trkpt lat="47.26023" lon="6.11562">
        <ele>487.487</ele>
        <time>2016-09-25T09:12:33.006Z</time>
      </trkpt>
      <trkpt lat="47.26031" lon="6.11573">
        <ele>487.719</ele>
        <time>2016-09-25T09:12:35.409Z</time>
      </trkpt>
      <trkpt lat="47.26039" lon="6.11585">
        <ele>488.278</ele>
        <time>2016-09-25T09:12:37.790Z</time>
      </trkpt>
      <trkpt lat="47.26048" lon="6.11594">
        <ele>488.718</ele>
        <time>2016-09-25T09:12:40.298Z</time>
      </trkpt>
      <trkpt lat="47.26055" lon="6.11605">
        <ele>488.53</ele>
        <time>2016-09-25T09:12:42.495Z</time>
      </trkpt>
      <trkpt lat="47.26062" lon="6.11616">
        <ele>487.682</ele>
        <time>2016-09-25T09:12:44.726Z</time>
      </trkpt>
      <trkpt lat="47.26068" lon="6.11628">
        <ele>486.983</ele>
        <time>2016-09-25T09:12:46.915Z</time>
      </trkpt>
      <trkpt lat="47.26072" lon="6.11642">
        <ele>487.031</ele>
        <time>2016-09-25T09:12:49.305Z</time>
      </trkpt>
      <trkpt lat="47.26074" lon="6.11658">
        <ele>487.531</ele>
        <time>2016-09-25T09:12:52.049Z</time>
      </trkpt>
      <trkpt lat="47.26078" lon="6.1167">
        <ele>488.405</ele>
        <time>2016-09-25T09:12:54.753Z</time>
      </trkpt>
      <trkpt lat="47.26081" lon="6.11685">
        <ele>489.659</ele>
        <time>2016-09-25T09:12:57.996Z</time>
      </trkpt>
      <trkpt lat="47.26082" lon="6.117">
        <ele>490.706</ele>
        <time>2016-09-25T09:13:01.567Z</time>
      </trkpt>
      <trkpt lat="47.2609" lon="6.1171">
        <ele>491.683</ele>
        <time>2016-09-25T09:13:05.595Z</time>
      </trkpt>
      <trkpt lat="47.26095" lon="6.11721">
        <ele>494.173</ele>
        <time>2016-09-25T09:13:09.264Z</time>
      </trkpt>
      <trkpt lat="47.26098" lon="6.11734">
        <ele>498.472</ele>
        <time>2016-09-25T09:13:13.311Z</time>
      </trkpt>
      <trkpt lat="47.261" lon="6.11747">
        <ele>502.664</ele>
        <time>2016-09-25T09:13:18.674Z</time>
      </trkpt>
      <trkpt lat="47.26103" lon="6.11762">
        <ele>505.187</ele>
        <time>2016-09-25T09:13:25.162Z</time>
      </trkpt>
      <trkpt lat="47.26108" lon="6.11776">
        <ele>506.17</ele>
        <time>2016-09-25T09:13:33.046Z</time>
      </trkpt>
      <trkpt lat="47.26116" lon="6.11788">
        <ele>506.092</ele>
        <time>2016-09-25T09:13:39.720Z</time>
      </trkpt>
      <trkpt lat="47.26124" lon="6.11795">
        <ele>505.375</ele>
        <time>2016-09-25T09:13:43.838Z</time>
      </trkpt>
      <trkpt lat="47.26131" lon="6.11804">
        <ele>504.609</ele>
        <time>2016-09-25T09:13:47.927Z</time>
      </trkpt>
      <trkpt lat="47.26139" lon="6.11818">
        <ele>504.394</ele>
        <time>2016-09-25T09:13:53.032Z</time>
      </trkpt>
      <trkpt lat="47.26147" lon="6.11832">
        <ele>504.741</ele>
        <time>2016-09-25T09:13:57.271Z</time>
      </trkpt>
      <trkpt lat="47.26156" lon="6.11849">
        <ele>504.72</ele>
        <time>2016-09-25T09:14:01.698Z</time>
      </trkpt>
      <trkpt lat="47.26163" lon="6.11865">
        <ele>503.679</ele>
        <time>2016-09-25T09:14:05.535Z</time>
      </trkpt>
      <trkpt lat="47.26167" lon="6.1188">
        <ele>502.561</ele>
        <time>2016-09-25T09:14:08.542Z</time>
      </trkpt>
      <trkpt lat="47.26174" lon="6.11894">
        <ele>503.279</ele>
        <time>2016-09-25T09:14:11.826Z</time>
      </trkpt>
      <trkpt lat="47.26182" lon="6.11907">
        <ele>506.197</ele>
        <time>2016-09-25T09:14:15.336Z</time>
      </trkpt>
      <trkpt lat="47.26187" lon="6.11919">
        <ele>509.246</ele>
        <time>2016-09-25T09:14:18.103Z</time>
      </trkpt>
      <trkpt lat="47.26196" lon="6.11933">
        <ele>509.714</ele>
        <time>2016-09-25T09:14:21.994Z</time>
      </trkpt>
      <trkpt lat="47.26196" lon="6.11933">
        <ele>507.418</ele>
        <time>2016-09-25T09:14:38.994Z</time>
      </trkpt>
      <trkpt lat="47.26196" lon="6.11933">
        <ele>505.121</ele>
        <time>2016-09-25T09:14:42.912Z</time>
      </trkpt>
      <trkpt lat="47.26211" lon="6.11921">
        <ele>504.913</ele>
        <time>2016-09-25T09:14:51.529Z</time>
      </trkpt>
      <trkpt lat="47.26219" lon="6.11909">
        <ele>505.877</ele>
        <time>2016-09-25T09:14:54.477Z</time>
      </trkpt>
      <trkpt lat="47.26221" lon="6.11895">
        <ele>506.642</ele>
        <time>2016-09-25T09:14:57.007Z</time>
      </trkpt>
      <trkpt lat="47.26226" lon="6.1188">
        <ele>506.906</ele>
        <time>2016-09-25T09:14:59.891Z</time>
      </trkpt>
      <trkpt lat="47.2623" lon="6.11865">
        <ele>506.863</ele>
        <time>2016-09-25T09:15:02.739Z</time>
      </trkpt>
      <trkpt lat="47.26236" lon="6.11848">
        <ele>506.657</ele>
        <time>2016-09-25T09:15:05.969Z</time>
      </trkpt>
      <trkpt lat="47.26243" lon="6.11831">
        <ele>505.323</ele>
        <time>2016-09-25T09:15:09.256Z</time>
      </trkpt>
      <trkpt lat="47.26249" lon="6.11811">
        <ele>501.111</ele>
        <time>2016-09-25T09:15:12.942Z</time>
      </trkpt>
      <trkpt lat="47.26253" lon="6.11796">
        <ele>494.677</ele>
        <time>2016-09-25T09:15:15.668Z</time>
      </trkpt>
      <trkpt lat="47.26258" lon="6.11778">
        <ele>489.178</ele>
        <time>2016-09-25T09:15:18.822Z</time>
      </trkpt>
      <trkpt lat="47.26263" lon="6.1176">
        <ele>485.364</ele>
        <time>2016-09-25T09:15:21.815Z</time>
      </trkpt>
      <trkpt lat="47.26267" lon="6.1174">
        <ele>481.558</ele>
        <time>2016-09-25T09:15:24.787Z</time>
      </trkpt>
      <trkpt lat="47.26272" lon="6.11722">
        <ele>477.515</ele>
        <time>2016-09-25T09:15:27.500Z</time>
      </trkpt>
      <trkpt lat="47.26276" lon="6.11706">
        <ele>473.74</ele>
        <time>2016-09-25T09:15:29.963Z</time>
      </trkpt>
      <trkpt lat="47.26277" lon="6.11692">
        <ele>470.221</ele>
        <time>2016-09-25T09:15:31.994Z</time>
      </trkpt>
      <trkpt lat="47.26277" lon="6.11692">
        <ele>467.553</ele>
        <time>2016-09-25T09:15:45.994Z</time>
      </trkpt>
      <trkpt lat="47.26277" lon="6.11692">
        <ele>466.36</ele>
        <time>2016-09-25T09:15:55.462Z</time>
      </trkpt>
      <trkpt lat="47.26276" lon="6.11664">
        <ele>466.318</ele>
        <time>2016-09-25T09:16:22.851Z</time>
      </trkpt>
      <trkpt lat="47.2628" lon="6.11652">
        <ele>466.117</ele>
        <time>2016-09-25T09:16:32.524Z</time>
      </trkpt>
      <trkpt lat="47.26283" lon="6.11639">
        <ele>464.842</ele>
        <time>2016-09-25T09:16:42.994Z</time>
      </trkpt>
      <trkpt lat="47.26283" lon="6.11639">
        <ele>463.298</ele>
        <time>2016-09-25T09:16:57.000Z</time>
      </trkpt>
      <trkpt lat="47.26283" lon="6.11639">
        <ele>462.555</ele>
        <time>2016-09-25T09:16:57.100Z</time>
      </trkpt>
      <trkpt lat="47.26292" lon="6.11606">
        <ele>462.482</ele>
        <time>2016-09-25T09:17:51.292Z</time>
      </trkpt>
      <trkpt lat="47.26294" lon="6.11593">
        <ele>462.338</ele>
        <time>2016-09-25T09:17:56.325Z</time>
      </trkpt>
      <trkpt lat="47.26297" lon="6.11577">
        <ele>461.562</ele>
        <time>2016-09-25T09:18:00.174Z</time>
      </trkpt>
      <trkpt lat="47.26301" lon="6.11562">
        <ele>460.413</ele>
        <time>2016-09-25T09:18:03.456Z</time>
      </trkpt>
      <trkpt lat="47.26306" lon="6.11548">
        <ele>459.131</ele>
        <time>2016-09-25T09:18:06.717Z</time>
      </trkpt>
      <trkpt lat="47.2631" lon="6.11534">
        <ele>457.314</ele>
        <time>2016-09-25T09:18:09.953Z</time>
      </trkpt>
      <trkpt lat="47.26311" lon="6.1152">
        <ele>455.441</ele>
        <time>2016-09-25T09:18:13.001Z</time>
      </trkpt>
      <trkpt lat="47.26306" lon="6.11504">
        <ele>454.304</ele>
        <time>2016-09-25T09:18:16.687Z</time>
      </trkpt>
      <trkpt lat="47.26296" lon="6.115">
        <ele>453.741</ele>
        <time>2016-09-25T09:18:19.406Z</time>
      </trkpt>
      <trkpt lat="47.26285" lon="6.11494">
        <ele>453.507</ele>
        <time>2016-09-25T09:18:22.084Z</time>
      </trkpt>
      <trkpt lat="47.26271" lon="6.11486">
        <ele>453.569</ele>
        <time>2016-09-25T09:18:25.190Z</time>
      </trkpt>
      <trkpt lat="47.26261" lon="6.1148">
        <ele>453.402</ele>
        <time>2016-09-25T09:18:27.100Z</time>
      </trkpt>
      <trkpt lat="47.26248" lon="6.11468">
        <ele>452.595</ele>
        <time>2016-09-25T09:18:29.818Z</time>
      </trkpt>
      <trkpt lat="47.26238" lon="6.11456">
        <ele>451.349</ele>
        <time>2016-09-25T09:18:31.790Z</time>
      </trkpt>
      <trkpt lat="47.26223" lon="6.11432">
        <ele>450.198</ele>
        <time>2016-09-25T09:18:34.990Z</time>
      </trkpt>
      <trkpt lat="47.26209" lon="6.11409">
        <ele>449.142</ele>
        <time>2016-09-25T09:18:37.739Z</time>
      </trkpt>
      <trkpt lat="47.26198" lon="6.1139">
        <ele>447.68</ele>
        <time>2016-09-25T09:18:39.726Z</time>
      </trkpt>
      <trkpt lat="47.2618" lon="6.11368">
        <ele>445.893</ele>
        <time>2016-09-25T09:18:42.503Z</time>
      </trkpt>
      <trkpt lat="47.26165" lon="6.11359">
        <ele>444.578</ele>
        <time>2016-09-25T09:18:44.370Z</time>
      </trkpt>
      <trkpt lat="47.26153" lon="6.11344">
        <ele>444.213</ele>
        <time>2016-09-25T09:18:46.174Z</time>
      </trkpt>
      <trkpt lat="47.26138" lon="6.11311">
        <ele>444.561</ele>
        <time>2016-09-25T09:18:49.410Z</time>
      </trkpt>
      <trkpt lat="47.26124" lon="6.11297">
        <ele>444.503</ele>
        <time>2016-09-25T09:18:51.392Z</time>
      </trkpt>
      <trkpt lat="47.26114" lon="6.11283">
        <ele>443.274</ele>
        <time>2016-09-25T09:18:52.948Z</time>
      </trkpt>
      <trkpt lat="47.26104" lon="6.11263">
        <ele>441.437</ele>
        <time>2016-09-25T09:18:54.722Z</time>
      </trkpt>
      <trkpt lat="47.26095" lon="6.11234">
        <ele>439.573</ele>
        <time>2016-09-25T09:18:57.037Z</time>
      </trkpt>
      <trkpt lat="47.26085" lon="6.11211">
        <ele>436.699</ele>
        <time>2016-09-25T09:18:58.922Z</time>
      </trkpt>
      <trkpt lat="47.26075" lon="6.11174">
        <ele>432.517</ele>
        <time>2016-09-25T09:19:01.993Z</time>
      </trkpt>
      <trkpt lat="47.26067" lon="6.11145">
        <ele>428.54</ele>
        <time>2016-09-25T09:19:04.815Z</time>
      </trkpt>
      <trkpt lat="47.26053" lon="6.11122">
        <ele>425.663</ele>
        <time>2016-09-25T09:19:07.709Z</time>
      </trkpt>
      <trkpt lat="47.26044" lon="6.11106">
        <ele>423.279</ele>
        <time>2016-09-25T09:19:09.758Z</time>
      </trkpt>
      <trkpt lat="47.26033" lon="6.11081">
        <ele>421.262</ele>
        <time>2016-09-25T09:19:12.999Z</time>
      </trkpt>
      <trkpt lat="47.26029" lon="6.11057">
        <ele>419.955</ele>
        <time>2016-09-25T09:19:16.088Z</time>
      </trkpt>
      <trkpt lat="47.26023" lon="6.11045">
        <ele>419.309</ele>
        <time>2016-09-25T09:19:18.198Z</time>
      </trkpt>
      <trkpt lat="47.26016" lon="6.11032">
        <ele>418.554</ele>
        <time>2016-09-25T09:19:21.386Z</time>
      </trkpt>
      <trkpt lat="47.26011" lon="6.11017">
        <ele>417.397</ele>
        <time>2016-09-25T09:19:25.675Z</time>
      </trkpt>
      <trkpt lat="47.2601" lon="6.11004">
        <ele>416.279</ele>
        <time>2016-09-25T09:19:30.563Z</time>
      </trkpt>
      <trkpt lat="47.26012" lon="6.10991">
        <ele>415.521</ele>
        <time>2016-09-25T09:19:36.525Z</time>
      </trkpt>
      <trkpt lat="47.26015" lon="6.10977">
        <ele>415.451</ele>
        <time>2016-09-25T09:19:43.962Z</time>
      </trkpt>
      <trkpt lat="47.26021" lon="6.10966">
        <ele>416.808</ele>
        <time>2016-09-25T09:19:52.642Z</time>
      </trkpt>
      <trkpt lat="47.26027" lon="6.10952">
        <ele>419.306</ele>
        <time>2016-09-25T09:20:00.386Z</time>
      </trkpt>
      <trkpt lat="47.26033" lon="6.10939">
        <ele>421.54</ele>
        <time>2016-09-25T09:20:06.604Z</time>
      </trkpt>
      <trkpt lat="47.2604" lon="6.10925">
        <ele>422.539</ele>
        <time>2016-09-25T09:20:12.879Z</time>
      </trkpt>
      <trkpt lat="47.26044" lon="6.10911">
        <ele>421.778</ele>
        <time>2016-09-25T09:20:17.534Z</time>
      </trkpt>
      <trkpt lat="47.26046" lon="6.10897">
        <ele>419.21</ele>
        <time>2016-09-25T09:20:21.107Z</time>
      </trkpt>
      <trkpt lat="47.26045" lon="6.10882">
        <ele>416.223</ele>
        <time>2016-09-25T09:20:24.893Z</time>
      </trkpt>
      <trkpt lat="47.26041" lon="6.10867">
        <ele>414.356</ele>
        <time>2016-09-25T09:20:29.795Z</time>
      </trkpt>
      <trkpt lat="47.26036" lon="6.10855">
        <ele>413.832</ele>
        <time>2016-09-25T09:20:34.240Z</time>
      </trkpt>
      <trkpt lat="47.26028" lon="6.10845">
        <ele>414.642</ele>
        <time>2016-09-25T09:20:40.477Z</time>
      </trkpt>
      <trkpt lat="47.26019" lon="6.10843">
        <ele>418.033</ele>
        <time>2016-09-25T09:20:46.757Z</time>
      </trkpt>
      <trkpt lat="47.26009" lon="6.10843">
        <ele>424.346</ele>
        <time>2016-09-25T09:20:53.272Z</time>
      </trkpt>
      <trkpt lat="47.26" lon="6.10841">
        <ele>430.812</ele>
        <time>2016-09-25T09:20:59.808Z</time>
      </trkpt>
      <trkpt lat="47.2599" lon="6.10837">
        <ele>434.528</ele>
        <time>2016-09-25T09:21:06.542Z</time>
      </trkpt>
      <trkpt lat="47.25981" lon="6.10838">
        <ele>435.539</ele>
        <time>2016-09-25T09:21:12.206Z</time>
      </trkpt>
      <trkpt lat="47.25971" lon="6.10839">
        <ele>435.505</ele>
        <time>2016-09-25T09:21:17.680Z</time>
      </trkpt>
      <trkpt lat="47.25961" lon="6.1084">
        <ele>435.727</ele>
        <time>2016-09-25T09:21:22.826Z</time>
      </trkpt>
      <trkpt lat="47.25951" lon="6.10845">
        <ele>436.489</ele>
        <time>2016-09-25T09:21:28.135Z</time>
      </trkpt>
      <trkpt lat="47.25941" lon="6.10847">
        <ele>437.626</ele>
        <time>2016-09-25T09:21:31.596Z</time>
      </trkpt>
      <trkpt lat="47.25932" lon="6.10849">
        <ele>438.639</ele>
        <time>2016-09-25T09:21:34.636Z</time>
      </trkpt>
      <trkpt lat="47.25921" lon="6.10849">
        <ele>438.925</ele>
        <time>2016-09-25T09:21:37.991Z</time>
      </trkpt>
      <trkpt lat="47.25913" lon="6.10842">
        <ele>438.612</ele>
        <time>2016-09-25T09:21:41.123Z</time>
      </trkpt>
      <trkpt lat="47.25906" lon="6.10832">
        <ele>438.367</ele>
        <time>2016-09-25T09:21:44.192Z</time>
      </trkpt>
      <trkpt lat="47.25898" lon="6.10822">
        <ele>438.518</ele>
        <time>2016-09-25T09:21:47.149Z</time>
      </trkpt>
      <trkpt lat="47.25892" lon="6.10811">
        <ele>439.213</ele>
        <time>2016-09-25T09:21:49.739Z</time>
      </trkpt>
      <trkpt lat="47.25883" lon="6.10799">
        <ele>440.229</ele>
        <time>2016-09-25T09:21:52.617Z</time>
      </trkpt>
      <trkpt lat="47.25873" lon="6.10789">
        <ele>441.142</ele>
        <time>2016-09-25T09:21:55.550Z</time>
      </trkpt>
      <trkpt lat="47.25865" lon="6.10777">
        <ele>441.961</ele>
        <time>2016-09-25T09:21:58.325Z</time>
      </trkpt>
      <trkpt lat="47.25859" lon="6.10766">
        <ele>442.813</ele>
        <time>2016-09-25T09:22:01.101Z</time>
      </trkpt>
      <trkpt lat="47.25851" lon="6.10756">
        <ele>443.364</ele>
        <time>2016-09-25T09:22:03.833Z</time>
      </trkpt>
      <trkpt lat="47.25844" lon="6.10742">
        <ele>443.215</ele>
        <time>2016-09-25T09:22:07.186Z</time>
      </trkpt>
      <trkpt lat="47.25839" lon="6.10728">
        <ele>442.447</ele>
        <time>2016-09-25T09:22:09.993Z</time>
      </trkpt>
      <trkpt lat="47.25834" lon="6.10712">
        <ele>441.325</ele>
        <time>2016-09-25T09:22:12.974Z</time>
      </trkpt>
      <trkpt lat="47.25831" lon="6.10695">
        <ele>440.009</ele>
        <time>2016-09-25T09:22:15.981Z</time>
      </trkpt>
      <trkpt lat="47.25831" lon="6.10677">
        <ele>438.677</ele>
        <time>2016-09-25T09:22:18.891Z</time>
      </trkpt>
      <trkpt lat="47.25837" lon="6.1066">
        <ele>437.277</ele>
        <time>2016-09-25T09:22:21.925Z</time>
      </trkpt>
      <trkpt lat="47.25842" lon="6.10645">
        <ele>435.464</ele>
        <time>2016-09-25T09:22:24.539Z</time>
      </trkpt>
      <trkpt lat="47.25843" lon="6.10629">
        <ele>433.397</ele>
        <time>2016-09-25T09:22:27.211Z</time>
      </trkpt>
      <trkpt lat="47.25844" lon="6.10613">
        <ele>431.907</ele>
        <time>2016-09-25T09:22:29.866Z</time>
      </trkpt>
      <trkpt lat="47.25846" lon="6.10595">
        <ele>431.817</ele>
        <time>2016-09-25T09:22:32.769Z</time>
      </trkpt>
      <trkpt lat="47.25855" lon="6.1058">
        <ele>432.908</ele>
        <time>2016-09-25T09:22:35.945Z</time>
      </trkpt>
      <trkpt lat="47.25865" lon="6.10571">
        <ele>433.949</ele>
        <time>2016-09-25T09:22:38.899Z</time>
      </trkpt>
      <trkpt lat="47.25877" lon="6.10562">
        <ele>434.193</ele>
        <time>2016-09-25T09:22:41.748Z</time>
      </trkpt>
      <trkpt lat="47.25886" lon="6.10553">
        <ele>433.958</ele>
        <time>2016-09-25T09:22:43.821Z</time>
      </trkpt>
      <trkpt lat="47.25894" lon="6.10543">
        <ele>433.704</ele>
        <time>2016-09-25T09:22:45.983Z</time>
      </trkpt>
      <trkpt lat="47.25906" lon="6.10523">
        <ele>433.567</ele>
        <time>2016-09-25T09:22:49.387Z</time>
      </trkpt>
      <trkpt lat="47.25918" lon="6.10501">
        <ele>433.529</ele>
        <time>2016-09-25T09:22:52.253Z</time>
      </trkpt>
      <trkpt lat="47.25928" lon="6.10488">
        <ele>433.023</ele>
        <time>2016-09-25T09:22:54.223Z</time>
      </trkpt>
      <trkpt lat="47.25936" lon="6.10474">
        <ele>431.65</ele>
        <time>2016-09-25T09:22:56.157Z</time>
      </trkpt>
      <trkpt lat="47.25951" lon="6.10461">
        <ele>430.206</ele>
        <time>2016-09-25T09:22:58.881Z</time>
      </trkpt>
      <trkpt lat="47.25966" lon="6.10445">
        <ele>429.754</ele>
        <time>2016-09-25T09:23:01.496Z</time>
      </trkpt>
      <trkpt lat="47.25978" lon="6.1043">
        <ele>430.331</ele>
        <time>2016-09-25T09:23:03.458Z</time>
      </trkpt>
      <trkpt lat="47.25989" lon="6.10415">
        <ele>431.25</ele>
        <time>2016-09-25T09:23:05.309Z</time>
      </trkpt>
      <trkpt lat="47.26003" lon="6.10401">
        <ele>431.82</ele>
        <time>2016-09-25T09:23:07.312Z</time>
      </trkpt>
      <trkpt lat="47.26023" lon="6.10379">
        <ele>431.762</ele>
        <time>2016-09-25T09:23:11.114Z</time>
      </trkpt>
      <trkpt lat="47.2603" lon="6.10365">
        <ele>430.526</ele>
        <time>2016-09-25T09:23:13.947Z</time>
      </trkpt>
      <trkpt lat="47.26027" lon="6.10352">
        <ele>428.162</ele>
        <time>2016-09-25T09:23:19.620Z</time>
      </trkpt>
      <trkpt lat="47.26022" lon="6.1034">
        <ele>425.997</ele>
        <time>2016-09-25T09:23:25.701Z</time>
      </trkpt>
      <trkpt lat="47.2602" lon="6.10327">
        <ele>425.455</ele>
        <time>2016-09-25T09:23:32.189Z</time>
      </trkpt>
      <trkpt lat="47.26017" lon="6.10314">
        <ele>426.529</ele>
        <time>2016-09-25T09:23:39.342Z</time>
      </trkpt>
      <trkpt lat="47.26015" lon="6.10299">
        <ele>428.318</ele>
        <time>2016-09-25T09:23:47.857Z</time>
      </trkpt>
      <trkpt lat="47.26012" lon="6.10284">
        <ele>430.412</ele>
        <time>2016-09-25T09:23:57.370Z</time>
      </trkpt>
      <trkpt lat="47.26011" lon="6.10271">
        <ele>432.662</ele>
        <time>2016-09-25T09:24:05.344Z</time>
      </trkpt>
      <trkpt lat="47.26009" lon="6.10257">
        <ele>434.324</ele>
        <time>2016-09-25T09:24:12.721Z</time>
      </trkpt>
      <trkpt lat="47.26009" lon="6.10242">
        <ele>435.383</ele>
        <time>2016-09-25T09:24:19.818Z</time>
      </trkpt>
      <trkpt lat="47.26011" lon="6.10228">
        <ele>436.525</ele>
        <time>2016-09-25T09:24:26.945Z</time>
      </trkpt>
      <trkpt lat="47.26008" lon="6.10215">
        <ele>438.918</ele>
        <time>2016-09-25T09:24:34.870Z</time>
      </trkpt>
      <trkpt lat="47.26003" lon="6.10204">
        <ele>442.793</ele>
        <time>2016-09-25T09:24:42.904Z</time>
      </trkpt>
      <trkpt lat="47.25994" lon="6.10196">
        <ele>446.302</ele>
        <time>2016-09-25T09:24:51.165Z</time>
      </trkpt>
      <trkpt lat="47.2599" lon="6.10184">
        <ele>448.051</ele>
        <time>2016-09-25T09:24:59.044Z</time>
      </trkpt>
      <trkpt lat="47.2598" lon="6.10186">
        <ele>448.918</ele>
        <time>2016-09-25T09:25:06.900Z</time>
      </trkpt>
      <trkpt lat="47.25973" lon="6.10175">
        <ele>449.94</ele>
        <time>2016-09-25T09:25:14.721Z</time>
      </trkpt>
      <trkpt lat="47.25971" lon="6.10162">
        <ele>451.603</ele>
        <time>2016-09-25T09:25:22.483Z</time>
      </trkpt>
      <trkpt lat="47.25964" lon="6.10154">
        <ele>453.811</ele>
        <time>2016-09-25T09:25:30.382Z</time>
      </trkpt>
      <trkpt lat="47.2596" lon="6.10139">
        <ele>455.79</ele>
        <time>2016-09-25T09:25:39.859Z</time>
      </trkpt>
      <trkpt lat="47.25959" lon="6.10125">
        <ele>456.834</ele>
        <time>2016-09-25T09:25:47.949Z</time>
      </trkpt>
      <trkpt lat="47.25955" lon="6.10112">
        <ele>456.826</ele>
        <time>2016-09-25T09:25:55.779Z</time>
      </trkpt>
      <trkpt lat="47.25948" lon="6.10104">
        <ele>456.081</ele>
        <time>2016-09-25T09:26:02.930Z</time>
      </trkpt>
      <trkpt lat="47.25942" lon="6.10092">
        <ele>455.548</ele>
        <time>2016-09-25T09:26:10.828Z</time>
      </trkpt>
      <trkpt lat="47.25936" lon="6.10082">
        <ele>456.11</ele>
        <time>2016-09-25T09:26:18.502Z</time>
      </trkpt>
      <trkpt lat="47.25935" lon="6.10067">
        <ele>457.776</ele>
        <time>2016-09-25T09:26:26.510Z</time>
      </trkpt>
      <trkpt lat="47.2593" lon="6.10056">
        <ele>459.909</ele>
        <time>2016-09-25T09:26:34.103Z</time>
      </trkpt>
      <trkpt lat="47.25928" lon="6.10041">
        <ele>461.809</ele>
        <time>2016-09-25T09:26:42.608Z</time>
      </trkpt>
      <trkpt lat="47.25919" lon="6.10042">
        <ele>463.147</ele>
        <time>2016-09-25T09:26:49.400Z</time>
      </trkpt>
      <trkpt lat="47.25909" lon="6.10043">
        <ele>464.138</ele>
        <time>2016-09-25T09:26:54.045Z</time>
      </trkpt>
      <trkpt lat="47.25899" lon="6.10043">
        <ele>465.061</ele>
        <time>2016-09-25T09:26:57.359Z</time>
      </trkpt>
      <trkpt lat="47.25885" lon="6.10044">
        <ele>465.89</ele>
        <time>2016-09-25T09:27:00.902Z</time>
      </trkpt>
      <trkpt lat="47.25873" lon="6.10046">
        <ele>466.377</ele>
        <time>2016-09-25T09:27:04.359Z</time>
      </trkpt>
      <trkpt lat="47.25865" lon="6.10054">
        <ele>466.276</ele>
        <time>2016-09-25T09:27:08.124Z</time>
      </trkpt>
      <trkpt lat="47.25855" lon="6.10056">
        <ele>465.277</ele>
        <time>2016-09-25T09:27:12.000Z</time>
      </trkpt>
      <trkpt lat="47.25855" lon="6.10056">
        <ele>463.649</ele>
        <time>2016-09-25T09:27:20.000Z</time>
      </trkpt>
      <trkpt lat="47.25855" lon="6.10056">
        <ele>462.465</ele>
        <time>2016-09-25T09:27:45.103Z</time>
      </trkpt>
      <trkpt lat="47.25843" lon="6.10059">
        <ele>462.322</ele>
        <time>2016-09-25T09:27:56.419Z</time>
      </trkpt>
      <trkpt lat="47.25836" lon="6.10051">
        <ele>462.291</ele>
        <time>2016-09-25T09:28:01.768Z</time>
      </trkpt>
      <trkpt lat="47.25828" lon="6.10041">
        <ele>461.434</ele>
        <time>2016-09-25T09:28:07.757Z</time>
      </trkpt>
      <trkpt lat="47.25819" lon="6.10037">
        <ele>460.183</ele>
        <time>2016-09-25T09:28:13.042Z</time>
      </trkpt>
      <trkpt lat="47.25812" lon="6.10028">
        <ele>459.797</ele>
        <time>2016-09-25T09:28:18.089Z</time>
      </trkpt>
      <trkpt lat="47.25804" lon="6.10023">
        <ele>461.061</ele>
        <time>2016-09-25T09:28:22.870Z</time>
      </trkpt>
      <trkpt lat="47.25795" lon="6.10019">
        <ele>463.908</ele>
        <time>2016-09-25T09:28:27.836Z</time>
      </trkpt>
      <trkpt lat="47.25786" lon="6.10015">
        <ele>467.198</ele>
        <time>2016-09-25T09:28:32.935Z</time>
      </trkpt>
      <trkpt lat="47.25776" lon="6.1001">
        <ele>468.994</ele>
        <time>2016-09-25T09:28:38.769Z</time>
      </trkpt>
      <trkpt lat="47.25765" lon="6.1001">
        <ele>468.567</ele>
        <time>2016-09-25T09:28:44.705Z</time>
      </trkpt>
      <trkpt lat="47.25756" lon="6.10011">
        <ele>467.882</ele>
        <time>2016-09-25T09:28:49.724Z</time>
      </trkpt>
      <trkpt lat="47.25746" lon="6.1001">
        <ele>468.599</ele>
        <time>2016-09-25T09:28:54.581Z</time>
      </trkpt>
      <trkpt lat="47.25737" lon="6.10003">
        <ele>469.701</ele>
        <time>2016-09-25T09:28:59.435Z</time>
      </trkpt>
      <trkpt lat="47.25726" lon="6.10001">
        <ele>469.893</ele>
        <time>2016-09-25T09:29:04.875Z</time>
      </trkpt>
      <trkpt lat="47.25717" lon="6.1">
        <ele>469.966</ele>
        <time>2016-09-25T09:29:10.571Z</time>
      </trkpt>
      <trkpt lat="47.25707" lon="6.09996">
        <ele>471.148</ele>
        <time>2016-09-25T09:29:17.768Z</time>
      </trkpt>
      <trkpt lat="47.25699" lon="6.09989">
        <ele>473.052</ele>
        <time>2016-09-25T09:29:24.185Z</time>
      </trkpt>
      <trkpt lat="47.25691" lon="6.09981">
        <ele>474.442</ele>
        <time>2016-09-25T09:29:30.973Z</time>
      </trkpt>
      <trkpt lat="47.25683" lon="6.09972">
        <ele>474.928</ele>
        <time>2016-09-25T09:29:38.445Z</time>
      </trkpt>
      <trkpt lat="47.25672" lon="6.09967">
        <ele>475.747</ele>
        <time>2016-09-25T09:29:46.892Z</time>
      </trkpt>
      <trkpt lat="47.25664" lon="6.09962">
        <ele>477.909</ele>
        <time>2016-09-25T09:29:53.549Z</time>
      </trkpt>
      <trkpt lat="47.25657" lon="6.09953">
        <ele>480.33</ele>
        <time>2016-09-25T09:30:00.497Z</time>
      </trkpt>
      <trkpt lat="47.25649" lon="6.09947">
        <ele>481.626</ele>
        <time>2016-09-25T09:30:08.000Z</time>
      </trkpt>
      <trkpt lat="47.25649" lon="6.09947">
        <ele>481.856</ele>
        <time>2016-09-25T09:30:34.000Z</time>
      </trkpt>
      <trkpt lat="47.25649" lon="6.09947">
        <ele>481.59</ele>
        <time>2016-09-25T09:30:34.100Z</time>
      </trkpt>
      <trkpt lat="47.25625" lon="6.09944">
        <ele>481.329</ele>
        <time>2016-09-25T09:31:06.730Z</time>
      </trkpt>
      <trkpt lat="47.25617" lon="6.09938">
        <ele>483.006</ele>
        <time>2016-09-25T09:31:14.000Z</time>
      </trkpt>
      <trkpt lat="47.25617" lon="6.09938">
        <ele>487.615</ele>
        <time>2016-09-25T09:31:31.000Z</time>
      </trkpt>
      <trkpt lat="47.25617" lon="6.09938">
        <ele>491.399</ele>
        <time>2016-09-25T09:31:31.100Z</time>
      </trkpt>
      <trkpt lat="47.25595" lon="6.09919">
        <ele>491.132</ele>
        <time>2016-09-25T09:32:01.301Z</time>
      </trkpt>
      <trkpt lat="47.25586" lon="6.09914">
        <ele>490.963</ele>
        <time>2016-09-25T09:32:09.862Z</time>
      </trkpt>
      <trkpt lat="47.25579" lon="6.09904">
        <ele>495.044</ele>
        <time>2016-09-25T09:32:18.286Z</time>
      </trkpt>
      <trkpt lat="47.25572" lon="6.09891">
        <ele>500.754</ele>
        <time>2016-09-25T09:32:27.572Z</time>
      </trkpt>
      <trkpt lat="47.25569" lon="6.09879">
        <ele>504.293</ele>
        <time>2016-09-25T09:32:35.315Z</time>
      </trkpt>
      <trkpt lat="47.2556" lon="6.0987">
        <ele>506.35</ele>
        <time>2016-09-25T09:32:43.129Z</time>
      </trkpt>
      <trkpt lat="47.25552" lon="6.09875">
        <ele>508.461</ele>
        <time>2016-09-25T09:32:48.844Z</time>
      </trkpt>
      <trkpt lat="47.25547" lon="6.09887">
        <ele>510.567</ele>
        <time>2016-09-25T09:32:52.946Z</time>
      </trkpt>
      <trkpt lat="47.25541" lon="6.09897">
        <ele>512.655</ele>
        <time>2016-09-25T09:32:56.443Z</time>
      </trkpt>
      <trkpt lat="47.25534" lon="6.09911">
        <ele>514.877</ele>
        <time>2016-09-25T09:33:00.753Z</time>
      </trkpt>
      <trkpt lat="47.25526" lon="6.09919">
        <ele>516.257</ele>
        <time>2016-09-25T09:33:04.404Z</time>
      </trkpt>
      <trkpt lat="47.25519" lon="6.09931">
        <ele>516.172</ele>
        <time>2016-09-25T09:33:08.441Z</time>
      </trkpt>
      <trkpt lat="47.25513" lon="6.09942">
        <ele>515.283</ele>
        <time>2016-09-25T09:33:11.854Z</time>
      </trkpt>
      <trkpt lat="47.25504" lon="6.09949">
        <ele>514.474</ele>
        <time>2016-09-25T09:33:15.637Z</time>
      </trkpt>
      <trkpt lat="47.25493" lon="6.09957">
        <ele>514.189</ele>
        <time>2016-09-25T09:33:19.846Z</time>
      </trkpt>
      <trkpt lat="47.25485" lon="6.09963">
        <ele>514.287</ele>
        <time>2016-09-25T09:33:23.103Z</time>
      </trkpt>
      <trkpt lat="47.25476" lon="6.09968">
        <ele>514.273</ele>
        <time>2016-09-25T09:33:26.471Z</time>
      </trkpt>
      <trkpt lat="47.25467" lon="6.09975">
        <ele>513.724</ele>
        <time>2016-09-25T09:33:29.903Z</time>
      </trkpt>
      <trkpt lat="47.25459" lon="6.09986">
        <ele>512.749</ele>
        <time>2016-09-25T09:33:33.913Z</time>
      </trkpt>
      <trkpt lat="47.25452" lon="6.09998">
        <ele>512.032</ele>
        <time>2016-09-25T09:33:37.626Z</time>
      </trkpt>
      <trkpt lat="47.25448" lon="6.10009">
        <ele>512.155</ele>
        <time>2016-09-25T09:33:40.858Z</time>
      </trkpt>
      <trkpt lat="47.25441" lon="6.10023">
        <ele>512.84</ele>
        <time>2016-09-25T09:33:45.554Z</time>
      </trkpt>
      <trkpt lat="47.25435" lon="6.10037">
        <ele>513.63</ele>
        <time>2016-09-25T09:33:50.839Z</time>
      </trkpt>
      <trkpt lat="47.25432" lon="6.10052">
        <ele>514.333</ele>
        <time>2016-09-25T09:33:59.085Z</time>
      </trkpt>
      <trkpt lat="47.25429" lon="6.10065">
        <ele>514.968</ele>
        <time>2016-09-25T09:34:08.079Z</time>
      </trkpt>
      <trkpt lat="47.2542" lon="6.10069">
        <ele>515.568</ele>
        <time>2016-09-25T09:34:16.046Z</time>
      </trkpt>
      <trkpt lat="47.25411" lon="6.1007">
        <ele>516.699</ele>
        <time>2016-09-25T09:34:23.186Z</time>
      </trkpt>
      <trkpt lat="47.25401" lon="6.10067">
        <ele>518.757</ele>
        <time>2016-09-25T09:34:31.208Z</time>
      </trkpt>
      <trkpt lat="47.25391" lon="6.10066">
        <ele>520.865</ele>
        <time>2016-09-25T09:34:39.307Z</time>
      </trkpt>
      <trkpt lat="47.25382" lon="6.10066">
        <ele>522.36</ele>
        <time>2016-09-25T09:34:47.599Z</time>
      </trkpt>
      <trkpt lat="47.25373" lon="6.10068">
        <ele>523.703</ele>
        <time>2016-09-25T09:34:56.770Z</time>
      </trkpt>
      <trkpt lat="47.25364" lon="6.10072">
        <ele>525.191</ele>
        <time>2016-09-25T09:35:05.449Z</time>
      </trkpt>
      <trkpt lat="47.25359" lon="6.10084">
        <ele>526.636</ele>
        <time>2016-09-25T09:35:13.612Z</time>
      </trkpt>
      <trkpt lat="47.25359" lon="6.10098">
        <ele>527.629</ele>
        <time>2016-09-25T09:35:18.263Z</time>
      </trkpt>
      <trkpt lat="47.2536" lon="6.10112">
        <ele>528.252</ele>
        <time>2016-09-25T09:35:21.359Z</time>
      </trkpt>
      <trkpt lat="47.25362" lon="6.10125">
        <ele>529.529</ele>
        <time>2016-09-25T09:35:23.961Z</time>
      </trkpt>
      <trkpt lat="47.25364" lon="6.1014">
        <ele>531.63</ele>
        <time>2016-09-25T09:35:26.530Z</time>
      </trkpt>
      <trkpt lat="47.25367" lon="6.10157">
        <ele>533.329</ele>
        <time>2016-09-25T09:35:29.188Z</time>
      </trkpt>
      <trkpt lat="47.2537" lon="6.10174">
        <ele>533.869</ele>
        <time>2016-09-25T09:35:31.777Z</time>
      </trkpt>
      <trkpt lat="47.25371" lon="6.10193">
        <ele>533.307</ele>
        <time>2016-09-25T09:35:34.742Z</time>
      </trkpt>
      <trkpt lat="47.25371" lon="6.10214">
        <ele>531.697</ele>
        <time>2016-09-25T09:35:39.164Z</time>
      </trkpt>
      <trkpt lat="47.25374" lon="6.10235">
        <ele>529.284</ele>
        <time>2016-09-25T09:35:46.531Z</time>
      </trkpt>
      <trkpt lat="47.25376" lon="6.10255">
        <ele>526.5</ele>
        <time>2016-09-25T09:35:55.934Z</time>
      </trkpt>
      <trkpt lat="47.25378" lon="6.10269">
        <ele>524.034</ele>
        <time>2016-09-25T09:36:01.963Z</time>
      </trkpt>
      <trkpt lat="47.25379" lon="6.10282">
        <ele>523.5</ele>
        <time>2016-09-25T09:36:07.298Z</time>
      </trkpt>
      <trkpt lat="47.25375" lon="6.10296">
        <ele>525.402</ele>
        <time>2016-09-25T09:36:12.944Z</time>
      </trkpt>
      <trkpt lat="47.25378" lon="6.1031">
        <ele>527.861</ele>
        <time>2016-09-25T09:36:18.846Z</time>
      </trkpt>
      <trkpt lat="47.25382" lon="6.10324">
        <ele>529.218</ele>
        <time>2016-09-25T09:36:25.418Z</time>
      </trkpt>
      <trkpt lat="47.25387" lon="6.10336">
        <ele>529.741</ele>
        <time>2016-09-25T09:36:31.139Z</time>
      </trkpt>
      <trkpt lat="47.25387" lon="6.10351">
        <ele>530.51</ele>
        <time>2016-09-25T09:36:36.741Z</time>
      </trkpt>
      <trkpt lat="47.25386" lon="6.10366">
        <ele>531.95</ele>
        <time>2016-09-25T09:36:42.235Z</time>
      </trkpt>
      <trkpt lat="47.2539" lon="6.10379">
        <ele>532.613</ele>
        <time>2016-09-25T09:36:45.937Z</time>
      </trkpt>
      <trkpt lat="47.25393" lon="6.10392">
        <ele>531.449</ele>
        <time>2016-09-25T09:36:48.546Z</time>
      </trkpt>
      <trkpt lat="47.25396" lon="6.10407">
        <ele>529.703</ele>
        <time>2016-09-25T09:36:51.230Z</time>
      </trkpt>
      <trkpt lat="47.25397" lon="6.10422">
        <ele>528.737</ele>
        <time>2016-09-25T09:36:53.536Z</time>
      </trkpt>
      <trkpt lat="47.25396" lon="6.10441">
        <ele>528.526</ele>
        <time>2016-09-25T09:36:56.377Z</time>
      </trkpt>
      <trkpt lat="47.25397" lon="6.1046">
        <ele>528.467</ele>
        <time>2016-09-25T09:36:58.989Z</time>
      </trkpt>
      <trkpt lat="47.25399" lon="6.10479">
        <ele>528.156</ele>
        <time>2016-09-25T09:37:01.263Z</time>
      </trkpt>
      <trkpt lat="47.25401" lon="6.10497">
        <ele>528.031</ele>
        <time>2016-09-25T09:37:03.437Z</time>
      </trkpt>
      <trkpt lat="47.25401" lon="6.10517">
        <ele>528.551</ele>
        <time>2016-09-25T09:37:05.716Z</time>
      </trkpt>
      <trkpt lat="47.254" lon="6.10537">
        <ele>529.332</ele>
        <time>2016-09-25T09:37:07.829Z</time>
      </trkpt>
      <trkpt lat="47.254" lon="6.10553">
        <ele>529.921</ele>
        <time>2016-09-25T09:37:09.519Z</time>
      </trkpt>
      <trkpt lat="47.25401" lon="6.10566">
        <ele>530.391</ele>
        <time>2016-09-25T09:37:11.077Z</time>
      </trkpt>
      <trkpt lat="47.25402" lon="6.1059">
        <ele>530.903</ele>
        <time>2016-09-25T09:37:13.953Z</time>
      </trkpt>
      <trkpt lat="47.25404" lon="6.10614">
        <ele>531.385</ele>
        <time>2016-09-25T09:37:17.018Z</time>
      </trkpt>
      <trkpt lat="47.25404" lon="6.10634">
        <ele>531.598</ele>
        <time>2016-09-25T09:37:19.769Z</time>
      </trkpt>
      <trkpt lat="47.25407" lon="6.10653">
        <ele>531.499</ele>
        <time>2016-09-25T09:37:23.263Z</time>
      </trkpt>
      <trkpt lat="47.25408" lon="6.1067">
        <ele>531.297</ele>
        <time>2016-09-25T09:37:27.132Z</time>
      </trkpt>
      <trkpt lat="47.25409" lon="6.10692">
        <ele>531.106</ele>
        <time>2016-09-25T09:37:32.728Z</time>
      </trkpt>
      <trkpt lat="47.25409" lon="6.10708">
        <ele>530.842</ele>
        <time>2016-09-25T09:37:36.823Z</time>
      </trkpt>
      <trkpt lat="47.25409" lon="6.10722">
        <ele>530.532</ele>
        <time>2016-09-25T09:37:40.543Z</time>
      </trkpt>
      <trkpt lat="47.2541" lon="6.10737">
        <ele>530.636</ele>
        <time>2016-09-25T09:37:44.533Z</time>
      </trkpt>
      <trkpt lat="47.2541" lon="6.10751">
        <ele>531.506</ele>
        <time>2016-09-25T09:37:48.545Z</time>
      </trkpt>
      <trkpt lat="47.2541" lon="6.10765">
        <ele>532.731</ele>
        <time>2016-09-25T09:37:52.823Z</time>
      </trkpt>
      <trkpt lat="47.25411" lon="6.10781">
        <ele>534.127</ele>
        <time>2016-09-25T09:37:57.641Z</time>
      </trkpt>
      <trkpt lat="47.25414" lon="6.10796">
        <ele>535.821</ele>
        <time>2016-09-25T09:38:02.516Z</time>
      </trkpt>
      <trkpt lat="47.25417" lon="6.1081">
        <ele>537.584</ele>
        <time>2016-09-25T09:38:07.631Z</time>
      </trkpt>
      <trkpt lat="47.25419" lon="6.10825">
        <ele>539.293</ele>
        <time>2016-09-25T09:38:12.872Z</time>
      </trkpt>
      <trkpt lat="47.25415" lon="6.10838">
        <ele>541.251</ele>
        <time>2016-09-25T09:38:17.949Z</time>
      </trkpt>
      <trkpt lat="47.25412" lon="6.1085">
        <ele>543.302</ele>
        <time>2016-09-25T09:38:23.076Z</time>
      </trkpt>
      <trkpt lat="47.25415" lon="6.10864">
        <ele>544.431</ele>
        <time>2016-09-25T09:38:28.371Z</time>
      </trkpt>
      <trkpt lat="47.25417" lon="6.10877">
        <ele>544.081</ele>
        <time>2016-09-25T09:38:33.742Z</time>
      </trkpt>
      <trkpt lat="47.25418" lon="6.10891">
        <ele>543.702</ele>
        <time>2016-09-25T09:38:39.011Z</time>
      </trkpt>
      <trkpt lat="47.25417" lon="6.10906">
        <ele>544.564</ele>
        <time>2016-09-25T09:38:44.929Z</time>
      </trkpt>
      <trkpt lat="47.25414" lon="6.10921">
        <ele>546.054</ele>
        <time>2016-09-25T09:38:51.031Z</time>
      </trkpt>
      <trkpt lat="47.25411" lon="6.10936">
        <ele>547.503</ele>
        <time>2016-09-25T09:38:57.113Z</time>
      </trkpt>
      <trkpt lat="47.25408" lon="6.1095">
        <ele>548.644</ele>
        <time>2016-09-25T09:39:02.915Z</time>
      </trkpt>
      <trkpt lat="47.25405" lon="6.10964">
        <ele>548.964</ele>
        <time>2016-09-25T09:39:08.819Z</time>
      </trkpt>
      <trkpt lat="47.25406" lon="6.10979">
        <ele>548.622</ele>
        <time>2016-09-25T09:39:14.909Z</time>
      </trkpt>
      <trkpt lat="47.25406" lon="6.10995">
        <ele>548.146</ele>
        <time>2016-09-25T09:39:20.968Z</time>
      </trkpt>
      <trkpt lat="47.25406" lon="6.1101">
        <ele>547.721</ele>
        <time>2016-09-25T09:39:27.111Z</time>
      </trkpt>
      <trkpt lat="47.25407" lon="6.11024">
        <ele>547.525</ele>
        <time>2016-09-25T09:39:32.464Z</time>
      </trkpt>
      <trkpt lat="47.25408" lon="6.11037">
        <ele>547.947</ele>
        <time>2016-09-25T09:39:37.843Z</time>
      </trkpt>
      <trkpt lat="47.25407" lon="6.1105">
        <ele>549.043</ele>
        <time>2016-09-25T09:39:43.264Z</time>
      </trkpt>
      <trkpt lat="47.25408" lon="6.11065">
        <ele>550.111</ele>
        <time>2016-09-25T09:39:49.314Z</time>
      </trkpt>
      <trkpt lat="47.25409" lon="6.1108">
        <ele>550.554</ele>
        <time>2016-09-25T09:39:55.224Z</time>
      </trkpt>
      <trkpt lat="47.25406" lon="6.11093">
        <ele>550.67</ele>
        <time>2016-09-25T09:40:00.979Z</time>
      </trkpt>
      <trkpt lat="47.25396" lon="6.11096">
        <ele>551.056</ele>
        <time>2016-09-25T09:40:07.602Z</time>
      </trkpt>
      <trkpt lat="47.25387" lon="6.111">
        <ele>551.848</ele>
        <time>2016-09-25T09:40:13.387Z</time>
      </trkpt>
      <trkpt lat="47.25377" lon="6.11102">
        <ele>552.587</ele>
        <time>2016-09-25T09:40:20.000Z</time>
      </trkpt>
      <trkpt lat="47.25377" lon="6.11102">
        <ele>552.813</ele>
        <time>2016-09-25T09:40:33.999Z</time>
      </trkpt>
      <trkpt lat="47.25377" lon="6.11102">
        <ele>552.542</ele>
        <time>2016-09-25T09:43:42.780Z</time>
      </trkpt>
      <trkpt lat="47.2536" lon="6.111">
        <ele>552.181</ele>
        <time>2016-09-25T09:44:05.725Z</time>
      </trkpt>
      <trkpt lat="47.25351" lon="6.11101">
        <ele>554.167</ele>
        <time>2016-09-25T09:44:13.141Z</time>
      </trkpt>
      <trkpt lat="47.25341" lon="6.11104">
        <ele>560.107</ele>
        <time>2016-09-25T09:44:20.518Z</time>
      </trkpt>
      <trkpt lat="47.25332" lon="6.11105">
        <ele>566.913</ele>
        <time>2016-09-25T09:44:27.362Z</time>
      </trkpt>
      <trkpt lat="47.25322" lon="6.11101">
        <ele>570.785</ele>
        <time>2016-09-25T09:44:35.134Z</time>
      </trkpt>
      <trkpt lat="47.25312" lon="6.11101">
        <ele>570.826</ele>
        <time>2016-09-25T09:44:42.367Z</time>
      </trkpt>
      <trkpt lat="47.25302" lon="6.11105">
        <ele>568.072</ele>
        <time>2016-09-25T09:44:49.908Z</time>
      </trkpt>
      <trkpt lat="47.25293" lon="6.11107">
        <ele>566.121</ele>
        <time>2016-09-25T09:44:56.931Z</time>
      </trkpt>
      <trkpt lat="47.25284" lon="6.11107">
        <ele>567.666</ele>
        <time>2016-09-25T09:45:04.109Z</time>
      </trkpt>
      <trkpt lat="47.25274" lon="6.11105">
        <ele>571.084</ele>
        <time>2016-09-25T09:45:11.500Z</time>
      </trkpt>
      <trkpt lat="47.25265" lon="6.11104">
        <ele>573.448</ele>
        <time>2016-09-25T09:45:18.839Z</time>
      </trkpt>
      <trkpt lat="47.25256" lon="6.11108">
        <ele>573.978</ele>
        <time>2016-09-25T09:45:26.966Z</time>
      </trkpt>
      <trkpt lat="47.25246" lon="6.11109">
        <ele>574.083</ele>
        <time>2016-09-25T09:45:34.662Z</time>
      </trkpt>
      <trkpt lat="47.25237" lon="6.11109">
        <ele>574.989</ele>
        <time>2016-09-25T09:45:42.469Z</time>
      </trkpt>
      <trkpt lat="47.25227" lon="6.11111">
        <ele>576.298</ele>
        <time>2016-09-25T09:45:50.587Z</time>
      </trkpt>
      <trkpt lat="47.25218" lon="6.11104">
        <ele>576.937</ele>
        <time>2016-09-25T09:45:59.224Z</time>
      </trkpt>
      <trkpt lat="47.25208" lon="6.11104">
        <ele>576.42</ele>
        <time>2016-09-25T09:46:06.799Z</time>
      </trkpt>
      <trkpt lat="47.25204" lon="6.11092">
        <ele>575.252</ele>
        <time>2016-09-25T09:46:13.760Z</time>
      </trkpt>
      <trkpt lat="47.25201" lon="6.11079">
        <ele>574.712</ele>
        <time>2016-09-25T09:46:18.641Z</time>
      </trkpt>
      <trkpt lat="47.252" lon="6.11064">
        <ele>575.266</ele>
        <time>2016-09-25T09:46:22.572Z</time>
      </trkpt>
      <trkpt lat="47.25198" lon="6.11048">
        <ele>575.2</ele>
        <time>2016-09-25T09:46:26.433Z</time>
      </trkpt>
      <trkpt lat="47.25189" lon="6.11037">
        <ele>573.19</ele>
        <time>2016-09-25T09:46:29.911Z</time>
      </trkpt>
      <trkpt lat="47.25178" lon="6.11041">
        <ele>571.017</ele>
        <time>2016-09-25T09:46:33.386Z</time>
      </trkpt>
      <trkpt lat="47.25169" lon="6.1105">
        <ele>570.908</ele>
        <time>2016-09-25T09:46:36.845Z</time>
      </trkpt>
      <trkpt lat="47.25161" lon="6.11058">
        <ele>572.617</ele>
        <time>2016-09-25T09:46:40.160Z</time>
      </trkpt>
      <trkpt lat="47.25153" lon="6.11064">
        <ele>574.571</ele>
        <time>2016-09-25T09:46:43.195Z</time>
      </trkpt>
      <trkpt lat="47.25145" lon="6.11068">
        <ele>575.591</ele>
        <time>2016-09-25T09:46:45.875Z</time>
      </trkpt>
      <trkpt lat="47.25137" lon="6.11056">
        <ele>575.408</ele>
        <time>2016-09-25T09:46:48.479Z</time>
      </trkpt>
      <trkpt lat="47.25132" lon="6.11042">
        <ele>573.966</ele>
        <time>2016-09-25T09:46:50.684Z</time>
      </trkpt>
      <trkpt lat="47.25128" lon="6.11025">
        <ele>571.792</ele>
        <time>2016-09-25T09:46:52.903Z</time>
      </trkpt>
      <trkpt lat="47.25125" lon="6.11012">
        <ele>570.361</ele>
        <time>2016-09-25T09:46:54.536Z</time>
      </trkpt>
      <trkpt lat="47.25119" lon="6.10989">
        <ele>570.429</ele>
        <time>2016-09-25T09:46:57.334Z</time>
      </trkpt>
      <trkpt lat="47.25113" lon="6.10974">
        <ele>571.14</ele>
        <time>2016-09-25T09:46:59.271Z</time>
      </trkpt>
      <trkpt lat="47.25102" lon="6.10953">
        <ele>571.543</ele>
        <time>2016-09-25T09:47:02.296Z</time>
      </trkpt>
      <trkpt lat="47.2509" lon="6.10933">
        <ele>571.517</ele>
        <time>2016-09-25T09:47:05.283Z</time>
      </trkpt>
      <trkpt lat="47.25082" lon="6.10912">
        <ele>571.314</ele>
        <time>2016-09-25T09:47:07.751Z</time>
      </trkpt>
      <trkpt lat="47.25077" lon="6.10898">
        <ele>571.129</ele>
        <time>2016-09-25T09:47:09.384Z</time>
      </trkpt>
      <trkpt lat="47.25067" lon="6.10874">
        <ele>570.904</ele>
        <time>2016-09-25T09:47:12.186Z</time>
      </trkpt>
      <trkpt lat="47.25059" lon="6.10857">
        <ele>570.436</ele>
        <time>2016-09-25T09:47:14.203Z</time>
      </trkpt>
      <trkpt lat="47.25049" lon="6.10831">
        <ele>569.443</ele>
        <time>2016-09-25T09:47:17.186Z</time>
      </trkpt>
      <trkpt lat="47.25042" lon="6.10805">
        <ele>567.884</ele>
        <time>2016-09-25T09:47:20.526Z</time>
      </trkpt>
      <trkpt lat="47.25036" lon="6.10777">
        <ele>565.751</ele>
        <time>2016-09-25T09:47:26.141Z</time>
      </trkpt>
      <trkpt lat="47.2503" lon="6.10756">
        <ele>562.844</ele>
        <time>2016-09-25T09:47:32.173Z</time>
      </trkpt>
      <trkpt lat="47.2502" lon="6.10751">
        <ele>559.682</ele>
        <time>2016-09-25T09:47:35.675Z</time>
      </trkpt>
      <trkpt lat="47.25019" lon="6.10736">
        <ele>557.49</ele>
        <time>2016-09-25T09:47:38.766Z</time>
      </trkpt>
      <trkpt lat="47.25018" lon="6.10721">
        <ele>556.433</ele>
        <time>2016-09-25T09:47:41.549Z</time>
      </trkpt>
      <trkpt lat="47.25018" lon="6.10702">
        <ele>555.804</ele>
        <time>2016-09-25T09:47:45.285Z</time>
      </trkpt>
      <trkpt lat="47.25018" lon="6.10684">
        <ele>555.331</ele>
        <time>2016-09-25T09:47:48.698Z</time>
      </trkpt>
      <trkpt lat="47.25017" lon="6.10667">
        <ele>555.083</ele>
        <time>2016-09-25T09:47:52.599Z</time>
      </trkpt>
      <trkpt lat="47.2502" lon="6.10651">
        <ele>555.186</ele>
        <time>2016-09-25T09:47:57.576Z</time>
      </trkpt>
      <trkpt lat="47.25024" lon="6.10637">
        <ele>555.894</ele>
        <time>2016-09-25T09:48:02.929Z</time>
      </trkpt>
      <trkpt lat="47.25029" lon="6.10625">
        <ele>556.988</ele>
        <time>2016-09-25T09:48:08.678Z</time>
      </trkpt>
      <trkpt lat="47.25032" lon="6.10612">
        <ele>557.831</ele>
        <time>2016-09-25T09:48:14.574Z</time>
      </trkpt>
      <trkpt lat="47.2504" lon="6.10605">
        <ele>558.639</ele>
        <time>2016-09-25T09:48:20.343Z</time>
      </trkpt>
      <trkpt lat="47.25045" lon="6.10592">
        <ele>559.909</ele>
        <time>2016-09-25T09:48:26.785Z</time>
      </trkpt>
      <trkpt lat="47.2505" lon="6.10578">
        <ele>561.102</ele>
        <time>2016-09-25T09:48:33.323Z</time>
      </trkpt>
      <trkpt lat="47.25056" lon="6.10566">
        <ele>561.603</ele>
        <time>2016-09-25T09:48:39.434Z</time>
      </trkpt>
      <trkpt lat="47.25057" lon="6.10553">
        <ele>562.375</ele>
        <time>2016-09-25T09:48:44.583Z</time>
      </trkpt>
      <trkpt lat="47.25058" lon="6.10537">
        <ele>564.691</ele>
        <time>2016-09-25T09:48:50.185Z</time>
      </trkpt>
      <trkpt lat="47.25061" lon="6.10523">
        <ele>567.861</ele>
        <time>2016-09-25T09:48:54.527Z</time>
      </trkpt>
      <trkpt lat="47.25064" lon="6.10509">
        <ele>570.085</ele>
        <time>2016-09-25T09:48:58.170Z</time>
      </trkpt>
      <trkpt lat="47.25065" lon="6.10492">
        <ele>571.277</ele>
        <time>2016-09-25T09:49:01.903Z</time>
      </trkpt>
      <trkpt lat="47.25066" lon="6.10478">
        <ele>572.417</ele>
        <time>2016-09-25T09:49:04.848Z</time>
      </trkpt>
      <trkpt lat="47.25068" lon="6.10462">
        <ele>573.441</ele>
        <time>2016-09-25T09:49:07.852Z</time>
      </trkpt>
      <trkpt lat="47.2507" lon="6.10449">
        <ele>573.812</ele>
        <time>2016-09-25T09:49:10.078Z</time>
      </trkpt>
      <trkpt lat="47.25071" lon="6.10435">
        <ele>573.645</ele>
        <time>2016-09-25T09:49:12.157Z</time>
      </trkpt>
      <trkpt lat="47.25074" lon="6.10419">
        <ele>573.075</ele>
        <time>2016-09-25T09:49:14.488Z</time>
      </trkpt>
      <trkpt lat="47.25076" lon="6.10392">
        <ele>572.223</ele>
        <time>2016-09-25T09:49:17.906Z</time>
      </trkpt>
      <trkpt lat="47.25078" lon="6.1037">
        <ele>571.858</ele>
        <time>2016-09-25T09:49:20.675Z</time>
      </trkpt>
      <trkpt lat="47.25082" lon="6.10348">
        <ele>572.635</ele>
        <time>2016-09-25T09:49:23.566Z</time>
      </trkpt>
      <trkpt lat="47.25079" lon="6.10328">
        <ele>574.302</ele>
        <time>2016-09-25T09:49:26.376Z</time>
      </trkpt>
      <trkpt lat="47.25079" lon="6.10311">
        <ele>576.015</ele>
        <time>2016-09-25T09:49:28.834Z</time>
      </trkpt>
      <trkpt lat="47.25085" lon="6.1029">
        <ele>577.006</ele>
        <time>2016-09-25T09:49:32.315Z</time>
      </trkpt>
      <trkpt lat="47.25087" lon="6.10277">
        <ele>577.139</ele>
        <time>2016-09-25T09:49:34.394Z</time>
      </trkpt>
      <trkpt lat="47.25092" lon="6.10262">
        <ele>577.005</ele>
        <time>2016-09-25T09:49:36.787Z</time>
      </trkpt>
      <trkpt lat="47.25095" lon="6.10249">
        <ele>577.082</ele>
        <time>2016-09-25T09:49:38.468Z</time>
      </trkpt>
      <trkpt lat="47.25098" lon="6.10231">
        <ele>577.391</ele>
        <time>2016-09-25T09:49:40.723Z</time>
      </trkpt>
      <trkpt lat="47.25099" lon="6.10212">
        <ele>577.74</ele>
        <time>2016-09-25T09:49:42.970Z</time>
      </trkpt>
      <trkpt lat="47.25098" lon="6.10196">
        <ele>577.939</ele>
        <time>2016-09-25T09:49:44.820Z</time>
      </trkpt>
      <trkpt lat="47.251" lon="6.10172">
        <ele>577.849</ele>
        <time>2016-09-25T09:49:47.991Z</time>
      </trkpt>
      <trkpt lat="47.25104" lon="6.10147">
        <ele>577.523</ele>
        <time>2016-09-25T09:49:52.627Z</time>
      </trkpt>
      <trkpt lat="47.25109" lon="6.10133">
        <ele>576.33</ele>
        <time>2016-09-25T09:49:55.139Z</time>
      </trkpt>
      <trkpt lat="47.25118" lon="6.10121">
        <ele>573.815</ele>
        <time>2016-09-25T09:49:57.834Z</time>
      </trkpt>
      <trkpt lat="47.25116" lon="6.10105">
        <ele>571.182</ele>
        <time>2016-09-25T09:50:00.013Z</time>
      </trkpt>
      <trkpt lat="47.25108" lon="6.10092">
        <ele>569.952</ele>
        <time>2016-09-25T09:50:02.335Z</time>
      </trkpt>
      <trkpt lat="47.25101" lon="6.10076">
        <ele>570.331</ele>
        <time>2016-09-25T09:50:05.036Z</time>
      </trkpt>
      <trkpt lat="47.25094" lon="6.10065">
        <ele>571.767</ele>
        <time>2016-09-25T09:50:07.014Z</time>
      </trkpt>
      <trkpt lat="47.25088" lon="6.10046">
        <ele>573.304</ele>
        <time>2016-09-25T09:50:09.531Z</time>
      </trkpt>
      <trkpt lat="47.25087" lon="6.10032">
        <ele>574.217</ele>
        <time>2016-09-25T09:50:11.288Z</time>
      </trkpt>
      <trkpt lat="47.25079" lon="6.10019">
        <ele>574.588</ele>
        <time>2016-09-25T09:50:13.504Z</time>
      </trkpt>
      <trkpt lat="47.25071" lon="6.1">
        <ele>574.834</ele>
        <time>2016-09-25T09:50:16.305Z</time>
      </trkpt>
      <trkpt lat="47.25064" lon="6.09988">
        <ele>575.002</ele>
        <time>2016-09-25T09:50:18.223Z</time>
      </trkpt>
      <trkpt lat="47.25057" lon="6.0997">
        <ele>574.998</ele>
        <time>2016-09-25T09:50:20.695Z</time>
      </trkpt>
      <trkpt lat="47.2505" lon="6.09956">
        <ele>574.936</ele>
        <time>2016-09-25T09:50:22.618Z</time>
      </trkpt>
      <trkpt lat="47.2504" lon="6.09935">
        <ele>574.929</ele>
        <time>2016-09-25T09:50:25.576Z</time>
      </trkpt>
      <trkpt lat="47.25027" lon="6.09915">
        <ele>574.874</ele>
        <time>2016-09-25T09:50:28.694Z</time>
      </trkpt>
      <trkpt lat="47.25016" lon="6.09909">
        <ele>574.142</ele>
        <time>2016-09-25T09:50:30.715Z</time>
      </trkpt>
      <trkpt lat="47.25006" lon="6.09902">
        <ele>572.467</ele>
        <time>2016-09-25T09:50:32.611Z</time>
      </trkpt>
      <trkpt lat="47.24995" lon="6.09898">
        <ele>570.527</ele>
        <time>2016-09-25T09:50:34.594Z</time>
      </trkpt>
      <trkpt lat="47.24979" lon="6.09891">
        <ele>569.06</ele>
        <time>2016-09-25T09:50:37.663Z</time>
      </trkpt>
      <trkpt lat="47.24964" lon="6.09879">
        <ele>568.288</ele>
        <time>2016-09-25T09:50:41.192Z</time>
      </trkpt>
      <trkpt lat="47.24955" lon="6.09869">
        <ele>568.186</ele>
        <time>2016-09-25T09:50:43.621Z</time>
      </trkpt>
      <trkpt lat="47.24943" lon="6.09857">
        <ele>568.443</ele>
        <time>2016-09-25T09:50:46.494Z</time>
      </trkpt>
      <trkpt lat="47.24932" lon="6.09868">
        <ele>568.9</ele>
        <time>2016-09-25T09:50:48.665Z</time>
      </trkpt>
      <trkpt lat="47.24929" lon="6.0989">
        <ele>569.494</ele>
        <time>2016-09-25T09:50:50.906Z</time>
      </trkpt>
      <trkpt lat="47.24922" lon="6.09913">
        <ele>569.881</ele>
        <time>2016-09-25T09:50:53.236Z</time>
      </trkpt>
      <trkpt lat="47.24917" lon="6.0993">
        <ele>569.569</ele>
        <time>2016-09-25T09:50:54.874Z</time>
      </trkpt>
      <trkpt lat="47.24907" lon="6.09957">
        <ele>568.651</ele>
        <time>2016-09-25T09:50:57.421Z</time>
      </trkpt>
      <trkpt lat="47.249" lon="6.09978">
        <ele>567.432</ele>
        <time>2016-09-25T09:50:59.257Z</time>
      </trkpt>
      <trkpt lat="47.24892" lon="6.10001">
        <ele>566.101</ele>
        <time>2016-09-25T09:51:01.135Z</time>
      </trkpt>
      <trkpt lat="47.24886" lon="6.10025">
        <ele>564.799</ele>
        <time>2016-09-25T09:51:02.929Z</time>
      </trkpt>
      <trkpt lat="47.24877" lon="6.10064">
        <ele>563.381</ele>
        <time>2016-09-25T09:51:05.702Z</time>
      </trkpt>
      <trkpt lat="47.24868" lon="6.10089">
        <ele>561.5</ele>
        <time>2016-09-25T09:51:07.604Z</time>
      </trkpt>
      <trkpt lat="47.24854" lon="6.10127">
        <ele>559.293</ele>
        <time>2016-09-25T09:51:10.671Z</time>
      </trkpt>
      <trkpt lat="47.24845" lon="6.10148">
        <ele>556.92</ele>
        <time>2016-09-25T09:51:12.429Z</time>
      </trkpt>
      <trkpt lat="47.24834" lon="6.10167">
        <ele>554.397</ele>
        <time>2016-09-25T09:51:14.206Z</time>
      </trkpt>
      <trkpt lat="47.24816" lon="6.10179">
        <ele>551.96</ele>
        <time>2016-09-25T09:51:16.077Z</time>
      </trkpt>
      <trkpt lat="47.24787" lon="6.10182">
        <ele>549.978</ele>
        <time>2016-09-25T09:51:18.849Z</time>
      </trkpt>
      <trkpt lat="47.24757" lon="6.10166">
        <ele>548.486</ele>
        <time>2016-09-25T09:51:21.664Z</time>
      </trkpt>
      <trkpt lat="47.24738" lon="6.10153">
        <ele>546.993</ele>
        <time>2016-09-25T09:51:23.549Z</time>
      </trkpt>
      <trkpt lat="47.2471" lon="6.1013">
        <ele>544.968</ele>
        <time>2016-09-25T09:51:26.349Z</time>
      </trkpt>
      <trkpt lat="47.24686" lon="6.10097">
        <ele>542.832</ele>
        <time>2016-09-25T09:51:29.072Z</time>
      </trkpt>
      <trkpt lat="47.24666" lon="6.10076">
        <ele>541.267</ele>
        <time>2016-09-25T09:51:31.188Z</time>
      </trkpt>
      <trkpt lat="47.2464" lon="6.10046">
        <ele>539.962</ele>
        <time>2016-09-25T09:51:34.474Z</time>
      </trkpt>
      <trkpt lat="47.2463" lon="6.10026">
        <ele>538.024</ele>
        <time>2016-09-25T09:51:36.531Z</time>
      </trkpt>
      <trkpt lat="47.24622" lon="6.10008">
        <ele>535.39</ele>
        <time>2016-09-25T09:51:38.651Z</time>
      </trkpt>
      <trkpt lat="47.24607" lon="6.09955">
        <ele>532.946</ele>
        <time>2016-09-25T09:51:44.333Z</time>
      </trkpt>
      <trkpt lat="47.24606" lon="6.09938">
        <ele>531.433</ele>
        <time>2016-09-25T09:51:46.220Z</time>
      </trkpt>
      <trkpt lat="47.24606" lon="6.09907">
        <ele>530.858</ele>
        <time>2016-09-25T09:51:49.503Z</time>
      </trkpt>
      <trkpt lat="47.24607" lon="6.0989">
        <ele>531.256</ele>
        <time>2016-09-25T09:51:51.578Z</time>
      </trkpt>
      <trkpt lat="47.24601" lon="6.09867">
        <ele>532.48</ele>
        <time>2016-09-25T09:51:54.680Z</time>
      </trkpt>
      <trkpt lat="47.24594" lon="6.0985">
        <ele>533.589</ele>
        <time>2016-09-25T09:51:57.372Z</time>
      </trkpt>
      <trkpt lat="47.24581" lon="6.09831">
        <ele>533.769</ele>
        <time>2016-09-25T09:52:00.770Z</time>
      </trkpt>
      <trkpt lat="47.24567" lon="6.09815">
        <ele>533.285</ele>
        <time>2016-09-25T09:52:03.783Z</time>
      </trkpt>
      <trkpt lat="47.24559" lon="6.09792">
        <ele>532.765</ele>
        <time>2016-09-25T09:52:06.730Z</time>
      </trkpt>
      <trkpt lat="47.2455" lon="6.0978">
        <ele>533.007</ele>
        <time>2016-09-25T09:52:08.627Z</time>
      </trkpt>
      <trkpt lat="47.24532" lon="6.09758">
        <ele>534.256</ele>
        <time>2016-09-25T09:52:12.060Z</time>
      </trkpt>
      <trkpt lat="47.24519" lon="6.09732">
        <ele>535.321</ele>
        <time>2016-09-25T09:52:15.636Z</time>
      </trkpt>
      <trkpt lat="47.24513" lon="6.09721">
        <ele>534.61</ele>
        <time>2016-09-25T09:52:17.421Z</time>
      </trkpt>
      <trkpt lat="47.24502" lon="6.0972">
        <ele>532.364</ele>
        <time>2016-09-25T09:52:19.213Z</time>
      </trkpt>
      <trkpt lat="47.24486" lon="6.0973">
        <ele>530.231</ele>
        <time>2016-09-25T09:52:21.769Z</time>
      </trkpt>
      <trkpt lat="47.24467" lon="6.09747">
        <ele>528.038</ele>
        <time>2016-09-25T09:52:24.700Z</time>
      </trkpt>
      <trkpt lat="47.24444" lon="6.09767">
        <ele>524.442</ele>
        <time>2016-09-25T09:52:27.861Z</time>
      </trkpt>
      <trkpt lat="47.24422" lon="6.09784">
        <ele>520.301</ele>
        <time>2016-09-25T09:52:30.927Z</time>
      </trkpt>
      <trkpt lat="47.24401" lon="6.09789">
        <ele>517.333</ele>
        <time>2016-09-25T09:52:33.511Z</time>
      </trkpt>
      <trkpt lat="47.24378" lon="6.0979">
        <ele>515.84</ele>
        <time>2016-09-25T09:52:36.289Z</time>
      </trkpt>
      <trkpt lat="47.24359" lon="6.09788">
        <ele>515.384</ele>
        <time>2016-09-25T09:52:38.243Z</time>
      </trkpt>
      <trkpt lat="47.24339" lon="6.09782">
        <ele>515.438</ele>
        <time>2016-09-25T09:52:40.328Z</time>
      </trkpt>
      <trkpt lat="47.24313" lon="6.09772">
        <ele>515.654</ele>
        <time>2016-09-25T09:52:43.363Z</time>
      </trkpt>
      <trkpt lat="47.24293" lon="6.09754">
        <ele>516.053</ele>
        <time>2016-09-25T09:52:46.064Z</time>
      </trkpt>
      <trkpt lat="47.24278" lon="6.0974">
        <ele>516.749</ele>
        <time>2016-09-25T09:52:47.966Z</time>
      </trkpt>
      <trkpt lat="47.24256" lon="6.09711">
        <ele>517.513</ele>
        <time>2016-09-25T09:52:50.996Z</time>
      </trkpt>
      <trkpt lat="47.24243" lon="6.09688">
        <ele>517.742</ele>
        <time>2016-09-25T09:52:53.036Z</time>
      </trkpt>
      <trkpt lat="47.24224" lon="6.09657">
        <ele>516.857</ele>
        <time>2016-09-25T09:52:55.906Z</time>
      </trkpt>
      <trkpt lat="47.24206" lon="6.09631">
        <ele>514.759</ele>
        <time>2016-09-25T09:52:58.638Z</time>
      </trkpt>
      <trkpt lat="47.24196" lon="6.09616">
        <ele>512.286</ele>
        <time>2016-09-25T09:53:00.384Z</time>
      </trkpt>
      <trkpt lat="47.24187" lon="6.09602">
        <ele>510.452</ele>
        <time>2016-09-25T09:53:02.207Z</time>
      </trkpt>
      <trkpt lat="47.24178" lon="6.09588">
        <ele>509.376</ele>
        <time>2016-09-25T09:53:04.092Z</time>
      </trkpt>
      <trkpt lat="47.24165" lon="6.0957">
        <ele>508.636</ele>
        <time>2016-09-25T09:53:06.983Z</time>
      </trkpt>
      <trkpt lat="47.24155" lon="6.09551">
        <ele>507.492</ele>
        <time>2016-09-25T09:53:09.933Z</time>
      </trkpt>
      <trkpt lat="47.24146" lon="6.09546">
        <ele>505.257</ele>
        <time>2016-09-25T09:53:11.934Z</time>
      </trkpt>
      <trkpt lat="47.24138" lon="6.09534">
        <ele>502.492</ele>
        <time>2016-09-25T09:53:14.128Z</time>
      </trkpt>
      <trkpt lat="47.24125" lon="6.09515">
        <ele>499.88</ele>
        <time>2016-09-25T09:53:17.083Z</time>
      </trkpt>
      <trkpt lat="47.24107" lon="6.09495">
        <ele>497.409</ele>
        <time>2016-09-25T09:53:20.302Z</time>
      </trkpt>
      <trkpt lat="47.24091" lon="6.09481">
        <ele>494.881</ele>
        <time>2016-09-25T09:53:22.998Z</time>
      </trkpt>
      <trkpt lat="47.24073" lon="6.09464">
        <ele>491.733</ele>
        <time>2016-09-25T09:53:26.064Z</time>
      </trkpt>
      <trkpt lat="47.24052" lon="6.09454">
        <ele>488.084</ele>
        <time>2016-09-25T09:53:28.992Z</time>
      </trkpt>
      <trkpt lat="47.24037" lon="6.09445">
        <ele>484.555</ele>
        <time>2016-09-25T09:53:30.922Z</time>
      </trkpt>
      <trkpt lat="47.24016" lon="6.09425">
        <ele>480.5</ele>
        <time>2016-09-25T09:53:33.798Z</time>
      </trkpt>
      <trkpt lat="47.23995" lon="6.09421">
        <ele>475.829</ele>
        <time>2016-09-25T09:53:36.466Z</time>
      </trkpt>
      <trkpt lat="47.23985" lon="6.09412">
        <ele>472.114</ele>
        <time>2016-09-25T09:53:38.177Z</time>
      </trkpt>
      <trkpt lat="47.23974" lon="6.09402">
        <ele>470.28</ele>
        <time>2016-09-25T09:53:40.424Z</time>
      </trkpt>
      <trkpt lat="47.23963" lon="6.09395">
        <ele>469.776</ele>
        <time>2016-09-25T09:53:43.145Z</time>
      </trkpt>
      <trkpt lat="47.23954" lon="6.09388">
        <ele>469.837</ele>
        <time>2016-09-25T09:53:45.723Z</time>
      </trkpt>
      <trkpt lat="47.23946" lon="6.09376">
        <ele>470.231</ele>
        <time>2016-09-25T09:53:49.208Z</time>
      </trkpt>
      <trkpt lat="47.2394" lon="6.09364">
        <ele>471.09</ele>
        <time>2016-09-25T09:53:52.483Z</time>
      </trkpt>
      <trkpt lat="47.23934" lon="6.09352">
        <ele>472.51</ele>
        <time>2016-09-25T09:53:55.968Z</time>
      </trkpt>
      <trkpt lat="47.23928" lon="6.09338">
        <ele>474.276</ele>
        <time>2016-09-25T09:53:59.840Z</time>
      </trkpt>
      <trkpt lat="47.23922" lon="6.09323">
        <ele>475.799</ele>
        <time>2016-09-25T09:54:03.811Z</time>
      </trkpt>
      <trkpt lat="47.23916" lon="6.09311">
        <ele>476.553</ele>
        <time>2016-09-25T09:54:07.318Z</time>
      </trkpt>
      <trkpt lat="47.23906" lon="6.0932">
        <ele>476.41</ele>
        <time>2016-09-25T09:54:11.452Z</time>
      </trkpt>
      <trkpt lat="47.23901" lon="6.09335">
        <ele>475.688</ele>
        <time>2016-09-25T09:54:15.487Z</time>
      </trkpt>
      <trkpt lat="47.23902" lon="6.09354">
        <ele>474.995</ele>
        <time>2016-09-25T09:54:19.962Z</time>
      </trkpt>
      <trkpt lat="47.23909" lon="6.09369">
        <ele>474.692</ele>
        <time>2016-09-25T09:54:23.854Z</time>
      </trkpt>
      <trkpt lat="47.23913" lon="6.09387">
        <ele>474.565</ele>
        <time>2016-09-25T09:54:27.769Z</time>
      </trkpt>
      <trkpt lat="47.23918" lon="6.09407">
        <ele>474.376</ele>
        <time>2016-09-25T09:54:31.927Z</time>
      </trkpt>
      <trkpt lat="47.23932" lon="6.09433">
        <ele>474.201</ele>
        <time>2016-09-25T09:54:36.589Z</time>
      </trkpt>
      <trkpt lat="47.23937" lon="6.0946">
        <ele>474.149</ele>
        <time>2016-09-25T09:54:39.908Z</time>
      </trkpt>
      <trkpt lat="47.23941" lon="6.09489">
        <ele>474.037</ele>
        <time>2016-09-25T09:54:43.050Z</time>
      </trkpt>
      <trkpt lat="47.23945" lon="6.09504">
        <ele>473.655</ele>
        <time>2016-09-25T09:54:44.741Z</time>
      </trkpt>
      <trkpt lat="47.23948" lon="6.09522">
        <ele>472.999</ele>
        <time>2016-09-25T09:54:46.597Z</time>
      </trkpt>
      <trkpt lat="47.23957" lon="6.09551">
        <ele>471.987</ele>
        <time>2016-09-25T09:54:49.897Z</time>
      </trkpt>
      <trkpt lat="47.23958" lon="6.09575">
        <ele>470.079</ele>
        <time>2016-09-25T09:54:52.497Z</time>
      </trkpt>
      <trkpt lat="47.23961" lon="6.09602">
        <ele>467.077</ele>
        <time>2016-09-25T09:54:55.500Z</time>
      </trkpt>
      <trkpt lat="47.23956" lon="6.0962">
        <ele>464.019</ele>
        <time>2016-09-25T09:54:57.719Z</time>
      </trkpt>
      <trkpt lat="47.2395" lon="6.09632">
        <ele>462.158</ele>
        <time>2016-09-25T09:54:59.812Z</time>
      </trkpt>
      <trkpt lat="47.23937" lon="6.09643">
        <ele>461.325</ele>
        <time>2016-09-25T09:55:02.920Z</time>
      </trkpt>
      <trkpt lat="47.23925" lon="6.09648">
        <ele>460.388</ele>
        <time>2016-09-25T09:55:05.815Z</time>
      </trkpt>
      <trkpt lat="47.23916" lon="6.09652">
        <ele>458.938</ele>
        <time>2016-09-25T09:55:08.305Z</time>
      </trkpt>
      <trkpt lat="47.23905" lon="6.0965">
        <ele>457.592</ele>
        <time>2016-09-25T09:55:11.534Z</time>
      </trkpt>
      <trkpt lat="47.23894" lon="6.09657">
        <ele>456.83</ele>
        <time>2016-09-25T09:55:14.663Z</time>
      </trkpt>
      <trkpt lat="47.23885" lon="6.09662">
        <ele>456.535</ele>
        <time>2016-09-25T09:55:16.918Z</time>
      </trkpt>
      <trkpt lat="47.23873" lon="6.0967">
        <ele>456.268</ele>
        <time>2016-09-25T09:55:19.986Z</time>
      </trkpt>
      <trkpt lat="47.23865" lon="6.09677">
        <ele>455.467</ele>
        <time>2016-09-25T09:55:22.195Z</time>
      </trkpt>
      <trkpt lat="47.23857" lon="6.09685">
        <ele>454.072</ele>
        <time>2016-09-25T09:55:24.838Z</time>
      </trkpt>
      <trkpt lat="47.23845" lon="6.09689">
        <ele>452.238</ele>
        <time>2016-09-25T09:55:28.039Z</time>
      </trkpt>
      <trkpt lat="47.23836" lon="6.09698">
        <ele>449.988</ele>
        <time>2016-09-25T09:55:30.840Z</time>
      </trkpt>
      <trkpt lat="47.23826" lon="6.09707">
        <ele>447.789</ele>
        <time>2016-09-25T09:55:33.505Z</time>
      </trkpt>
      <trkpt lat="47.23825" lon="6.09736">
        <ele>446.18</ele>
        <time>2016-09-25T09:55:37.026Z</time>
      </trkpt>
      <trkpt lat="47.23816" lon="6.09762">
        <ele>444.936</ele>
        <time>2016-09-25T09:55:40.382Z</time>
      </trkpt>
      <trkpt lat="47.23809" lon="6.09778">
        <ele>443.636</ele>
        <time>2016-09-25T09:55:42.550Z</time>
      </trkpt>
      <trkpt lat="47.238" lon="6.09798">
        <ele>442.377</ele>
        <time>2016-09-25T09:55:45.412Z</time>
      </trkpt>
      <trkpt lat="47.23793" lon="6.0982">
        <ele>441.631</ele>
        <time>2016-09-25T09:55:48.022Z</time>
      </trkpt>
      <trkpt lat="47.23787" lon="6.09835">
        <ele>441.574</ele>
        <time>2016-09-25T09:55:49.964Z</time>
      </trkpt>
      <trkpt lat="47.23777" lon="6.09841">
        <ele>441.848</ele>
        <time>2016-09-25T09:55:51.803Z</time>
      </trkpt>
      <trkpt lat="47.23765" lon="6.0984">
        <ele>442</ele>
        <time>2016-09-25T09:55:54.393Z</time>
      </trkpt>
      <trkpt lat="47.23754" lon="6.09835">
        <ele>441.69</ele>
        <time>2016-09-25T09:55:58.343Z</time>
      </trkpt>
      <trkpt lat="47.23745" lon="6.09841">
        <ele>440.031</ele>
        <time>2016-09-25T09:56:01.817Z</time>
      </trkpt>
      <trkpt lat="47.23734" lon="6.09842">
        <ele>436.527</ele>
        <time>2016-09-25T09:56:05.153Z</time>
      </trkpt>
      <trkpt lat="47.23723" lon="6.09841">
        <ele>432.453</ele>
        <time>2016-09-25T09:56:08.151Z</time>
      </trkpt>
      <trkpt lat="47.23713" lon="6.09839">
        <ele>428.844</ele>
        <time>2016-09-25T09:56:10.844Z</time>
      </trkpt>
      <trkpt lat="47.23705" lon="6.09827">
        <ele>424.94</ele>
        <time>2016-09-25T09:56:14.020Z</time>
      </trkpt>
      <trkpt lat="47.23701" lon="6.09812">
        <ele>419.564</ele>
        <time>2016-09-25T09:56:16.851Z</time>
      </trkpt>
      <trkpt lat="47.23696" lon="6.09797">
        <ele>413.235</ele>
        <time>2016-09-25T09:56:19.736Z</time>
      </trkpt>
      <trkpt lat="47.23692" lon="6.09784">
        <ele>408.245</ele>
        <time>2016-09-25T09:56:22.505Z</time>
      </trkpt>
      <trkpt lat="47.23687" lon="6.09773">
        <ele>405.93</ele>
        <time>2016-09-25T09:56:24.987Z</time>
      </trkpt>
      <trkpt lat="47.23687" lon="6.09773">
        <ele>405.371</ele>
        <time>2016-09-25T09:56:34.987Z</time>
      </trkpt>
      <trkpt lat="47.23687" lon="6.09773">
        <ele>405.356</ele>
        <time>2016-09-25T09:56:47.835Z</time>
      </trkpt>
      <trkpt lat="47.23677" lon="6.09739">
        <ele>405.409</ele>
        <time>2016-09-25T09:57:07.292Z</time>
      </trkpt>
      <trkpt lat="47.23675" lon="6.09725">
        <ele>405.869</ele>
        <time>2016-09-25T09:57:13.417Z</time>
      </trkpt>
      <trkpt lat="47.23668" lon="6.09715">
        <ele>407.117</ele>
        <time>2016-09-25T09:57:20.019Z</time>
      </trkpt>
      <trkpt lat="47.23659" lon="6.09705">
        <ele>409.127</ele>
        <time>2016-09-25T09:57:26.999Z</time>
      </trkpt>
      <trkpt lat="47.23654" lon="6.09693">
        <ele>412.3</ele>
        <time>2016-09-25T09:57:31.687Z</time>
      </trkpt>
      <trkpt lat="47.23647" lon="6.0968">
        <ele>416.344</ele>
        <time>2016-09-25T09:57:36.606Z</time>
      </trkpt>
      <trkpt lat="47.23642" lon="6.09667">
        <ele>419.429</ele>
        <time>2016-09-25T09:57:40.544Z</time>
      </trkpt>
      <trkpt lat="47.23639" lon="6.09654">
        <ele>420.666</ele>
        <time>2016-09-25T09:57:44.084Z</time>
      </trkpt>
      <trkpt lat="47.23638" lon="6.09637">
        <ele>420.66</ele>
        <time>2016-09-25T09:57:48.262Z</time>
      </trkpt>
      <trkpt lat="47.23634" lon="6.09623">
        <ele>420.224</ele>
        <time>2016-09-25T09:57:52.439Z</time>
      </trkpt>
      <trkpt lat="47.23629" lon="6.0961">
        <ele>420.153</ele>
        <time>2016-09-25T09:57:56.392Z</time>
      </trkpt>
      <trkpt lat="47.23624" lon="6.09597">
        <ele>420.673</ele>
        <time>2016-09-25T09:58:00.702Z</time>
      </trkpt>
      <trkpt lat="47.23617" lon="6.09587">
        <ele>421.71</ele>
        <time>2016-09-25T09:58:05.310Z</time>
      </trkpt>
      <trkpt lat="47.23612" lon="6.09574">
        <ele>423.112</ele>
        <time>2016-09-25T09:58:10.459Z</time>
      </trkpt>
      <trkpt lat="47.23609" lon="6.0956">
        <ele>425.625</ele>
        <time>2016-09-25T09:58:16.002Z</time>
      </trkpt>
      <trkpt lat="47.23604" lon="6.09546">
        <ele>429.662</ele>
        <time>2016-09-25T09:58:21.752Z</time>
      </trkpt>
      <trkpt lat="47.23598" lon="6.09536">
        <ele>433.079</ele>
        <time>2016-09-25T09:58:26.749Z</time>
      </trkpt>
      <trkpt lat="47.23592" lon="6.09527">
        <ele>433.982</ele>
        <time>2016-09-25T09:58:31.639Z</time>
      </trkpt>
      <trkpt lat="47.23584" lon="6.09513">
        <ele>433.864</ele>
        <time>2016-09-25T09:58:36.232Z</time>
      </trkpt>
      <trkpt lat="47.23577" lon="6.09496">
        <ele>435.062</ele>
        <time>2016-09-25T09:58:40.089Z</time>
      </trkpt>
      <trkpt lat="47.23568" lon="6.09482">
        <ele>437.751</ele>
        <time>2016-09-25T09:58:43.104Z</time>
      </trkpt>
      <trkpt lat="47.23562" lon="6.09471">
        <ele>440.141</ele>
        <time>2016-09-25T09:58:45.111Z</time>
      </trkpt>
      <trkpt lat="47.23555" lon="6.09458">
        <ele>441.077</ele>
        <time>2016-09-25T09:58:47.273Z</time>
      </trkpt>
      <trkpt lat="47.23548" lon="6.09442">
        <ele>440.899</ele>
        <time>2016-09-25T09:58:49.628Z</time>
      </trkpt>
      <trkpt lat="47.23541" lon="6.09428">
        <ele>440.326</ele>
        <time>2016-09-25T09:58:52.327Z</time>
      </trkpt>
      <trkpt lat="47.23525" lon="6.09407">
        <ele>439.574</ele>
        <time>2016-09-25T09:59:00.643Z</time>
      </trkpt>
      <trkpt lat="47.23518" lon="6.09395">
        <ele>438.129</ele>
        <time>2016-09-25T09:59:06.304Z</time>
      </trkpt>
      <trkpt lat="47.2351" lon="6.09385">
        <ele>436.053</ele>
        <time>2016-09-25T09:59:12.962Z</time>
      </trkpt>
      <trkpt lat="47.23501" lon="6.09386">
        <ele>433.578</ele>
        <time>2016-09-25T09:59:17.028Z</time>
      </trkpt>
      <trkpt lat="47.23492" lon="6.09384">
        <ele>430.312</ele>
        <time>2016-09-25T09:59:20.273Z</time>
      </trkpt>
      <trkpt lat="47.23482" lon="6.09384">
        <ele>426.13</ele>
        <time>2016-09-25T09:59:23.417Z</time>
      </trkpt>
      <trkpt lat="47.23479" lon="6.094">
        <ele>421.28</ele>
        <time>2016-09-25T09:59:26.487Z</time>
      </trkpt>
      <trkpt lat="47.23477" lon="6.09414">
        <ele>416.487</ele>
        <time>2016-09-25T09:59:28.776Z</time>
      </trkpt>
      <trkpt lat="47.23468" lon="6.09426">
        <ele>413.264</ele>
        <time>2016-09-25T09:59:31.528Z</time>
      </trkpt>
      <trkpt lat="47.23456" lon="6.09436">
        <ele>411.918</ele>
        <time>2016-09-25T09:59:34.584Z</time>
      </trkpt>
      <trkpt lat="47.23448" lon="6.09456">
        <ele>411.187</ele>
        <time>2016-09-25T09:59:37.244Z</time>
      </trkpt>
      <trkpt lat="47.23439" lon="6.09449">
        <ele>410.335</ele>
        <time>2016-09-25T09:59:38.821Z</time>
      </trkpt>
      <trkpt lat="47.23437" lon="6.09431">
        <ele>409.27</ele>
        <time>2016-09-25T09:59:40.714Z</time>
      </trkpt>
      <trkpt lat="47.23429" lon="6.09417">
        <ele>407.784</ele>
        <time>2016-09-25T09:59:42.428Z</time>
      </trkpt>
      <trkpt lat="47.23417" lon="6.09406">
        <ele>405.906</ele>
        <time>2016-09-25T09:59:44.487Z</time>
      </trkpt>
      <trkpt lat="47.23406" lon="6.09376">
        <ele>403.806</ele>
        <time>2016-09-25T09:59:48.325Z</time>
      </trkpt>
      <trkpt lat="47.23402" lon="6.09357">
        <ele>401.487</ele>
        <time>2016-09-25T09:59:50.398Z</time>
      </trkpt>
      <trkpt lat="47.23395" lon="6.09342">
        <ele>399.426</ele>
        <time>2016-09-25T09:59:51.974Z</time>
      </trkpt>
      <trkpt lat="47.23378" lon="6.09339">
        <ele>398.194</ele>
        <time>2016-09-25T09:59:54.070Z</time>
      </trkpt>
      <trkpt lat="47.23358" lon="6.09355">
        <ele>397.4</ele>
        <time>2016-09-25T09:59:56.594Z</time>
      </trkpt>
      <trkpt lat="47.23346" lon="6.0937">
        <ele>396.005</ele>
        <time>2016-09-25T09:59:58.328Z</time>
      </trkpt>
      <trkpt lat="47.23333" lon="6.09388">
        <ele>393.819</ele>
        <time>2016-09-25T10:00:00.201Z</time>
      </trkpt>
      <trkpt lat="47.2332" lon="6.09406">
        <ele>391.497</ele>
        <time>2016-09-25T10:00:02.031Z</time>
      </trkpt>
      <trkpt lat="47.23299" lon="6.09435">
        <ele>389.532</ele>
        <time>2016-09-25T10:00:05.028Z</time>
      </trkpt>
      <trkpt lat="47.2328" lon="6.09463">
        <ele>388.07</ele>
        <time>2016-09-25T10:00:07.986Z</time>
      </trkpt>
      <trkpt lat="47.23259" lon="6.09489">
        <ele>386.951</ele>
        <time>2016-09-25T10:00:10.932Z</time>
      </trkpt>
      <trkpt lat="47.23246" lon="6.09505">
        <ele>385.75</ele>
        <time>2016-09-25T10:00:12.887Z</time>
      </trkpt>
      <trkpt lat="47.23226" lon="6.09527">
        <ele>384.434</ele>
        <time>2016-09-25T10:00:15.809Z</time>
      </trkpt>
      <trkpt lat="47.23204" lon="6.09547">
        <ele>383.322</ele>
        <time>2016-09-25T10:00:19.341Z</time>
      </trkpt>
      <trkpt lat="47.23183" lon="6.0956">
        <ele>382.618</ele>
        <time>2016-09-25T10:00:23.737Z</time>
      </trkpt>
      <trkpt lat="47.23171" lon="6.09566">
        <ele>382.312</ele>
        <time>2016-09-25T10:00:26.643Z</time>
      </trkpt>
      <trkpt lat="47.23159" lon="6.09574">
        <ele>382.286</ele>
        <time>2016-09-25T10:00:29.778Z</time>
      </trkpt>
      <trkpt lat="47.2315" lon="6.09587">
        <ele>382.607</ele>
        <time>2016-09-25T10:00:32.799Z</time>
      </trkpt>
      <trkpt lat="47.2314" lon="6.09596">
        <ele>383.563</ele>
        <time>2016-09-25T10:00:35.411Z</time>
      </trkpt>
      <trkpt lat="47.23131" lon="6.09607">
        <ele>384.956</ele>
        <time>2016-09-25T10:00:37.944Z</time>
      </trkpt>
      <trkpt lat="47.23121" lon="6.09618">
        <ele>386.1</ele>
        <time>2016-09-25T10:00:40.397Z</time>
      </trkpt>
      <trkpt lat="47.23114" lon="6.09625">
        <ele>386.629</ele>
        <time>2016-09-25T10:00:42.331Z</time>
      </trkpt>
      <trkpt lat="47.23103" lon="6.09637">
        <ele>386.523</ele>
        <time>2016-09-25T10:00:44.998Z</time>
      </trkpt>
      <trkpt lat="47.23082" lon="6.09658">
        <ele>385.963</ele>
        <time>2016-09-25T10:00:50.499Z</time>
      </trkpt>
      <trkpt lat="47.23073" lon="6.09666">
        <ele>385.863</ele>
        <time>2016-09-25T10:00:52.631Z</time>
      </trkpt>
      <trkpt lat="47.23064" lon="6.09677">
        <ele>386.816</ele>
        <time>2016-09-25T10:00:55.186Z</time>
      </trkpt>
      <trkpt lat="47.23051" lon="6.09685">
        <ele>388.031</ele>
        <time>2016-09-25T10:00:58.151Z</time>
      </trkpt>
      <trkpt lat="47.23038" lon="6.09694">
        <ele>388.637</ele>
        <time>2016-09-25T10:01:00.995Z</time>
      </trkpt>
      <trkpt lat="47.23031" lon="6.09704">
        <ele>388.356</ele>
        <time>2016-09-25T10:01:02.921Z</time>
      </trkpt>
      <trkpt lat="47.23018" lon="6.09713">
        <ele>387.309</ele>
        <time>2016-09-25T10:01:05.993Z</time>
      </trkpt>
      <trkpt lat="47.23011" lon="6.09723">
        <ele>386.198</ele>
        <time>2016-09-25T10:01:08.040Z</time>
      </trkpt>
      <trkpt lat="47.23004" lon="6.09731">
        <ele>385.527</ele>
        <time>2016-09-25T10:01:10.056Z</time>
      </trkpt>
      <trkpt lat="47.22993" lon="6.09743">
        <ele>385.212</ele>
        <time>2016-09-25T10:01:13.324Z</time>
      </trkpt>
      <trkpt lat="47.22983" lon="6.09756">
        <ele>385.122</ele>
        <time>2016-09-25T10:01:16.694Z</time>
      </trkpt>
      <trkpt lat="47.22977" lon="6.09768">
        <ele>385.207</ele>
        <time>2016-09-25T10:01:19.166Z</time>
      </trkpt>
      <trkpt lat="47.22968" lon="6.09782">
        <ele>385.4</ele>
        <time>2016-09-25T10:01:22.290Z</time>
      </trkpt>
      <trkpt lat="47.22958" lon="6.09792">
        <ele>385.629</ele>
        <time>2016-09-25T10:01:25.055Z</time>
      </trkpt>
      <trkpt lat="47.22949" lon="6.09805">
        <ele>385.848</ele>
        <time>2016-09-25T10:01:28.334Z</time>
      </trkpt>
      <trkpt lat="47.22941" lon="6.09817">
        <ele>386.002</ele>
        <time>2016-09-25T10:01:31.396Z</time>
      </trkpt>
      <trkpt lat="47.22934" lon="6.09826">
        <ele>386.168</ele>
        <time>2016-09-25T10:01:34.158Z</time>
      </trkpt>
      <trkpt lat="47.22927" lon="6.09837">
        <ele>386.451</ele>
        <time>2016-09-25T10:01:36.844Z</time>
      </trkpt>
      <trkpt lat="47.22921" lon="6.09846">
        <ele>386.552</ele>
        <time>2016-09-25T10:01:39.364Z</time>
      </trkpt>
      <trkpt lat="47.22916" lon="6.0986">
        <ele>386.099</ele>
        <time>2016-09-25T10:01:42.501Z</time>
      </trkpt>
      <trkpt lat="47.2291" lon="6.09873">
        <ele>385.143</ele>
        <time>2016-09-25T10:01:45.780Z</time>
      </trkpt>
      <trkpt lat="47.22904" lon="6.09885">
        <ele>383.933</ele>
        <time>2016-09-25T10:01:49.289Z</time>
      </trkpt>
      <trkpt lat="47.22898" lon="6.09899">
        <ele>382.803</ele>
        <time>2016-09-25T10:01:53.144Z</time>
      </trkpt>
      <trkpt lat="47.2289" lon="6.0991">
        <ele>382.374</ele>
        <time>2016-09-25T10:01:56.796Z</time>
      </trkpt>
      <trkpt lat="47.2288" lon="6.09919">
        <ele>382.9</ele>
        <time>2016-09-25T10:02:00.759Z</time>
      </trkpt>
      <trkpt lat="47.22871" lon="6.09929">
        <ele>384.167</ele>
        <time>2016-09-25T10:02:04.684Z</time>
      </trkpt>
      <trkpt lat="47.22862" lon="6.09938">
        <ele>386.318</ele>
        <time>2016-09-25T10:02:08.409Z</time>
      </trkpt>
      <trkpt lat="47.22855" lon="6.09949">
        <ele>389.018</ele>
        <time>2016-09-25T10:02:11.727Z</time>
      </trkpt>
      <trkpt lat="47.22847" lon="6.0996">
        <ele>390.952</ele>
        <time>2016-09-25T10:02:15.126Z</time>
      </trkpt>
      <trkpt lat="47.2284" lon="6.0997">
        <ele>391.457</ele>
        <time>2016-09-25T10:02:18.339Z</time>
      </trkpt>
      <trkpt lat="47.22833" lon="6.09981">
        <ele>391.081</ele>
        <time>2016-09-25T10:02:21.641Z</time>
      </trkpt>
      <trkpt lat="47.22828" lon="6.09993">
        <ele>390.575</ele>
        <time>2016-09-25T10:02:24.732Z</time>
      </trkpt>
      <trkpt lat="47.22825" lon="6.10006">
        <ele>390.24</ele>
        <time>2016-09-25T10:02:27.819Z</time>
      </trkpt>
      <trkpt lat="47.22818" lon="6.10018">
        <ele>390.096</ele>
        <time>2016-09-25T10:02:31.659Z</time>
      </trkpt>
      <trkpt lat="47.22809" lon="6.10022">
        <ele>390.444</ele>
        <time>2016-09-25T10:02:34.855Z</time>
      </trkpt>
      <trkpt lat="47.228" lon="6.10027">
        <ele>391.431</ele>
        <time>2016-09-25T10:02:39.296Z</time>
      </trkpt>
      <trkpt lat="47.22792" lon="6.1004">
        <ele>392.429</ele>
        <time>2016-09-25T10:02:45.893Z</time>
      </trkpt>
      <trkpt lat="47.2279" lon="6.10053">
        <ele>392.912</ele>
        <time>2016-09-25T10:02:50.999Z</time>
      </trkpt>
      <trkpt lat="47.2279" lon="6.10053">
        <ele>392.976</ele>
        <time>2016-09-25T10:02:58.999Z</time>
      </trkpt>
      <trkpt lat="47.2279" lon="6.10053">
        <ele>392.818</ele>
        <time>2016-09-25T10:03:20.643Z</time>
      </trkpt>
      <trkpt lat="47.22778" lon="6.10074">
        <ele>392.598</ele>
        <time>2016-09-25T10:03:35.604Z</time>
      </trkpt>
      <trkpt lat="47.22771" lon="6.10084">
        <ele>392.04</ele>
        <time>2016-09-25T10:03:38.931Z</time>
      </trkpt>
      <trkpt lat="47.22763" lon="6.10095">
        <ele>390.775</ele>
        <time>2016-09-25T10:03:42.083Z</time>
      </trkpt>
      <trkpt lat="47.22754" lon="6.10106">
        <ele>389.19</ele>
        <time>2016-09-25T10:03:45.206Z</time>
      </trkpt>
      <trkpt lat="47.22746" lon="6.10118">
        <ele>387.915</ele>
        <time>2016-09-25T10:03:48.040Z</time>
      </trkpt>
      <trkpt lat="47.22737" lon="6.10131">
        <ele>387.119</ele>
        <time>2016-09-25T10:03:50.880Z</time>
      </trkpt>
      <trkpt lat="47.22727" lon="6.10145">
        <ele>386.501</ele>
        <time>2016-09-25T10:03:53.868Z</time>
      </trkpt>
      <trkpt lat="47.2272" lon="6.10155">
        <ele>385.564</ele>
        <time>2016-09-25T10:03:55.804Z</time>
      </trkpt>
      <trkpt lat="47.22712" lon="6.10163">
        <ele>384.342</ele>
        <time>2016-09-25T10:03:57.741Z</time>
      </trkpt>
      <trkpt lat="47.22702" lon="6.10175">
        <ele>383.412</ele>
        <time>2016-09-25T10:04:00.518Z</time>
      </trkpt>
      <trkpt lat="47.22693" lon="6.10189">
        <ele>383.16</ele>
        <time>2016-09-25T10:04:03.246Z</time>
      </trkpt>
      <trkpt lat="47.22684" lon="6.10203">
        <ele>383.435</ele>
        <time>2016-09-25T10:04:05.964Z</time>
      </trkpt>
      <trkpt lat="47.22676" lon="6.10217">
        <ele>383.857</ele>
        <time>2016-09-25T10:04:08.710Z</time>
      </trkpt>
      <trkpt lat="47.22668" lon="6.10232">
        <ele>384.155</ele>
        <time>2016-09-25T10:04:11.433Z</time>
      </trkpt>
      <trkpt lat="47.2266" lon="6.10245">
        <ele>384.21</ele>
        <time>2016-09-25T10:04:14.089Z</time>
      </trkpt>
      <trkpt lat="47.22651" lon="6.10257">
        <ele>384.084</ele>
        <time>2016-09-25T10:04:16.704Z</time>
      </trkpt>
      <trkpt lat="47.22643" lon="6.10269">
        <ele>384.029</ele>
        <time>2016-09-25T10:04:19.230Z</time>
      </trkpt>
      <trkpt lat="47.22638" lon="6.10284">
        <ele>384.222</ele>
        <time>2016-09-25T10:04:21.999Z</time>
      </trkpt>
      <trkpt lat="47.22638" lon="6.10284">
        <ele>384.496</ele>
        <time>2016-09-25T10:04:30.999Z</time>
      </trkpt>
      <trkpt lat="47.22638" lon="6.10284">
        <ele>384.56</ele>
        <time>2016-09-25T10:05:14.166Z</time>
      </trkpt>
      <trkpt lat="47.22624" lon="6.10298">
        <ele>384.379</ele>
        <time>2016-09-25T10:05:25.101Z</time>
      </trkpt>
      <trkpt lat="47.22612" lon="6.10304">
        <ele>384.307</ele>
        <time>2016-09-25T10:05:28.493Z</time>
      </trkpt>
      <trkpt lat="47.22599" lon="6.10308">
        <ele>384.589</ele>
        <time>2016-09-25T10:05:31.701Z</time>
      </trkpt>
      <trkpt lat="47.22585" lon="6.10315">
        <ele>384.996</ele>
        <time>2016-09-25T10:05:35.055Z</time>
      </trkpt>
      <trkpt lat="47.22576" lon="6.10318">
        <ele>385.51</ele>
        <time>2016-09-25T10:05:37.090Z</time>
      </trkpt>
      <trkpt lat="47.22567" lon="6.10321">
        <ele>386.261</ele>
        <time>2016-09-25T10:05:39.053Z</time>
      </trkpt>
      <trkpt lat="47.22554" lon="6.10325">
        <ele>386.829</ele>
        <time>2016-09-25T10:05:42.008Z</time>
      </trkpt>
      <trkpt lat="47.2254" lon="6.10331">
        <ele>386.762</ele>
        <time>2016-09-25T10:05:45.020Z</time>
      </trkpt>
      <trkpt lat="47.22528" lon="6.10338">
        <ele>386.256</ele>
        <time>2016-09-25T10:05:47.987Z</time>
      </trkpt>
      <trkpt lat="47.22516" lon="6.10346">
        <ele>385.774</ele>
        <time>2016-09-25T10:05:50.867Z</time>
      </trkpt>
      <trkpt lat="47.22504" lon="6.10353">
        <ele>385.544</ele>
        <time>2016-09-25T10:05:53.733Z</time>
      </trkpt>
      <trkpt lat="47.22495" lon="6.10356">
        <ele>385.443</ele>
        <time>2016-09-25T10:05:55.719Z</time>
      </trkpt>
      <trkpt lat="47.22486" lon="6.10357">
        <ele>385.236</ele>
        <time>2016-09-25T10:05:57.780Z</time>
      </trkpt>
      <trkpt lat="47.22471" lon="6.10355">
        <ele>384.976</ele>
        <time>2016-09-25T10:06:00.879Z</time>
      </trkpt>
      <trkpt lat="47.22455" lon="6.10358">
        <ele>384.861</ele>
        <time>2016-09-25T10:06:03.948Z</time>
      </trkpt>
      <trkpt lat="47.22446" lon="6.10359">
        <ele>384.882</ele>
        <time>2016-09-25T10:06:05.803Z</time>
      </trkpt>
      <trkpt lat="47.22431" lon="6.10361">
        <ele>384.952</ele>
        <time>2016-09-25T10:06:08.838Z</time>
      </trkpt>
      <trkpt lat="47.22421" lon="6.10362">
        <ele>385.125</ele>
        <time>2016-09-25T10:06:10.849Z</time>
      </trkpt>
      <trkpt lat="47.22406" lon="6.10362">
        <ele>385.434</ele>
        <time>2016-09-25T10:06:13.754Z</time>
      </trkpt>
      <trkpt lat="47.22392" lon="6.10366">
        <ele>385.912</ele>
        <time>2016-09-25T10:06:16.562Z</time>
      </trkpt>
      <trkpt lat="47.22377" lon="6.10367">
        <ele>386.507</ele>
        <time>2016-09-25T10:06:19.626Z</time>
      </trkpt>
      <trkpt lat="47.22364" lon="6.1037">
        <ele>387.008</ele>
        <time>2016-09-25T10:06:22.468Z</time>
      </trkpt>
      <trkpt lat="47.22352" lon="6.10379">
        <ele>387.213</ele>
        <time>2016-09-25T10:06:25.279Z</time>
      </trkpt>
      <trkpt lat="47.22342" lon="6.10379">
        <ele>387</ele>
        <time>2016-09-25T10:06:27.288Z</time>
      </trkpt>
      <trkpt lat="47.22328" lon="6.10386">
        <ele>386.391</ele>
        <time>2016-09-25T10:06:30.154Z</time>
      </trkpt>
      <trkpt lat="47.22318" lon="6.10389">
        <ele>385.217</ele>
        <time>2016-09-25T10:06:32.188Z</time>
      </trkpt>
      <trkpt lat="47.22302" lon="6.10392">
        <ele>383.491</ele>
        <time>2016-09-25T10:06:35.204Z</time>
      </trkpt>
      <trkpt lat="47.22293" lon="6.10396">
        <ele>382.065</ele>
        <time>2016-09-25T10:06:37.157Z</time>
      </trkpt>
      <trkpt lat="47.22279" lon="6.10402">
        <ele>381.741</ele>
        <time>2016-09-25T10:06:40.017Z</time>
      </trkpt>
      <trkpt lat="47.22267" lon="6.10406">
        <ele>382.637</ele>
        <time>2016-09-25T10:06:42.809Z</time>
      </trkpt>
      <trkpt lat="47.22255" lon="6.10406">
        <ele>384.362</ele>
        <time>2016-09-25T10:06:45.414Z</time>
      </trkpt>
      <trkpt lat="47.22244" lon="6.10406">
        <ele>386.295</ele>
        <time>2016-09-25T10:06:47.957Z</time>
      </trkpt>
      <trkpt lat="47.22232" lon="6.10404">
        <ele>388.027</ele>
        <time>2016-09-25T10:06:50.617Z</time>
      </trkpt>
      <trkpt lat="47.22222" lon="6.10404">
        <ele>389.201</ele>
        <time>2016-09-25T10:06:53.194Z</time>
      </trkpt>
      <trkpt lat="47.22211" lon="6.10404">
        <ele>389.985</ele>
        <time>2016-09-25T10:06:55.812Z</time>
      </trkpt>
      <trkpt lat="47.22198" lon="6.10401">
        <ele>390.936</ele>
        <time>2016-09-25T10:06:58.772Z</time>
      </trkpt>
      <trkpt lat="47.22187" lon="6.10404">
        <ele>391.842</ele>
        <time>2016-09-25T10:07:01.370Z</time>
      </trkpt>
      <trkpt lat="47.22175" lon="6.10401">
        <ele>392.274</ele>
        <time>2016-09-25T10:07:04.325Z</time>
      </trkpt>
      <trkpt lat="47.22159" lon="6.10391">
        <ele>392.322</ele>
        <time>2016-09-25T10:07:07.897Z</time>
      </trkpt>
      <trkpt lat="47.22144" lon="6.10384">
        <ele>392.124</ele>
        <time>2016-09-25T10:07:10.976Z</time>
      </trkpt>
      <trkpt lat="47.22133" lon="6.10377">
        <ele>391.301</ele>
        <time>2016-09-25T10:07:13.562Z</time>
      </trkpt>
      <trkpt lat="47.22123" lon="6.10375">
        <ele>389.766</ele>
        <time>2016-09-25T10:07:16.208Z</time>
      </trkpt>
      <trkpt lat="47.22112" lon="6.10374">
        <ele>388.274</ele>
        <time>2016-09-25T10:07:19.187Z</time>
      </trkpt>
      <trkpt lat="47.22103" lon="6.10373">
        <ele>387.583</ele>
        <time>2016-09-25T10:07:21.999Z</time>
      </trkpt>
      <trkpt lat="47.22103" lon="6.10373">
        <ele>387.542</ele>
        <time>2016-09-25T10:07:30.999Z</time>
      </trkpt>
      <trkpt lat="47.22103" lon="6.10373">
        <ele>387.538</ele>
        <time>2016-09-25T10:11:54.287Z</time>
      </trkpt>
      <trkpt lat="47.22089" lon="6.10402">
        <ele>387.338</ele>
        <time>2016-09-25T10:12:35.999Z</time>
      </trkpt>
      <trkpt lat="47.22089" lon="6.10402">
        <ele>387.168</ele>
        <time>2016-09-25T10:12:39.999Z</time>
      </trkpt>
      <trkpt lat="47.22089" lon="6.10402">
        <ele>387.059</ele>
        <time>2016-09-25T10:12:40.099Z</time>
      </trkpt>
      <trkpt lat="47.22106" lon="6.10387">
        <ele>386.967</ele>
        <time>2016-09-25T10:14:10.996Z</time>
      </trkpt>
      <trkpt lat="47.22106" lon="6.10387">
        <ele>386.877</ele>
        <time>2016-09-25T10:14:14.996Z</time>
      </trkpt>
      <trkpt lat="47.22106" lon="6.10387">
        <ele>386.765</ele>
        <time>2016-09-25T10:20:46.524Z</time>
      </trkpt>
      <trkpt lat="47.22092" lon="6.10402">
        <ele>386.631</ele>
        <time>2016-09-25T10:20:56.968Z</time>
      </trkpt>
      <trkpt lat="47.22087" lon="6.10413">
        <ele>386.898</ele>
        <time>2016-09-25T10:21:00.181Z</time>
      </trkpt>
      <trkpt lat="47.22086" lon="6.10427">
        <ele>387.81</ele>
        <time>2016-09-25T10:21:03.202Z</time>
      </trkpt>
      <trkpt lat="47.22086" lon="6.10442">
        <ele>388.728</ele>
        <time>2016-09-25T10:21:06.088Z</time>
      </trkpt>
      <trkpt lat="47.22087" lon="6.10458">
        <ele>389.057</ele>
        <time>2016-09-25T10:21:09.004Z</time>
      </trkpt>
      <trkpt lat="47.22087" lon="6.10478">
        <ele>388.812</ele>
        <time>2016-09-25T10:21:12.058Z</time>
      </trkpt>
      <trkpt lat="47.22086" lon="6.10491">
        <ele>387.691</ele>
        <time>2016-09-25T10:21:14.084Z</time>
      </trkpt>
      <trkpt lat="47.22087" lon="6.10512">
        <ele>385.786</ele>
        <time>2016-09-25T10:21:17.137Z</time>
      </trkpt>
      <trkpt lat="47.22085" lon="6.10529">
        <ele>384.49</ele>
        <time>2016-09-25T10:21:19.494Z</time>
      </trkpt>
      <trkpt lat="47.22084" lon="6.10543">
        <ele>384.854</ele>
        <time>2016-09-25T10:21:21.408Z</time>
      </trkpt>
      <trkpt lat="47.22078" lon="6.10561">
        <ele>386.237</ele>
        <time>2016-09-25T10:21:24.097Z</time>
      </trkpt>
      <trkpt lat="47.22074" lon="6.1058">
        <ele>387.494</ele>
        <time>2016-09-25T10:21:26.814Z</time>
      </trkpt>
      <trkpt lat="47.22069" lon="6.10596">
        <ele>387.862</ele>
        <time>2016-09-25T10:21:29.361Z</time>
      </trkpt>
      <trkpt lat="47.22066" lon="6.10614">
        <ele>387.296</ele>
        <time>2016-09-25T10:21:32.119Z</time>
      </trkpt>
      <trkpt lat="47.22064" lon="6.10629">
        <ele>386.801</ele>
        <time>2016-09-25T10:21:34.453Z</time>
      </trkpt>
      <trkpt lat="47.22061" lon="6.10645">
        <ele>387.139</ele>
        <time>2016-09-25T10:21:37.138Z</time>
      </trkpt>
      <trkpt lat="47.22058" lon="6.10659">
        <ele>387.595</ele>
        <time>2016-09-25T10:21:39.756Z</time>
      </trkpt>
      <trkpt lat="47.22053" lon="6.10673">
        <ele>387.407</ele>
        <time>2016-09-25T10:21:42.500Z</time>
      </trkpt>
      <trkpt lat="47.22047" lon="6.10692">
        <ele>387.063</ele>
        <time>2016-09-25T10:21:45.744Z</time>
      </trkpt>
      <trkpt lat="47.22042" lon="6.10709">
        <ele>387.195</ele>
        <time>2016-09-25T10:21:48.416Z</time>
      </trkpt>
      <trkpt lat="47.22038" lon="6.10728">
        <ele>387.623</ele>
        <time>2016-09-25T10:21:51.071Z</time>
      </trkpt>
      <trkpt lat="47.22034" lon="6.10745">
        <ele>387.946</ele>
        <time>2016-09-25T10:21:53.602Z</time>
      </trkpt>
      <trkpt lat="47.22028" lon="6.10766">
        <ele>387.998</ele>
        <time>2016-09-25T10:21:56.757Z</time>
      </trkpt>
      <trkpt lat="47.2202" lon="6.10784">
        <ele>387.801</ele>
        <time>2016-09-25T10:21:59.588Z</time>
      </trkpt>
      <trkpt lat="47.22014" lon="6.10795">
        <ele>387.429</ele>
        <time>2016-09-25T10:22:01.370Z</time>
      </trkpt>
      <trkpt lat="47.22006" lon="6.1081">
        <ele>386.932</ele>
        <time>2016-09-25T10:22:03.905Z</time>
      </trkpt>
      <trkpt lat="47.22007" lon="6.10828">
        <ele>386.418</ele>
        <time>2016-09-25T10:22:06.339Z</time>
      </trkpt>
      <trkpt lat="47.22006" lon="6.10844">
        <ele>386.052</ele>
        <time>2016-09-25T10:22:08.751Z</time>
      </trkpt>
      <trkpt lat="47.22004" lon="6.1086">
        <ele>385.867</ele>
        <time>2016-09-25T10:22:11.310Z</time>
      </trkpt>
      <trkpt lat="47.22002" lon="6.10874">
        <ele>385.649</ele>
        <time>2016-09-25T10:22:13.620Z</time>
      </trkpt>
      <trkpt lat="47.21998" lon="6.1089">
        <ele>384.813</ele>
        <time>2016-09-25T10:22:16.636Z</time>
      </trkpt>
      <trkpt lat="47.21995" lon="6.10905">
        <ele>383.289</ele>
        <time>2016-09-25T10:22:19.637Z</time>
      </trkpt>
      <trkpt lat="47.21993" lon="6.10918">
        <ele>382.686</ele>
        <time>2016-09-25T10:22:22.315Z</time>
      </trkpt>
      <trkpt lat="47.21991" lon="6.10933">
        <ele>384.046</ele>
        <time>2016-09-25T10:22:25.372Z</time>
      </trkpt>
      <trkpt lat="47.21992" lon="6.10949">
        <ele>386.007</ele>
        <time>2016-09-25T10:22:28.697Z</time>
      </trkpt>
      <trkpt lat="47.21992" lon="6.10964">
        <ele>387.564</ele>
        <time>2016-09-25T10:22:32.658Z</time>
      </trkpt>
      <trkpt lat="47.21985" lon="6.10973">
        <ele>389.35</ele>
        <time>2016-09-25T10:22:36.736Z</time>
      </trkpt>
      <trkpt lat="47.21976" lon="6.10979">
        <ele>391.46</ele>
        <time>2016-09-25T10:22:42.071Z</time>
      </trkpt>
      <trkpt lat="47.21966" lon="6.1098">
        <ele>393.112</ele>
        <time>2016-09-25T10:22:47.420Z</time>
      </trkpt>
      <trkpt lat="47.21956" lon="6.10979">
        <ele>393.87</ele>
        <time>2016-09-25T10:22:53.091Z</time>
      </trkpt>
      <trkpt lat="47.21946" lon="6.10979">
        <ele>394.282</ele>
        <time>2016-09-25T10:22:58.747Z</time>
      </trkpt>
      <trkpt lat="47.21922" lon="6.10982">
        <ele>395.092</ele>
        <time>2016-09-25T10:23:10.607Z</time>
      </trkpt>
      <trkpt lat="47.21912" lon="6.10987">
        <ele>396.295</ele>
        <time>2016-09-25T10:23:14.944Z</time>
      </trkpt>
      <trkpt lat="47.21903" lon="6.10992">
        <ele>397.367</ele>
        <time>2016-09-25T10:23:18.990Z</time>
      </trkpt>
      <trkpt lat="47.21894" lon="6.10998">
        <ele>397.972</ele>
        <time>2016-09-25T10:23:22.891Z</time>
      </trkpt>
      <trkpt lat="47.21885" lon="6.11007">
        <ele>398.126</ele>
        <time>2016-09-25T10:23:26.981Z</time>
      </trkpt>
      <trkpt lat="47.21876" lon="6.11014">
        <ele>398.079</ele>
        <time>2016-09-25T10:23:30.752Z</time>
      </trkpt>
      <trkpt lat="47.21866" lon="6.11024">
        <ele>397.48</ele>
        <time>2016-09-25T10:23:34.889Z</time>
      </trkpt>
      <trkpt lat="47.21858" lon="6.11033">
        <ele>396.003</ele>
        <time>2016-09-25T10:23:38.416Z</time>
      </trkpt>
      <trkpt lat="47.21848" lon="6.11042">
        <ele>394.358</ele>
        <time>2016-09-25T10:23:42.102Z</time>
      </trkpt>
      <trkpt lat="47.21839" lon="6.11052">
        <ele>393.332</ele>
        <time>2016-09-25T10:23:45.659Z</time>
      </trkpt>
      <trkpt lat="47.21831" lon="6.11059">
        <ele>392.899</ele>
        <time>2016-09-25T10:23:48.558Z</time>
      </trkpt>
      <trkpt lat="47.21823" lon="6.11066">
        <ele>392.973</ele>
        <time>2016-09-25T10:23:51.550Z</time>
      </trkpt>
      <trkpt lat="47.21814" lon="6.11072">
        <ele>393.566</ele>
        <time>2016-09-25T10:23:54.626Z</time>
      </trkpt>
      <trkpt lat="47.21803" lon="6.11076">
        <ele>394.456</ele>
        <time>2016-09-25T10:23:58.138Z</time>
      </trkpt>
      <trkpt lat="47.21793" lon="6.11082">
        <ele>395.406</ele>
        <time>2016-09-25T10:24:01.420Z</time>
      </trkpt>
      <trkpt lat="47.21784" lon="6.11086">
        <ele>396.399</ele>
        <time>2016-09-25T10:24:04.242Z</time>
      </trkpt>
      <trkpt lat="47.21776" lon="6.11094">
        <ele>397.456</ele>
        <time>2016-09-25T10:24:07.104Z</time>
      </trkpt>
      <trkpt lat="47.21766" lon="6.11099">
        <ele>398.595</ele>
        <time>2016-09-25T10:24:10.112Z</time>
      </trkpt>
      <trkpt lat="47.21757" lon="6.11094">
        <ele>399.701</ele>
        <time>2016-09-25T10:24:12.933Z</time>
      </trkpt>
      <trkpt lat="47.21752" lon="6.1108">
        <ele>401.125</ele>
        <time>2016-09-25T10:24:16.039Z</time>
      </trkpt>
      <trkpt lat="47.21744" lon="6.11074">
        <ele>403.162</ele>
        <time>2016-09-25T10:24:19.055Z</time>
      </trkpt>
      <trkpt lat="47.21734" lon="6.11077">
        <ele>404.856</ele>
        <time>2016-09-25T10:24:22.775Z</time>
      </trkpt>
      <trkpt lat="47.21725" lon="6.11081">
        <ele>405.364</ele>
        <time>2016-09-25T10:24:27.167Z</time>
      </trkpt>
      <trkpt lat="47.21715" lon="6.11082">
        <ele>405.312</ele>
        <time>2016-09-25T10:24:32.640Z</time>
      </trkpt>
      <trkpt lat="47.21706" lon="6.11085">
        <ele>405.523</ele>
        <time>2016-09-25T10:24:38.623Z</time>
      </trkpt>
      <trkpt lat="47.21696" lon="6.11091">
        <ele>406.235</ele>
        <time>2016-09-25T10:24:44.838Z</time>
      </trkpt>
      <trkpt lat="47.21686" lon="6.111">
        <ele>407.298</ele>
        <time>2016-09-25T10:24:50.901Z</time>
      </trkpt>
      <trkpt lat="47.21676" lon="6.1111">
        <ele>408.195</ele>
        <time>2016-09-25T10:24:56.759Z</time>
      </trkpt>
      <trkpt lat="47.21667" lon="6.11121">
        <ele>408.287</ele>
        <time>2016-09-25T10:25:02.159Z</time>
      </trkpt>
      <trkpt lat="47.21658" lon="6.11132">
        <ele>407.672</ele>
        <time>2016-09-25T10:25:07.508Z</time>
      </trkpt>
      <trkpt lat="47.2165" lon="6.11145">
        <ele>407.061</ele>
        <time>2016-09-25T10:25:12.375Z</time>
      </trkpt>
      <trkpt lat="47.21641" lon="6.11156">
        <ele>406.827</ele>
        <time>2016-09-25T10:25:17.022Z</time>
      </trkpt>
      <trkpt lat="47.2163" lon="6.11167">
        <ele>406.951</ele>
        <time>2016-09-25T10:25:20.913Z</time>
      </trkpt>
      <trkpt lat="47.21618" lon="6.11177">
        <ele>407.288</ele>
        <time>2016-09-25T10:25:24.553Z</time>
      </trkpt>
      <trkpt lat="47.21609" lon="6.11183">
        <ele>407.565</ele>
        <time>2016-09-25T10:25:27.035Z</time>
      </trkpt>
      <trkpt lat="47.21595" lon="6.1119">
        <ele>407.617</ele>
        <time>2016-09-25T10:25:30.411Z</time>
      </trkpt>
      <trkpt lat="47.21585" lon="6.11189">
        <ele>407.651</ele>
        <time>2016-09-25T10:25:32.718Z</time>
      </trkpt>
      <trkpt lat="47.21572" lon="6.11186">
        <ele>407.874</ele>
        <time>2016-09-25T10:25:35.553Z</time>
      </trkpt>
      <trkpt lat="47.21562" lon="6.11183">
        <ele>408.305</ele>
        <time>2016-09-25T10:25:37.658Z</time>
      </trkpt>
      <trkpt lat="47.21549" lon="6.11175">
        <ele>409.43</ele>
        <time>2016-09-25T10:25:40.396Z</time>
      </trkpt>
      <trkpt lat="47.21536" lon="6.11167">
        <ele>411.504</ele>
        <time>2016-09-25T10:25:43.351Z</time>
      </trkpt>
      <trkpt lat="47.21523" lon="6.11161">
        <ele>413.541</ele>
        <time>2016-09-25T10:25:46.122Z</time>
      </trkpt>
      <trkpt lat="47.21509" lon="6.11157">
        <ele>414.421</ele>
        <time>2016-09-25T10:25:48.952Z</time>
      </trkpt>
      <trkpt lat="47.21499" lon="6.11158">
        <ele>414.119</ele>
        <time>2016-09-25T10:25:50.663Z</time>
      </trkpt>
      <trkpt lat="47.21489" lon="6.11157">
        <ele>413.047</ele>
        <time>2016-09-25T10:25:52.597Z</time>
      </trkpt>
      <trkpt lat="47.21478" lon="6.11156">
        <ele>411.631</ele>
        <time>2016-09-25T10:25:54.559Z</time>
      </trkpt>
      <trkpt lat="47.21462" lon="6.11161">
        <ele>410.377</ele>
        <time>2016-09-25T10:25:57.641Z</time>
      </trkpt>
      <trkpt lat="47.21452" lon="6.11165">
        <ele>409.371</ele>
        <time>2016-09-25T10:25:59.529Z</time>
      </trkpt>
      <trkpt lat="47.21433" lon="6.11166">
        <ele>408.381</ele>
        <time>2016-09-25T10:26:02.738Z</time>
      </trkpt>
      <trkpt lat="47.21422" lon="6.11168">
        <ele>407.701</ele>
        <time>2016-09-25T10:26:04.714Z</time>
      </trkpt>
      <trkpt lat="47.21408" lon="6.11168">
        <ele>407.813</ele>
        <time>2016-09-25T10:26:06.971Z</time>
      </trkpt>
      <trkpt lat="47.21396" lon="6.11172">
        <ele>408.738</ele>
        <time>2016-09-25T10:26:09.052Z</time>
      </trkpt>
      <trkpt lat="47.21379" lon="6.11173">
        <ele>410.175</ele>
        <time>2016-09-25T10:26:11.592Z</time>
      </trkpt>
      <trkpt lat="47.21363" lon="6.11173">
        <ele>411.59</ele>
        <time>2016-09-25T10:26:14.038Z</time>
      </trkpt>
      <trkpt lat="47.21344" lon="6.11171">
        <ele>412.368</ele>
        <time>2016-09-25T10:26:16.851Z</time>
      </trkpt>
      <trkpt lat="47.21331" lon="6.11173">
        <ele>412.292</ele>
        <time>2016-09-25T10:26:18.764Z</time>
      </trkpt>
      <trkpt lat="47.21311" lon="6.11174">
        <ele>411.663</ele>
        <time>2016-09-25T10:26:21.663Z</time>
      </trkpt>
      <trkpt lat="47.21296" lon="6.11172">
        <ele>410.531</ele>
        <time>2016-09-25T10:26:23.858Z</time>
      </trkpt>
      <trkpt lat="47.21284" lon="6.11172">
        <ele>408.87</ele>
        <time>2016-09-25T10:26:25.762Z</time>
      </trkpt>
      <trkpt lat="47.21269" lon="6.1117">
        <ele>407.23</ele>
        <time>2016-09-25T10:26:27.878Z</time>
      </trkpt>
      <trkpt lat="47.21247" lon="6.1117">
        <ele>405.894</ele>
        <time>2016-09-25T10:26:30.955Z</time>
      </trkpt>
      <trkpt lat="47.21227" lon="6.11167">
        <ele>404.224</ele>
        <time>2016-09-25T10:26:33.528Z</time>
      </trkpt>
      <trkpt lat="47.21209" lon="6.11163">
        <ele>402.173</ele>
        <time>2016-09-25T10:26:35.790Z</time>
      </trkpt>
      <trkpt lat="47.21196" lon="6.11161">
        <ele>400.674</ele>
        <time>2016-09-25T10:26:37.410Z</time>
      </trkpt>
      <trkpt lat="47.21182" lon="6.11155">
        <ele>400.482</ele>
        <time>2016-09-25T10:26:39.149Z</time>
      </trkpt>
      <trkpt lat="47.21169" lon="6.11145">
        <ele>401.376</ele>
        <time>2016-09-25T10:26:40.840Z</time>
      </trkpt>
      <trkpt lat="47.21158" lon="6.11138">
        <ele>402.426</ele>
        <time>2016-09-25T10:26:42.323Z</time>
      </trkpt>
      <trkpt lat="47.21142" lon="6.11128">
        <ele>403.011</ele>
        <time>2016-09-25T10:26:44.557Z</time>
      </trkpt>
      <trkpt lat="47.2113" lon="6.11119">
        <ele>403.119</ele>
        <time>2016-09-25T10:26:46.409Z</time>
      </trkpt>
      <trkpt lat="47.21119" lon="6.11114">
        <ele>402.804</ele>
        <time>2016-09-25T10:26:48.294Z</time>
      </trkpt>
      <trkpt lat="47.21101" lon="6.11106">
        <ele>402.221</ele>
        <time>2016-09-25T10:26:51.447Z</time>
      </trkpt>
      <trkpt lat="47.21083" lon="6.11101">
        <ele>401.24</ele>
        <time>2016-09-25T10:26:54.645Z</time>
      </trkpt>
      <trkpt lat="47.21069" lon="6.11098">
        <ele>399.806</ele>
        <time>2016-09-25T10:26:57.225Z</time>
      </trkpt>
      <trkpt lat="47.21049" lon="6.11095">
        <ele>398.588</ele>
        <time>2016-09-25T10:27:00.542Z</time>
      </trkpt>
      <trkpt lat="47.21036" lon="6.11092">
        <ele>398.168</ele>
        <time>2016-09-25T10:27:02.685Z</time>
      </trkpt>
      <trkpt lat="47.21014" lon="6.11079">
        <ele>398.344</ele>
        <time>2016-09-25T10:27:06.323Z</time>
      </trkpt>
      <trkpt lat="47.21001" lon="6.11073">
        <ele>398.658</ele>
        <time>2016-09-25T10:27:08.427Z</time>
      </trkpt>
      <trkpt lat="47.2098" lon="6.11068">
        <ele>398.957</ele>
        <time>2016-09-25T10:27:11.532Z</time>
      </trkpt>
      <trkpt lat="47.2097" lon="6.1107">
        <ele>399.447</ele>
        <time>2016-09-25T10:27:12.912Z</time>
      </trkpt>
      <trkpt lat="47.20951" lon="6.11059">
        <ele>400.114</ele>
        <time>2016-09-25T10:27:15.654Z</time>
      </trkpt>
      <trkpt lat="47.20933" lon="6.11054">
        <ele>400.264</ele>
        <time>2016-09-25T10:27:18.175Z</time>
      </trkpt>
      <trkpt lat="47.20917" lon="6.11048">
        <ele>399.233</ele>
        <time>2016-09-25T10:27:20.428Z</time>
      </trkpt>
      <trkpt lat="47.20905" lon="6.11049">
        <ele>397.518</ele>
        <time>2016-09-25T10:27:21.928Z</time>
      </trkpt>
      <trkpt lat="47.20887" lon="6.11045">
        <ele>396.55</ele>
        <time>2016-09-25T10:27:24.207Z</time>
      </trkpt>
      <trkpt lat="47.20875" lon="6.11039">
        <ele>396.901</ele>
        <time>2016-09-25T10:27:25.792Z</time>
      </trkpt>
      <trkpt lat="47.20859" lon="6.11034">
        <ele>397.628</ele>
        <time>2016-09-25T10:27:28.146Z</time>
      </trkpt>
      <trkpt lat="47.20842" lon="6.11031">
        <ele>397.709</ele>
        <time>2016-09-25T10:27:30.522Z</time>
      </trkpt>
      <trkpt lat="47.20826" lon="6.11029">
        <ele>397.199</ele>
        <time>2016-09-25T10:27:32.910Z</time>
      </trkpt>
      <trkpt lat="47.20817" lon="6.11029">
        <ele>396.948</ele>
        <time>2016-09-25T10:27:34.317Z</time>
      </trkpt>
      <trkpt lat="47.208" lon="6.11024">
        <ele>397.428</ele>
        <time>2016-09-25T10:27:36.916Z</time>
      </trkpt>
      <trkpt lat="47.2079" lon="6.1102">
        <ele>398.213</ele>
        <time>2016-09-25T10:27:38.552Z</time>
      </trkpt>
      <trkpt lat="47.20774" lon="6.11021">
        <ele>398.845</ele>
        <time>2016-09-25T10:27:41.096Z</time>
      </trkpt>
      <trkpt lat="47.20767" lon="6.11035">
        <ele>399.296</ele>
        <time>2016-09-25T10:27:42.836Z</time>
      </trkpt>
      <trkpt lat="47.20762" lon="6.11048">
        <ele>399.579</ele>
        <time>2016-09-25T10:27:44.393Z</time>
      </trkpt>
      <trkpt lat="47.2076" lon="6.11064">
        <ele>399.704</ele>
        <time>2016-09-25T10:27:46.140Z</time>
      </trkpt>
      <trkpt lat="47.20757" lon="6.11083">
        <ele>399.908</ele>
        <time>2016-09-25T10:27:48.173Z</time>
      </trkpt>
      <trkpt lat="47.20753" lon="6.11101">
        <ele>400.426</ele>
        <time>2016-09-25T10:27:50.218Z</time>
      </trkpt>
      <trkpt lat="47.20747" lon="6.11112">
        <ele>401.024</ele>
        <time>2016-09-25T10:27:51.753Z</time>
      </trkpt>
      <trkpt lat="47.20742" lon="6.11127">
        <ele>401.357</ele>
        <time>2016-09-25T10:27:53.608Z</time>
      </trkpt>
      <trkpt lat="47.2074" lon="6.11146">
        <ele>401.427</ele>
        <time>2016-09-25T10:27:55.830Z</time>
      </trkpt>
      <trkpt lat="47.20739" lon="6.11164">
        <ele>401.354</ele>
        <time>2016-09-25T10:27:57.966Z</time>
      </trkpt>
      <trkpt lat="47.20737" lon="6.11179">
        <ele>401.362</ele>
        <time>2016-09-25T10:27:59.746Z</time>
      </trkpt>
      <trkpt lat="47.20736" lon="6.11198">
        <ele>401.43</ele>
        <time>2016-09-25T10:28:02.140Z</time>
      </trkpt>
      <trkpt lat="47.20734" lon="6.11217">
        <ele>401.176</ele>
        <time>2016-09-25T10:28:04.922Z</time>
      </trkpt>
      <trkpt lat="47.20732" lon="6.11234">
        <ele>400.609</ele>
        <time>2016-09-25T10:28:07.875Z</time>
      </trkpt>
      <trkpt lat="47.20732" lon="6.11251">
        <ele>400.423</ele>
        <time>2016-09-25T10:28:10.758Z</time>
      </trkpt>
      <trkpt lat="47.20732" lon="6.11266">
        <ele>400.931</ele>
        <time>2016-09-25T10:28:13.056Z</time>
      </trkpt>
      <trkpt lat="47.2073" lon="6.11279">
        <ele>401.632</ele>
        <time>2016-09-25T10:28:14.987Z</time>
      </trkpt>
      <trkpt lat="47.20737" lon="6.11292">
        <ele>402.051</ele>
        <time>2016-09-25T10:28:17.405Z</time>
      </trkpt>
      <trkpt lat="47.2074" lon="6.11306">
        <ele>402.338</ele>
        <time>2016-09-25T10:28:19.414Z</time>
      </trkpt>
      <trkpt lat="47.20743" lon="6.1132">
        <ele>402.663</ele>
        <time>2016-09-25T10:28:21.579Z</time>
      </trkpt>
      <trkpt lat="47.20748" lon="6.11333">
        <ele>402.773</ele>
        <time>2016-09-25T10:28:23.712Z</time>
      </trkpt>
      <trkpt lat="47.20752" lon="6.11346">
        <ele>402.169</ele>
        <time>2016-09-25T10:28:25.841Z</time>
      </trkpt>
      <trkpt lat="47.20756" lon="6.11366">
        <ele>400.951</ele>
        <time>2016-09-25T10:28:28.887Z</time>
      </trkpt>
      <trkpt lat="47.20758" lon="6.11384">
        <ele>400.12</ele>
        <time>2016-09-25T10:28:31.353Z</time>
      </trkpt>
      <trkpt lat="47.2076" lon="6.11402">
        <ele>400.391</ele>
        <time>2016-09-25T10:28:33.782Z</time>
      </trkpt>
      <trkpt lat="47.20757" lon="6.11417">
        <ele>401.56</ele>
        <time>2016-09-25T10:28:35.907Z</time>
      </trkpt>
      <trkpt lat="47.20755" lon="6.1143">
        <ele>402.978</ele>
        <time>2016-09-25T10:28:37.795Z</time>
      </trkpt>
      <trkpt lat="47.20758" lon="6.11453">
        <ele>403.519</ele>
        <time>2016-09-25T10:28:41.021Z</time>
      </trkpt>
      <trkpt lat="47.20761" lon="6.11471">
        <ele>402.68</ele>
        <time>2016-09-25T10:28:43.738Z</time>
      </trkpt>
      <trkpt lat="47.20765" lon="6.11489">
        <ele>401.539</ele>
        <time>2016-09-25T10:28:46.364Z</time>
      </trkpt>
      <trkpt lat="47.20773" lon="6.11506">
        <ele>401.259</ele>
        <time>2016-09-25T10:28:49.803Z</time>
      </trkpt>
      <trkpt lat="47.20776" lon="6.11522">
        <ele>402.035</ele>
        <time>2016-09-25T10:28:53.085Z</time>
      </trkpt>
      <trkpt lat="47.20781" lon="6.11533">
        <ele>403.501</ele>
        <time>2016-09-25T10:28:56.142Z</time>
      </trkpt>
      <trkpt lat="47.20791" lon="6.11536">
        <ele>405.332</ele>
        <time>2016-09-25T10:28:58.966Z</time>
      </trkpt>
      <trkpt lat="47.20801" lon="6.11536">
        <ele>407.28</ele>
        <time>2016-09-25T10:29:01.445Z</time>
      </trkpt>
      <trkpt lat="47.20811" lon="6.11536">
        <ele>408.994</ele>
        <time>2016-09-25T10:29:03.847Z</time>
      </trkpt>
      <trkpt lat="47.20822" lon="6.11535">
        <ele>410.597</ele>
        <time>2016-09-25T10:29:06.554Z</time>
      </trkpt>
      <trkpt lat="47.20832" lon="6.11535">
        <ele>412.32</ele>
        <time>2016-09-25T10:29:09.315Z</time>
      </trkpt>
      <trkpt lat="47.20841" lon="6.11539">
        <ele>413.652</ele>
        <time>2016-09-25T10:29:12.570Z</time>
      </trkpt>
      <trkpt lat="47.20849" lon="6.11551">
        <ele>414.095</ele>
        <time>2016-09-25T10:29:17.623Z</time>
      </trkpt>
      <trkpt lat="47.20852" lon="6.11565">
        <ele>413.681</ele>
        <time>2016-09-25T10:29:22.619Z</time>
      </trkpt>
      <trkpt lat="47.20855" lon="6.11581">
        <ele>412.832</ele>
        <time>2016-09-25T10:29:27.665Z</time>
      </trkpt>
      <trkpt lat="47.20852" lon="6.11595">
        <ele>412.15</ele>
        <time>2016-09-25T10:29:31.349Z</time>
      </trkpt>
      <trkpt lat="47.20852" lon="6.11612">
        <ele>411.839</ele>
        <time>2016-09-25T10:29:34.717Z</time>
      </trkpt>
      <trkpt lat="47.20853" lon="6.1163">
        <ele>411.644</ele>
        <time>2016-09-25T10:29:38.435Z</time>
      </trkpt>
      <trkpt lat="47.20858" lon="6.11648">
        <ele>411.372</ele>
        <time>2016-09-25T10:29:42.991Z</time>
      </trkpt>
      <trkpt lat="47.20864" lon="6.11659">
        <ele>410.696</ele>
        <time>2016-09-25T10:29:47.150Z</time>
      </trkpt>
      <trkpt lat="47.20875" lon="6.11668">
        <ele>409.424</ele>
        <time>2016-09-25T10:29:52.397Z</time>
      </trkpt>
      <trkpt lat="47.20886" lon="6.11675">
        <ele>408.081</ele>
        <time>2016-09-25T10:29:56.762Z</time>
      </trkpt>
      <trkpt lat="47.2089" lon="6.11691">
        <ele>407.285</ele>
        <time>2016-09-25T10:30:01.009Z</time>
      </trkpt>
      <trkpt lat="47.20886" lon="6.11706">
        <ele>407.142</ele>
        <time>2016-09-25T10:30:05.064Z</time>
      </trkpt>
      <trkpt lat="47.20881" lon="6.11718">
        <ele>407.683</ele>
        <time>2016-09-25T10:30:08.881Z</time>
      </trkpt>
      <trkpt lat="47.20877" lon="6.11732">
        <ele>408.64</ele>
        <time>2016-09-25T10:30:12.729Z</time>
      </trkpt>
      <trkpt lat="47.20878" lon="6.11747">
        <ele>409.357</ele>
        <time>2016-09-25T10:30:16.298Z</time>
      </trkpt>
      <trkpt lat="47.20879" lon="6.11761">
        <ele>409.503</ele>
        <time>2016-09-25T10:30:19.379Z</time>
      </trkpt>
      <trkpt lat="47.20883" lon="6.11775">
        <ele>409.379</ele>
        <time>2016-09-25T10:30:22.481Z</time>
      </trkpt>
      <trkpt lat="47.20885" lon="6.11792">
        <ele>409.758</ele>
        <time>2016-09-25T10:30:25.675Z</time>
      </trkpt>
      <trkpt lat="47.20887" lon="6.1181">
        <ele>410.949</ele>
        <time>2016-09-25T10:30:29.005Z</time>
      </trkpt>
      <trkpt lat="47.20886" lon="6.11824">
        <ele>412.055</ele>
        <time>2016-09-25T10:30:31.658Z</time>
      </trkpt>
      <trkpt lat="47.20881" lon="6.11836">
        <ele>412.221</ele>
        <time>2016-09-25T10:30:34.778Z</time>
      </trkpt>
      <trkpt lat="47.20879" lon="6.1185">
        <ele>411.745</ele>
        <time>2016-09-25T10:30:38.201Z</time>
      </trkpt>
      <trkpt lat="47.2088" lon="6.11865">
        <ele>411.565</ele>
        <time>2016-09-25T10:30:41.902Z</time>
      </trkpt>
      <trkpt lat="47.20883" lon="6.11878">
        <ele>412.14</ele>
        <time>2016-09-25T10:30:46.865Z</time>
      </trkpt>
      <trkpt lat="47.20885" lon="6.11892">
        <ele>412.933</ele>
        <time>2016-09-25T10:30:52.857Z</time>
      </trkpt>
      <trkpt lat="47.20888" lon="6.11906">
        <ele>413.514</ele>
        <time>2016-09-25T10:30:58.810Z</time>
      </trkpt>
      <trkpt lat="47.20887" lon="6.1193">
        <ele>414</ele>
        <time>2016-09-25T10:31:13.798Z</time>
      </trkpt>
      <trkpt lat="47.20885" lon="6.11951">
        <ele>414.298</ele>
        <time>2016-09-25T10:31:25.182Z</time>
      </trkpt>
      <trkpt lat="47.20882" lon="6.11967">
        <ele>414.214</ele>
        <time>2016-09-25T10:31:30.764Z</time>
      </trkpt>
      <trkpt lat="47.20879" lon="6.11981">
        <ele>413.95</ele>
        <time>2016-09-25T10:31:34.205Z</time>
      </trkpt>
      <trkpt lat="47.20881" lon="6.11994">
        <ele>414.295</ele>
        <time>2016-09-25T10:31:37.503Z</time>
      </trkpt>
      <trkpt lat="47.20882" lon="6.12011">
        <ele>415.55</ele>
        <time>2016-09-25T10:31:42.521Z</time>
      </trkpt>
      <trkpt lat="47.2088" lon="6.12024">
        <ele>416.51</ele>
        <time>2016-09-25T10:31:47.290Z</time>
      </trkpt>
      <trkpt lat="47.20885" lon="6.12036">
        <ele>416.081</ele>
        <time>2016-09-25T10:31:52.794Z</time>
      </trkpt>
      <trkpt lat="47.20888" lon="6.12052">
        <ele>414.837</ele>
        <time>2016-09-25T10:31:58.876Z</time>
      </trkpt>
      <trkpt lat="47.20889" lon="6.12068">
        <ele>413.858</ele>
        <time>2016-09-25T10:32:03.288Z</time>
      </trkpt>
      <trkpt lat="47.2089" lon="6.12084">
        <ele>413.496</ele>
        <time>2016-09-25T10:32:05.945Z</time>
      </trkpt>
      <trkpt lat="47.20889" lon="6.121">
        <ele>413.807</ele>
        <time>2016-09-25T10:32:09.157Z</time>
      </trkpt>
      <trkpt lat="47.20888" lon="6.12117">
        <ele>414.808</ele>
        <time>2016-09-25T10:32:13.017Z</time>
      </trkpt>
      <trkpt lat="47.20886" lon="6.12132">
        <ele>416.223</ele>
        <time>2016-09-25T10:32:17.911Z</time>
      </trkpt>
      <trkpt lat="47.20882" lon="6.1215">
        <ele>417.757</ele>
        <time>2016-09-25T10:32:25.578Z</time>
      </trkpt>
      <trkpt lat="47.2088" lon="6.12173">
        <ele>419.267</ele>
        <time>2016-09-25T10:32:32.379Z</time>
      </trkpt>
      <trkpt lat="47.20877" lon="6.12187">
        <ele>420.45</ele>
        <time>2016-09-25T10:32:36.903Z</time>
      </trkpt>
      <trkpt lat="47.2087" lon="6.12199">
        <ele>420.919</ele>
        <time>2016-09-25T10:32:41.538Z</time>
      </trkpt>
      <trkpt lat="47.20863" lon="6.1221">
        <ele>420.557</ele>
        <time>2016-09-25T10:32:45.929Z</time>
      </trkpt>
      <trkpt lat="47.20855" lon="6.12219">
        <ele>418.974</ele>
        <time>2016-09-25T10:32:50.186Z</time>
      </trkpt>
      <trkpt lat="47.20848" lon="6.12234">
        <ele>415.483</ele>
        <time>2016-09-25T10:32:54.683Z</time>
      </trkpt>
      <trkpt lat="47.20853" lon="6.12253">
        <ele>411.033</ele>
        <time>2016-09-25T10:32:58.881Z</time>
      </trkpt>
      <trkpt lat="47.20858" lon="6.12265">
        <ele>408.51</ele>
        <time>2016-09-25T10:33:01.205Z</time>
      </trkpt>
      <trkpt lat="47.2086" lon="6.1228">
        <ele>409.245</ele>
        <time>2016-09-25T10:33:03.534Z</time>
      </trkpt>
      <trkpt lat="47.20862" lon="6.12294">
        <ele>411.608</ele>
        <time>2016-09-25T10:33:05.565Z</time>
      </trkpt>
      <trkpt lat="47.20857" lon="6.12308">
        <ele>413.574</ele>
        <time>2016-09-25T10:33:07.641Z</time>
      </trkpt>
      <trkpt lat="47.2085" lon="6.12321">
        <ele>414.555</ele>
        <time>2016-09-25T10:33:10.062Z</time>
      </trkpt>
      <trkpt lat="47.20851" lon="6.12335">
        <ele>415.037</ele>
        <time>2016-09-25T10:33:12.109Z</time>
      </trkpt>
      <trkpt lat="47.20854" lon="6.12349">
        <ele>415.403</ele>
        <time>2016-09-25T10:33:14.507Z</time>
      </trkpt>
      <trkpt lat="47.2086" lon="6.12363">
        <ele>415.625</ele>
        <time>2016-09-25T10:33:17.117Z</time>
      </trkpt>
      <trkpt lat="47.2087" lon="6.12378">
        <ele>415.918</ele>
        <time>2016-09-25T10:33:20.210Z</time>
      </trkpt>
      <trkpt lat="47.20876" lon="6.1239">
        <ele>416.431</ele>
        <time>2016-09-25T10:33:22.308Z</time>
      </trkpt>
      <trkpt lat="47.20881" lon="6.12405">
        <ele>416.851</ele>
        <time>2016-09-25T10:33:25.302Z</time>
      </trkpt>
      <trkpt lat="47.20883" lon="6.12421">
        <ele>417.026</ele>
        <time>2016-09-25T10:33:28.482Z</time>
      </trkpt>
      <trkpt lat="47.20884" lon="6.12435">
        <ele>417.056</ele>
        <time>2016-09-25T10:33:31.934Z</time>
      </trkpt>
      <trkpt lat="47.20879" lon="6.12449">
        <ele>417.482</ele>
        <time>2016-09-25T10:33:36.035Z</time>
      </trkpt>
      <trkpt lat="47.20871" lon="6.12461">
        <ele>419.061</ele>
        <time>2016-09-25T10:33:39.788Z</time>
      </trkpt>
      <trkpt lat="47.20866" lon="6.12475">
        <ele>421.561</ele>
        <time>2016-09-25T10:33:42.765Z</time>
      </trkpt>
      <trkpt lat="47.20873" lon="6.12486">
        <ele>423.944</ele>
        <time>2016-09-25T10:33:45.117Z</time>
      </trkpt>
      <trkpt lat="47.20883" lon="6.12488">
        <ele>425.583</ele>
        <time>2016-09-25T10:33:47.603Z</time>
      </trkpt>
      <trkpt lat="47.20891" lon="6.12499">
        <ele>426.359</ele>
        <time>2016-09-25T10:33:50.736Z</time>
      </trkpt>
      <trkpt lat="47.20895" lon="6.12512">
        <ele>426.607</ele>
        <time>2016-09-25T10:33:54.221Z</time>
      </trkpt>
      <trkpt lat="47.20901" lon="6.12527">
        <ele>426.815</ele>
        <time>2016-09-25T10:33:58.729Z</time>
      </trkpt>
      <trkpt lat="47.20905" lon="6.12542">
        <ele>426.71</ele>
        <time>2016-09-25T10:34:02.882Z</time>
      </trkpt>
      <trkpt lat="47.20905" lon="6.12557">
        <ele>425.752</ele>
        <time>2016-09-25T10:34:06.877Z</time>
      </trkpt>
      <trkpt lat="47.20904" lon="6.12572">
        <ele>424.048</ele>
        <time>2016-09-25T10:34:11.428Z</time>
      </trkpt>
      <trkpt lat="47.20904" lon="6.12588">
        <ele>422.205</ele>
        <time>2016-09-25T10:34:16.205Z</time>
      </trkpt>
      <trkpt lat="47.20904" lon="6.12604">
        <ele>420.849</ele>
        <time>2016-09-25T10:34:20.563Z</time>
      </trkpt>
      <trkpt lat="47.20904" lon="6.12619">
        <ele>420.273</ele>
        <time>2016-09-25T10:34:24.325Z</time>
      </trkpt>
      <trkpt lat="47.20904" lon="6.12636">
        <ele>420.675</ele>
        <time>2016-09-25T10:34:27.878Z</time>
      </trkpt>
      <trkpt lat="47.20905" lon="6.1265">
        <ele>421.93</ele>
        <time>2016-09-25T10:34:30.699Z</time>
      </trkpt>
      <trkpt lat="47.20905" lon="6.12685">
        <ele>422.893</ele>
        <time>2016-09-25T10:34:37.390Z</time>
      </trkpt>
      <trkpt lat="47.20903" lon="6.12707">
        <ele>422.062</ele>
        <time>2016-09-25T10:34:41.601Z</time>
      </trkpt>
      <trkpt lat="47.20897" lon="6.12738">
        <ele>419.496</ele>
        <time>2016-09-25T10:34:47.641Z</time>
      </trkpt>
      <trkpt lat="47.20895" lon="6.12753">
        <ele>416.87</ele>
        <time>2016-09-25T10:34:49.960Z</time>
      </trkpt>
      <trkpt lat="47.20893" lon="6.12769">
        <ele>415.485</ele>
        <time>2016-09-25T10:34:52.082Z</time>
      </trkpt>
      <trkpt lat="47.20891" lon="6.12785">
        <ele>415.491</ele>
        <time>2016-09-25T10:34:53.946Z</time>
      </trkpt>
      <trkpt lat="47.20889" lon="6.128">
        <ele>416.518</ele>
        <time>2016-09-25T10:34:55.524Z</time>
      </trkpt>
      <trkpt lat="47.20889" lon="6.12814">
        <ele>418.029</ele>
        <time>2016-09-25T10:34:56.910Z</time>
      </trkpt>
      <trkpt lat="47.20888" lon="6.12829">
        <ele>419.639</ele>
        <time>2016-09-25T10:34:58.592Z</time>
      </trkpt>
      <trkpt lat="47.20885" lon="6.12845">
        <ele>421.146</ele>
        <time>2016-09-25T10:35:00.919Z</time>
      </trkpt>
      <trkpt lat="47.2088" lon="6.1286">
        <ele>422.365</ele>
        <time>2016-09-25T10:35:03.802Z</time>
      </trkpt>
      <trkpt lat="47.20876" lon="6.12876">
        <ele>423.189</ele>
        <time>2016-09-25T10:35:06.947Z</time>
      </trkpt>
      <trkpt lat="47.20872" lon="6.12892">
        <ele>423.545</ele>
        <time>2016-09-25T10:35:10.343Z</time>
      </trkpt>
      <trkpt lat="47.20867" lon="6.12907">
        <ele>423.489</ele>
        <time>2016-09-25T10:35:13.830Z</time>
      </trkpt>
      <trkpt lat="47.20862" lon="6.1292">
        <ele>423.183</ele>
        <time>2016-09-25T10:35:17.307Z</time>
      </trkpt>
      <trkpt lat="47.20857" lon="6.12934">
        <ele>422.89</ele>
        <time>2016-09-25T10:35:21.078Z</time>
      </trkpt>
      <trkpt lat="47.20852" lon="6.12948">
        <ele>422.959</ele>
        <time>2016-09-25T10:35:25.002Z</time>
      </trkpt>
      <trkpt lat="47.20845" lon="6.12961">
        <ele>423.465</ele>
        <time>2016-09-25T10:35:28.713Z</time>
      </trkpt>
      <trkpt lat="47.2084" lon="6.12974">
        <ele>423.851</ele>
        <time>2016-09-25T10:35:32.294Z</time>
      </trkpt>
      <trkpt lat="47.20833" lon="6.1299">
        <ele>423.642</ele>
        <time>2016-09-25T10:35:36.085Z</time>
      </trkpt>
      <trkpt lat="47.20827" lon="6.13007">
        <ele>422.948</ele>
        <time>2016-09-25T10:35:39.938Z</time>
      </trkpt>
      <trkpt lat="47.20822" lon="6.13018">
        <ele>421.866</ele>
        <time>2016-09-25T10:35:42.707Z</time>
      </trkpt>
      <trkpt lat="47.20816" lon="6.1303">
        <ele>420.609</ele>
        <time>2016-09-25T10:35:45.524Z</time>
      </trkpt>
      <trkpt lat="47.20811" lon="6.13045">
        <ele>419.605</ele>
        <time>2016-09-25T10:35:49.033Z</time>
      </trkpt>
      <trkpt lat="47.20802" lon="6.13059">
        <ele>419.042</ele>
        <time>2016-09-25T10:35:52.441Z</time>
      </trkpt>
      <trkpt lat="47.20795" lon="6.13074">
        <ele>418.869</ele>
        <time>2016-09-25T10:35:55.494Z</time>
      </trkpt>
      <trkpt lat="47.20793" lon="6.13087">
        <ele>419.14</ele>
        <time>2016-09-25T10:35:57.614Z</time>
      </trkpt>
      <trkpt lat="47.20788" lon="6.13103">
        <ele>420.784</ele>
        <time>2016-09-25T10:36:00.310Z</time>
      </trkpt>
      <trkpt lat="47.2078" lon="6.13111">
        <ele>424.069</ele>
        <time>2016-09-25T10:36:03.116Z</time>
      </trkpt>
      <trkpt lat="47.20769" lon="6.1312">
        <ele>427.16</ele>
        <time>2016-09-25T10:36:06.946Z</time>
      </trkpt>
      <trkpt lat="47.20761" lon="6.13127">
        <ele>428.231</ele>
        <time>2016-09-25T10:36:09.604Z</time>
      </trkpt>
      <trkpt lat="47.20749" lon="6.13137">
        <ele>427.473</ele>
        <time>2016-09-25T10:36:13.070Z</time>
      </trkpt>
      <trkpt lat="47.20737" lon="6.13143">
        <ele>426.194</ele>
        <time>2016-09-25T10:36:16.853Z</time>
      </trkpt>
      <trkpt lat="47.20727" lon="6.13143">
        <ele>425.27</ele>
        <time>2016-09-25T10:36:19.990Z</time>
      </trkpt>
      <trkpt lat="47.20712" lon="6.13143">
        <ele>424.583</ele>
        <time>2016-09-25T10:36:24.636Z</time>
      </trkpt>
      <trkpt lat="47.20703" lon="6.13142">
        <ele>423.957</ele>
        <time>2016-09-25T10:36:27.037Z</time>
      </trkpt>
      <trkpt lat="47.20692" lon="6.1314">
        <ele>423.453</ele>
        <time>2016-09-25T10:36:29.769Z</time>
      </trkpt>
      <trkpt lat="47.20681" lon="6.13141">
        <ele>423.282</ele>
        <time>2016-09-25T10:36:32.246Z</time>
      </trkpt>
      <trkpt lat="47.2067" lon="6.13143">
        <ele>423.506</ele>
        <time>2016-09-25T10:36:34.565Z</time>
      </trkpt>
      <trkpt lat="47.20659" lon="6.13145">
        <ele>423.824</ele>
        <time>2016-09-25T10:36:36.791Z</time>
      </trkpt>
      <trkpt lat="47.20648" lon="6.13149">
        <ele>423.936</ele>
        <time>2016-09-25T10:36:38.990Z</time>
      </trkpt>
      <trkpt lat="47.20637" lon="6.13153">
        <ele>423.884</ele>
        <time>2016-09-25T10:36:41.414Z</time>
      </trkpt>
      <trkpt lat="47.20626" lon="6.13159">
        <ele>423.923</ele>
        <time>2016-09-25T10:36:44.013Z</time>
      </trkpt>
      <trkpt lat="47.20615" lon="6.13164">
        <ele>424.179</ele>
        <time>2016-09-25T10:36:46.767Z</time>
      </trkpt>
      <trkpt lat="47.20603" lon="6.13169">
        <ele>424.498</ele>
        <time>2016-09-25T10:36:49.758Z</time>
      </trkpt>
      <trkpt lat="47.20592" lon="6.13172">
        <ele>424.759</ele>
        <time>2016-09-25T10:36:52.589Z</time>
      </trkpt>
      <trkpt lat="47.20581" lon="6.13176">
        <ele>425.117</ele>
        <time>2016-09-25T10:36:55.236Z</time>
      </trkpt>
      <trkpt lat="47.20573" lon="6.13182">
        <ele>425.669</ele>
        <time>2016-09-25T10:36:57.374Z</time>
      </trkpt>
      <trkpt lat="47.20563" lon="6.13186">
        <ele>426.88</ele>
        <time>2016-09-25T10:36:59.685Z</time>
      </trkpt>
      <trkpt lat="47.20553" lon="6.13185">
        <ele>429.405</ele>
        <time>2016-09-25T10:37:01.985Z</time>
      </trkpt>
      <trkpt lat="47.20542" lon="6.13183">
        <ele>432.489</ele>
        <time>2016-09-25T10:37:04.742Z</time>
      </trkpt>
      <trkpt lat="47.2053" lon="6.13184">
        <ele>434.619</ele>
        <time>2016-09-25T10:37:07.352Z</time>
      </trkpt>
      <trkpt lat="47.20521" lon="6.1319">
        <ele>435.664</ele>
        <time>2016-09-25T10:37:09.637Z</time>
      </trkpt>
      <trkpt lat="47.2051" lon="6.13192">
        <ele>436.726</ele>
        <time>2016-09-25T10:37:12.210Z</time>
      </trkpt>
      <trkpt lat="47.20501" lon="6.13192">
        <ele>438.288</ele>
        <time>2016-09-25T10:37:14.414Z</time>
      </trkpt>
      <trkpt lat="47.20487" lon="6.13191">
        <ele>439.637</ele>
        <time>2016-09-25T10:37:17.598Z</time>
      </trkpt>
      <trkpt lat="47.20478" lon="6.13196">
        <ele>439.388</ele>
        <time>2016-09-25T10:37:19.987Z</time>
      </trkpt>
      <trkpt lat="47.20469" lon="6.13202">
        <ele>436.72</ele>
        <time>2016-09-25T10:37:22.750Z</time>
      </trkpt>
      <trkpt lat="47.2046" lon="6.13205">
        <ele>432.883</ele>
        <time>2016-09-25T10:37:25.286Z</time>
      </trkpt>
      <trkpt lat="47.2045" lon="6.13208">
        <ele>430.172</ele>
        <time>2016-09-25T10:37:27.948Z</time>
      </trkpt>
      <trkpt lat="47.2044" lon="6.13215">
        <ele>429.053</ele>
        <time>2016-09-25T10:37:31.187Z</time>
      </trkpt>
      <trkpt lat="47.20428" lon="6.13218">
        <ele>428.662</ele>
        <time>2016-09-25T10:37:35.071Z</time>
      </trkpt>
      <trkpt lat="47.20419" lon="6.13221">
        <ele>428.602</ele>
        <time>2016-09-25T10:37:38.390Z</time>
      </trkpt>
      <trkpt lat="47.20407" lon="6.13227">
        <ele>428.938</ele>
        <time>2016-09-25T10:37:42.097Z</time>
      </trkpt>
      <trkpt lat="47.20396" lon="6.13236">
        <ele>429.492</ele>
        <time>2016-09-25T10:37:46.088Z</time>
      </trkpt>
      <trkpt lat="47.20388" lon="6.13245">
        <ele>429.36</ele>
        <time>2016-09-25T10:37:49.606Z</time>
      </trkpt>
      <trkpt lat="47.2038" lon="6.13252">
        <ele>428.063</ele>
        <time>2016-09-25T10:37:53.105Z</time>
      </trkpt>
      <trkpt lat="47.20374" lon="6.13265">
        <ele>426.714</ele>
        <time>2016-09-25T10:37:56.926Z</time>
      </trkpt>
      <trkpt lat="47.20371" lon="6.13278">
        <ele>426.652</ele>
        <time>2016-09-25T10:38:00.169Z</time>
      </trkpt>
      <trkpt lat="47.20369" lon="6.13293">
        <ele>427.958</ele>
        <time>2016-09-25T10:38:03.747Z</time>
      </trkpt>
      <trkpt lat="47.20365" lon="6.1331">
        <ele>430.02</ele>
        <time>2016-09-25T10:38:08.022Z</time>
      </trkpt>
      <trkpt lat="47.20357" lon="6.13321">
        <ele>432.346</ele>
        <time>2016-09-25T10:38:11.553Z</time>
      </trkpt>
      <trkpt lat="47.20348" lon="6.13326">
        <ele>434.557</ele>
        <time>2016-09-25T10:38:14.727Z</time>
      </trkpt>
      <trkpt lat="47.20343" lon="6.13338">
        <ele>436.476</ele>
        <time>2016-09-25T10:38:18.207Z</time>
      </trkpt>
      <trkpt lat="47.20336" lon="6.13354">
        <ele>438.493</ele>
        <time>2016-09-25T10:38:22.425Z</time>
      </trkpt>
      <trkpt lat="47.20333" lon="6.13372">
        <ele>441.186</ele>
        <time>2016-09-25T10:38:26.727Z</time>
      </trkpt>
      <trkpt lat="47.20331" lon="6.13387">
        <ele>444.154</ele>
        <time>2016-09-25T10:38:30.270Z</time>
      </trkpt>
      <trkpt lat="47.20329" lon="6.134">
        <ele>446.172</ele>
        <time>2016-09-25T10:38:33.565Z</time>
      </trkpt>
      <trkpt lat="47.20326" lon="6.13413">
        <ele>446.242</ele>
        <time>2016-09-25T10:38:36.993Z</time>
      </trkpt>
      <trkpt lat="47.20322" lon="6.13435">
        <ele>444.09</ele>
        <time>2016-09-25T10:38:44.161Z</time>
      </trkpt>
      <trkpt lat="47.20319" lon="6.13451">
        <ele>440.665</ele>
        <time>2016-09-25T10:38:50.040Z</time>
      </trkpt>
      <trkpt lat="47.20317" lon="6.13474">
        <ele>437.982</ele>
        <time>2016-09-25T10:38:56.241Z</time>
      </trkpt>
      <trkpt lat="47.20317" lon="6.13493">
        <ele>437.044</ele>
        <time>2016-09-25T10:38:59.753Z</time>
      </trkpt>
      <trkpt lat="47.20314" lon="6.13509">
        <ele>437.322</ele>
        <time>2016-09-25T10:39:02.657Z</time>
      </trkpt>
      <trkpt lat="47.20309" lon="6.13524">
        <ele>438.063</ele>
        <time>2016-09-25T10:39:05.182Z</time>
      </trkpt>
      <trkpt lat="47.20305" lon="6.13539">
        <ele>438.79</ele>
        <time>2016-09-25T10:39:07.335Z</time>
      </trkpt>
      <trkpt lat="47.20302" lon="6.13555">
        <ele>439.218</ele>
        <time>2016-09-25T10:39:09.527Z</time>
      </trkpt>
      <trkpt lat="47.20296" lon="6.13571">
        <ele>439.561</ele>
        <time>2016-09-25T10:39:12.109Z</time>
      </trkpt>
      <trkpt lat="47.20291" lon="6.13586">
        <ele>440.119</ele>
        <time>2016-09-25T10:39:14.426Z</time>
      </trkpt>
      <trkpt lat="47.20284" lon="6.13619">
        <ele>440.414</ele>
        <time>2016-09-25T10:39:19.785Z</time>
      </trkpt>
      <trkpt lat="47.20277" lon="6.13653">
        <ele>439.651</ele>
        <time>2016-09-25T10:39:25.354Z</time>
      </trkpt>
      <trkpt lat="47.20272" lon="6.13665">
        <ele>438.084</ele>
        <time>2016-09-25T10:39:27.448Z</time>
      </trkpt>
      <trkpt lat="47.20265" lon="6.13677">
        <ele>436.628</ele>
        <time>2016-09-25T10:39:29.339Z</time>
      </trkpt>
      <trkpt lat="47.20259" lon="6.1369">
        <ele>435.717</ele>
        <time>2016-09-25T10:39:31.075Z</time>
      </trkpt>
      <trkpt lat="47.20259" lon="6.13706">
        <ele>435.085</ele>
        <time>2016-09-25T10:39:32.648Z</time>
      </trkpt>
      <trkpt lat="47.20268" lon="6.13716">
        <ele>434.434</ele>
        <time>2016-09-25T10:39:34.211Z</time>
      </trkpt>
      <trkpt lat="47.20277" lon="6.13725">
        <ele>433.766</ele>
        <time>2016-09-25T10:39:35.805Z</time>
      </trkpt>
      <trkpt lat="47.20287" lon="6.13736">
        <ele>432.998</ele>
        <time>2016-09-25T10:39:37.929Z</time>
      </trkpt>
      <trkpt lat="47.20298" lon="6.13747">
        <ele>432.008</ele>
        <time>2016-09-25T10:39:40.570Z</time>
      </trkpt>
      <trkpt lat="47.20306" lon="6.13754">
        <ele>431.163</ele>
        <time>2016-09-25T10:39:42.796Z</time>
      </trkpt>
      <trkpt lat="47.20317" lon="6.13767">
        <ele>430.837</ele>
        <time>2016-09-25T10:39:46.443Z</time>
      </trkpt>
      <trkpt lat="47.20324" lon="6.13774">
        <ele>431.318</ele>
        <time>2016-09-25T10:39:48.815Z</time>
      </trkpt>
      <trkpt lat="47.20337" lon="6.13786">
        <ele>432.597</ele>
        <time>2016-09-25T10:39:52.329Z</time>
      </trkpt>
      <trkpt lat="47.20344" lon="6.13794">
        <ele>433.922</ele>
        <time>2016-09-25T10:39:54.637Z</time>
      </trkpt>
      <trkpt lat="47.20356" lon="6.13808">
        <ele>434.609</ele>
        <time>2016-09-25T10:39:58.068Z</time>
      </trkpt>
      <trkpt lat="47.20364" lon="6.13818">
        <ele>434.728</ele>
        <time>2016-09-25T10:40:00.465Z</time>
      </trkpt>
      <trkpt lat="47.20372" lon="6.13827">
        <ele>434.61</ele>
        <time>2016-09-25T10:40:02.646Z</time>
      </trkpt>
      <trkpt lat="47.2038" lon="6.13838">
        <ele>434.334</ele>
        <time>2016-09-25T10:40:04.949Z</time>
      </trkpt>
      <trkpt lat="47.20388" lon="6.13848">
        <ele>433.818</ele>
        <time>2016-09-25T10:40:07.205Z</time>
      </trkpt>
      <trkpt lat="47.20401" lon="6.13864">
        <ele>433.17</ele>
        <time>2016-09-25T10:40:10.691Z</time>
      </trkpt>
      <trkpt lat="47.2041" lon="6.13874">
        <ele>432.497</ele>
        <time>2016-09-25T10:40:12.956Z</time>
      </trkpt>
      <trkpt lat="47.20423" lon="6.13887">
        <ele>431.714</ele>
        <time>2016-09-25T10:40:15.989Z</time>
      </trkpt>
      <trkpt lat="47.20438" lon="6.139">
        <ele>430.913</ele>
        <time>2016-09-25T10:40:19.047Z</time>
      </trkpt>
      <trkpt lat="47.20447" lon="6.13907">
        <ele>430.365</ele>
        <time>2016-09-25T10:40:20.968Z</time>
      </trkpt>
      <trkpt lat="47.20461" lon="6.13923">
        <ele>430.237</ele>
        <time>2016-09-25T10:40:24.057Z</time>
      </trkpt>
      <trkpt lat="47.20469" lon="6.13933">
        <ele>430.485</ele>
        <time>2016-09-25T10:40:25.880Z</time>
      </trkpt>
      <trkpt lat="47.20478" lon="6.1394">
        <ele>430.944</ele>
        <time>2016-09-25T10:40:27.691Z</time>
      </trkpt>
      <trkpt lat="47.20489" lon="6.13953">
        <ele>431.6</ele>
        <time>2016-09-25T10:40:30.053Z</time>
      </trkpt>
      <trkpt lat="47.20503" lon="6.13966">
        <ele>432.477</ele>
        <time>2016-09-25T10:40:32.620Z</time>
      </trkpt>
      <trkpt lat="47.20512" lon="6.13974">
        <ele>433.281</ele>
        <time>2016-09-25T10:40:34.324Z</time>
      </trkpt>
      <trkpt lat="47.20522" lon="6.13982">
        <ele>433.702</ele>
        <time>2016-09-25T10:40:36.015Z</time>
      </trkpt>
      <trkpt lat="47.20532" lon="6.13996">
        <ele>433.82</ele>
        <time>2016-09-25T10:40:38.266Z</time>
      </trkpt>
      <trkpt lat="47.20547" lon="6.14011">
        <ele>433.905</ele>
        <time>2016-09-25T10:40:41.368Z</time>
      </trkpt>
      <trkpt lat="47.20556" lon="6.14021">
        <ele>434.018</ele>
        <time>2016-09-25T10:40:43.469Z</time>
      </trkpt>
      <trkpt lat="47.20565" lon="6.14034">
        <ele>434.078</ele>
        <time>2016-09-25T10:40:45.633Z</time>
      </trkpt>
      <trkpt lat="47.20579" lon="6.1405">
        <ele>434.004</ele>
        <time>2016-09-25T10:40:48.523Z</time>
      </trkpt>
      <trkpt lat="47.20594" lon="6.14064">
        <ele>433.88</ele>
        <time>2016-09-25T10:40:51.293Z</time>
      </trkpt>
      <trkpt lat="47.20604" lon="6.14076">
        <ele>433.94</ele>
        <time>2016-09-25T10:40:53.212Z</time>
      </trkpt>
      <trkpt lat="47.20614" lon="6.14087">
        <ele>434.284</ele>
        <time>2016-09-25T10:40:54.926Z</time>
      </trkpt>
      <trkpt lat="47.20622" lon="6.14096">
        <ele>434.721</ele>
        <time>2016-09-25T10:40:56.512Z</time>
      </trkpt>
      <trkpt lat="47.20633" lon="6.14115">
        <ele>434.406</ele>
        <time>2016-09-25T10:40:59.079Z</time>
      </trkpt>
      <trkpt lat="47.20645" lon="6.1414">
        <ele>432.866</ele>
        <time>2016-09-25T10:41:02.153Z</time>
      </trkpt>
      <trkpt lat="47.20652" lon="6.14152">
        <ele>430.956</ele>
        <time>2016-09-25T10:41:03.810Z</time>
      </trkpt>
      <trkpt lat="47.2066" lon="6.14179">
        <ele>429.432</ele>
        <time>2016-09-25T10:41:06.823Z</time>
      </trkpt>
      <trkpt lat="47.20667" lon="6.14201">
        <ele>428.401</ele>
        <time>2016-09-25T10:41:09.356Z</time>
      </trkpt>
      <trkpt lat="47.20677" lon="6.14221">
        <ele>428.005</ele>
        <time>2016-09-25T10:41:12.058Z</time>
      </trkpt>
      <trkpt lat="47.20692" lon="6.14237">
        <ele>428.306</ele>
        <time>2016-09-25T10:41:15.046Z</time>
      </trkpt>
      <trkpt lat="47.20706" lon="6.14253">
        <ele>429.413</ele>
        <time>2016-09-25T10:41:17.561Z</time>
      </trkpt>
      <trkpt lat="47.20714" lon="6.14264">
        <ele>430.967</ele>
        <time>2016-09-25T10:41:19.212Z</time>
      </trkpt>
      <trkpt lat="47.20724" lon="6.14273">
        <ele>432.126</ele>
        <time>2016-09-25T10:41:21.024Z</time>
      </trkpt>
      <trkpt lat="47.20741" lon="6.14283">
        <ele>432.842</ele>
        <time>2016-09-25T10:41:23.822Z</time>
      </trkpt>
      <trkpt lat="47.20755" lon="6.14282">
        <ele>433.758</ele>
        <time>2016-09-25T10:41:26.004Z</time>
      </trkpt>
      <trkpt lat="47.20774" lon="6.14287">
        <ele>434.87</ele>
        <time>2016-09-25T10:41:29.124Z</time>
      </trkpt>
      <trkpt lat="47.2079" lon="6.14301">
        <ele>435.53</ele>
        <time>2016-09-25T10:41:31.923Z</time>
      </trkpt>
      <trkpt lat="47.20805" lon="6.14301">
        <ele>435.435</ele>
        <time>2016-09-25T10:41:34.016Z</time>
      </trkpt>
      <trkpt lat="47.20819" lon="6.14306">
        <ele>434.706</ele>
        <time>2016-09-25T10:41:36.249Z</time>
      </trkpt>
      <trkpt lat="47.20839" lon="6.1432">
        <ele>433.706</ele>
        <time>2016-09-25T10:41:39.585Z</time>
      </trkpt>
      <trkpt lat="47.2085" lon="6.14327">
        <ele>432.947</ele>
        <time>2016-09-25T10:41:41.215Z</time>
      </trkpt>
      <trkpt lat="47.20858" lon="6.14323">
        <ele>432.675</ele>
        <time>2016-09-25T10:41:42.449Z</time>
      </trkpt>
      <trkpt lat="47.20866" lon="6.1431">
        <ele>432.711</ele>
        <time>2016-09-25T10:41:44.010Z</time>
      </trkpt>
      <trkpt lat="47.20876" lon="6.143">
        <ele>432.83</ele>
        <time>2016-09-25T10:41:45.580Z</time>
      </trkpt>
      <trkpt lat="47.20885" lon="6.14287">
        <ele>432.874</ele>
        <time>2016-09-25T10:41:47.306Z</time>
      </trkpt>
      <trkpt lat="47.20894" lon="6.14274">
        <ele>432.529</ele>
        <time>2016-09-25T10:41:49.026Z</time>
      </trkpt>
      <trkpt lat="47.20901" lon="6.14265">
        <ele>431.527</ele>
        <time>2016-09-25T10:41:50.396Z</time>
      </trkpt>
      <trkpt lat="47.20908" lon="6.14253">
        <ele>430.234</ele>
        <time>2016-09-25T10:41:51.808Z</time>
      </trkpt>
      <trkpt lat="47.20918" lon="6.14238">
        <ele>429.234</ele>
        <time>2016-09-25T10:41:53.769Z</time>
      </trkpt>
      <trkpt lat="47.20929" lon="6.14223">
        <ele>428.673</ele>
        <time>2016-09-25T10:41:55.707Z</time>
      </trkpt>
      <trkpt lat="47.2094" lon="6.14203">
        <ele>428.65</ele>
        <time>2016-09-25T10:41:58.514Z</time>
      </trkpt>
      <trkpt lat="47.20951" lon="6.14188">
        <ele>429.228</ele>
        <time>2016-09-25T10:42:01.990Z</time>
      </trkpt>
      <trkpt lat="47.20959" lon="6.14178">
        <ele>430.258</ele>
        <time>2016-09-25T10:42:04.141Z</time>
      </trkpt>
      <trkpt lat="47.20969" lon="6.14165">
        <ele>431.411</ele>
        <time>2016-09-25T10:42:06.568Z</time>
      </trkpt>
      <trkpt lat="47.20978" lon="6.14155">
        <ele>432.032</ele>
        <time>2016-09-25T10:42:08.812Z</time>
      </trkpt>
      <trkpt lat="47.20986" lon="6.14144">
        <ele>431.687</ele>
        <time>2016-09-25T10:42:10.873Z</time>
      </trkpt>
      <trkpt lat="47.20992" lon="6.14134">
        <ele>430.752</ele>
        <time>2016-09-25T10:42:12.548Z</time>
      </trkpt>
      <trkpt lat="47.21002" lon="6.14122">
        <ele>429.861</ele>
        <time>2016-09-25T10:42:14.872Z</time>
      </trkpt>
      <trkpt lat="47.21009" lon="6.14113">
        <ele>429.634</ele>
        <time>2016-09-25T10:42:16.556Z</time>
      </trkpt>
      <trkpt lat="47.21017" lon="6.14099">
        <ele>430.595</ele>
        <time>2016-09-25T10:42:18.830Z</time>
      </trkpt>
      <trkpt lat="47.21027" lon="6.14088">
        <ele>432.346</ele>
        <time>2016-09-25T10:42:21.145Z</time>
      </trkpt>
      <trkpt lat="47.21037" lon="6.14085">
        <ele>433.794</ele>
        <time>2016-09-25T10:42:23.042Z</time>
      </trkpt>
      <trkpt lat="47.21042" lon="6.14097">
        <ele>434.435</ele>
        <time>2016-09-25T10:42:24.793Z</time>
      </trkpt>
      <trkpt lat="47.2105" lon="6.14107">
        <ele>434.553</ele>
        <time>2016-09-25T10:42:26.681Z</time>
      </trkpt>
      <trkpt lat="47.21058" lon="6.14118">
        <ele>434.518</ele>
        <time>2016-09-25T10:42:28.990Z</time>
      </trkpt>
      <trkpt lat="47.21066" lon="6.14138">
        <ele>434.517</ele>
        <time>2016-09-25T10:42:33.277Z</time>
      </trkpt>
      <trkpt lat="47.21078" lon="6.14152">
        <ele>434.816</ele>
        <time>2016-09-25T10:42:37.136Z</time>
      </trkpt>
      <trkpt lat="47.21084" lon="6.14163">
        <ele>435.56</ele>
        <time>2016-09-25T10:42:39.291Z</time>
      </trkpt>
      <trkpt lat="47.21091" lon="6.14175">
        <ele>436.344</ele>
        <time>2016-09-25T10:42:41.506Z</time>
      </trkpt>
      <trkpt lat="47.21099" lon="6.14186">
        <ele>436.75</ele>
        <time>2016-09-25T10:42:43.910Z</time>
      </trkpt>
      <trkpt lat="47.2111" lon="6.14203">
        <ele>437.062</ele>
        <time>2016-09-25T10:42:47.465Z</time>
      </trkpt>
      <trkpt lat="47.21118" lon="6.14214">
        <ele>437.644</ele>
        <time>2016-09-25T10:42:49.906Z</time>
      </trkpt>
      <trkpt lat="47.21126" lon="6.14222">
        <ele>438.518</ele>
        <time>2016-09-25T10:42:52.477Z</time>
      </trkpt>
      <trkpt lat="47.21141" lon="6.14228">
        <ele>439.817</ele>
        <time>2016-09-25T10:42:57.171Z</time>
      </trkpt>
      <trkpt lat="47.21151" lon="6.14231">
        <ele>441.426</ele>
        <time>2016-09-25T10:43:00.622Z</time>
      </trkpt>
      <trkpt lat="47.21163" lon="6.14239">
        <ele>442.538</ele>
        <time>2016-09-25T10:43:04.391Z</time>
      </trkpt>
      <trkpt lat="47.21174" lon="6.14245">
        <ele>442.611</ele>
        <time>2016-09-25T10:43:07.165Z</time>
      </trkpt>
      <trkpt lat="47.21184" lon="6.14249">
        <ele>441.662</ele>
        <time>2016-09-25T10:43:08.873Z</time>
      </trkpt>
      <trkpt lat="47.21194" lon="6.14261">
        <ele>440.065</ele>
        <time>2016-09-25T10:43:11.185Z</time>
      </trkpt>
      <trkpt lat="47.21201" lon="6.14271">
        <ele>438.464</ele>
        <time>2016-09-25T10:43:12.898Z</time>
      </trkpt>
      <trkpt lat="47.21212" lon="6.14276">
        <ele>437.211</ele>
        <time>2016-09-25T10:43:14.963Z</time>
      </trkpt>
      <trkpt lat="47.21225" lon="6.14279">
        <ele>436.107</ele>
        <time>2016-09-25T10:43:17.241Z</time>
      </trkpt>
      <trkpt lat="47.21235" lon="6.14286">
        <ele>435.073</ele>
        <time>2016-09-25T10:43:19.263Z</time>
      </trkpt>
      <trkpt lat="47.21247" lon="6.14294">
        <ele>434.378</ele>
        <time>2016-09-25T10:43:21.507Z</time>
      </trkpt>
      <trkpt lat="47.21259" lon="6.14303">
        <ele>433.886</ele>
        <time>2016-09-25T10:43:23.981Z</time>
      </trkpt>
      <trkpt lat="47.21273" lon="6.14311">
        <ele>432.8</ele>
        <time>2016-09-25T10:43:26.686Z</time>
      </trkpt>
      <trkpt lat="47.21286" lon="6.14319">
        <ele>431.06</ele>
        <time>2016-09-25T10:43:29.290Z</time>
      </trkpt>
      <trkpt lat="47.21299" lon="6.14329">
        <ele>429.614</ele>
        <time>2016-09-25T10:43:32.359Z</time>
      </trkpt>
      <trkpt lat="47.21313" lon="6.14337">
        <ele>428.922</ele>
        <time>2016-09-25T10:43:36.083Z</time>
      </trkpt>
      <trkpt lat="47.21322" lon="6.14341">
        <ele>428.593</ele>
        <time>2016-09-25T10:43:38.930Z</time>
      </trkpt>
      <trkpt lat="47.21333" lon="6.14348">
        <ele>428.213</ele>
        <time>2016-09-25T10:43:42.444Z</time>
      </trkpt>
      <trkpt lat="47.21342" lon="6.14355">
        <ele>427.847</ele>
        <time>2016-09-25T10:43:45.809Z</time>
      </trkpt>
      <trkpt lat="47.21356" lon="6.1436">
        <ele>427.317</ele>
        <time>2016-09-25T10:43:50.986Z</time>
      </trkpt>
      <trkpt lat="47.21368" lon="6.14367">
        <ele>426.272</ele>
        <time>2016-09-25T10:43:55.037Z</time>
      </trkpt>
      <trkpt lat="47.21379" lon="6.14374">
        <ele>425.016</ele>
        <time>2016-09-25T10:43:58.755Z</time>
      </trkpt>
      <trkpt lat="47.21392" lon="6.14383">
        <ele>423.883</ele>
        <time>2016-09-25T10:44:02.760Z</time>
      </trkpt>
      <trkpt lat="47.21404" lon="6.1439">
        <ele>422.606</ele>
        <time>2016-09-25T10:44:06.097Z</time>
      </trkpt>
      <trkpt lat="47.21417" lon="6.14396">
        <ele>421.267</ele>
        <time>2016-09-25T10:44:09.342Z</time>
      </trkpt>
      <trkpt lat="47.21431" lon="6.14404">
        <ele>420.297</ele>
        <time>2016-09-25T10:44:12.640Z</time>
      </trkpt>
      <trkpt lat="47.21439" lon="6.14411">
        <ele>420.737</ele>
        <time>2016-09-25T10:44:15.391Z</time>
      </trkpt>
      <trkpt lat="47.21453" lon="6.14421">
        <ele>423.058</ele>
        <time>2016-09-25T10:44:21.098Z</time>
      </trkpt>
      <trkpt lat="47.21461" lon="6.14428">
        <ele>426.147</ele>
        <time>2016-09-25T10:44:25.105Z</time>
      </trkpt>
      <trkpt lat="47.21472" lon="6.1444">
        <ele>428.6</ele>
        <time>2016-09-25T10:44:29.737Z</time>
      </trkpt>
      <trkpt lat="47.21479" lon="6.14449">
        <ele>429.914</ele>
        <time>2016-09-25T10:44:32.592Z</time>
      </trkpt>
      <trkpt lat="47.21486" lon="6.14459">
        <ele>429.999</ele>
        <time>2016-09-25T10:44:35.150Z</time>
      </trkpt>
      <trkpt lat="47.21496" lon="6.14467">
        <ele>429.207</ele>
        <time>2016-09-25T10:44:38.343Z</time>
      </trkpt>
      <trkpt lat="47.21509" lon="6.14471">
        <ele>427.636</ele>
        <time>2016-09-25T10:44:41.651Z</time>
      </trkpt>
      <trkpt lat="47.2152" lon="6.14474">
        <ele>425.541</ele>
        <time>2016-09-25T10:44:44.392Z</time>
      </trkpt>
      <trkpt lat="47.2153" lon="6.1448">
        <ele>424.173</ele>
        <time>2016-09-25T10:44:46.927Z</time>
      </trkpt>
      <trkpt lat="47.21537" lon="6.14491">
        <ele>424.438</ele>
        <time>2016-09-25T10:44:49.114Z</time>
      </trkpt>
      <trkpt lat="47.21547" lon="6.1449">
        <ele>425.851</ele>
        <time>2016-09-25T10:44:51.465Z</time>
      </trkpt>
      <trkpt lat="47.21557" lon="6.14493">
        <ele>427.434</ele>
        <time>2016-09-25T10:44:53.782Z</time>
      </trkpt>
      <trkpt lat="47.21568" lon="6.14499">
        <ele>428.459</ele>
        <time>2016-09-25T10:44:56.436Z</time>
      </trkpt>
      <trkpt lat="47.21577" lon="6.14502">
        <ele>429.126</ele>
        <time>2016-09-25T10:44:58.602Z</time>
      </trkpt>
      <trkpt lat="47.21587" lon="6.14506">
        <ele>429.939</ele>
        <time>2016-09-25T10:45:00.931Z</time>
      </trkpt>
      <trkpt lat="47.21596" lon="6.14513">
        <ele>430.843</ele>
        <time>2016-09-25T10:45:03.111Z</time>
      </trkpt>
      <trkpt lat="47.21602" lon="6.14523">
        <ele>431.651</ele>
        <time>2016-09-25T10:45:05.372Z</time>
      </trkpt>
      <trkpt lat="47.21616" lon="6.14525">
        <ele>432.305</ele>
        <time>2016-09-25T10:45:08.637Z</time>
      </trkpt>
      <trkpt lat="47.21627" lon="6.1453">
        <ele>433.035</ele>
        <time>2016-09-25T10:45:11.955Z</time>
      </trkpt>
      <trkpt lat="47.21637" lon="6.14534">
        <ele>434.013</ele>
        <time>2016-09-25T10:45:15.613Z</time>
      </trkpt>
      <trkpt lat="47.21647" lon="6.14539">
        <ele>434.919</ele>
        <time>2016-09-25T10:45:20.205Z</time>
      </trkpt>
      <trkpt lat="47.21657" lon="6.14544">
        <ele>435.675</ele>
        <time>2016-09-25T10:45:25.166Z</time>
      </trkpt>
      <trkpt lat="47.21667" lon="6.14545">
        <ele>436.219</ele>
        <time>2016-09-25T10:45:29.818Z</time>
      </trkpt>
      <trkpt lat="47.21677" lon="6.14543">
        <ele>436.464</ele>
        <time>2016-09-25T10:45:33.974Z</time>
      </trkpt>
      <trkpt lat="47.21687" lon="6.14546">
        <ele>436.757</ele>
        <time>2016-09-25T10:45:38.984Z</time>
      </trkpt>
      <trkpt lat="47.21697" lon="6.14546">
        <ele>437.376</ele>
        <time>2016-09-25T10:45:44.402Z</time>
      </trkpt>
      <trkpt lat="47.21705" lon="6.14553">
        <ele>438.085</ele>
        <time>2016-09-25T10:45:49.955Z</time>
      </trkpt>
      <trkpt lat="47.21714" lon="6.1456">
        <ele>438.046</ele>
        <time>2016-09-25T10:45:56.208Z</time>
      </trkpt>
      <trkpt lat="47.21726" lon="6.14566">
        <ele>436.404</ele>
        <time>2016-09-25T10:46:03.503Z</time>
      </trkpt>
      <trkpt lat="47.21735" lon="6.1457">
        <ele>433.846</ele>
        <time>2016-09-25T10:46:08.614Z</time>
      </trkpt>
      <trkpt lat="47.21747" lon="6.14575">
        <ele>431.947</ele>
        <time>2016-09-25T10:46:15.565Z</time>
      </trkpt>
      <trkpt lat="47.21758" lon="6.14578">
        <ele>431.389</ele>
        <time>2016-09-25T10:46:22.132Z</time>
      </trkpt>
      <trkpt lat="47.2177" lon="6.14581">
        <ele>431.8</ele>
        <time>2016-09-25T10:46:29.734Z</time>
      </trkpt>
      <trkpt lat="47.21782" lon="6.14586">
        <ele>432.608</ele>
        <time>2016-09-25T10:46:37.317Z</time>
      </trkpt>
      <trkpt lat="47.21792" lon="6.14593">
        <ele>433.534</ele>
        <time>2016-09-25T10:46:43.940Z</time>
      </trkpt>
      <trkpt lat="47.218" lon="6.14598">
        <ele>434.368</ele>
        <time>2016-09-25T10:46:49.198Z</time>
      </trkpt>
      <trkpt lat="47.2181" lon="6.14604">
        <ele>434.726</ele>
        <time>2016-09-25T10:46:54.412Z</time>
      </trkpt>
      <trkpt lat="47.21819" lon="6.1461">
        <ele>434.521</ele>
        <time>2016-09-25T10:46:58.125Z</time>
      </trkpt>
      <trkpt lat="47.2183" lon="6.14615">
        <ele>434.657</ele>
        <time>2016-09-25T10:47:01.731Z</time>
      </trkpt>
      <trkpt lat="47.2184" lon="6.14618">
        <ele>435.933</ele>
        <time>2016-09-25T10:47:04.314Z</time>
      </trkpt>
      <trkpt lat="47.2185" lon="6.14619">
        <ele>437.654</ele>
        <time>2016-09-25T10:47:07.125Z</time>
      </trkpt>
      <trkpt lat="47.21863" lon="6.14622">
        <ele>438.745</ele>
        <time>2016-09-25T10:47:10.472Z</time>
      </trkpt>
      <trkpt lat="47.21872" lon="6.14625">
        <ele>438.755</ele>
        <time>2016-09-25T10:47:13.060Z</time>
      </trkpt>
      <trkpt lat="47.21882" lon="6.14631">
        <ele>437.847</ele>
        <time>2016-09-25T10:47:16.201Z</time>
      </trkpt>
      <trkpt lat="47.21893" lon="6.14636">
        <ele>437.139</ele>
        <time>2016-09-25T10:47:19.913Z</time>
      </trkpt>
      <trkpt lat="47.21904" lon="6.14644">
        <ele>437.722</ele>
        <time>2016-09-25T10:47:23.964Z</time>
      </trkpt>
      <trkpt lat="47.21914" lon="6.14647">
        <ele>439.379</ele>
        <time>2016-09-25T10:47:27.361Z</time>
      </trkpt>
      <trkpt lat="47.21923" lon="6.14649">
        <ele>441.148</ele>
        <time>2016-09-25T10:47:30.214Z</time>
      </trkpt>
      <trkpt lat="47.21939" lon="6.14649">
        <ele>442.442</ele>
        <time>2016-09-25T10:47:34.628Z</time>
      </trkpt>
      <trkpt lat="47.21956" lon="6.14652">
        <ele>443.456</ele>
        <time>2016-09-25T10:47:39.490Z</time>
      </trkpt>
      <trkpt lat="47.21969" lon="6.14659">
        <ele>444.914</ele>
        <time>2016-09-25T10:47:43.095Z</time>
      </trkpt>
      <trkpt lat="47.2198" lon="6.14667">
        <ele>446.874</ele>
        <time>2016-09-25T10:47:46.554Z</time>
      </trkpt>
      <trkpt lat="47.21989" lon="6.14671">
        <ele>448.323</ele>
        <time>2016-09-25T10:47:48.848Z</time>
      </trkpt>
      <trkpt lat="47.22002" lon="6.14677">
        <ele>448.672</ele>
        <time>2016-09-25T10:47:51.958Z</time>
      </trkpt>
      <trkpt lat="47.22014" lon="6.14684">
        <ele>448.41</ele>
        <time>2016-09-25T10:47:54.676Z</time>
      </trkpt>
      <trkpt lat="47.22021" lon="6.14692">
        <ele>448.012</ele>
        <time>2016-09-25T10:47:56.715Z</time>
      </trkpt>
      <trkpt lat="47.22034" lon="6.14696">
        <ele>447.106</ele>
        <time>2016-09-25T10:47:59.513Z</time>
      </trkpt>
      <trkpt lat="47.22062" lon="6.14704">
        <ele>445.442</ele>
        <time>2016-09-25T10:48:06.101Z</time>
      </trkpt>
      <trkpt lat="47.22072" lon="6.14709">
        <ele>443.831</ele>
        <time>2016-09-25T10:48:08.630Z</time>
      </trkpt>
      <trkpt lat="47.22082" lon="6.14714">
        <ele>442.573</ele>
        <time>2016-09-25T10:48:11.122Z</time>
      </trkpt>
      <trkpt lat="47.22091" lon="6.14716">
        <ele>440.955</ele>
        <time>2016-09-25T10:48:13.176Z</time>
      </trkpt>
      <trkpt lat="47.22101" lon="6.14722">
        <ele>438.765</ele>
        <time>2016-09-25T10:48:15.620Z</time>
      </trkpt>
      <trkpt lat="47.22111" lon="6.14729">
        <ele>436.641</ele>
        <time>2016-09-25T10:48:19.354Z</time>
      </trkpt>
      <trkpt lat="47.22121" lon="6.14736">
        <ele>435.698</ele>
        <time>2016-09-25T10:48:24.802Z</time>
      </trkpt>
      <trkpt lat="47.22131" lon="6.14743">
        <ele>436.511</ele>
        <time>2016-09-25T10:48:30.977Z</time>
      </trkpt>
      <trkpt lat="47.22141" lon="6.14747">
        <ele>438.146</ele>
        <time>2016-09-25T10:48:36.314Z</time>
      </trkpt>
      <trkpt lat="47.2215" lon="6.1475">
        <ele>439.326</ele>
        <time>2016-09-25T10:48:41.033Z</time>
      </trkpt>
      <trkpt lat="47.2216" lon="6.14754">
        <ele>439.607</ele>
        <time>2016-09-25T10:48:46.100Z</time>
      </trkpt>
      <trkpt lat="47.22169" lon="6.1476">
        <ele>438.813</ele>
        <time>2016-09-25T10:48:50.801Z</time>
      </trkpt>
      <trkpt lat="47.22181" lon="6.14767">
        <ele>437.121</ele>
        <time>2016-09-25T10:48:56.907Z</time>
      </trkpt>
      <trkpt lat="47.22204" lon="6.14773">
        <ele>435.404</ele>
        <time>2016-09-25T10:49:05.412Z</time>
      </trkpt>
      <trkpt lat="47.22221" lon="6.14784">
        <ele>434.21</ele>
        <time>2016-09-25T10:49:09.026Z</time>
      </trkpt>
      <trkpt lat="47.22233" lon="6.14794">
        <ele>433.014</ele>
        <time>2016-09-25T10:49:11.386Z</time>
      </trkpt>
      <trkpt lat="47.22243" lon="6.14802">
        <ele>431.516</ele>
        <time>2016-09-25T10:49:13.464Z</time>
      </trkpt>
      <trkpt lat="47.22257" lon="6.14808">
        <ele>430.666</ele>
        <time>2016-09-25T10:49:16.304Z</time>
      </trkpt>
      <trkpt lat="47.22266" lon="6.14811">
        <ele>431.321</ele>
        <time>2016-09-25T10:49:18.751Z</time>
      </trkpt>
      <trkpt lat="47.22277" lon="6.14816">
        <ele>433.135</ele>
        <time>2016-09-25T10:49:22.162Z</time>
      </trkpt>
      <trkpt lat="47.22286" lon="6.14821">
        <ele>434.812</ele>
        <time>2016-09-25T10:49:26.189Z</time>
      </trkpt>
      <trkpt lat="47.22295" lon="6.14827">
        <ele>434.901</ele>
        <time>2016-09-25T10:49:31.252Z</time>
      </trkpt>
      <trkpt lat="47.22303" lon="6.14836">
        <ele>433.483</ele>
        <time>2016-09-25T10:49:36.713Z</time>
      </trkpt>
      <trkpt lat="47.22313" lon="6.14844">
        <ele>432.184</ele>
        <time>2016-09-25T10:49:42.251Z</time>
      </trkpt>
      <trkpt lat="47.22322" lon="6.14852">
        <ele>431.903</ele>
        <time>2016-09-25T10:49:47.786Z</time>
      </trkpt>
      <trkpt lat="47.2233" lon="6.1486">
        <ele>432.258</ele>
        <time>2016-09-25T10:49:53.235Z</time>
      </trkpt>
      <trkpt lat="47.22337" lon="6.14872">
        <ele>432.636</ele>
        <time>2016-09-25T10:49:59.467Z</time>
      </trkpt>
      <trkpt lat="47.22339" lon="6.14887">
        <ele>432.274</ele>
        <time>2016-09-25T10:50:05.545Z</time>
      </trkpt>
      <trkpt lat="47.22338" lon="6.14905">
        <ele>430.888</ele>
        <time>2016-09-25T10:50:10.386Z</time>
      </trkpt>
      <trkpt lat="47.22334" lon="6.14924">
        <ele>429.572</ele>
        <time>2016-09-25T10:50:13.897Z</time>
      </trkpt>
      <trkpt lat="47.2233" lon="6.14941">
        <ele>429.606</ele>
        <time>2016-09-25T10:50:16.708Z</time>
      </trkpt>
      <trkpt lat="47.22317" lon="6.14962">
        <ele>430.926</ele>
        <time>2016-09-25T10:50:20.517Z</time>
      </trkpt>
      <trkpt lat="47.22305" lon="6.14983">
        <ele>432.528</ele>
        <time>2016-09-25T10:50:23.809Z</time>
      </trkpt>
      <trkpt lat="47.22297" lon="6.15014">
        <ele>433.541</ele>
        <time>2016-09-25T10:50:27.179Z</time>
      </trkpt>
      <trkpt lat="47.22291" lon="6.15047">
        <ele>433.764</ele>
        <time>2016-09-25T10:50:30.322Z</time>
      </trkpt>
      <trkpt lat="47.22289" lon="6.1507">
        <ele>433.381</ele>
        <time>2016-09-25T10:50:32.453Z</time>
      </trkpt>
      <trkpt lat="47.22284" lon="6.15101">
        <ele>432.794</ele>
        <time>2016-09-25T10:50:35.506Z</time>
      </trkpt>
      <trkpt lat="47.2228" lon="6.15128">
        <ele>432.519</ele>
        <time>2016-09-25T10:50:38.384Z</time>
      </trkpt>
      <trkpt lat="47.22277" lon="6.15144">
        <ele>432.704</ele>
        <time>2016-09-25T10:50:40.317Z</time>
      </trkpt>
      <trkpt lat="47.22273" lon="6.15164">
        <ele>433.033</ele>
        <time>2016-09-25T10:50:42.898Z</time>
      </trkpt>
      <trkpt lat="47.22272" lon="6.15182">
        <ele>433.213</ele>
        <time>2016-09-25T10:50:45.398Z</time>
      </trkpt>
      <trkpt lat="47.22268" lon="6.15199">
        <ele>433.396</ele>
        <time>2016-09-25T10:50:48.284Z</time>
      </trkpt>
      <trkpt lat="47.22265" lon="6.15215">
        <ele>434.111</ele>
        <time>2016-09-25T10:50:50.972Z</time>
      </trkpt>
      <trkpt lat="47.2226" lon="6.1523">
        <ele>435.639</ele>
        <time>2016-09-25T10:50:53.697Z</time>
      </trkpt>
      <trkpt lat="47.22256" lon="6.15245">
        <ele>437.642</ele>
        <time>2016-09-25T10:50:56.312Z</time>
      </trkpt>
      <trkpt lat="47.22252" lon="6.15263">
        <ele>439.429</ele>
        <time>2016-09-25T10:50:59.805Z</time>
      </trkpt>
      <trkpt lat="47.22249" lon="6.15279">
        <ele>440.762</ele>
        <time>2016-09-25T10:51:02.904Z</time>
      </trkpt>
      <trkpt lat="47.22245" lon="6.15295">
        <ele>442.817</ele>
        <time>2016-09-25T10:51:05.698Z</time>
      </trkpt>
      <trkpt lat="47.22241" lon="6.15314">
        <ele>446.139</ele>
        <time>2016-09-25T10:51:08.626Z</time>
      </trkpt>
      <trkpt lat="47.22237" lon="6.15332">
        <ele>448.905</ele>
        <time>2016-09-25T10:51:11.300Z</time>
      </trkpt>
      <trkpt lat="47.22232" lon="6.1535">
        <ele>449.59</ele>
        <time>2016-09-25T10:51:13.930Z</time>
      </trkpt>
      <trkpt lat="47.22226" lon="6.15366">
        <ele>448.814</ele>
        <time>2016-09-25T10:51:16.497Z</time>
      </trkpt>
      <trkpt lat="47.22223" lon="6.15379">
        <ele>447.783</ele>
        <time>2016-09-25T10:51:18.374Z</time>
      </trkpt>
      <trkpt lat="47.22221" lon="6.154">
        <ele>447.152</ele>
        <time>2016-09-25T10:51:21.273Z</time>
      </trkpt>
      <trkpt lat="47.22217" lon="6.15412">
        <ele>446.597</ele>
        <time>2016-09-25T10:51:23.114Z</time>
      </trkpt>
      <trkpt lat="47.2221" lon="6.15432">
        <ele>445.713</ele>
        <time>2016-09-25T10:51:26.004Z</time>
      </trkpt>
      <trkpt lat="47.22202" lon="6.15454">
        <ele>444.823</ele>
        <time>2016-09-25T10:51:29.114Z</time>
      </trkpt>
      <trkpt lat="47.22195" lon="6.15477">
        <ele>444.366</ele>
        <time>2016-09-25T10:51:32.122Z</time>
      </trkpt>
      <trkpt lat="47.22193" lon="6.15495">
        <ele>443.954</ele>
        <time>2016-09-25T10:51:34.191Z</time>
      </trkpt>
      <trkpt lat="47.22188" lon="6.15518">
        <ele>442.884</ele>
        <time>2016-09-25T10:51:36.857Z</time>
      </trkpt>
      <trkpt lat="47.22183" lon="6.15535">
        <ele>440.907</ele>
        <time>2016-09-25T10:51:38.708Z</time>
      </trkpt>
      <trkpt lat="47.22176" lon="6.1556">
        <ele>438.666</ele>
        <time>2016-09-25T10:51:41.355Z</time>
      </trkpt>
      <trkpt lat="47.22172" lon="6.15576">
        <ele>437.014</ele>
        <time>2016-09-25T10:51:43.121Z</time>
      </trkpt>
      <trkpt lat="47.22165" lon="6.15602">
        <ele>436.16</ele>
        <time>2016-09-25T10:51:45.763Z</time>
      </trkpt>
      <trkpt lat="47.22162" lon="6.15635">
        <ele>435.66</ele>
        <time>2016-09-25T10:51:48.677Z</time>
      </trkpt>
      <trkpt lat="47.22157" lon="6.15665">
        <ele>435.2</ele>
        <time>2016-09-25T10:51:51.274Z</time>
      </trkpt>
      <trkpt lat="47.22166" lon="6.15704">
        <ele>434.869</ele>
        <time>2016-09-25T10:51:54.493Z</time>
      </trkpt>
      <trkpt lat="47.22173" lon="6.15727">
        <ele>434.842</ele>
        <time>2016-09-25T10:51:56.384Z</time>
      </trkpt>
      <trkpt lat="47.22179" lon="6.15751">
        <ele>434.996</ele>
        <time>2016-09-25T10:51:58.166Z</time>
      </trkpt>
      <trkpt lat="47.22185" lon="6.15792">
        <ele>435.055</ele>
        <time>2016-09-25T10:52:00.949Z</time>
      </trkpt>
      <trkpt lat="47.22187" lon="6.15821">
        <ele>434.368</ele>
        <time>2016-09-25T10:52:02.822Z</time>
      </trkpt>
      <trkpt lat="47.22188" lon="6.15866">
        <ele>432.432</ele>
        <time>2016-09-25T10:52:05.550Z</time>
      </trkpt>
      <trkpt lat="47.2218" lon="6.15912">
        <ele>429.602</ele>
        <time>2016-09-25T10:52:08.317Z</time>
      </trkpt>
      <trkpt lat="47.22169" lon="6.15953">
        <ele>426.902</ele>
        <time>2016-09-25T10:52:10.766Z</time>
      </trkpt>
      <trkpt lat="47.22159" lon="6.15989">
        <ele>424.772</ele>
        <time>2016-09-25T10:52:13.038Z</time>
      </trkpt>
      <trkpt lat="47.22147" lon="6.16022">
        <ele>423.07</ele>
        <time>2016-09-25T10:52:15.368Z</time>
      </trkpt>
      <trkpt lat="47.22136" lon="6.16056">
        <ele>421.963</ele>
        <time>2016-09-25T10:52:17.858Z</time>
      </trkpt>
      <trkpt lat="47.2213" lon="6.16077">
        <ele>421.679</ele>
        <time>2016-09-25T10:52:19.407Z</time>
      </trkpt>
      <trkpt lat="47.22122" lon="6.16107">
        <ele>421.926</ele>
        <time>2016-09-25T10:52:21.682Z</time>
      </trkpt>
      <trkpt lat="47.22116" lon="6.16124">
        <ele>422.463</ele>
        <time>2016-09-25T10:52:23.077Z</time>
      </trkpt>
      <trkpt lat="47.22107" lon="6.16152">
        <ele>423.055</ele>
        <time>2016-09-25T10:52:25.345Z</time>
      </trkpt>
      <trkpt lat="47.22102" lon="6.16169">
        <ele>423.466</ele>
        <time>2016-09-25T10:52:26.791Z</time>
      </trkpt>
      <trkpt lat="47.22097" lon="6.16187">
        <ele>423.774</ele>
        <time>2016-09-25T10:52:28.319Z</time>
      </trkpt>
      <trkpt lat="47.22086" lon="6.1622">
        <ele>424.136</ele>
        <time>2016-09-25T10:52:31.494Z</time>
      </trkpt>
      <trkpt lat="47.22081" lon="6.16238">
        <ele>424.435</ele>
        <time>2016-09-25T10:52:33.187Z</time>
      </trkpt>
      <trkpt lat="47.22078" lon="6.16255">
        <ele>424.551</ele>
        <time>2016-09-25T10:52:34.846Z</time>
      </trkpt>
      <trkpt lat="47.2207" lon="6.16281">
        <ele>424.558</ele>
        <time>2016-09-25T10:52:37.503Z</time>
      </trkpt>
      <trkpt lat="47.22064" lon="6.16299">
        <ele>424.63</ele>
        <time>2016-09-25T10:52:39.328Z</time>
      </trkpt>
      <trkpt lat="47.22056" lon="6.16325">
        <ele>424.941</ele>
        <time>2016-09-25T10:52:42.024Z</time>
      </trkpt>
      <trkpt lat="47.2205" lon="6.16351">
        <ele>425.521</ele>
        <time>2016-09-25T10:52:44.588Z</time>
      </trkpt>
      <trkpt lat="47.22044" lon="6.16369">
        <ele>426.156</ele>
        <time>2016-09-25T10:52:46.423Z</time>
      </trkpt>
      <trkpt lat="47.22039" lon="6.16398">
        <ele>426.505</ele>
        <time>2016-09-25T10:52:49.257Z</time>
      </trkpt>
      <trkpt lat="47.22032" lon="6.16424">
        <ele>426.295</ele>
        <time>2016-09-25T10:52:51.812Z</time>
      </trkpt>
      <trkpt lat="47.22027" lon="6.16443">
        <ele>425.617</ele>
        <time>2016-09-25T10:52:53.751Z</time>
      </trkpt>
      <trkpt lat="47.22019" lon="6.16465">
        <ele>424.962</ele>
        <time>2016-09-25T10:52:56.014Z</time>
      </trkpt>
      <trkpt lat="47.22014" lon="6.16479">
        <ele>424.702</ele>
        <time>2016-09-25T10:52:57.524Z</time>
      </trkpt>
      <trkpt lat="47.22016" lon="6.16507">
        <ele>424.844</ele>
        <time>2016-09-25T10:53:00.166Z</time>
      </trkpt>
      <trkpt lat="47.22025" lon="6.1652">
        <ele>425.262</ele>
        <time>2016-09-25T10:53:01.877Z</time>
      </trkpt>
      <trkpt lat="47.22033" lon="6.16532">
        <ele>425.781</ele>
        <time>2016-09-25T10:53:03.518Z</time>
      </trkpt>
      <trkpt lat="47.22042" lon="6.1655">
        <ele>426.459</ele>
        <time>2016-09-25T10:53:05.613Z</time>
      </trkpt>
      <trkpt lat="47.22052" lon="6.16558">
        <ele>427.347</ele>
        <time>2016-09-25T10:53:07.253Z</time>
      </trkpt>
      <trkpt lat="47.2207" lon="6.16563">
        <ele>428.051</ele>
        <time>2016-09-25T10:53:10.009Z</time>
      </trkpt>
      <trkpt lat="47.22087" lon="6.16569">
        <ele>428.286</ele>
        <time>2016-09-25T10:53:12.647Z</time>
      </trkpt>
      <trkpt lat="47.221" lon="6.16573">
        <ele>428.065</ele>
        <time>2016-09-25T10:53:14.673Z</time>
      </trkpt>
      <trkpt lat="47.22113" lon="6.1658">
        <ele>427.395</ele>
        <time>2016-09-25T10:53:16.865Z</time>
      </trkpt>
      <trkpt lat="47.22124" lon="6.16583">
        <ele>426.565</ele>
        <time>2016-09-25T10:53:19.075Z</time>
      </trkpt>
      <trkpt lat="47.22136" lon="6.16587">
        <ele>426.212</ele>
        <time>2016-09-25T10:53:21.559Z</time>
      </trkpt>
      <trkpt lat="47.2215" lon="6.16593">
        <ele>426.977</ele>
        <time>2016-09-25T10:53:24.489Z</time>
      </trkpt>
      <trkpt lat="47.22161" lon="6.16599">
        <ele>428.783</ele>
        <time>2016-09-25T10:53:26.570Z</time>
      </trkpt>
      <trkpt lat="47.2217" lon="6.16612">
        <ele>430.685</ele>
        <time>2016-09-25T10:53:28.641Z</time>
      </trkpt>
      <trkpt lat="47.22181" lon="6.16614">
        <ele>431.88</ele>
        <time>2016-09-25T10:53:30.454Z</time>
      </trkpt>
      <trkpt lat="47.22194" lon="6.16618">
        <ele>432.148</ele>
        <time>2016-09-25T10:53:32.511Z</time>
      </trkpt>
      <trkpt lat="47.22207" lon="6.16622">
        <ele>431.399</ele>
        <time>2016-09-25T10:53:34.453Z</time>
      </trkpt>
      <trkpt lat="47.22214" lon="6.1663">
        <ele>429.989</ele>
        <time>2016-09-25T10:53:35.794Z</time>
      </trkpt>
      <trkpt lat="47.22224" lon="6.1664">
        <ele>428.761</ele>
        <time>2016-09-25T10:53:37.748Z</time>
      </trkpt>
      <trkpt lat="47.22236" lon="6.16645">
        <ele>428.345</ele>
        <time>2016-09-25T10:53:39.801Z</time>
      </trkpt>
      <trkpt lat="47.22247" lon="6.16645">
        <ele>428.759</ele>
        <time>2016-09-25T10:53:42.096Z</time>
      </trkpt>
      <trkpt lat="47.22257" lon="6.16641">
        <ele>429.525</ele>
        <time>2016-09-25T10:53:44.532Z</time>
      </trkpt>
      <trkpt lat="47.22268" lon="6.1664">
        <ele>429.964</ele>
        <time>2016-09-25T10:53:46.946Z</time>
      </trkpt>
      <trkpt lat="47.22282" lon="6.16639">
        <ele>429.855</ele>
        <time>2016-09-25T10:53:49.904Z</time>
      </trkpt>
      <trkpt lat="47.22295" lon="6.1664">
        <ele>429.567</ele>
        <time>2016-09-25T10:53:52.760Z</time>
      </trkpt>
      <trkpt lat="47.22303" lon="6.16649">
        <ele>429.455</ele>
        <time>2016-09-25T10:53:55.217Z</time>
      </trkpt>
      <trkpt lat="47.22307" lon="6.16663">
        <ele>428.77</ele>
        <time>2016-09-25T10:53:57.536Z</time>
      </trkpt>
      <trkpt lat="47.22312" lon="6.16675">
        <ele>426.95</ele>
        <time>2016-09-25T10:53:59.760Z</time>
      </trkpt>
      <trkpt lat="47.22316" lon="6.16688">
        <ele>425.139</ele>
        <time>2016-09-25T10:54:02.088Z</time>
      </trkpt>
      <trkpt lat="47.22325" lon="6.16708">
        <ele>424.465</ele>
        <time>2016-09-25T10:54:05.995Z</time>
      </trkpt>
      <trkpt lat="47.22333" lon="6.16725">
        <ele>425.563</ele>
        <time>2016-09-25T10:54:09.494Z</time>
      </trkpt>
      <trkpt lat="47.22339" lon="6.16738">
        <ele>428.729</ele>
        <time>2016-09-25T10:54:12.258Z</time>
      </trkpt>
      <trkpt lat="47.22347" lon="6.16753">
        <ele>432.567</ele>
        <time>2016-09-25T10:54:15.763Z</time>
      </trkpt>
      <trkpt lat="47.22354" lon="6.16765">
        <ele>435.307</ele>
        <time>2016-09-25T10:54:18.501Z</time>
      </trkpt>
      <trkpt lat="47.2236" lon="6.16775">
        <ele>436.596</ele>
        <time>2016-09-25T10:54:20.600Z</time>
      </trkpt>
      <trkpt lat="47.22367" lon="6.1679">
        <ele>436.717</ele>
        <time>2016-09-25T10:54:23.429Z</time>
      </trkpt>
      <trkpt lat="47.22373" lon="6.16803">
        <ele>436.193</ele>
        <time>2016-09-25T10:54:26.324Z</time>
      </trkpt>
      <trkpt lat="47.22379" lon="6.16816">
        <ele>435.631</ele>
        <time>2016-09-25T10:54:29.585Z</time>
      </trkpt>
      <trkpt lat="47.22386" lon="6.16831">
        <ele>435.034</ele>
        <time>2016-09-25T10:54:32.721Z</time>
      </trkpt>
      <trkpt lat="47.22391" lon="6.16842">
        <ele>433.781</ele>
        <time>2016-09-25T10:54:34.860Z</time>
      </trkpt>
      <trkpt lat="47.22396" lon="6.16858">
        <ele>431.79</ele>
        <time>2016-09-25T10:54:37.380Z</time>
      </trkpt>
      <trkpt lat="47.22399" lon="6.16873">
        <ele>429.782</ele>
        <time>2016-09-25T10:54:39.700Z</time>
      </trkpt>
      <trkpt lat="47.22406" lon="6.1689">
        <ele>428.19</ele>
        <time>2016-09-25T10:54:42.555Z</time>
      </trkpt>
      <trkpt lat="47.22412" lon="6.16902">
        <ele>426.905</ele>
        <time>2016-09-25T10:54:45.013Z</time>
      </trkpt>
      <trkpt lat="47.22418" lon="6.16915">
        <ele>425.819</ele>
        <time>2016-09-25T10:54:47.965Z</time>
      </trkpt>
      <trkpt lat="47.22425" lon="6.16931">
        <ele>425.007</ele>
        <time>2016-09-25T10:54:51.802Z</time>
      </trkpt>
      <trkpt lat="47.22428" lon="6.16943">
        <ele>425.1</ele>
        <time>2016-09-25T10:54:54.630Z</time>
      </trkpt>
      <trkpt lat="47.22435" lon="6.16954">
        <ele>426.398</ele>
        <time>2016-09-25T10:54:57.667Z</time>
      </trkpt>
      <trkpt lat="47.2244" lon="6.16966">
        <ele>427.962</ele>
        <time>2016-09-25T10:55:00.515Z</time>
      </trkpt>
      <trkpt lat="47.22445" lon="6.16979">
        <ele>430.031</ele>
        <time>2016-09-25T10:55:03.279Z</time>
      </trkpt>
      <trkpt lat="47.22451" lon="6.16991">
        <ele>433.299</ele>
        <time>2016-09-25T10:55:05.578Z</time>
      </trkpt>
      <trkpt lat="47.22454" lon="6.17003">
        <ele>436.518</ele>
        <time>2016-09-25T10:55:07.479Z</time>
      </trkpt>
      <trkpt lat="47.22458" lon="6.17017">
        <ele>438.153</ele>
        <time>2016-09-25T10:55:09.721Z</time>
      </trkpt>
      <trkpt lat="47.22463" lon="6.17029">
        <ele>438.503</ele>
        <time>2016-09-25T10:55:12.037Z</time>
      </trkpt>
      <trkpt lat="47.22469" lon="6.17041">
        <ele>438.731</ele>
        <time>2016-09-25T10:55:15.215Z</time>
      </trkpt>
      <trkpt lat="47.22477" lon="6.17054">
        <ele>439.401</ele>
        <time>2016-09-25T10:55:19.232Z</time>
      </trkpt>
      <trkpt lat="47.22482" lon="6.17067">
        <ele>440.434</ele>
        <time>2016-09-25T10:55:22.739Z</time>
      </trkpt>
      <trkpt lat="47.22486" lon="6.17082">
        <ele>441.755</ele>
        <time>2016-09-25T10:55:26.367Z</time>
      </trkpt>
      <trkpt lat="47.22491" lon="6.17096">
        <ele>443.257</ele>
        <time>2016-09-25T10:55:30.484Z</time>
      </trkpt>
      <trkpt lat="47.22497" lon="6.17105">
        <ele>444.585</ele>
        <time>2016-09-25T10:55:34.848Z</time>
      </trkpt>
      <trkpt lat="47.22505" lon="6.17118">
        <ele>445.441</ele>
        <time>2016-09-25T10:55:40.864Z</time>
      </trkpt>
      <trkpt lat="47.2251" lon="6.17134">
        <ele>445.877</ele>
        <time>2016-09-25T10:55:47.366Z</time>
      </trkpt>
      <trkpt lat="47.22513" lon="6.17146">
        <ele>445.998</ele>
        <time>2016-09-25T10:55:52.899Z</time>
      </trkpt>
      <trkpt lat="47.22519" lon="6.17158">
        <ele>445.622</ele>
        <time>2016-09-25T10:55:58.435Z</time>
      </trkpt>
      <trkpt lat="47.22526" lon="6.17169">
        <ele>444.923</ele>
        <time>2016-09-25T10:56:04.263Z</time>
      </trkpt>
      <trkpt lat="47.22531" lon="6.17182">
        <ele>444.779</ele>
        <time>2016-09-25T10:56:09.473Z</time>
      </trkpt>
      <trkpt lat="47.22534" lon="6.17195">
        <ele>446.467</ele>
        <time>2016-09-25T10:56:14.810Z</time>
      </trkpt>
      <trkpt lat="47.22539" lon="6.17209">
        <ele>449.572</ele>
        <time>2016-09-25T10:56:20.954Z</time>
      </trkpt>
      <trkpt lat="47.22544" lon="6.17224">
        <ele>452.282</ele>
        <time>2016-09-25T10:56:27.095Z</time>
      </trkpt>
      <trkpt lat="47.22548" lon="6.17237">
        <ele>453.336</ele>
        <time>2016-09-25T10:56:32.005Z</time>
      </trkpt>
      <trkpt lat="47.22554" lon="6.17248">
        <ele>452.926</ele>
        <time>2016-09-25T10:56:37.307Z</time>
      </trkpt>
      <trkpt lat="47.22558" lon="6.17263">
        <ele>452.041</ele>
        <time>2016-09-25T10:56:42.844Z</time>
      </trkpt>
      <trkpt lat="47.22564" lon="6.17275">
        <ele>451.34</ele>
        <time>2016-09-25T10:56:47.951Z</time>
      </trkpt>
      <trkpt lat="47.2257" lon="6.17287">
        <ele>450.847</ele>
        <time>2016-09-25T10:56:53.194Z</time>
      </trkpt>
      <trkpt lat="47.22574" lon="6.17299">
        <ele>451.315</ele>
        <time>2016-09-25T10:56:57.917Z</time>
      </trkpt>
      <trkpt lat="47.22579" lon="6.17315">
        <ele>453.663</ele>
        <time>2016-09-25T10:57:03.709Z</time>
      </trkpt>
      <trkpt lat="47.22585" lon="6.17329">
        <ele>457.348</ele>
        <time>2016-09-25T10:57:09.274Z</time>
      </trkpt>
      <trkpt lat="47.2259" lon="6.17342">
        <ele>460.597</ele>
        <time>2016-09-25T10:57:13.947Z</time>
      </trkpt>
      <trkpt lat="47.22596" lon="6.17354">
        <ele>462.306</ele>
        <time>2016-09-25T10:57:18.565Z</time>
      </trkpt>
      <trkpt lat="47.226" lon="6.17368">
        <ele>462.915</ele>
        <time>2016-09-25T10:57:23.200Z</time>
      </trkpt>
      <trkpt lat="47.22605" lon="6.17384">
        <ele>463.889</ele>
        <time>2016-09-25T10:57:28.747Z</time>
      </trkpt>
      <trkpt lat="47.22611" lon="6.17401">
        <ele>465.799</ele>
        <time>2016-09-25T10:57:34.412Z</time>
      </trkpt>
      <trkpt lat="47.22617" lon="6.17412">
        <ele>468.391</ele>
        <time>2016-09-25T10:57:38.598Z</time>
      </trkpt>
      <trkpt lat="47.22625" lon="6.17423">
        <ele>471.203</ele>
        <time>2016-09-25T10:57:43.096Z</time>
      </trkpt>
      <trkpt lat="47.22631" lon="6.17439">
        <ele>473.456</ele>
        <time>2016-09-25T10:57:46.982Z</time>
      </trkpt>
      <trkpt lat="47.22632" lon="6.17457">
        <ele>474.667</ele>
        <time>2016-09-25T10:57:50.899Z</time>
      </trkpt>
      <trkpt lat="47.22624" lon="6.17472">
        <ele>474.043</ele>
        <time>2016-09-25T10:57:54.654Z</time>
      </trkpt>
      <trkpt lat="47.22613" lon="6.17484">
        <ele>470.581</ele>
        <time>2016-09-25T10:57:58.494Z</time>
      </trkpt>
      <trkpt lat="47.22586" lon="6.17506">
        <ele>465.667</ele>
        <time>2016-09-25T10:58:04.623Z</time>
      </trkpt>
      <trkpt lat="47.22561" lon="6.17519">
        <ele>461.005</ele>
        <time>2016-09-25T10:58:08.268Z</time>
      </trkpt>
      <trkpt lat="47.22542" lon="6.17534">
        <ele>456.8</ele>
        <time>2016-09-25T10:58:10.638Z</time>
      </trkpt>
      <trkpt lat="47.22527" lon="6.17553">
        <ele>453.645</ele>
        <time>2016-09-25T10:58:12.690Z</time>
      </trkpt>
      <trkpt lat="47.22501" lon="6.17573">
        <ele>451.859</ele>
        <time>2016-09-25T10:58:15.408Z</time>
      </trkpt>
      <trkpt lat="47.22474" lon="6.17595">
        <ele>450.554</ele>
        <time>2016-09-25T10:58:18.150Z</time>
      </trkpt>
      <trkpt lat="47.22455" lon="6.1761">
        <ele>449.054</ele>
        <time>2016-09-25T10:58:19.922Z</time>
      </trkpt>
      <trkpt lat="47.22425" lon="6.17629">
        <ele>447.233</ele>
        <time>2016-09-25T10:58:22.706Z</time>
      </trkpt>
      <trkpt lat="47.22407" lon="6.17646">
        <ele>445.328</ele>
        <time>2016-09-25T10:58:24.538Z</time>
      </trkpt>
      <trkpt lat="47.2238" lon="6.17668">
        <ele>443.566</ele>
        <time>2016-09-25T10:58:27.222Z</time>
      </trkpt>
      <trkpt lat="47.22361" lon="6.17679">
        <ele>441.761</ele>
        <time>2016-09-25T10:58:29.129Z</time>
      </trkpt>
      <trkpt lat="47.22347" lon="6.17695">
        <ele>439.839</ele>
        <time>2016-09-25T10:58:30.784Z</time>
      </trkpt>
      <trkpt lat="47.22333" lon="6.17713">
        <ele>438.198</ele>
        <time>2016-09-25T10:58:32.564Z</time>
      </trkpt>
      <trkpt lat="47.22317" lon="6.17747">
        <ele>437.118</ele>
        <time>2016-09-25T10:58:35.359Z</time>
      </trkpt>
      <trkpt lat="47.22301" lon="6.17778">
        <ele>436.45</ele>
        <time>2016-09-25T10:58:38.073Z</time>
      </trkpt>
      <trkpt lat="47.22294" lon="6.17796">
        <ele>435.834</ele>
        <time>2016-09-25T10:58:39.777Z</time>
      </trkpt>
      <trkpt lat="47.22288" lon="6.17817">
        <ele>434.992</ele>
        <time>2016-09-25T10:58:41.909Z</time>
      </trkpt>
      <trkpt lat="47.22281" lon="6.17835">
        <ele>433.969</ele>
        <time>2016-09-25T10:58:44.301Z</time>
      </trkpt>
      <trkpt lat="47.22281" lon="6.17858">
        <ele>432.958</ele>
        <time>2016-09-25T10:58:46.984Z</time>
      </trkpt>
      <trkpt lat="47.22289" lon="6.1787">
        <ele>431.46</ele>
        <time>2016-09-25T10:58:49.010Z</time>
      </trkpt>
      <trkpt lat="47.223" lon="6.17888">
        <ele>429.236</ele>
        <time>2016-09-25T10:58:51.993Z</time>
      </trkpt>
      <trkpt lat="47.2231" lon="6.17909">
        <ele>427.306</ele>
        <time>2016-09-25T10:58:55.052Z</time>
      </trkpt>
      <trkpt lat="47.22319" lon="6.17928">
        <ele>426.429</ele>
        <time>2016-09-25T10:58:57.839Z</time>
      </trkpt>
      <trkpt lat="47.22329" lon="6.17946">
        <ele>426.291</ele>
        <time>2016-09-25T10:59:00.521Z</time>
      </trkpt>
      <trkpt lat="47.22336" lon="6.17958">
        <ele>426.56</ele>
        <time>2016-09-25T10:59:02.511Z</time>
      </trkpt>
      <trkpt lat="47.22345" lon="6.17976">
        <ele>426.98</ele>
        <time>2016-09-25T10:59:05.229Z</time>
      </trkpt>
      <trkpt lat="47.22354" lon="6.17994">
        <ele>427.273</ele>
        <time>2016-09-25T10:59:07.759Z</time>
      </trkpt>
      <trkpt lat="47.22364" lon="6.18012">
        <ele>427.011</ele>
        <time>2016-09-25T10:59:10.418Z</time>
      </trkpt>
      <trkpt lat="47.22372" lon="6.18029">
        <ele>426.079</ele>
        <time>2016-09-25T10:59:12.715Z</time>
      </trkpt>
      <trkpt lat="47.22379" lon="6.18041">
        <ele>425.122</ele>
        <time>2016-09-25T10:59:14.566Z</time>
      </trkpt>
      <trkpt lat="47.22385" lon="6.18055">
        <ele>424.882</ele>
        <time>2016-09-25T10:59:16.475Z</time>
      </trkpt>
      <trkpt lat="47.22396" lon="6.18078">
        <ele>425.153</ele>
        <time>2016-09-25T10:59:19.773Z</time>
      </trkpt>
      <trkpt lat="47.22407" lon="6.181">
        <ele>425.607</ele>
        <time>2016-09-25T10:59:22.876Z</time>
      </trkpt>
      <trkpt lat="47.22414" lon="6.18121">
        <ele>426.338</ele>
        <time>2016-09-25T10:59:25.400Z</time>
      </trkpt>
      <trkpt lat="47.22422" lon="6.18133">
        <ele>427.496</ele>
        <time>2016-09-25T10:59:27.340Z</time>
      </trkpt>
      <trkpt lat="47.22427" lon="6.18148">
        <ele>429.142</ele>
        <time>2016-09-25T10:59:29.668Z</time>
      </trkpt>
      <trkpt lat="47.22436" lon="6.18165">
        <ele>431.044</ele>
        <time>2016-09-25T10:59:32.805Z</time>
      </trkpt>
      <trkpt lat="47.22445" lon="6.18172">
        <ele>432.833</ele>
        <time>2016-09-25T10:59:34.904Z</time>
      </trkpt>
      <trkpt lat="47.22449" lon="6.18184">
        <ele>434.451</ele>
        <time>2016-09-25T10:59:36.797Z</time>
      </trkpt>
      <trkpt lat="47.22457" lon="6.18194">
        <ele>435.685</ele>
        <time>2016-09-25T10:59:38.942Z</time>
      </trkpt>
      <trkpt lat="47.22463" lon="6.18203">
        <ele>436.376</ele>
        <time>2016-09-25T10:59:41.950Z</time>
      </trkpt>
      <trkpt lat="47.2247" lon="6.18216">
        <ele>436.665</ele>
        <time>2016-09-25T10:59:46.605Z</time>
      </trkpt>
      <trkpt lat="47.22477" lon="6.18228">
        <ele>436.828</ele>
        <time>2016-09-25T10:59:50.969Z</time>
      </trkpt>
      <trkpt lat="47.22485" lon="6.1824">
        <ele>437.239</ele>
        <time>2016-09-25T10:59:55.036Z</time>
      </trkpt>
      <trkpt lat="47.22494" lon="6.18251">
        <ele>438.063</ele>
        <time>2016-09-25T10:59:59.320Z</time>
      </trkpt>
      <trkpt lat="47.22502" lon="6.18261">
        <ele>439.167</ele>
        <time>2016-09-25T11:00:02.847Z</time>
      </trkpt>
      <trkpt lat="47.22509" lon="6.18271">
        <ele>440.623</ele>
        <time>2016-09-25T11:00:06.428Z</time>
      </trkpt>
      <trkpt lat="47.22515" lon="6.18285">
        <ele>442.384</ele>
        <time>2016-09-25T11:00:09.999Z</time>
      </trkpt>
      <trkpt lat="47.22533" lon="6.18317">
        <ele>443.305</ele>
        <time>2016-09-25T11:00:19.944Z</time>
      </trkpt>
      <trkpt lat="47.22542" lon="6.18329">
        <ele>441.92</ele>
        <time>2016-09-25T11:00:23.021Z</time>
      </trkpt>
      <trkpt lat="47.22554" lon="6.18341">
        <ele>438.405</ele>
        <time>2016-09-25T11:00:26.233Z</time>
      </trkpt>
      <trkpt lat="47.22563" lon="6.1835">
        <ele>434.129</ele>
        <time>2016-09-25T11:00:29.039Z</time>
      </trkpt>
      <trkpt lat="47.2257" lon="6.1836">
        <ele>430.185</ele>
        <time>2016-09-25T11:00:32.261Z</time>
      </trkpt>
      <trkpt lat="47.2258" lon="6.18372">
        <ele>427.216</ele>
        <time>2016-09-25T11:00:36.452Z</time>
      </trkpt>
      <trkpt lat="47.22591" lon="6.18385">
        <ele>425.625</ele>
        <time>2016-09-25T11:00:40.197Z</time>
      </trkpt>
      <trkpt lat="47.226" lon="6.18396">
        <ele>425.278</ele>
        <time>2016-09-25T11:00:42.617Z</time>
      </trkpt>
      <trkpt lat="47.22613" lon="6.18411">
        <ele>425.879</ele>
        <time>2016-09-25T11:00:45.731Z</time>
      </trkpt>
      <trkpt lat="47.22628" lon="6.18433">
        <ele>426.983</ele>
        <time>2016-09-25T11:00:49.377Z</time>
      </trkpt>
      <trkpt lat="47.22643" lon="6.18457">
        <ele>427.965</ele>
        <time>2016-09-25T11:00:52.879Z</time>
      </trkpt>
      <trkpt lat="47.2266" lon="6.18487">
        <ele>428.184</ele>
        <time>2016-09-25T11:00:57.146Z</time>
      </trkpt>
      <trkpt lat="47.22669" lon="6.18496">
        <ele>427.439</ele>
        <time>2016-09-25T11:00:58.996Z</time>
      </trkpt>
      <trkpt lat="47.22677" lon="6.18507">
        <ele>426.155</ele>
        <time>2016-09-25T11:01:00.917Z</time>
      </trkpt>
      <trkpt lat="47.2269" lon="6.18528">
        <ele>424.975</ele>
        <time>2016-09-25T11:01:04.835Z</time>
      </trkpt>
      <trkpt lat="47.22699" lon="6.1854">
        <ele>423.98</ele>
        <time>2016-09-25T11:01:07.742Z</time>
      </trkpt>
      <trkpt lat="47.22709" lon="6.18553">
        <ele>423.064</ele>
        <time>2016-09-25T11:01:11.219Z</time>
      </trkpt>
      <trkpt lat="47.22717" lon="6.1856">
        <ele>422.769</ele>
        <time>2016-09-25T11:01:13.400Z</time>
      </trkpt>
      <trkpt lat="47.22729" lon="6.18579">
        <ele>423.618</ele>
        <time>2016-09-25T11:01:17.574Z</time>
      </trkpt>
      <trkpt lat="47.22736" lon="6.1859">
        <ele>424.953</ele>
        <time>2016-09-25T11:01:20.066Z</time>
      </trkpt>
      <trkpt lat="47.22744" lon="6.18599">
        <ele>426.504</ele>
        <time>2016-09-25T11:01:22.411Z</time>
      </trkpt>
      <trkpt lat="47.22754" lon="6.18613">
        <ele>429.35</ele>
        <time>2016-09-25T11:01:25.814Z</time>
      </trkpt>
      <trkpt lat="47.22763" lon="6.18624">
        <ele>433.281</ele>
        <time>2016-09-25T11:01:29.032Z</time>
      </trkpt>
      <trkpt lat="47.22773" lon="6.18632">
        <ele>436.114</ele>
        <time>2016-09-25T11:01:31.587Z</time>
      </trkpt>
      <trkpt lat="47.22782" lon="6.18646">
        <ele>436.553</ele>
        <time>2016-09-25T11:01:34.388Z</time>
      </trkpt>
      <trkpt lat="47.22791" lon="6.18663">
        <ele>435.343</ele>
        <time>2016-09-25T11:01:37.669Z</time>
      </trkpt>
      <trkpt lat="47.22798" lon="6.18675">
        <ele>433.767</ele>
        <time>2016-09-25T11:01:40.021Z</time>
      </trkpt>
      <trkpt lat="47.22807" lon="6.18687">
        <ele>432.166</ele>
        <time>2016-09-25T11:01:42.097Z</time>
      </trkpt>
      <trkpt lat="47.22816" lon="6.18704">
        <ele>430.449</ele>
        <time>2016-09-25T11:01:44.511Z</time>
      </trkpt>
      <trkpt lat="47.22819" lon="6.18717">
        <ele>429.467</ele>
        <time>2016-09-25T11:01:45.951Z</time>
      </trkpt>
      <trkpt lat="47.22828" lon="6.18745">
        <ele>429.841</ele>
        <time>2016-09-25T11:01:48.769Z</time>
      </trkpt>
      <trkpt lat="47.22838" lon="6.18775">
        <ele>430.786</ele>
        <time>2016-09-25T11:01:52.061Z</time>
      </trkpt>
      <trkpt lat="47.22845" lon="6.18796">
        <ele>431.778</ele>
        <time>2016-09-25T11:01:55.034Z</time>
      </trkpt>
      <trkpt lat="47.22854" lon="6.1882">
        <ele>432.925</ele>
        <time>2016-09-25T11:01:59.722Z</time>
      </trkpt>
      <trkpt lat="47.22861" lon="6.18837">
        <ele>433.962</ele>
        <time>2016-09-25T11:02:03.475Z</time>
      </trkpt>
      <trkpt lat="47.22867" lon="6.18851">
        <ele>434.949</ele>
        <time>2016-09-25T11:02:06.924Z</time>
      </trkpt>
      <trkpt lat="47.22872" lon="6.18866">
        <ele>436.187</ele>
        <time>2016-09-25T11:02:10.363Z</time>
      </trkpt>
      <trkpt lat="47.22878" lon="6.1888">
        <ele>436.8</ele>
        <time>2016-09-25T11:02:13.991Z</time>
      </trkpt>
      <trkpt lat="47.22882" lon="6.18893">
        <ele>435.747</ele>
        <time>2016-09-25T11:02:17.951Z</time>
      </trkpt>
      <trkpt lat="47.22887" lon="6.18909">
        <ele>433.576</ele>
        <time>2016-09-25T11:02:22.016Z</time>
      </trkpt>
      <trkpt lat="47.22892" lon="6.18924">
        <ele>431.797</ele>
        <time>2016-09-25T11:02:25.153Z</time>
      </trkpt>
      <trkpt lat="47.22896" lon="6.18937">
        <ele>431.185</ele>
        <time>2016-09-25T11:02:27.667Z</time>
      </trkpt>
      <trkpt lat="47.22899" lon="6.18953">
        <ele>431.68</ele>
        <time>2016-09-25T11:02:30.640Z</time>
      </trkpt>
      <trkpt lat="47.22901" lon="6.18969">
        <ele>433.03</ele>
        <time>2016-09-25T11:02:33.942Z</time>
      </trkpt>
      <trkpt lat="47.22905" lon="6.18986">
        <ele>434.694</ele>
        <time>2016-09-25T11:02:38.767Z</time>
      </trkpt>
      <trkpt lat="47.2291" lon="6.19002">
        <ele>435.852</ele>
        <time>2016-09-25T11:02:43.291Z</time>
      </trkpt>
      <trkpt lat="47.22916" lon="6.19017">
        <ele>436.09</ele>
        <time>2016-09-25T11:02:46.611Z</time>
      </trkpt>
      <trkpt lat="47.22921" lon="6.1903">
        <ele>435.693</ele>
        <time>2016-09-25T11:02:49.092Z</time>
      </trkpt>
      <trkpt lat="47.22926" lon="6.19042">
        <ele>435.582</ele>
        <time>2016-09-25T11:02:51.209Z</time>
      </trkpt>
      <trkpt lat="47.22932" lon="6.19055">
        <ele>436.24</ele>
        <time>2016-09-25T11:02:53.352Z</time>
      </trkpt>
      <trkpt lat="47.2294" lon="6.1907">
        <ele>436.386</ele>
        <time>2016-09-25T11:02:56.088Z</time>
      </trkpt>
      <trkpt lat="47.22949" lon="6.19088">
        <ele>434.541</ele>
        <time>2016-09-25T11:02:59.835Z</time>
      </trkpt>
      <trkpt lat="47.22958" lon="6.19108">
        <ele>431.465</ele>
        <time>2016-09-25T11:03:04.064Z</time>
      </trkpt>
      <trkpt lat="47.22964" lon="6.19122">
        <ele>429.014</ele>
        <time>2016-09-25T11:03:07.252Z</time>
      </trkpt>
      <trkpt lat="47.22971" lon="6.19138">
        <ele>428.055</ele>
        <time>2016-09-25T11:03:11.442Z</time>
      </trkpt>
      <trkpt lat="47.22978" lon="6.19151">
        <ele>428.393</ele>
        <time>2016-09-25T11:03:16.647Z</time>
      </trkpt>
      <trkpt lat="47.22984" lon="6.19164">
        <ele>429.598</ele>
        <time>2016-09-25T11:03:20.642Z</time>
      </trkpt>
      <trkpt lat="47.2299" lon="6.19175">
        <ele>431.126</ele>
        <time>2016-09-25T11:03:23.182Z</time>
      </trkpt>
      <trkpt lat="47.22998" lon="6.1919">
        <ele>431.914</ele>
        <time>2016-09-25T11:03:26.463Z</time>
      </trkpt>
      <trkpt lat="47.23002" lon="6.19205">
        <ele>431.437</ele>
        <time>2016-09-25T11:03:29.060Z</time>
      </trkpt>
      <trkpt lat="47.23009" lon="6.19214">
        <ele>430.667</ele>
        <time>2016-09-25T11:03:31.468Z</time>
      </trkpt>
      <trkpt lat="47.23015" lon="6.19226">
        <ele>430.569</ele>
        <time>2016-09-25T11:03:34.043Z</time>
      </trkpt>
      <trkpt lat="47.23024" lon="6.19238">
        <ele>430.976</ele>
        <time>2016-09-25T11:03:37.327Z</time>
      </trkpt>
      <trkpt lat="47.23033" lon="6.19251">
        <ele>431.367</ele>
        <time>2016-09-25T11:03:40.564Z</time>
      </trkpt>
      <trkpt lat="47.23043" lon="6.19261">
        <ele>431.427</ele>
        <time>2016-09-25T11:03:43.364Z</time>
      </trkpt>
      <trkpt lat="47.23051" lon="6.19272">
        <ele>430.841</ele>
        <time>2016-09-25T11:03:45.545Z</time>
      </trkpt>
      <trkpt lat="47.23059" lon="6.19282">
        <ele>429.32</ele>
        <time>2016-09-25T11:03:47.323Z</time>
      </trkpt>
      <trkpt lat="47.23067" lon="6.19293">
        <ele>427.71</ele>
        <time>2016-09-25T11:03:49.008Z</time>
      </trkpt>
      <trkpt lat="47.23074" lon="6.19307">
        <ele>427.309</ele>
        <time>2016-09-25T11:03:50.814Z</time>
      </trkpt>
      <trkpt lat="47.23081" lon="6.19318">
        <ele>427.937</ele>
        <time>2016-09-25T11:03:52.311Z</time>
      </trkpt>
      <trkpt lat="47.23094" lon="6.19339">
        <ele>427.907</ele>
        <time>2016-09-25T11:03:55.204Z</time>
      </trkpt>
      <trkpt lat="47.23108" lon="6.1936">
        <ele>426.482</ele>
        <time>2016-09-25T11:03:58.806Z</time>
      </trkpt>
      <trkpt lat="47.23123" lon="6.19385">
        <ele>424.744</ele>
        <time>2016-09-25T11:04:03.694Z</time>
      </trkpt>
      <trkpt lat="47.23141" lon="6.19415">
        <ele>423.564</ele>
        <time>2016-09-25T11:04:10.364Z</time>
      </trkpt>
      <trkpt lat="47.2315" lon="6.19427">
        <ele>422.658</ele>
        <time>2016-09-25T11:04:13.572Z</time>
      </trkpt>
      <trkpt lat="47.23156" lon="6.19436">
        <ele>421.847</ele>
        <time>2016-09-25T11:04:15.774Z</time>
      </trkpt>
      <trkpt lat="47.23166" lon="6.19447">
        <ele>421.158</ele>
        <time>2016-09-25T11:04:18.544Z</time>
      </trkpt>
      <trkpt lat="47.23176" lon="6.19458">
        <ele>420.689</ele>
        <time>2016-09-25T11:04:21.346Z</time>
      </trkpt>
      <trkpt lat="47.23184" lon="6.19465">
        <ele>420.842</ele>
        <time>2016-09-25T11:04:23.776Z</time>
      </trkpt>
      <trkpt lat="47.23191" lon="6.19476">
        <ele>421.697</ele>
        <time>2016-09-25T11:04:26.690Z</time>
      </trkpt>
      <trkpt lat="47.23201" lon="6.19487">
        <ele>422.629</ele>
        <time>2016-09-25T11:04:30.501Z</time>
      </trkpt>
      <trkpt lat="47.23212" lon="6.19501">
        <ele>422.967</ele>
        <time>2016-09-25T11:04:35.826Z</time>
      </trkpt>
      <trkpt lat="47.23222" lon="6.19514">
        <ele>422.07</ele>
        <time>2016-09-25T11:04:41.986Z</time>
      </trkpt>
      <trkpt lat="47.23228" lon="6.19526">
        <ele>419.958</ele>
        <time>2016-09-25T11:04:46.270Z</time>
      </trkpt>
      <trkpt lat="47.23234" lon="6.19535">
        <ele>418.29</ele>
        <time>2016-09-25T11:04:49.720Z</time>
      </trkpt>
      <trkpt lat="47.23242" lon="6.19545">
        <ele>418.281</ele>
        <time>2016-09-25T11:04:53.464Z</time>
      </trkpt>
      <trkpt lat="47.23247" lon="6.19556">
        <ele>419.166</ele>
        <time>2016-09-25T11:04:57.012Z</time>
      </trkpt>
      <trkpt lat="47.23254" lon="6.19565">
        <ele>419.887</ele>
        <time>2016-09-25T11:05:00.329Z</time>
      </trkpt>
      <trkpt lat="47.23261" lon="6.19574">
        <ele>420.544</ele>
        <time>2016-09-25T11:05:03.696Z</time>
      </trkpt>
      <trkpt lat="47.23268" lon="6.19585">
        <ele>421.512</ele>
        <time>2016-09-25T11:05:07.180Z</time>
      </trkpt>
      <trkpt lat="47.23275" lon="6.19596">
        <ele>422.42</ele>
        <time>2016-09-25T11:05:10.673Z</time>
      </trkpt>
      <trkpt lat="47.23283" lon="6.19608">
        <ele>422.699</ele>
        <time>2016-09-25T11:05:14.708Z</time>
      </trkpt>
      <trkpt lat="47.23292" lon="6.19618">
        <ele>422.182</ele>
        <time>2016-09-25T11:05:19.920Z</time>
      </trkpt>
      <trkpt lat="47.23299" lon="6.19628">
        <ele>421.161</ele>
        <time>2016-09-25T11:05:26.231Z</time>
      </trkpt>
      <trkpt lat="47.23307" lon="6.19637">
        <ele>420.337</ele>
        <time>2016-09-25T11:05:30.905Z</time>
      </trkpt>
      <trkpt lat="47.23316" lon="6.19648">
        <ele>420.433</ele>
        <time>2016-09-25T11:05:35.559Z</time>
      </trkpt>
      <trkpt lat="47.23325" lon="6.19657">
        <ele>421.474</ele>
        <time>2016-09-25T11:05:39.489Z</time>
      </trkpt>
      <trkpt lat="47.23331" lon="6.19666">
        <ele>423.359</ele>
        <time>2016-09-25T11:05:43.052Z</time>
      </trkpt>
      <trkpt lat="47.23338" lon="6.19676">
        <ele>425.855</ele>
        <time>2016-09-25T11:05:46.851Z</time>
      </trkpt>
      <trkpt lat="47.23345" lon="6.19689">
        <ele>427.246</ele>
        <time>2016-09-25T11:05:51.394Z</time>
      </trkpt>
      <trkpt lat="47.23353" lon="6.19699">
        <ele>426.233</ele>
        <time>2016-09-25T11:05:55.474Z</time>
      </trkpt>
      <trkpt lat="47.2336" lon="6.19709">
        <ele>423.953</ele>
        <time>2016-09-25T11:05:58.310Z</time>
      </trkpt>
      <trkpt lat="47.23366" lon="6.19719">
        <ele>421.902</ele>
        <time>2016-09-25T11:06:00.336Z</time>
      </trkpt>
      <trkpt lat="47.23372" lon="6.19732">
        <ele>420.797</ele>
        <time>2016-09-25T11:06:02.603Z</time>
      </trkpt>
      <trkpt lat="47.23375" lon="6.19745">
        <ele>420.749</ele>
        <time>2016-09-25T11:06:04.569Z</time>
      </trkpt>
      <trkpt lat="47.23382" lon="6.19758">
        <ele>421.334</ele>
        <time>2016-09-25T11:06:07.322Z</time>
      </trkpt>
      <trkpt lat="47.2339" lon="6.19769">
        <ele>423.479</ele>
        <time>2016-09-25T11:06:11.127Z</time>
      </trkpt>
      <trkpt lat="47.23399" lon="6.19778">
        <ele>427.635</ele>
        <time>2016-09-25T11:06:16.138Z</time>
      </trkpt>
      <trkpt lat="47.2341" lon="6.19794">
        <ele>430.816</ele>
        <time>2016-09-25T11:06:24.321Z</time>
      </trkpt>
      <trkpt lat="47.23425" lon="6.19808">
        <ele>430.539</ele>
        <time>2016-09-25T11:06:30.145Z</time>
      </trkpt>
      <trkpt lat="47.23438" lon="6.19824">
        <ele>428.278</ele>
        <time>2016-09-25T11:06:35.296Z</time>
      </trkpt>
      <trkpt lat="47.23446" lon="6.19838">
        <ele>426.384</ele>
        <time>2016-09-25T11:06:38.968Z</time>
      </trkpt>
      <trkpt lat="47.23451" lon="6.1985">
        <ele>426.181</ele>
        <time>2016-09-25T11:06:41.889Z</time>
      </trkpt>
      <trkpt lat="47.2346" lon="6.19855">
        <ele>427.737</ele>
        <time>2016-09-25T11:06:44.606Z</time>
      </trkpt>
      <trkpt lat="47.23469" lon="6.19867">
        <ele>429.791</ele>
        <time>2016-09-25T11:06:48.120Z</time>
      </trkpt>
      <trkpt lat="47.23475" lon="6.1988">
        <ele>431.753</ele>
        <time>2016-09-25T11:06:51.254Z</time>
      </trkpt>
      <trkpt lat="47.23483" lon="6.19893">
        <ele>433.815</ele>
        <time>2016-09-25T11:06:54.711Z</time>
      </trkpt>
      <trkpt lat="47.23491" lon="6.19906">
        <ele>435.421</ele>
        <time>2016-09-25T11:06:58.055Z</time>
      </trkpt>
      <trkpt lat="47.23499" lon="6.19917">
        <ele>436.289</ele>
        <time>2016-09-25T11:07:01.458Z</time>
      </trkpt>
      <trkpt lat="47.23507" lon="6.19931">
        <ele>436.945</ele>
        <time>2016-09-25T11:07:05.715Z</time>
      </trkpt>
      <trkpt lat="47.23515" lon="6.19944">
        <ele>436.942</ele>
        <time>2016-09-25T11:07:10.491Z</time>
      </trkpt>
      <trkpt lat="47.23522" lon="6.19958">
        <ele>435.832</ele>
        <time>2016-09-25T11:07:15.864Z</time>
      </trkpt>
      <trkpt lat="47.2353" lon="6.19971">
        <ele>434.576</ele>
        <time>2016-09-25T11:07:21.434Z</time>
      </trkpt>
      <trkpt lat="47.23541" lon="6.19983">
        <ele>434.094</ele>
        <time>2016-09-25T11:07:27.317Z</time>
      </trkpt>
      <trkpt lat="47.23548" lon="6.19992">
        <ele>434.171</ele>
        <time>2016-09-25T11:07:31.916Z</time>
      </trkpt>
      <trkpt lat="47.23554" lon="6.20001">
        <ele>433.981</ele>
        <time>2016-09-25T11:07:37.019Z</time>
      </trkpt>
      <trkpt lat="47.23562" lon="6.20012">
        <ele>433.087</ele>
        <time>2016-09-25T11:07:41.248Z</time>
      </trkpt>
      <trkpt lat="47.23572" lon="6.20021">
        <ele>431.909</ele>
        <time>2016-09-25T11:07:44.358Z</time>
      </trkpt>
      <trkpt lat="47.2358" lon="6.20029">
        <ele>431.135</ele>
        <time>2016-09-25T11:07:46.638Z</time>
      </trkpt>
      <trkpt lat="47.23589" lon="6.20033">
        <ele>431.344</ele>
        <time>2016-09-25T11:07:48.526Z</time>
      </trkpt>
      <trkpt lat="47.23598" lon="6.20038">
        <ele>433.247</ele>
        <time>2016-09-25T11:07:50.582Z</time>
      </trkpt>
      <trkpt lat="47.23605" lon="6.20049">
        <ele>436.369</ele>
        <time>2016-09-25T11:07:52.489Z</time>
      </trkpt>
      <trkpt lat="47.23613" lon="6.20061">
        <ele>438.335</ele>
        <time>2016-09-25T11:07:54.826Z</time>
      </trkpt>
      <trkpt lat="47.23622" lon="6.20069">
        <ele>437.711</ele>
        <time>2016-09-25T11:07:57.042Z</time>
      </trkpt>
      <trkpt lat="47.23633" lon="6.20075">
        <ele>435.911</ele>
        <time>2016-09-25T11:07:59.351Z</time>
      </trkpt>
      <trkpt lat="47.23641" lon="6.20084">
        <ele>434.646</ele>
        <time>2016-09-25T11:08:01.561Z</time>
      </trkpt>
      <trkpt lat="47.23651" lon="6.20088">
        <ele>434.184</ele>
        <time>2016-09-25T11:08:03.511Z</time>
      </trkpt>
      <trkpt lat="47.2366" lon="6.20076">
        <ele>434.155</ele>
        <time>2016-09-25T11:08:06.133Z</time>
      </trkpt>
      <trkpt lat="47.23669" lon="6.20062">
        <ele>434.49</ele>
        <time>2016-09-25T11:08:09.223Z</time>
      </trkpt>
      <trkpt lat="47.23679" lon="6.20049">
        <ele>435.21</ele>
        <time>2016-09-25T11:08:12.530Z</time>
      </trkpt>
      <trkpt lat="47.23687" lon="6.20039">
        <ele>435.902</ele>
        <time>2016-09-25T11:08:15.009Z</time>
      </trkpt>
      <trkpt lat="47.23697" lon="6.20024">
        <ele>436.21</ele>
        <time>2016-09-25T11:08:18.626Z</time>
      </trkpt>
      <trkpt lat="47.23707" lon="6.2001">
        <ele>436.08</ele>
        <time>2016-09-25T11:08:22.084Z</time>
      </trkpt>
      <trkpt lat="47.23713" lon="6.2">
        <ele>435.572</ele>
        <time>2016-09-25T11:08:24.249Z</time>
      </trkpt>
      <trkpt lat="47.23721" lon="6.19985">
        <ele>434.877</ele>
        <time>2016-09-25T11:08:27.318Z</time>
      </trkpt>
      <trkpt lat="47.2373" lon="6.1997">
        <ele>434.197</ele>
        <time>2016-09-25T11:08:30.381Z</time>
      </trkpt>
      <trkpt lat="47.23738" lon="6.19955">
        <ele>433.711</ele>
        <time>2016-09-25T11:08:33.222Z</time>
      </trkpt>
      <trkpt lat="47.23744" lon="6.19943">
        <ele>433.549</ele>
        <time>2016-09-25T11:08:35.365Z</time>
      </trkpt>
      <trkpt lat="47.23751" lon="6.19931">
        <ele>433.705</ele>
        <time>2016-09-25T11:08:37.432Z</time>
      </trkpt>
      <trkpt lat="47.23757" lon="6.19918">
        <ele>434.178</ele>
        <time>2016-09-25T11:08:39.527Z</time>
      </trkpt>
      <trkpt lat="47.23762" lon="6.19905">
        <ele>435.141</ele>
        <time>2016-09-25T11:08:41.553Z</time>
      </trkpt>
      <trkpt lat="47.23768" lon="6.19892">
        <ele>437.097</ele>
        <time>2016-09-25T11:08:43.704Z</time>
      </trkpt>
      <trkpt lat="47.23774" lon="6.19876">
        <ele>440.22</ele>
        <time>2016-09-25T11:08:45.880Z</time>
      </trkpt>
      <trkpt lat="47.23781" lon="6.19861">
        <ele>443.473</ele>
        <time>2016-09-25T11:08:47.863Z</time>
      </trkpt>
      <trkpt lat="47.23788" lon="6.19847">
        <ele>445.515</ele>
        <time>2016-09-25T11:08:49.733Z</time>
      </trkpt>
      <trkpt lat="47.23798" lon="6.19834">
        <ele>445.945</ele>
        <time>2016-09-25T11:08:51.688Z</time>
      </trkpt>
      <trkpt lat="47.23807" lon="6.19819">
        <ele>445.305</ele>
        <time>2016-09-25T11:08:53.871Z</time>
      </trkpt>
      <trkpt lat="47.23819" lon="6.19791">
        <ele>443.727</ele>
        <time>2016-09-25T11:08:57.448Z</time>
      </trkpt>
      <trkpt lat="47.23831" lon="6.19775">
        <ele>441.3</ele>
        <time>2016-09-25T11:09:00.326Z</time>
      </trkpt>
      <trkpt lat="47.23842" lon="6.19761">
        <ele>439.131</ele>
        <time>2016-09-25T11:09:02.824Z</time>
      </trkpt>
      <trkpt lat="47.23856" lon="6.19752">
        <ele>438.324</ele>
        <time>2016-09-25T11:09:05.311Z</time>
      </trkpt>
      <trkpt lat="47.23867" lon="6.19745">
        <ele>438.628</ele>
        <time>2016-09-25T11:09:07.337Z</time>
      </trkpt>
      <trkpt lat="47.23883" lon="6.19733">
        <ele>438.667</ele>
        <time>2016-09-25T11:09:10.078Z</time>
      </trkpt>
      <trkpt lat="47.23898" lon="6.19722">
        <ele>437.527</ele>
        <time>2016-09-25T11:09:12.733Z</time>
      </trkpt>
      <trkpt lat="47.23913" lon="6.19715">
        <ele>436.073</ele>
        <time>2016-09-25T11:09:15.201Z</time>
      </trkpt>
      <trkpt lat="47.23927" lon="6.19704">
        <ele>435.499</ele>
        <time>2016-09-25T11:09:17.860Z</time>
      </trkpt>
      <trkpt lat="47.23942" lon="6.19696">
        <ele>435.907</ele>
        <time>2016-09-25T11:09:20.589Z</time>
      </trkpt>
      <trkpt lat="47.23957" lon="6.19688">
        <ele>437.157</ele>
        <time>2016-09-25T11:09:23.320Z</time>
      </trkpt>
      <trkpt lat="47.23977" lon="6.19682">
        <ele>438.912</ele>
        <time>2016-09-25T11:09:26.606Z</time>
      </trkpt>
      <trkpt lat="47.23995" lon="6.1967">
        <ele>440.117</ele>
        <time>2016-09-25T11:09:29.542Z</time>
      </trkpt>
      <trkpt lat="47.2401" lon="6.1966">
        <ele>439.732</ele>
        <time>2016-09-25T11:09:32.164Z</time>
      </trkpt>
      <trkpt lat="47.24019" lon="6.19654">
        <ele>438.175</ele>
        <time>2016-09-25T11:09:33.660Z</time>
      </trkpt>
      <trkpt lat="47.24035" lon="6.19647">
        <ele>436.754</ele>
        <time>2016-09-25T11:09:36.192Z</time>
      </trkpt>
      <trkpt lat="47.24049" lon="6.19635">
        <ele>436.171</ele>
        <time>2016-09-25T11:09:38.702Z</time>
      </trkpt>
      <trkpt lat="47.24064" lon="6.19624">
        <ele>436.162</ele>
        <time>2016-09-25T11:09:41.352Z</time>
      </trkpt>
      <trkpt lat="47.24076" lon="6.19617">
        <ele>436.152</ele>
        <time>2016-09-25T11:09:43.290Z</time>
      </trkpt>
      <trkpt lat="47.24086" lon="6.19608">
        <ele>435.739</ele>
        <time>2016-09-25T11:09:45.156Z</time>
      </trkpt>
      <trkpt lat="47.24101" lon="6.19593">
        <ele>435.087</ele>
        <time>2016-09-25T11:09:47.717Z</time>
      </trkpt>
      <trkpt lat="47.24109" lon="6.19584">
        <ele>434.614</ele>
        <time>2016-09-25T11:09:49.262Z</time>
      </trkpt>
      <trkpt lat="47.24124" lon="6.19569">
        <ele>434.33</ele>
        <time>2016-09-25T11:09:51.916Z</time>
      </trkpt>
      <trkpt lat="47.24139" lon="6.19556">
        <ele>433.982</ele>
        <time>2016-09-25T11:09:54.750Z</time>
      </trkpt>
      <trkpt lat="47.24152" lon="6.19543">
        <ele>433.528</ele>
        <time>2016-09-25T11:09:57.357Z</time>
      </trkpt>
      <trkpt lat="47.24166" lon="6.19526">
        <ele>433.046</ele>
        <time>2016-09-25T11:10:00.402Z</time>
      </trkpt>
      <trkpt lat="47.24172" lon="6.19508">
        <ele>432.587</ele>
        <time>2016-09-25T11:10:02.794Z</time>
      </trkpt>
      <trkpt lat="47.24179" lon="6.19493">
        <ele>432.281</ele>
        <time>2016-09-25T11:10:05.000Z</time>
      </trkpt>
      <trkpt lat="47.24186" lon="6.19473">
        <ele>432.342</ele>
        <time>2016-09-25T11:10:08.163Z</time>
      </trkpt>
      <trkpt lat="47.2419" lon="6.19451">
        <ele>433.026</ele>
        <time>2016-09-25T11:10:12.176Z</time>
      </trkpt>
      <trkpt lat="47.24193" lon="6.19436">
        <ele>434.218</ele>
        <time>2016-09-25T11:10:15.434Z</time>
      </trkpt>
      <trkpt lat="47.24195" lon="6.19414">
        <ele>435.3</ele>
        <time>2016-09-25T11:10:20.287Z</time>
      </trkpt>
      <trkpt lat="47.24197" lon="6.19398">
        <ele>435.808</ele>
        <time>2016-09-25T11:10:23.879Z</time>
      </trkpt>
      <trkpt lat="47.24199" lon="6.19379">
        <ele>435.721</ele>
        <time>2016-09-25T11:10:28.544Z</time>
      </trkpt>
      <trkpt lat="47.24202" lon="6.19365">
        <ele>435.302</ele>
        <time>2016-09-25T11:10:32.096Z</time>
      </trkpt>
      <trkpt lat="47.24206" lon="6.19352">
        <ele>435.043</ele>
        <time>2016-09-25T11:10:35.629Z</time>
      </trkpt>
      <trkpt lat="47.24212" lon="6.19337">
        <ele>435.286</ele>
        <time>2016-09-25T11:10:39.944Z</time>
      </trkpt>
      <trkpt lat="47.24216" lon="6.19323">
        <ele>435.855</ele>
        <time>2016-09-25T11:10:43.925Z</time>
      </trkpt>
      <trkpt lat="47.24221" lon="6.1931">
        <ele>436.455</ele>
        <time>2016-09-25T11:10:47.779Z</time>
      </trkpt>
      <trkpt lat="47.24225" lon="6.19297">
        <ele>437.154</ele>
        <time>2016-09-25T11:10:51.396Z</time>
      </trkpt>
      <trkpt lat="47.24232" lon="6.19285">
        <ele>437.965</ele>
        <time>2016-09-25T11:10:55.501Z</time>
      </trkpt>
      <trkpt lat="47.24236" lon="6.19271">
        <ele>438.397</ele>
        <time>2016-09-25T11:10:59.453Z</time>
      </trkpt>
      <trkpt lat="47.2424" lon="6.19257">
        <ele>438.161</ele>
        <time>2016-09-25T11:11:03.470Z</time>
      </trkpt>
      <trkpt lat="47.24243" lon="6.19243">
        <ele>437.664</ele>
        <time>2016-09-25T11:11:07.380Z</time>
      </trkpt>
      <trkpt lat="47.24247" lon="6.19229">
        <ele>437.566</ele>
        <time>2016-09-25T11:11:11.370Z</time>
      </trkpt>
      <trkpt lat="47.24249" lon="6.19214">
        <ele>438.343</ele>
        <time>2016-09-25T11:11:15.406Z</time>
      </trkpt>
      <trkpt lat="47.24251" lon="6.19199">
        <ele>440.277</ele>
        <time>2016-09-25T11:11:19.193Z</time>
      </trkpt>
      <trkpt lat="47.24251" lon="6.19185">
        <ele>442.82</ele>
        <time>2016-09-25T11:11:22.865Z</time>
      </trkpt>
      <trkpt lat="47.2425" lon="6.19171">
        <ele>444.535</ele>
        <time>2016-09-25T11:11:26.751Z</time>
      </trkpt>
      <trkpt lat="47.2425" lon="6.19155">
        <ele>444.742</ele>
        <time>2016-09-25T11:11:30.872Z</time>
      </trkpt>
      <trkpt lat="47.24251" lon="6.1914">
        <ele>444.272</ele>
        <time>2016-09-25T11:11:35.074Z</time>
      </trkpt>
      <trkpt lat="47.24252" lon="6.19124">
        <ele>444.061</ele>
        <time>2016-09-25T11:11:39.190Z</time>
      </trkpt>
      <trkpt lat="47.24254" lon="6.19111">
        <ele>444.382</ele>
        <time>2016-09-25T11:11:42.961Z</time>
      </trkpt>
      <trkpt lat="47.24254" lon="6.19095">
        <ele>444.936</ele>
        <time>2016-09-25T11:11:47.048Z</time>
      </trkpt>
      <trkpt lat="47.24253" lon="6.19081">
        <ele>445.28</ele>
        <time>2016-09-25T11:11:50.921Z</time>
      </trkpt>
      <trkpt lat="47.2425" lon="6.19065">
        <ele>445.331</ele>
        <time>2016-09-25T11:11:55.246Z</time>
      </trkpt>
      <trkpt lat="47.24249" lon="6.1905">
        <ele>445.637</ele>
        <time>2016-09-25T11:11:59.210Z</time>
      </trkpt>
      <trkpt lat="47.2425" lon="6.19035">
        <ele>446.762</ele>
        <time>2016-09-25T11:12:03.229Z</time>
      </trkpt>
      <trkpt lat="47.24252" lon="6.19021">
        <ele>448.312</ele>
        <time>2016-09-25T11:12:06.943Z</time>
      </trkpt>
      <trkpt lat="47.24254" lon="6.19007">
        <ele>449.358</ele>
        <time>2016-09-25T11:12:10.681Z</time>
      </trkpt>
      <trkpt lat="47.24256" lon="6.18992">
        <ele>449.646</ele>
        <time>2016-09-25T11:12:14.911Z</time>
      </trkpt>
      <trkpt lat="47.24256" lon="6.18978">
        <ele>449.707</ele>
        <time>2016-09-25T11:12:18.611Z</time>
      </trkpt>
      <trkpt lat="47.24254" lon="6.18965">
        <ele>450.043</ele>
        <time>2016-09-25T11:12:22.332Z</time>
      </trkpt>
      <trkpt lat="47.24254" lon="6.18951">
        <ele>450.552</ele>
        <time>2016-09-25T11:12:26.179Z</time>
      </trkpt>
      <trkpt lat="47.24256" lon="6.18936">
        <ele>451.025</ele>
        <time>2016-09-25T11:12:30.772Z</time>
      </trkpt>
      <trkpt lat="47.24257" lon="6.18922">
        <ele>451.71</ele>
        <time>2016-09-25T11:12:34.848Z</time>
      </trkpt>
      <trkpt lat="47.24253" lon="6.18909">
        <ele>452.727</ele>
        <time>2016-09-25T11:12:38.992Z</time>
      </trkpt>
      <trkpt lat="47.2425" lon="6.18895">
        <ele>453.774</ele>
        <time>2016-09-25T11:12:43.072Z</time>
      </trkpt>
      <trkpt lat="47.24244" lon="6.18881">
        <ele>455.22</ele>
        <time>2016-09-25T11:12:47.245Z</time>
      </trkpt>
      <trkpt lat="47.24238" lon="6.18869">
        <ele>457.376</ele>
        <time>2016-09-25T11:12:50.814Z</time>
      </trkpt>
      <trkpt lat="47.24228" lon="6.18858">
        <ele>458.906</ele>
        <time>2016-09-25T11:12:54.584Z</time>
      </trkpt>
      <trkpt lat="47.2422" lon="6.18851">
        <ele>458.77</ele>
        <time>2016-09-25T11:12:57.308Z</time>
      </trkpt>
      <trkpt lat="47.24211" lon="6.18844">
        <ele>457.821</ele>
        <time>2016-09-25T11:13:00.392Z</time>
      </trkpt>
      <trkpt lat="47.24202" lon="6.18836">
        <ele>456.727</ele>
        <time>2016-09-25T11:13:03.552Z</time>
      </trkpt>
      <trkpt lat="47.24194" lon="6.1883">
        <ele>455.519</ele>
        <time>2016-09-25T11:13:06.426Z</time>
      </trkpt>
      <trkpt lat="47.24185" lon="6.1882">
        <ele>454.68</ele>
        <time>2016-09-25T11:13:09.940Z</time>
      </trkpt>
      <trkpt lat="47.24179" lon="6.18809">
        <ele>454.678</ele>
        <time>2016-09-25T11:13:13.095Z</time>
      </trkpt>
      <trkpt lat="47.24171" lon="6.18802">
        <ele>455.472</ele>
        <time>2016-09-25T11:13:16.137Z</time>
      </trkpt>
      <trkpt lat="47.24161" lon="6.18793">
        <ele>456.636</ele>
        <time>2016-09-25T11:13:19.292Z</time>
      </trkpt>
      <trkpt lat="47.24147" lon="6.18788">
        <ele>457.194</ele>
        <time>2016-09-25T11:13:23.301Z</time>
      </trkpt>
      <trkpt lat="47.2414" lon="6.18778">
        <ele>456.636</ele>
        <time>2016-09-25T11:13:26.408Z</time>
      </trkpt>
      <trkpt lat="47.24135" lon="6.18766">
        <ele>455.542</ele>
        <time>2016-09-25T11:13:29.486Z</time>
      </trkpt>
      <trkpt lat="47.24126" lon="6.18755">
        <ele>454.625</ele>
        <time>2016-09-25T11:13:33.175Z</time>
      </trkpt>
      <trkpt lat="47.24119" lon="6.18745">
        <ele>454.31</ele>
        <time>2016-09-25T11:13:36.234Z</time>
      </trkpt>
      <trkpt lat="47.24112" lon="6.18734">
        <ele>454.67</ele>
        <time>2016-09-25T11:13:39.097Z</time>
      </trkpt>
      <trkpt lat="47.24105" lon="6.18721">
        <ele>455.217</ele>
        <time>2016-09-25T11:13:42.248Z</time>
      </trkpt>
      <trkpt lat="47.24097" lon="6.1871">
        <ele>455.823</ele>
        <time>2016-09-25T11:13:45.187Z</time>
      </trkpt>
      <trkpt lat="47.24089" lon="6.18699">
        <ele>456.666</ele>
        <time>2016-09-25T11:13:48.086Z</time>
      </trkpt>
      <trkpt lat="47.24081" lon="6.18688">
        <ele>457.354</ele>
        <time>2016-09-25T11:13:51.183Z</time>
      </trkpt>
      <trkpt lat="47.24074" lon="6.18677">
        <ele>457.025</ele>
        <time>2016-09-25T11:13:54.057Z</time>
      </trkpt>
      <trkpt lat="47.24066" lon="6.18665">
        <ele>455.616</ele>
        <time>2016-09-25T11:13:56.875Z</time>
      </trkpt>
      <trkpt lat="47.24056" lon="6.18654">
        <ele>454.171</ele>
        <time>2016-09-25T11:13:59.718Z</time>
      </trkpt>
      <trkpt lat="47.24042" lon="6.18639">
        <ele>453.497</ele>
        <time>2016-09-25T11:14:03.308Z</time>
      </trkpt>
      <trkpt lat="47.24034" lon="6.18628">
        <ele>453.279</ele>
        <time>2016-09-25T11:14:05.362Z</time>
      </trkpt>
      <trkpt lat="47.24019" lon="6.18614">
        <ele>452.811</ele>
        <time>2016-09-25T11:14:09.114Z</time>
      </trkpt>
      <trkpt lat="47.24013" lon="6.18603">
        <ele>451.826</ele>
        <time>2016-09-25T11:14:11.485Z</time>
      </trkpt>
      <trkpt lat="47.24004" lon="6.18595">
        <ele>450.667</ele>
        <time>2016-09-25T11:14:14.006Z</time>
      </trkpt>
      <trkpt lat="47.23995" lon="6.18585">
        <ele>449.879</ele>
        <time>2016-09-25T11:14:16.645Z</time>
      </trkpt>
      <trkpt lat="47.23986" lon="6.18574">
        <ele>449.712</ele>
        <time>2016-09-25T11:14:19.574Z</time>
      </trkpt>
      <trkpt lat="47.23976" lon="6.1856">
        <ele>449.917</ele>
        <time>2016-09-25T11:14:22.311Z</time>
      </trkpt>
      <trkpt lat="47.23968" lon="6.18544">
        <ele>449.946</ele>
        <time>2016-09-25T11:14:25.204Z</time>
      </trkpt>
      <trkpt lat="47.23958" lon="6.18533">
        <ele>449.611</ele>
        <time>2016-09-25T11:14:28.139Z</time>
      </trkpt>
      <trkpt lat="47.23954" lon="6.18519">
        <ele>449.192</ele>
        <time>2016-09-25T11:14:31.062Z</time>
      </trkpt>
      <trkpt lat="47.23946" lon="6.18511">
        <ele>448.975</ele>
        <time>2016-09-25T11:14:33.782Z</time>
      </trkpt>
      <trkpt lat="47.23935" lon="6.18512">
        <ele>448.633</ele>
        <time>2016-09-25T11:14:37.000Z</time>
      </trkpt>
      <trkpt lat="47.23935" lon="6.18512">
        <ele>447.88</ele>
        <time>2016-09-25T11:14:44.000Z</time>
      </trkpt>
      <trkpt lat="47.23935" lon="6.18512">
        <ele>447.184</ele>
        <time>2016-09-25T11:15:11.269Z</time>
      </trkpt>
      <trkpt lat="47.23918" lon="6.18533">
        <ele>447.009</ele>
        <time>2016-09-25T11:15:25.731Z</time>
      </trkpt>
      <trkpt lat="47.23911" lon="6.18544">
        <ele>447.031</ele>
        <time>2016-09-25T11:15:28.913Z</time>
      </trkpt>
      <trkpt lat="47.23903" lon="6.18556">
        <ele>446.6</ele>
        <time>2016-09-25T11:15:31.861Z</time>
      </trkpt>
      <trkpt lat="47.23893" lon="6.1857">
        <ele>445.611</ele>
        <time>2016-09-25T11:15:34.866Z</time>
      </trkpt>
      <trkpt lat="47.23884" lon="6.18582">
        <ele>444.662</ele>
        <time>2016-09-25T11:15:37.640Z</time>
      </trkpt>
      <trkpt lat="47.23875" lon="6.18597">
        <ele>444.203</ele>
        <time>2016-09-25T11:15:41.498Z</time>
      </trkpt>
      <trkpt lat="47.23867" lon="6.18606">
        <ele>444.207</ele>
        <time>2016-09-25T11:15:44.748Z</time>
      </trkpt>
      <trkpt lat="47.23857" lon="6.18613">
        <ele>444.485</ele>
        <time>2016-09-25T11:15:48.211Z</time>
      </trkpt>
      <trkpt lat="47.23849" lon="6.18625">
        <ele>444.863</ele>
        <time>2016-09-25T11:15:51.353Z</time>
      </trkpt>
      <trkpt lat="47.23843" lon="6.18639">
        <ele>445.288</ele>
        <time>2016-09-25T11:15:53.786Z</time>
      </trkpt>
      <trkpt lat="47.23835" lon="6.18653">
        <ele>445.685</ele>
        <time>2016-09-25T11:15:56.126Z</time>
      </trkpt>
      <trkpt lat="47.23827" lon="6.18668">
        <ele>445.85</ele>
        <time>2016-09-25T11:15:58.808Z</time>
      </trkpt>
      <trkpt lat="47.23821" lon="6.1868">
        <ele>445.581</ele>
        <time>2016-09-25T11:16:01.005Z</time>
      </trkpt>
      <trkpt lat="47.23812" lon="6.18691">
        <ele>444.702</ele>
        <time>2016-09-25T11:16:03.742Z</time>
      </trkpt>
      <trkpt lat="47.23801" lon="6.18685">
        <ele>443.054</ele>
        <time>2016-09-25T11:16:06.300Z</time>
      </trkpt>
      <trkpt lat="47.23797" lon="6.18672">
        <ele>440.995</ele>
        <time>2016-09-25T11:16:08.327Z</time>
      </trkpt>
      <trkpt lat="47.23794" lon="6.18654">
        <ele>439.419</ele>
        <time>2016-09-25T11:16:11.078Z</time>
      </trkpt>
      <trkpt lat="47.2379" lon="6.18638">
        <ele>438.768</ele>
        <time>2016-09-25T11:16:13.523Z</time>
      </trkpt>
      <trkpt lat="47.23777" lon="6.18623">
        <ele>438.819</ele>
        <time>2016-09-25T11:16:17.227Z</time>
      </trkpt>
      <trkpt lat="47.23771" lon="6.18611">
        <ele>439.257</ele>
        <time>2016-09-25T11:16:19.950Z</time>
      </trkpt>
      <trkpt lat="47.23766" lon="6.186">
        <ele>439.844</ele>
        <time>2016-09-25T11:16:24.000Z</time>
      </trkpt>
      <trkpt lat="47.23766" lon="6.186">
        <ele>440.391</ele>
        <time>2016-09-25T11:16:40.000Z</time>
      </trkpt>
    </trkseg>
  </trk>
</gpx>